
Distance (Route):
Temperature : 19.2°C
Humidity : 48.8%
Pressure : 0hPa| Receiver | Frames | First received | Last received |
|---|---|---|---|
| OE5MMP-10 | 249 | 2026-08-30 23:59:03 | 2026-08-31 00:52:11 |
| OM5KV | 237 | 2026-08-30 23:26:19 | 2026-08-31 01:10:02 |
| DO3MHA-11 | 214 | 2026-08-30 23:48:50 | 2026-08-31 00:56:15 |
| OE5DRO-10 | 205 | 2026-08-30 23:35:06 | 2026-08-31 01:00:39 |
| POL1PZ | 164 | 2026-08-30 23:37:20 | 2026-08-31 01:06:12 |
| OE3OSB-13 | 157 | 2026-08-30 23:24:36 | 2026-08-31 01:10:15 |
| PG1ADW-2 | 152 | 2026-08-30 23:39:21 | 2026-08-31 00:59:58 |
| OE5DXL-15 | 131 | 2026-08-30 23:38:03 | 2026-08-31 01:00:17 |
| OE3JTB-15 | 117 | 2026-08-30 23:20:18 | 2026-08-31 01:12:32 |
| SP3WXH-11 | 55 | 2026-08-31 00:19:46 | 2026-08-31 00:58:02 |
| HA6NAB-11 | 54 | 2026-08-30 23:50:45 | 2026-08-31 01:00:54 |
| S52SK | 48 | 2026-08-30 23:36:55 | 2026-08-31 01:02:34 |
| NBG1-10 | 32 | 2026-08-31 00:03:33 | 2026-08-31 00:52:10 |
| EDDB2-11 | 28 | 2026-08-31 00:36:54 | 2026-08-31 00:54:29 |
| GYPAP8-17 | 15 | 2026-08-30 23:53:53 | 2026-08-31 00:49:43 |
| SP3BTT-10 | 14 | 2026-08-31 00:25:24 | 2026-08-31 00:47:08 |
| DB0DAN | 8 | 2026-08-31 00:12:25 | 2026-08-31 00:47:55 |
| DB0UT-7 | 3 | 2026-08-31 00:38:24 | 2026-08-31 00:43:30 |
| SQ9EZE-14 | 1 | 2026-08-31 00:46:30 | 2026-08-31 00:46:30 |
| Receiver | Date | Latitude | Longitude | Direction | Speed | Altitude | Climb | Temperature | Humidity | Pressure | Voltage | Killtimer | Uptime | BKT | XDATA |
|---|---|---|---|---|---|---|---|---|---|---|---|---|---|---|---|
| OE3JTB-15 | 2026-08-31 01:12:32 | 49.51936 | 18.01937 | 68° | 9km/h | 1136m | -11.3m/s | 19.2°C | 48.8% | 0hPa | 2.7V | 00:00:00 | 02:38:25 | 00:00:00 | |
| OE3JTB-15 | 2026-08-31 01:12:30 | 49.51934 | 18.01930 | 67° | 11km/h | 1158m | -10.7m/s | 19.1°C | 48.6% | 0hPa | 2.7V | 00:00:00 | 00:00:00 | 00:00:00 | |
| OE3JTB-15 | 2026-08-31 01:12:28 | 49.51932 | 18.01922 | 77° | 13km/h | 1178m | -10.3m/s | 18.9°C | 47.5% | 0hPa | 2.6V | 00:00:00 | 00:00:00 | 00:00:00 | |
| OE3JTB-15 | 2026-08-31 01:12:26 | 49.51931 | 18.01912 | 77° | 13km/h | 1199m | -11.4m/s | 18.7°C | 47.9% | 0hPa | 2.6V | 00:00:00 | 02:38:19 | 00:00:00 | |
| OE3JTB-15 | 2026-08-31 01:12:24 | 49.51929 | 18.01903 | 77° | 15km/h | 1222m | -11.9m/s | 18.5°C | 48.0% | 0hPa | 2.6V | 08:01:00 | 00:00:00 | 00:00:00 | |
| OE3JTB-15 | 2026-08-31 01:12:22 | 49.51927 | 18.01892 | 66° | 15km/h | 1245m | -11.8m/s | 18.3°C | 48.7% | 0hPa | 2.6V | 00:00:00 | 00:00:00 | 00:00:00 | |
| OE3JTB-15 | 2026-08-31 01:12:19 | 49.51922 | 18.01873 | 73° | 18km/h | 1281m | -11.6m/s | 18.0°C | 50.3% | 0hPa | 2.6V | 00:00:00 | 02:38:12 | 00:00:00 | |
| OE3JTB-15 | 2026-08-31 01:12:17 | 49.51919 | 18.01860 | 71° | 18km/h | 1305m | -11.2m/s | 17.8°C | 51.8% | 0hPa | 2.6V | 00:00:00 | 00:00:00 | 00:00:00 | |
| OE3JTB-15 | 2026-08-31 01:12:15 | 49.51916 | 18.01847 | 68° | 20km/h | 1327m | -11.4m/s | 17.6°C | 52.6% | 0hPa | 2.7V | 00:00:00 | 00:00:00 | 00:00:00 | |
| OE3JTB-15 | 2026-08-31 01:12:13 | 49.51912 | 18.01833 | 67° | 20km/h | 1351m | -12.1m/s | 17.4°C | 53.4% | 0hPa | 2.7V | 00:00:00 | 02:38:06 | 00:00:00 | |
| OE3JTB-15 | 2026-08-31 01:12:11 | 49.51908 | 18.01818 | 69° | 22km/h | 1375m | -11.9m/s | 17.2°C | 53.7% | 0hPa | 2.7V | 00:00:00 | 00:00:00 | 00:00:00 | |
| OE3JTB-15 | 2026-08-31 01:12:09 | 49.51904 | 18.01803 | 69° | 24km/h | 1398m | -11.7m/s | 17.0°C | 53.4% | 0hPa | 2.7V | 00:00:00 | 00:00:00 | 00:00:00 | |
| OE3JTB-15 | 2026-08-31 01:12:07 | 49.51899 | 18.01786 | 70° | 24km/h | 1420m | -10.7m/s | 16.9°C | 52.5% | 0hPa | 2.7V | 00:00:00 | 02:38:00 | 00:00:00 | |
| OE3JTB-15 | 2026-08-31 01:12:05 | 49.51895 | 18.01768 | 68° | 26km/h | 1443m | -11.6m/s | 16.7°C | 52.5% | 0hPa | 2.7V | 08:02:00 | 00:00:00 | 00:00:00 | |
| OE3JTB-15 | 2026-08-31 01:12:03 | 49.51890 | 18.01750 | 66° | 27km/h | 1465m | -10.9m/s | 16.5°C | 52.9% | 0hPa | 2.7V | 00:00:00 | 00:00:00 | 00:00:00 | |
| OE3JTB-15 | 2026-08-31 01:12:01 | 49.51884 | 18.01730 | 69° | 27km/h | 1487m | -11.4m/s | 16.3°C | 53.3% | 0hPa | 2.7V | 00:00:00 | 02:37:54 | 00:00:00 | |
| OE3JTB-15 | 2026-08-31 01:11:59 | 49.51879 | 18.01710 | 64° | 29km/h | 1511m | -11.8m/s | 16.2°C | 53.7% | 0hPa | 2.7V | 00:00:00 | 00:00:00 | 00:00:00 | |
| OE3JTB-15 | 2026-08-31 01:11:57 | 49.51873 | 18.01689 | 68° | 29km/h | 1534m | -12.2m/s | 16.0°C | 55.4% | 0hPa | 2.7V | 00:00:00 | 00:00:00 | 00:00:00 | |
| OE3JTB-15 | 2026-08-31 01:11:55 | 49.51866 | 18.01669 | 60° | 29km/h | 1559m | -11.9m/s | 15.8°C | 57.4% | 0hPa | 2.7V | 00:00:00 | 02:37:48 | 00:00:00 | |
| OE3JTB-15 | 2026-08-31 01:11:53 | 49.51859 | 18.01649 | 61° | 31km/h | 1582m | -11.6m/s | 15.6°C | 59.5% | 0hPa | 2.7V | 00:00:00 | 00:00:00 | 00:00:00 | |
| OE3JTB-15 | 2026-08-31 01:11:51 | 49.51851 | 18.01627 | 64° | 31km/h | 1607m | -11.7m/s | 15.3°C | 60.7% | 0hPa | 2.7V | 00:00:00 | 00:00:00 | 00:00:00 | |
| OE3JTB-15 | 2026-08-31 01:11:49 | 49.51843 | 18.01607 | 57° | 31km/h | 1630m | -12.5m/s | 15.1°C | 62.0% | 0hPa | 2.7V | 00:00:00 | 02:37:42 | 00:00:00 | |
| OE3JTB-15 | 2026-08-31 01:11:47 | 49.51835 | 18.01585 | 61° | 31km/h | 1654m | -11.9m/s | 14.9°C | 63.1% | 0hPa | 2.7V | 08:02:00 | 00:00:00 | 00:00:00 | |
| OE3JTB-15 | 2026-08-31 01:11:45 | 49.51827 | 18.01564 | 62° | 33km/h | 1678m | -12.3m/s | 14.7°C | 64.0% | 0hPa | 2.5V | 00:00:00 | 00:00:00 | 00:00:00 | |
| OE3JTB-15 | 2026-08-31 01:11:43 | 49.51818 | 18.01543 | 60° | 35km/h | 1701m | -11.7m/s | 14.5°C | 65.8% | 0hPa | 2.5V | 00:00:00 | 02:37:36 | 00:00:00 | |
| OE3JTB-15 | 2026-08-31 01:11:41 | 49.51810 | 18.01521 | 55° | 33km/h | 1724m | -12.1m/s | 14.3°C | 66.6% | 0hPa | 2.5V | 00:00:00 | 00:00:00 | 00:00:00 | |
| OE3JTB-15 | 2026-08-31 01:11:39 | 49.51800 | 18.01499 | 60° | 37km/h | 1749m | -11.6m/s | 14.1°C | 66.5% | 0hPa | 2.5V | 00:00:00 | 00:00:00 | 00:00:00 | |
| OE3JTB-15 | 2026-08-31 01:11:37 | 49.51792 | 18.01475 | 61° | 37km/h | 1772m | -12.6m/s | 14.0°C | 66.1% | 0hPa | 2.5V | 00:00:00 | 02:37:30 | 00:00:00 | |
| OE3JTB-15 | 2026-08-31 01:11:35 | 49.51783 | 18.01451 | 60° | 35km/h | 1797m | -12.2m/s | 13.8°C | 66.2% | 0hPa | 2.5V | 00:00:00 | 00:00:00 | 00:00:00 | |
| OE3JTB-15 | 2026-08-31 01:11:33 | 49.51773 | 18.01427 | 62° | 37km/h | 1822m | -10.5m/s | 13.6°C | 66.3% | 0hPa | 2.6V | 00:00:00 | 00:00:00 | 00:00:00 | |
| OE3JTB-15 | 2026-08-31 01:11:31 | 49.51764 | 18.01403 | 55° | 37km/h | 1844m | -11.3m/s | 13.4°C | 66.9% | 0hPa | 2.6V | 00:00:00 | 02:37:24 | 00:00:00 | |
| OE3JTB-15 | 2026-08-31 01:11:29 | 49.51754 | 18.01379 | 60° | 37km/h | 1868m | -11.9m/s | 13.2°C | 67.6% | 0hPa | 2.6V | 08:02:00 | 00:00:00 | 00:00:00 | |
| OE3JTB-15 | 2026-08-31 01:11:27 | 49.51744 | 18.01355 | 54° | 37km/h | 1891m | -11.9m/s | 12.9°C | 68.7% | 0hPa | 2.6V | 00:00:00 | 00:00:00 | 00:00:00 | |
| OE3JTB-15 | 2026-08-31 01:11:25 | 49.51734 | 18.01331 | 60° | 37km/h | 1914m | -12.3m/s | 12.7°C | 67.3% | 0hPa | 2.6V | 00:00:00 | 02:37:18 | 00:00:00 | |
| OE3JTB-15 | 2026-08-31 01:11:23 | 49.51724 | 18.01307 | 57° | 38km/h | 1938m | -11.1m/s | 12.6°C | 66.6% | 0hPa | 2.6V | 00:00:00 | 00:00:00 | 00:00:00 | |
| OE3JTB-15 | 2026-08-31 01:11:18 | 49.51699 | 18.01245 | 59° | 37km/h | 1996m | -11.2m/s | 12.0°C | 68.9% | 0hPa | 2.6V | 00:00:00 | 00:00:00 | 00:00:00 | |
| OE3JTB-15 | 2026-08-31 01:11:09 | 49.51654 | 18.01135 | 61° | 37km/h | 2092m | -10.4m/s | 11.1°C | 72.0% | 0hPa | 2.6V | 00:00:00 | 02:37:02 | 00:00:00 | |
| OE3JTB-15 | 2026-08-31 01:10:51 | 49.51588 | 18.00904 | 77° | 35km/h | 2310m | -12.9m/s | 9.6°C | 63.7% | 0hPa | 2.6V | 00:00:00 | 00:00:00 | 00:00:00 | |
| OE3JTB-15 | 2026-08-31 01:10:42 | 49.51574 | 18.00781 | 82° | 38km/h | 2427m | -13.5m/s | 9.5°C | 49.9% | 0hPa | 2.6V | 00:00:00 | 02:36:35 | 00:00:00 | |
| OE3JTB-15 | 2026-08-31 01:10:24 | 49.51550 | 18.00508 | 81° | 42km/h | 2662m | -14.1m/s | 7.1°C | 70.8% | 0hPa | 2.6V | 08:03:00 | 00:00:00 | 00:00:00 | |
| OE3OSB-13 | 2026-08-31 01:10:15 | 49.51531 | 18.00344 | 78° | 46km/h | 2795m | -13.9m/s | 5.8°C | 80.9% | -1.0hPa | 2.6V | 00:00:00 | 00:00:00 | 00:00:00 | |
| OE3JTB-15 | 2026-08-31 01:10:05 | 49.51514 | 18.00195 | 82° | 44km/h | 2914m | -13.3m/s | 4.8°C | 79.1% | 0hPa | 2.6V | 00:00:00 | 00:00:00 | 00:00:00 | |
| OM5KV | 2026-08-31 01:10:02 | 49.51510 | 18.00146 | 85° | 42km/h | 2953m | -13.3m/s | 4.4°C | 80.5% | 0hPa | 2.6V | 08:04:00 | 00:00:00 | 00:00:00 | |
| OM5KV | 2026-08-31 01:09:56 | 49.51505 | 18.00064 | 88° | 44km/h | 3015m | -13.3m/s | 4.0°C | 80.0% | 0hPa | 2.6V | 08:04:00 | 00:00:00 | 00:00:00 | |
| OM5KV | 2026-08-31 01:09:50 | 49.51504 | 17.99965 | 89° | 44km/h | 3090m | -12.5m/s | 3.4°C | 83.7% | 0hPa | 2.6V | 08:04:00 | 00:00:00 | 00:00:00 | |
| OE3JTB-15 | 2026-08-31 01:09:46 | 49.51506 | 17.99875 | 92° | 51km/h | 3153m | -13.2m/s | 2.8°C | 88.7% | 0hPa | 2.6V | 00:00:00 | 02:35:39 | 00:00:00 | |
| OM5KV | 2026-08-31 01:09:45 | 49.51506 | 17.99875 | 93° | 44km/h | 3153m | -13.2m/s | 2.8°C | 88.2% | 0hPa | 2.6V | 08:04:00 | 00:00:00 | 00:00:00 | |
| OM5KV | 2026-08-31 01:09:44 | 49.51506 | 17.99858 | 91° | 46km/h | 3165m | -12.7m/s | 2.7°C | 88.9% | 0hPa | 2.6V | 08:04:00 | 00:00:00 | 00:00:00 | |
| OM5KV | 2026-08-31 01:09:38 | 49.51513 | 17.99746 | 96° | 51km/h | 3240m | -13.5m/s | 2.6°C | 85.9% | 0hPa | 2.6V | 08:05:00 | 00:00:00 | 00:00:00 | |
| OM5KV | 2026-08-31 01:09:34 | 49.51517 | 17.99665 | 97° | 55km/h | 3292m | -12.8m/s | 2.2°C | 87.5% | 0hPa | 2.6V | 08:05:00 | 00:00:00 | 00:00:00 | |
| OM5KV | 2026-08-31 01:09:32 | 49.51521 | 17.99624 | 98° | 55km/h | 3317m | -13.3m/s | 2.0°C | 88.0% | 0hPa | 2.6V | 08:05:00 | 00:00:00 | 00:00:00 | |
| OM5KV | 2026-08-31 01:09:28 | 49.51530 | 17.99542 | 99° | 57km/h | 3367m | -12.5m/s | 1.7°C | 87.6% | 0hPa | 2.6V | 08:05:00 | 00:00:00 | 00:00:00 | |
| OE3JTB-15 | 2026-08-31 01:09:27 | 49.51535 | 17.99499 | 101° | 57km/h | 3391m | -12.9m/s | 1.4°C | 87.8% | 0hPa | 2.6V | 00:00:00 | 00:00:00 | 00:00:00 | |
| OM5KV | 2026-08-31 01:09:22 | 49.51546 | 17.99410 | 103° | 58km/h | 3443m | -13.1m/s | 1.0°C | 89.6% | 0hPa | 2.6V | 08:05:00 | 00:00:00 | 00:00:00 | |
| OM5KV | 2026-08-31 01:09:21 | 49.51549 | 17.99387 | 104° | 58km/h | 3455m | -13.1m/s | 0.9°C | 90.4% | 0hPa | 2.6V | 08:05:00 | 00:00:00 | 00:00:00 | |
| OM5KV | 2026-08-31 01:09:17 | 49.51561 | 17.99298 | 103° | 55km/h | 3506m | -13.4m/s | 0.5°C | 87.9% | 0hPa | 2.6V | 08:05:00 | 00:00:00 | 00:00:00 | |
| OM5KV | 2026-08-31 01:09:14 | 49.51569 | 17.99234 | 101° | 55km/h | 3543m | -12.6m/s | 0.1°C | 90.2% | 0hPa | 2.6V | 08:05:00 | 00:00:00 | 00:00:00 | |
| OM5KV | 2026-08-31 01:09:13 | 49.51575 | 17.99191 | 101° | 57km/h | 3566m | -12.1m/s | -0.1°C | 90.6% | 0hPa | 2.6V | 08:05:00 | 00:00:00 | 00:00:00 | |
| OE3JTB-15 | 2026-08-31 01:09:08 | 49.51589 | 17.99081 | 100° | 53km/h | 3630m | -13.5m/s | -0.6°C | 90.9% | 0hPa | 2.6V | 00:00:00 | 00:00:00 | 00:00:00 | |
| OM5KV | 2026-08-31 01:09:03 | 49.51599 | 17.98994 | 101° | 55km/h | 3682m | -12.6m/s | -1.2°C | 90.5% | 0hPa | 2.6V | 08:05:00 | 00:00:00 | 00:00:00 | |
| OM5KV | 2026-08-31 01:09:01 | 49.51605 | 17.98951 | 103° | 55km/h | 3707m | -13.2m/s | -1.4°C | 90.9% | 0hPa | 2.6V | 08:05:00 | 00:00:00 | 00:00:00 | |
| OM5KV | 2026-08-31 01:08:55 | 49.51621 | 17.98825 | 101° | 57km/h | 3783m | -12.7m/s | -1.1°C | 53.9% | 0hPa | 2.6V | 08:05:00 | 00:00:00 | 00:00:00 | |
| OM5KV | 2026-08-31 01:08:51 | 49.51633 | 17.98736 | 101° | 58km/h | 3834m | -12.2m/s | -0.8°C | 34.9% | 0hPa | 2.6V | 08:05:00 | 00:00:00 | 00:00:00 | |
| OM5KV | 2026-08-31 01:08:47 | 49.51646 | 17.98630 | 100° | 53km/h | 3897m | -12.4m/s | 0.7°C | 11.3% | 0hPa | 2.6V | 08:06:00 | 00:00:00 | 00:00:00 | |
| OE3OSB-13 | 2026-08-31 01:08:42 | 49.51654 | 17.98540 | 93° | 42km/h | 3961m | -13.4m/s | 0.9°C | 7.8% | -1.0hPa | 2.6V | 00:00:00 | 00:00:00 | 00:00:00 | |
| OM5KV | 2026-08-31 01:08:41 | 49.51654 | 17.98540 | 95° | 42km/h | 3961m | -13.4m/s | 0.9°C | 7.8% | 0hPa | 2.6V | 08:06:00 | 00:00:00 | 00:00:00 | |
| OE3JTB-15 | 2026-08-31 01:08:39 | 49.51654 | 17.98491 | 91° | 37km/h | 4003m | -14.2m/s | 0.9°C | 7.1% | 0hPa | 2.6V | 00:00:00 | 02:34:32 | 00:00:00 | |
| OM5KV | 2026-08-31 01:08:35 | 49.51655 | 17.98443 | 89° | 40km/h | 4043m | -15.4m/s | 1.0°C | 6.3% | 0hPa | 2.6V | 08:06:00 | 00:00:00 | 00:00:00 | |
| OM5KV | 2026-08-31 01:08:30 | 49.51649 | 17.98369 | 87° | 35km/h | 4115m | -13.7m/s | 0.6°C | 6.0% | 0hPa | 2.6V | 08:06:00 | 00:00:00 | 00:00:00 | |
| OM5KV | 2026-08-31 01:08:28 | 49.51647 | 17.98342 | 82° | 35km/h | 4141m | -14.3m/s | 0.4°C | 6.1% | 0hPa | 2.6V | 08:06:00 | 00:00:00 | 00:00:00 | |
| OM5KV | 2026-08-31 01:08:23 | 49.51640 | 17.98273 | 74° | 35km/h | 4210m | -15.3m/s | 0.1°C | 4.5% | 0hPa | 2.6V | 08:06:00 | 00:00:00 | 00:00:00 | |
| OM5KV | 2026-08-31 01:08:19 | 49.51630 | 17.98221 | 76° | 37km/h | 4265m | -14.1m/s | -0.3°C | 4.7% | 0hPa | 2.6V | 08:06:00 | 00:00:00 | 00:00:00 | |
| OM5KV | 2026-08-31 01:08:17 | 49.51623 | 17.98193 | 73° | 38km/h | 4293m | -14.1m/s | -0.6°C | 5.4% | 0hPa | 2.6V | 08:06:00 | 00:00:00 | 00:00:00 | |
| OM5KV | 2026-08-31 01:08:13 | 49.51612 | 17.98139 | 72° | 35km/h | 4347m | -14.2m/s | -1.0°C | 7.1% | 0hPa | 2.6V | 08:06:00 | 00:00:00 | 00:00:00 | |
| OM5KV | 2026-08-31 01:08:12 | 49.51608 | 17.98126 | 75° | 37km/h | 4362m | -14.2m/s | -1.1°C | 7.1% | 0hPa | 2.6V | 08:06:00 | 00:00:00 | 00:00:00 | |
| OE3OSB-13 | 2026-08-31 01:08:11 | 49.51604 | 17.98099 | 74° | 37km/h | 4388m | -13.4m/s | -1.3°C | 6.9% | -1.0hPa | 2.6V | 00:00:00 | 00:00:00 | 00:00:00 | |
| OE3JTB-15 | 2026-08-31 01:08:10 | 49.51601 | 17.98085 | 74° | 37km/h | 4400m | -13.3m/s | -1.4°C | 7.1% | 0hPa | 2.6V | 00:00:00 | 00:00:00 | 00:00:00 | |
| OM5KV | 2026-08-31 01:08:07 | 49.51596 | 17.98055 | 75° | 40km/h | 4427m | -14.3m/s | -1.7°C | 7.1% | 0hPa | 2.5V | 08:06:00 | 00:00:00 | 00:00:00 | |
| OM5KV | 2026-08-31 01:08:01 | 49.51582 | 17.97973 | 75° | 35km/h | 4508m | -14.5m/s | -2.1°C | 4.6% | 0hPa | 2.5V | 08:06:00 | 00:00:00 | 00:00:00 | |
| OM5KV | 2026-08-31 01:07:56 | 49.51572 | 17.97909 | 81° | 37km/h | 4576m | -13.9m/s | -2.7°C | 6.5% | 0hPa | 2.5V | 08:07:00 | 00:00:00 | 00:00:00 | |
| OM5KV | 2026-08-31 01:07:55 | 49.51569 | 17.97895 | 80° | 38km/h | 4590m | -14.4m/s | -2.8°C | 6.8% | 0hPa | 2.5V | 08:07:00 | 00:00:00 | 00:00:00 | |
| OM5KV | 2026-08-31 01:07:50 | 49.51561 | 17.97824 | 76° | 33km/h | 4653m | -13.4m/s | -3.5°C | 8.8% | 0hPa | 2.5V | 08:07:00 | 00:00:00 | 00:00:00 | |
| OM5KV | 2026-08-31 01:07:49 | 49.51559 | 17.97810 | 77° | 38km/h | 4665m | -13.9m/s | -3.6°C | 9.0% | 0hPa | 2.5V | 08:07:00 | 00:00:00 | 00:00:00 | |
| OM5KV | 2026-08-31 01:07:45 | 49.51549 | 17.97756 | 75° | 38km/h | 4719m | -13.5m/s | -4.1°C | 9.1% | 0hPa | 2.5V | 08:07:00 | 00:00:00 | 00:00:00 | |
| OM5KV | 2026-08-31 01:07:43 | 49.51545 | 17.97729 | 73° | 35km/h | 4745m | -13.3m/s | -4.3°C | 9.1% | 0hPa | 2.5V | 08:07:00 | 00:00:00 | 00:00:00 | |
| OE3JTB-15 | 2026-08-31 01:07:41 | 49.51536 | 17.97689 | 72° | 38km/h | 4787m | -13.7m/s | -4.5°C | 9.9% | 0hPa | 2.5V | 00:00:00 | 00:00:00 | 00:00:00 | |
| OE3OSB-13 | 2026-08-31 01:07:40 | 49.51533 | 17.97675 | 66° | 35km/h | 4801m | -14.6m/s | -4.6°C | 9.5% | -1.0hPa | 2.5V | 00:00:00 | 00:00:00 | 00:00:00 | |
| OM5KV | 2026-08-31 01:07:39 | 49.51533 | 17.97675 | 67° | 37km/h | 4801m | -14.6m/s | -4.6°C | 9.5% | 0hPa | 2.5V | 08:07:00 | 00:00:00 | 00:00:00 | |
| OM5KV | 2026-08-31 01:07:38 | 49.51529 | 17.97662 | 68° | 38km/h | 4815m | -14.5m/s | -4.7°C | 9.2% | 0hPa | 2.5V | 08:07:00 | 00:00:00 | 00:00:00 | |
| OM5KV | 2026-08-31 01:07:33 | 49.51508 | 17.97597 | 61° | 37km/h | 4885m | -13.9m/s | -4.8°C | 7.7% | 0hPa | 2.5V | 08:07:00 | 00:00:00 | 00:00:00 | |
| OM5KV | 2026-08-31 01:07:28 | 49.51485 | 17.97529 | 65° | 40km/h | 4952m | -14.2m/s | -5.4°C | 7.5% | 0hPa | 2.5V | 08:07:00 | 00:00:00 | 00:00:00 | |
| OM5KV | 2026-08-31 01:07:27 | 49.51480 | 17.97515 | 63° | 37km/h | 4966m | -13.1m/s | -5.5°C | 7.6% | 0hPa | 2.5V | 08:07:00 | 00:00:00 | 00:00:00 | |
| OM5KV | 2026-08-31 01:07:23 | 49.51462 | 17.97464 | 66° | 38km/h | 5021m | -14.2m/s | -5.6°C | 8.3% | 0hPa | 2.5V | 08:07:00 | 00:00:00 | 00:00:00 | |
| OM5KV | 2026-08-31 01:07:21 | 49.51455 | 17.97438 | 63° | 37km/h | 5047m | -13.7m/s | -5.8°C | 8.6% | 0hPa | 2.5V | 08:07:00 | 00:00:00 | 00:00:00 | |
| OM5KV | 2026-08-31 01:07:18 | 49.51443 | 17.97401 | 60° | 37km/h | 5087m | -14.6m/s | -6.0°C | 7.5% | 0hPa | 2.5V | 08:07:00 | 00:00:00 | 00:00:00 | |
| OM5KV | 2026-08-31 01:07:13 | 49.51415 | 17.97323 | 60° | 35km/h | 5170m | -14.7m/s | -6.6°C | 6.6% | 0hPa | 2.5V | 08:07:00 | 00:00:00 | 00:00:00 | |
| OE3JTB-15 | 2026-08-31 01:07:12 | 49.51411 | 17.97310 | 63° | 37km/h | 5183m | -13.0m/s | -6.7°C | 6.8% | 0hPa | 2.5V | 00:00:00 | 02:33:05 | 00:00:00 | |
| OE3OSB-13 | 2026-08-31 01:07:09 | 49.51397 | 17.97272 | 60° | 35km/h | 5221m | -13.2m/s | -7.0°C | 6.0% | -1.0hPa | 2.5V | 00:00:00 | 00:00:00 | 00:00:00 | |
| OM5KV | 2026-08-31 01:07:01 | 49.51367 | 17.97183 | 64° | 35km/h | 5313m | -15.0m/s | -7.6°C | 6.2% | 0hPa | 2.5V | 08:08:00 | 00:00:00 | 00:00:00 | |
| OM5KV | 2026-08-31 01:06:57 | 49.51350 | 17.97134 | 63° | 35km/h | 5367m | -14.1m/s | -8.1°C | 7.0% | 0hPa | 2.5V | 08:08:00 | 00:00:00 | 00:00:00 | |
| OM5KV | 2026-08-31 01:06:52 | 49.51329 | 17.97072 | 60° | 35km/h | 5433m | -13.2m/s | -8.7°C | 7.2% | 0hPa | 2.5V | 08:08:00 | 00:00:00 | 00:00:00 | |
| OM5KV | 2026-08-31 01:06:47 | 49.51306 | 17.97012 | 65° | 35km/h | 5501m | -13.0m/s | -9.2°C | 7.4% | 0hPa | 2.5V | 08:08:00 | 00:00:00 | 00:00:00 | |
| OM5KV | 2026-08-31 01:06:44 | 49.51294 | 17.96974 | 65° | 35km/h | 5539m | -13.2m/s | -9.5°C | 7.3% | 0hPa | 2.5V | 08:08:00 | 00:00:00 | 00:00:00 | |
| OE3JTB-15 | 2026-08-31 01:06:43 | 49.51286 | 17.96949 | 67° | 38km/h | 5565m | -14.2m/s | -9.6°C | 7.5% | 0hPa | 2.5V | 08:07:00 | 00:00:00 | 00:00:00 | |
| OM5KV | 2026-08-31 01:06:41 | 49.51282 | 17.96935 | 69° | 38km/h | 5579m | -14.5m/s | -9.7°C | 6.6% | 0hPa | 2.6V | 08:08:00 | 00:00:00 | 00:00:00 | |
| OE3OSB-13 | 2026-08-31 01:06:38 | 49.51268 | 17.96882 | 66° | 37km/h | 5631m | -13.4m/s | -10.0°C | 7.4% | -1.0hPa | 2.6V | 00:00:00 | 00:00:00 | 00:00:00 | |
| OM5KV | 2026-08-31 01:06:35 | 49.51260 | 17.96855 | 67° | 37km/h | 5660m | -14.4m/s | -10.3°C | 9.7% | 0hPa | 2.6V | 08:08:00 | 00:00:00 | 00:00:00 | |
| OM5KV | 2026-08-31 01:06:24 | 49.51224 | 17.96701 | 70° | 37km/h | 5806m | -13.8m/s | -11.2°C | 10.8% | 0hPa | 2.6V | 08:08:00 | 00:00:00 | 00:00:00 | |
| OM5KV | 2026-08-31 01:06:18 | 49.51206 | 17.96618 | 74° | 38km/h | 5889m | -14.1m/s | -11.9°C | 12.0% | 0hPa | 2.6V | 08:08:00 | 00:00:00 | 00:00:00 | |
| OE3JTB-15 | 2026-08-31 01:06:14 | 49.51191 | 17.96544 | 74° | 44km/h | 5958m | -13.3m/s | -12.3°C | 10.3% | 0hPa | 2.6V | 00:00:00 | 00:00:00 | 00:00:00 | |
| OM5KV | 2026-08-31 01:06:13 | 49.51191 | 17.96544 | 74° | 42km/h | 5958m | -13.3m/s | -12.4°C | 9.7% | 0hPa | 2.6V | 08:08:00 | 00:00:00 | 00:00:00 | |
| POL1PZ | 2026-08-31 01:06:12 | 49.51188 | 17.96529 | 73° | 38km/h | 5971m | -13.8m/s | -12.5°C | 10.0% | 0hPa | 2.6V | 08:08:00 | 00:00:00 | 00:00:00 | |
| OM5KV | 2026-08-31 01:06:09 | 49.51180 | 17.96484 | 76° | 44km/h | 6013m | -14.2m/s | -12.7°C | 9.0% | 0hPa | 2.6V | 08:08:00 | 00:00:00 | 00:00:00 | |
| OE3OSB-13 | 2026-08-31 01:06:07 | 49.51168 | 17.96422 | 74° | 40km/h | 6067m | -13.6m/s | -13.0°C | 8.8% | -1.0hPa | 2.6V | 00:00:00 | 00:00:00 | 00:00:00 | |
| OM5KV | 2026-08-31 01:06:03 | 49.51163 | 17.96390 | 77° | 44km/h | 6094m | -13.7m/s | -13.0°C | 7.6% | 0hPa | 2.6V | 08:08:00 | 00:00:00 | 00:00:00 | |
| OM5KV | 2026-08-31 01:06:01 | 49.51158 | 17.96355 | 78° | 47km/h | 6121m | -14.0m/s | -13.1°C | 7.6% | 0hPa | 2.6V | 08:08:00 | 00:00:00 | 00:00:00 | |
| OM5KV | 2026-08-31 01:05:55 | 49.51142 | 17.96247 | 80° | 49km/h | 6202m | -15.1m/s | -13.5°C | 7.3% | 0hPa | 2.6V | 08:08:00 | 00:00:00 | 00:00:00 | |
| OM5KV | 2026-08-31 01:05:53 | 49.51139 | 17.96211 | 80° | 49km/h | 6230m | -13.9m/s | -13.7°C | 7.4% | 0hPa | 2.6V | 08:08:00 | 00:00:00 | 00:00:00 | |
| OM5KV | 2026-08-31 01:05:49 | 49.51129 | 17.96140 | 78° | 44km/h | 6286m | -13.9m/s | -14.1°C | 7.2% | 0hPa | 2.6V | 08:08:00 | 00:00:00 | 00:00:00 | |
| OM5KV | 2026-08-31 01:05:47 | 49.51124 | 17.96106 | 79° | 44km/h | 6313m | -13.6m/s | -14.3°C | 7.2% | 0hPa | 2.6V | 08:08:00 | 00:00:00 | 00:00:00 | |
| POL1PZ | 2026-08-31 01:05:46 | 49.51122 | 17.96089 | 82° | 46km/h | 6326m | -13.1m/s | -14.4°C | 7.1% | 0hPa | 2.6V | 08:08:00 | 00:00:00 | 00:00:00 | |
| OE3JTB-15 | 2026-08-31 01:05:45 | 49.51118 | 17.96054 | 80° | 53km/h | 6354m | -14.2m/s | -14.4°C | 5.5% | 0hPa | 2.6V | 00:00:00 | 02:31:38 | 00:00:00 | |
| OM5KV | 2026-08-31 01:05:43 | 49.51115 | 17.96036 | 77° | 46km/h | 6367m | -13.7m/s | -14.5°C | 4.6% | 0hPa | 2.6V | 08:08:00 | 00:00:00 | 00:00:00 | |
| OM5KV | 2026-08-31 01:05:37 | 49.51101 | 17.95926 | 80° | 51km/h | 6447m | -13.9m/s | -15.1°C | 5.0% | 0hPa | 2.6V | 08:08:00 | 00:00:00 | 00:00:00 | |
| OM5KV | 2026-08-31 01:05:36 | 49.51096 | 17.95886 | 81° | 51km/h | 6472m | -14.7m/s | -15.3°C | 5.0% | 0hPa | 2.6V | 08:08:00 | 00:00:00 | 00:00:00 | |
| OM5KV | 2026-08-31 01:05:31 | 49.51088 | 17.95806 | 81° | 53km/h | 6527m | -13.4m/s | -15.7°C | 5.0% | 0hPa | 2.6V | 08:08:00 | 00:00:00 | 00:00:00 | |
| OM5KV | 2026-08-31 01:05:29 | 49.51083 | 17.95765 | 80° | 53km/h | 6553m | -12.9m/s | -15.7°C | 5.5% | 0hPa | 2.6V | 08:08:00 | 00:00:00 | 00:00:00 | |
| POL1PZ | 2026-08-31 01:05:25 | 49.51074 | 17.95682 | 82° | 55km/h | 6605m | -13.8m/s | -15.9°C | 8.3% | 0hPa | 2.6V | 08:08:00 | 00:00:00 | 00:00:00 | |
| OM5KV | 2026-08-31 01:05:19 | 49.51060 | 17.95551 | 82° | 58km/h | 6685m | -13.7m/s | -16.5°C | 11.3% | 0hPa | 2.6V | 08:09:00 | 00:00:00 | 00:00:00 | |
| OE3JTB-15 | 2026-08-31 01:05:16 | 49.51051 | 17.95461 | 82° | 60km/h | 6739m | -14.1m/s | -16.9°C | 12.1% | 0hPa | 2.6V | 00:00:00 | 00:00:00 | 00:00:00 | |
| OM5KV | 2026-08-31 01:05:12 | 49.51044 | 17.95394 | 82° | 58km/h | 6780m | -13.0m/s | -17.3°C | 10.9% | 0hPa | 2.5V | 08:09:00 | 00:00:00 | 00:00:00 | |
| OM5KV | 2026-08-31 01:05:10 | 49.51039 | 17.95347 | 81° | 62km/h | 6806m | -13.8m/s | -17.5°C | 10.5% | 0hPa | 2.5V | 08:09:00 | 00:00:00 | 00:00:00 | |
| POL1PZ | 2026-08-31 01:05:05 | 49.51026 | 17.95233 | 80° | 58km/h | 6874m | -13.1m/s | -18.1°C | 12.5% | 0hPa | 2.5V | 08:09:00 | 00:00:00 | 00:00:00 | |
| OM5KV | 2026-08-31 01:05:04 | 49.51023 | 17.95210 | 82° | 60km/h | 6887m | -13.5m/s | -18.2°C | 12.3% | 0hPa | 2.5V | 08:09:00 | 00:00:00 | 00:00:00 | |
| OM5KV | 2026-08-31 01:04:59 | 49.51010 | 17.95093 | 82° | 60km/h | 6953m | -13.2m/s | -18.8°C | 11.6% | 0hPa | 2.5V | 08:09:00 | 00:00:00 | 00:00:00 | |
| OM5KV | 2026-08-31 01:04:55 | 49.51000 | 17.95003 | 81° | 60km/h | 7008m | -13.1m/s | -19.2°C | 11.3% | 0hPa | 2.5V | 08:09:00 | 00:00:00 | 00:00:00 | |
| OM5KV | 2026-08-31 01:04:50 | 49.50987 | 17.94890 | 82° | 58km/h | 7073m | -13.2m/s | -19.7°C | 7.1% | 0hPa | 2.5V | 08:09:00 | 00:00:00 | 00:00:00 | |
| OM5KV | 2026-08-31 01:04:48 | 49.50982 | 17.94844 | 82° | 62km/h | 7098m | -12.8m/s | -19.9°C | 6.8% | 0hPa | 2.5V | 08:09:00 | 00:00:00 | 00:00:00 | |
| OE3JTB-15 | 2026-08-31 01:04:47 | 49.50977 | 17.94797 | 82° | 64km/h | 7125m | -13.3m/s | -20.0°C | 7.5% | 0hPa | 2.5V | 00:00:00 | 00:00:00 | 00:00:00 | |
| POL1PZ | 2026-08-31 01:04:45 | 49.50975 | 17.94774 | 82° | 60km/h | 7138m | -13.5m/s | -20.1°C | 6.9% | 0hPa | 2.5V | 08:09:00 | 00:00:00 | 00:00:00 | |
| OM5KV | 2026-08-31 01:04:44 | 49.50973 | 17.94750 | 82° | 62km/h | 7151m | -13.7m/s | -20.2°C | 7.0% | 0hPa | 2.5V | 08:09:00 | 00:00:00 | 00:00:00 | |
| OM5KV | 2026-08-31 01:04:43 | 49.50970 | 17.94725 | 83° | 64km/h | 7164m | -12.8m/s | -20.2°C | 7.2% | 0hPa | 2.5V | 08:09:00 | 00:00:00 | 00:00:00 | |
| OM5KV | 2026-08-31 01:04:39 | 49.50961 | 17.94628 | 83° | 64km/h | 7220m | -13.7m/s | -20.6°C | 13.1% | 0hPa | 2.5V | 08:09:00 | 00:00:00 | 00:00:00 | |
| OM5KV | 2026-08-31 01:04:37 | 49.50957 | 17.94579 | 85° | 66km/h | 7248m | -13.6m/s | -20.8°C | 19.6% | 0hPa | 2.5V | 08:09:00 | 00:00:00 | 00:00:00 | |
| OM5KV | 2026-08-31 01:04:33 | 49.50948 | 17.94480 | 83° | 62km/h | 7302m | -13.3m/s | -21.1°C | 29.4% | 0hPa | 2.5V | 08:09:00 | 00:00:00 | 00:00:00 | |
| OM5KV | 2026-08-31 01:04:31 | 49.50945 | 17.94432 | 84° | 64km/h | 7328m | -13.6m/s | -21.4°C | 29.5% | 0hPa | 2.5V | 08:10:00 | 00:00:00 | 00:00:00 | |
| OM5KV | 2026-08-31 01:04:27 | 49.50938 | 17.94334 | 83° | 62km/h | 7379m | -11.8m/s | -21.9°C | 28.4% | 0hPa | 2.5V | 08:10:00 | 00:00:00 | 00:00:00 | |
| OM5KV | 2026-08-31 01:04:26 | 49.50936 | 17.94310 | 84° | 62km/h | 7391m | -12.9m/s | -22.0°C | 29.2% | 0hPa | 2.5V | 08:10:00 | 00:00:00 | 00:00:00 | |
| POL1PZ | 2026-08-31 01:04:24 | 49.50932 | 17.94260 | 83° | 68km/h | 7417m | -14.1m/s | -22.2°C | 32.4% | 0hPa | 2.5V | 08:10:00 | 00:00:00 | 00:00:00 | |
| OM5KV | 2026-08-31 01:04:21 | 49.50925 | 17.94184 | 83° | 64km/h | 7457m | -12.8m/s | -22.6°C | 34.0% | 0hPa | 2.5V | 08:10:00 | 00:00:00 | 00:00:00 | |
| OM5KV | 2026-08-31 01:04:20 | 49.50923 | 17.94159 | 83° | 66km/h | 7470m | -14.0m/s | -22.7°C | 33.4% | 0hPa | 2.5V | 08:10:00 | 00:00:00 | 00:00:00 | |
| OM5KV | 2026-08-31 01:04:15 | 49.50912 | 17.94033 | 84° | 68km/h | 7540m | -13.9m/s | -23.3°C | 35.2% | 0hPa | 2.5V | 08:10:00 | 00:00:00 | 00:00:00 | |
| OE3JTB-15 | 2026-08-31 01:04:14 | 49.50906 | 17.93958 | 85° | 69km/h | 7580m | -13.1m/s | -23.6°C | 53.0% | 0hPa | 2.5V | 00:00:00 | 02:30:06 | 00:00:00 | |
| OM5KV | 2026-08-31 01:04:08 | 49.50900 | 17.93859 | 85° | 64km/h | 7636m | -14.5m/s | -24.0°C | 58.5% | 0hPa | 2.5V | 08:10:00 | 00:00:00 | 00:00:00 | |
| OM5KV | 2026-08-31 01:04:04 | 49.50895 | 17.93758 | 86° | 66km/h | 7690m | -14.3m/s | -24.4°C | 58.4% | 0hPa | 2.5V | 08:10:00 | 00:00:00 | 00:00:00 | |
| POL1PZ | 2026-08-31 01:04:03 | 49.50893 | 17.93732 | 86° | 66km/h | 7704m | -13.6m/s | -24.5°C | 58.1% | 0hPa | 2.5V | 08:10:00 | 00:00:00 | 00:00:00 | |
| OE3OSB-13 | 2026-08-31 01:04:02 | 49.50890 | 17.93680 | 84° | 66km/h | 7729m | -13.0m/s | -24.7°C | 57.2% | -1.0hPa | 2.5V | 00:00:00 | 00:00:00 | 00:00:00 | |
| OM5KV | 2026-08-31 01:03:58 | 49.50886 | 17.93601 | 88° | 69km/h | 7770m | -14.2m/s | -25.0°C | 56.7% | 0hPa | 2.5V | 08:10:00 | 00:00:00 | 00:00:00 | |
| OM5KV | 2026-08-31 01:03:57 | 49.50885 | 17.93574 | 87° | 71km/h | 7784m | -13.5m/s | -25.1°C | 56.7% | 0hPa | 2.5V | 08:10:00 | 00:00:00 | 00:00:00 | |
| OM5KV | 2026-08-31 01:03:51 | 49.50877 | 17.93403 | 89° | 75km/h | 7866m | -13.9m/s | -25.3°C | 58.8% | 0hPa | 2.5V | 08:10:00 | 00:00:00 | 00:00:00 | |
| OM5KV | 2026-08-31 01:03:47 | 49.50873 | 17.93286 | 88° | 75km/h | 7918m | -13.5m/s | -25.7°C | 59.4% | 0hPa | 2.5V | 08:10:00 | 00:00:00 | 00:00:00 | |
| OE3JTB-15 | 2026-08-31 01:03:45 | 49.50872 | 17.93200 | 91° | 73km/h | 7960m | -13.7m/s | -25.8°C | 63.7% | 0hPa | 2.5V | 00:00:00 | 00:00:00 | 00:00:00 | |
| POL1PZ | 2026-08-31 01:03:43 | 49.50873 | 17.93171 | 92° | 75km/h | 7973m | -13.8m/s | -25.9°C | 60.8% | 0hPa | 2.5V | 08:10:00 | 00:00:00 | 00:00:00 | |
| OM5KV | 2026-08-31 01:03:42 | 49.50873 | 17.93142 | 93° | 75km/h | 7987m | -13.4m/s | -26.0°C | 61.0% | 0hPa | 2.5V | 08:10:00 | 00:00:00 | 00:00:00 | |
| OM5KV | 2026-08-31 01:03:36 | 49.50875 | 17.92973 | 92° | 73km/h | 8067m | -13.0m/s | -26.7°C | 63.1% | 0hPa | 2.5V | 08:11:00 | 00:00:00 | 00:00:00 | |
| OM5KV | 2026-08-31 01:03:31 | 49.50875 | 17.92803 | 92° | 75km/h | 8145m | -13.9m/s | -27.4°C | 64.4% | 0hPa | 2.5V | 08:11:00 | 00:00:00 | 00:00:00 | |
| OM5KV | 2026-08-31 01:03:30 | 49.50875 | 17.92774 | 91° | 73km/h | 8159m | -14.2m/s | -27.5°C | 64.5% | 0hPa | 2.5V | 08:11:00 | 00:00:00 | 00:00:00 | |
| OM5KV | 2026-08-31 01:03:24 | 49.50877 | 17.92634 | 93° | 75km/h | 8227m | -13.7m/s | -28.2°C | 67.6% | 0hPa | 2.5V | 08:11:00 | 00:00:00 | 00:00:00 | |
| OM5KV | 2026-08-31 01:03:23 | 49.50878 | 17.92605 | 93° | 75km/h | 8240m | -12.4m/s | -28.3°C | 68.4% | 0hPa | 2.5V | 08:11:00 | 00:00:00 | 00:00:00 | |
| POL1PZ | 2026-08-31 01:03:22 | 49.50878 | 17.92576 | 92° | 75km/h | 8253m | -13.8m/s | -28.4°C | 68.6% | 0hPa | 2.5V | 08:11:00 | 00:00:00 | 00:00:00 | |
| OM5KV | 2026-08-31 01:03:19 | 49.50879 | 17.92492 | 92° | 73km/h | 8295m | -12.4m/s | -28.8°C | 70.4% | 0hPa | 2.5V | 08:11:00 | 00:00:00 | 00:00:00 | |
| OM5KV | 2026-08-31 01:03:17 | 49.50879 | 17.92436 | 91° | 69km/h | 8321m | -14.3m/s | -29.0°C | 70.8% | 0hPa | 2.5V | 08:11:00 | 00:00:00 | 00:00:00 | |
| OE3JTB-15 | 2026-08-31 01:03:16 | 49.50880 | 17.92353 | 91° | 75km/h | 8362m | -14.1m/s | -29.3°C | 75.6% | 0hPa | 2.5V | 00:00:00 | 00:00:00 | 00:00:00 | |
| OM5KV | 2026-08-31 01:03:14 | 49.50880 | 17.92353 | 92° | 75km/h | 8362m | -14.2m/s | -29.4°C | 71.0% | 0hPa | 2.5V | 08:11:00 | 00:00:00 | 00:00:00 | |
| OM5KV | 2026-08-31 01:03:11 | 49.50880 | 17.92267 | 91° | 75km/h | 8403m | -13.4m/s | -29.7°C | 68.7% | 0hPa | 2.5V | 08:11:00 | 00:00:00 | 00:00:00 | |
| OM5KV | 2026-08-31 01:03:04 | 49.50880 | 17.92064 | 90° | 75km/h | 8499m | -12.9m/s | -30.3°C | 68.9% | 0hPa | 2.5V | 08:11:00 | 00:00:00 | 00:00:00 | |
| OM5KV | 2026-08-31 01:03:02 | 49.50879 | 17.92005 | 91° | 75km/h | 8526m | -14.2m/s | -30.5°C | 68.9% | 0hPa | 2.5V | 08:11:00 | 00:00:00 | 00:00:00 | |
| OE3OSB-13 | 2026-08-31 01:03:00 | 49.50877 | 17.91918 | 87° | 77km/h | 8567m | -13.2m/s | -30.8°C | 67.5% | -1.0hPa | 2.5V | 00:00:00 | 00:00:00 | 00:00:00 | |
| OM5KV | 2026-08-31 01:02:53 | 49.50873 | 17.91743 | 89° | 75km/h | 8649m | -13.0m/s | -31.2°C | 54.9% | 0hPa | 2.5V | 08:11:00 | 00:00:00 | 00:00:00 | |
| OM5KV | 2026-08-31 01:02:51 | 49.50872 | 17.91685 | 88° | 75km/h | 8675m | -13.7m/s | -31.4°C | 51.7% | 0hPa | 2.5V | 08:11:00 | 00:00:00 | 00:00:00 | |
| OM5KV | 2026-08-31 01:02:47 | 49.50869 | 17.91573 | 89° | 73km/h | 8732m | -13.9m/s | -31.8°C | 47.8% | 0hPa | 2.5V | 08:12:00 | 00:00:00 | 00:00:00 | |
| OM5KV | 2026-08-31 01:02:46 | 49.50868 | 17.91545 | 89° | 75km/h | 8746m | -14.1m/s | -31.9°C | 47.0% | 0hPa | 2.5V | 08:12:00 | 00:00:00 | 00:00:00 | |
| OM5KV | 2026-08-31 01:02:40 | 49.50862 | 17.91377 | 87° | 73km/h | 8829m | -14.4m/s | -32.6°C | 41.8% | 0hPa | 2.5V | 08:12:00 | 00:00:00 | 00:00:00 | |
| OM5KV | 2026-08-31 01:02:36 | 49.50858 | 17.91267 | 87° | 73km/h | 8886m | -15.2m/s | -33.1°C | 43.1% | 0hPa | 2.5V | 08:12:00 | 00:00:00 | 00:00:00 | |
| OM5KV | 2026-08-31 01:02:35 | 49.50856 | 17.91238 | 86° | 75km/h | 8902m | -16.0m/s | -33.3°C | 43.0% | 0hPa | 2.5V | 08:12:00 | 00:00:00 | 00:00:00 | |
| S52SK | 2026-08-31 01:02:34 | 49.50855 | 17.91210 | 87° | 71km/h | 8918m | -16.0m/s | -33.4°C | 43.0% | 0hPa | 2.5V | 00:00:00 | 00:00:00 | 00:00:00 | |
| OM5KV | 2026-08-31 01:02:30 | 49.50848 | 17.91098 | 87° | 73km/h | 8979m | -14.4m/s | -33.9°C | 44.5% | 0hPa | 2.5V | 08:12:00 | 00:00:00 | 00:00:00 | |
| OE3OSB-13 | 2026-08-31 01:02:29 | 49.50846 | 17.91041 | 85° | 71km/h | 9007m | -14.7m/s | -34.2°C | 44.6% | -1.0hPa | 2.5V | 00:00:00 | 00:00:00 | 00:00:00 | |
| OM5KV | 2026-08-31 01:02:25 | 49.50841 | 17.90955 | 86° | 75km/h | 9052m | -15.0m/s | -34.6°C | 46.3% | 0hPa | 2.5V | 08:12:00 | 00:00:00 | 00:00:00 | |
| OM5KV | 2026-08-31 01:02:23 | 49.50836 | 17.90869 | 85° | 73km/h | 9095m | -14.4m/s | -35.0°C | 47.6% | 0hPa | 2.5V | 08:12:00 | 00:00:00 | 00:00:00 | |
| POL1PZ | 2026-08-31 01:02:20 | 49.50833 | 17.90811 | 85° | 73km/h | 9124m | -15.1m/s | -35.3°C | 49.1% | 0hPa | 2.5V | 08:12:00 | 00:00:00 | 00:00:00 | |
| OM5KV | 2026-08-31 01:02:16 | 49.50827 | 17.90693 | 86° | 75km/h | 9182m | -14.8m/s | -35.9°C | 55.8% | 0hPa | 2.5V | 08:12:00 | 00:00:00 | 00:00:00 | |
| OM5KV | 2026-08-31 01:02:14 | 49.50824 | 17.90634 | 86° | 75km/h | 9212m | -15.4m/s | -36.1°C | 55.6% | 0hPa | 2.5V | 08:12:00 | 00:00:00 | 00:00:00 | |
| OM5KV | 2026-08-31 01:02:10 | 49.50819 | 17.90516 | 86° | 77km/h | 9270m | -14.1m/s | -36.5°C | 55.8% | 0hPa | 2.5V | 08:12:00 | 00:00:00 | 00:00:00 | |
| OM5KV | 2026-08-31 01:02:08 | 49.50817 | 17.90455 | 89° | 78km/h | 9298m | -14.6m/s | -36.7°C | 55.1% | 0hPa | 2.5V | 08:12:00 | 00:00:00 | 00:00:00 | |
| OM5KV | 2026-08-31 01:02:03 | 49.50815 | 17.90305 | 88° | 78km/h | 9374m | -15.6m/s | -37.4°C | 53.3% | 0hPa | 2.5V | 08:12:00 | 00:00:00 | 00:00:00 | |
| OE3OSB-13 | 2026-08-31 01:01:58 | 49.50814 | 17.90122 | 89° | 78km/h | 9461m | -14.9m/s | -38.2°C | 55.6% | -1.0hPa | 2.5V | 00:00:00 | 00:00:00 | 00:00:00 | |
| OM5KV | 2026-08-31 01:01:57 | 49.50814 | 17.90122 | 91° | 80km/h | 9461m | -14.9m/s | -38.2°C | 55.8% | 0hPa | 2.5V | 08:13:00 | 00:00:00 | 00:00:00 | |
| OM5KV | 2026-08-31 01:01:56 | 49.50814 | 17.90092 | 92° | 77km/h | 9476m | -15.6m/s | -38.3°C | 56.5% | 0hPa | 2.5V | 08:13:00 | 00:00:00 | 00:00:00 | |
| OM5KV | 2026-08-31 01:01:50 | 49.50816 | 17.89907 | 93° | 78km/h | 9567m | -15.6m/s | -39.1°C | 59.6% | 0hPa | 2.5V | 08:13:00 | 00:00:00 | 00:00:00 | |
| OE3JTB-15 | 2026-08-31 01:01:48 | 49.50822 | 17.89754 | 94° | 89km/h | 9644m | -16.0m/s | -39.7°C | 66.6% | 0hPa | 2.5V | 00:00:00 | 00:00:00 | 00:00:00 | |
| OM5KV | 2026-08-31 01:01:42 | 49.50827 | 17.89657 | 95° | 82km/h | 9689m | -14.8m/s | -40.0°C | 60.9% | 0hPa | 2.5V | 08:13:00 | 00:00:00 | 00:00:00 | |
| OM5KV | 2026-08-31 01:01:39 | 49.50833 | 17.89558 | 96° | 86km/h | 9733m | -14.8m/s | -40.4°C | 61.0% | 0hPa | 2.5V | 08:13:00 | 00:00:00 | 00:00:00 | |
| POL1PZ | 2026-08-31 01:01:38 | 49.50834 | 17.89525 | 97° | 86km/h | 9747m | -14.9m/s | -40.5°C | 61.5% | 0hPa | 2.5V | 08:13:00 | 00:00:00 | 00:00:00 | |
| OM5KV | 2026-08-31 01:01:36 | 49.50838 | 17.89459 | 96° | 84km/h | 9776m | -15.6m/s | -40.8°C | 61.9% | 0hPa | 2.5V | 08:13:00 | 00:00:00 | 00:00:00 | |
| OM5KV | 2026-08-31 01:01:34 | 49.50842 | 17.89393 | 97° | 86km/h | 9806m | -15.1m/s | -41.0°C | 62.7% | 0hPa | 2.5V | 08:13:00 | 00:00:00 | 00:00:00 | |
| OM5KV | 2026-08-31 01:01:28 | 49.50857 | 17.89186 | 98° | 89km/h | 9897m | -16.4m/s | -41.8°C | 62.6% | 0hPa | 2.5V | 08:13:00 | 00:00:00 | 00:00:00 | |
| OE3OSB-13 | 2026-08-31 01:01:27 | 49.50862 | 17.89115 | 97° | 93km/h | 9928m | -15.7m/s | -42.0°C | 61.9% | -1.0hPa | 2.5V | 00:00:00 | 00:00:00 | 00:00:00 | |
| OM5KV | 2026-08-31 01:01:25 | 49.50865 | 17.89079 | 97° | 95km/h | 9943m | -15.6m/s | -42.1°C | 62.5% | 0hPa | 2.5V | 08:13:00 | 00:00:00 | 00:00:00 | |
| OM5KV | 2026-08-31 01:01:24 | 49.50870 | 17.89006 | 97° | 97km/h | 9975m | -16.2m/s | -42.3°C | 63.5% | 0hPa | 2.5V | 08:13:00 | 00:00:00 | 00:00:00 | |
| OE3JTB-15 | 2026-08-31 01:01:19 | 49.50888 | 17.88782 | 97° | 104km/h | 10069m | -16.2m/s | -43.0°C | 76.1% | 0hPa | 2.5V | 00:00:00 | 02:27:11 | 00:00:00 | |
| POL1PZ | 2026-08-31 01:01:17 | 49.50888 | 17.88782 | 98° | 99km/h | 10069m | -16.3m/s | -43.1°C | 68.7% | 0hPa | 2.5V | 08:13:00 | 00:00:00 | 00:00:00 | |
| OM5KV | 2026-08-31 01:01:14 | 49.50896 | 17.88668 | 97° | 97km/h | 10118m | -17.0m/s | -43.5°C | 70.5% | 0hPa | 2.5V | 08:13:00 | 00:00:00 | 00:00:00 | |
| OM5KV | 2026-08-31 01:01:12 | 49.50902 | 17.88593 | 97° | 99km/h | 10151m | -16.3m/s | -43.8°C | 71.9% | 0hPa | 2.5V | 08:13:00 | 00:00:00 | 00:00:00 | |
| OM5KV | 2026-08-31 01:01:09 | 49.50910 | 17.88477 | 98° | 100km/h | 10198m | -16.3m/s | -44.3°C | 71.5% | 0hPa | 2.5V | 08:13:00 | 00:00:00 | 00:00:00 | |
| S52SK | 2026-08-31 01:01:08 | 49.50912 | 17.88438 | 97° | 100km/h | 10214m | -14.8m/s | -44.4°C | 71.2% | 0hPa | 2.5V | 00:00:00 | 00:00:00 | 00:00:00 | |
| OM5KV | 2026-08-31 01:01:05 | 49.50920 | 17.88320 | 97° | 104km/h | 10258m | -14.7m/s | -44.7°C | 69.0% | 0hPa | 2.5V | 08:13:00 | 00:00:00 | 00:00:00 | |
| OM5KV | 2026-08-31 01:01:03 | 49.50925 | 17.88240 | 97° | 104km/h | 10288m | -15.4m/s | -44.9°C | 66.4% | 0hPa | 2.5V | 08:13:00 | 00:00:00 | 00:00:00 | |
| S52SK | 2026-08-31 01:01:02 | 49.50928 | 17.88199 | 96° | 102km/h | 10303m | -16.5m/s | -45.0°C | 65.3% | 0hPa | 2.5V | 00:00:00 | 00:00:00 | 00:00:00 | |
| OE3OSB-13 | 2026-08-31 01:00:57 | 49.50944 | 17.87912 | 95° | 108km/h | 10413m | -15.6m/s | -45.7°C | 56.2% | -1.0hPa | 2.5V | 00:00:00 | 00:00:00 | 00:00:00 | |
| POL1PZ | 2026-08-31 01:00:56 | 49.50942 | 17.87954 | 96° | 108km/h | 10397m | -16.2m/s | -45.6°C | 58.2% | 0hPa | 2.5V | 08:13:00 | 00:00:00 | 00:00:00 | |
| HA6NAB-11 | 2026-08-31 01:00:54 | 49.50947 | 17.87870 | 96° | 108km/h | 10428m | -14.8m/s | -45.8°C | 55.1% | 0hPa | 2.5V | 00:00:00 | 00:00:00 | 00:00:00 | |
| OM5KV | 2026-08-31 01:00:53 | 49.50951 | 17.87787 | 96° | 108km/h | 10456m | -13.3m/s | -46.0°C | 52.2% | 0hPa | 2.5V | 08:13:00 | 00:00:00 | 00:00:00 | |
| OE3JTB-15 | 2026-08-31 01:00:50 | 49.50958 | 17.87661 | 95° | 108km/h | 10497m | -15.5m/s | -46.2°C | 51.7% | 0hPa | 2.5V | 00:00:00 | 00:00:00 | 00:00:00 | |
| HA6NAB-11 | 2026-08-31 01:00:48 | 49.50960 | 17.87619 | 96° | 108km/h | 10512m | -14.2m/s | -46.3°C | 42.7% | 0hPa | 2.5V | 00:00:00 | 00:00:00 | 00:00:00 | |
| OM5KV | 2026-08-31 01:00:46 | 49.50964 | 17.87534 | 95° | 111km/h | 10543m | -15.3m/s | -46.3°C | 40.8% | 0hPa | 2.5V | 08:13:00 | 00:00:00 | 00:00:00 | |
| HA6NAB-11 | 2026-08-31 01:00:43 | 49.50970 | 17.87406 | 95° | 110km/h | 10587m | -14.4m/s | -46.5°C | 40.1% | 0hPa | 2.5V | 00:00:00 | 00:00:00 | 00:00:00 | |
| OM5KV | 2026-08-31 01:00:40 | 49.50977 | 17.87278 | 95° | 111km/h | 10632m | -14.7m/s | -46.8°C | 41.3% | 0hPa | 2.5V | 08:13:00 | 00:00:00 | 00:00:00 | |
| OE5DRO-10 | 2026-08-31 01:00:39 | 49.50981 | 17.87193 | 95° | 108km/h | 10662m | -14.8m/s | -47.0°C | 48.2% | 0hPa | 2.5V | 08:13:00 | 00:00:00 | 00:00:00 | |
| OM5KV | 2026-08-31 01:00:37 | 49.50983 | 17.87150 | 95° | 110km/h | 10677m | -14.8m/s | -47.2°C | 42.1% | 0hPa | 2.6V | 08:13:00 | 00:00:00 | 00:00:00 | |
| HA6NAB-11 | 2026-08-31 01:00:36 | 49.50985 | 17.87108 | 95° | 110km/h | 10692m | -14.9m/s | -47.3°C | 42.1% | 0hPa | 2.6V | 00:00:00 | 00:00:00 | 00:00:00 | |
| OM5KV | 2026-08-31 01:00:35 | 49.50987 | 17.87066 | 95° | 108km/h | 10706m | -14.5m/s | -47.4°C | 42.0% | 0hPa | 2.6V | 08:13:00 | 00:00:00 | 00:00:00 | |
| OM5KV | 2026-08-31 01:00:31 | 49.50993 | 17.86897 | 94° | 108km/h | 10765m | -14.1m/s | -47.9°C | 41.8% | 0hPa | 2.6V | 08:13:00 | 00:00:00 | 00:00:00 | |
| OM5KV | 2026-08-31 01:00:30 | 49.50994 | 17.86856 | 93° | 106km/h | 10779m | -14.1m/s | -48.0°C | 41.8% | 0hPa | 2.6V | 08:13:00 | 00:00:00 | 00:00:00 | |
| OM5KV | 2026-08-31 01:00:25 | 49.51001 | 17.86607 | 93° | 106km/h | 10866m | -13.0m/s | -48.8°C | 43.4% | 0hPa | 2.6V | 08:13:00 | 00:00:00 | 00:00:00 | |
| OE3JTB-15 | 2026-08-31 01:00:21 | 49.51005 | 17.86443 | 92° | 104km/h | 10926m | -15.9m/s | -49.1°C | 50.5% | 0hPa | 2.6V | 00:00:00 | 00:00:00 | 00:00:00 | |
| OE5DRO-10 | 2026-08-31 01:00:20 | 49.51006 | 17.86403 | 93° | 104km/h | 10942m | -15.5m/s | -49.3°C | 50.9% | 0hPa | 2.6V | 00:00:00 | 00:00:00 | 00:00:00 | |
| OM5KV | 2026-08-31 01:00:18 | 49.51007 | 17.86362 | 93° | 104km/h | 10957m | -15.1m/s | -49.4°C | 44.5% | 0hPa | 2.6V | 08:13:00 | 00:00:00 | 00:00:00 | |
| OE5DXL-15 | 2026-08-31 01:00:17 | 49.51009 | 17.86280 | 93° | 104km/h | 10987m | -14.6m/s | -49.7°C | 52.2% | 0hPa | 2.6V | 00:00:00 | 00:00:00 | 00:00:00 | |
| POL1PZ | 2026-08-31 01:00:16 | 49.51010 | 17.86240 | 94° | 104km/h | 11001m | -14.4m/s | -49.8°C | 45.3% | 0hPa | 2.6V | 08:14:00 | 00:00:00 | 00:00:00 | |
| OM5KV | 2026-08-31 01:00:14 | 49.51012 | 17.86199 | 94° | 104km/h | 11015m | -14.9m/s | -49.9°C | 45.5% | 0hPa | 2.6V | 08:14:00 | 00:00:00 | 00:00:00 | |
| OM5KV | 2026-08-31 01:00:08 | 49.51025 | 17.85958 | 98° | 104km/h | 11108m | -16.6m/s | -50.7°C | 47.2% | 0hPa | 2.6V | 08:14:00 | 00:00:00 | 00:00:00 | |
| OE5DRO-10 | 2026-08-31 01:00:01 | 49.51056 | 17.85635 | 101° | 104km/h | 11236m | -15.5m/s | -51.6°C | 56.2% | 0hPa | 2.6V | 00:00:00 | 00:00:00 | 00:00:00 | |
| PG1ADW-2 | 2026-08-31 00:59:58 | 49.51071 | 17.85514 | 102° | 104km/h | 11283m | -16.3m/s | -52.0°C | 55.2% | 0hPa | 2.6V | 00:00:00 | 00:00:00 | 00:00:00 | |
| OM5KV | 2026-08-31 00:59:56 | 49.51076 | 17.85474 | 102° | 104km/h | 11299m | -16.1m/s | -52.1°C | 46.5% | 0hPa | 2.5V | 08:14:00 | 00:00:00 | 00:00:00 | |
| POL1PZ | 2026-08-31 00:59:54 | 49.51087 | 17.85394 | 103° | 104km/h | 11330m | -15.4m/s | -52.3°C | 45.7% | 0hPa | 2.5V | 08:14:00 | 00:00:00 | 00:00:00 | |
| OE3JTB-15 | 2026-08-31 00:59:52 | 49.51103 | 17.85276 | 103° | 106km/h | 11377m | -16.4m/s | -52.5°C | 52.9% | 0hPa | 2.5V | 00:00:00 | 02:25:45 | 00:00:00 | |
| OE5DXL-15 | 2026-08-31 00:59:47 | 49.51132 | 17.85080 | 105° | 108km/h | 11455m | -16.1m/s | -53.0°C | 53.9% | 0hPa | 2.5V | 00:00:00 | 00:00:00 | 00:00:00 | |
| OM5KV | 2026-08-31 00:59:45 | 49.51139 | 17.85042 | 106° | 102km/h | 11471m | -15.9m/s | -53.2°C | 46.2% | 0hPa | 2.5V | 08:14:00 | 00:00:00 | 00:00:00 | |
| OM5KV | 2026-08-31 00:59:39 | 49.51180 | 17.84811 | 107° | 104km/h | 11570m | -15.9m/s | -53.8°C | 45.0% | 0hPa | 2.5V | 08:14:00 | 00:00:00 | 00:00:00 | |
| PG1ADW-2 | 2026-08-31 00:59:38 | 49.51194 | 17.84732 | 107° | 110km/h | 11603m | -16.3m/s | -54.0°C | 52.1% | 0hPa | 2.5V | 00:00:00 | 00:00:00 | 00:00:00 | |
| S52SK | 2026-08-31 00:59:37 | 49.51194 | 17.84732 | 108° | 106km/h | 11603m | -16.3m/s | -54.0°C | 44.0% | 0hPa | 2.5V | 00:00:00 | 00:00:00 | 00:00:00 | |
| OM5KV | 2026-08-31 00:59:34 | 49.51218 | 17.84613 | 108° | 108km/h | 11652m | -16.0m/s | -54.3°C | 42.7% | 0hPa | 2.5V | 08:14:00 | 00:00:00 | 00:00:00 | |
| POL1PZ | 2026-08-31 00:59:33 | 49.51226 | 17.84573 | 108° | 110km/h | 11668m | -16.6m/s | -54.3°C | 42.1% | 0hPa | 2.5V | 08:14:00 | 00:00:00 | 00:00:00 | |
| OM5KV | 2026-08-31 00:59:32 | 49.51235 | 17.84533 | 108° | 108km/h | 11684m | -16.1m/s | -54.5°C | 42.2% | 0hPa | 2.5V | 08:14:00 | 00:00:00 | 00:00:00 | |
| S52SK | 2026-08-31 00:59:31 | 49.51243 | 17.84493 | 109° | 108km/h | 11700m | -16.2m/s | -54.6°C | 41.8% | 0hPa | 2.5V | 00:00:00 | 00:00:00 | 00:00:00 | |
| OM5KV | 2026-08-31 00:59:26 | 49.51285 | 17.84291 | 109° | 108km/h | 11783m | -16.4m/s | -54.9°C | 41.4% | 0hPa | 2.5V | 08:15:00 | 00:00:00 | 00:00:00 | |
| OE5DRO-10 | 2026-08-31 00:59:23 | 49.51321 | 17.84130 | 110° | 111km/h | 11848m | -17.0m/s | -55.3°C | 49.8% | 0hPa | 2.5V | 00:00:00 | 00:00:00 | 00:00:00 | |
| OM5KV | 2026-08-31 00:59:22 | 49.51321 | 17.84130 | 110° | 110km/h | 11848m | -17.1m/s | -55.4°C | 41.6% | 0hPa | 2.5V | 08:15:00 | 00:00:00 | 00:00:00 | |
| OM5KV | 2026-08-31 00:59:21 | 49.51330 | 17.84090 | 111° | 111km/h | 11864m | -16.7m/s | -55.4°C | 41.8% | 0hPa | 2.5V | 08:15:00 | 00:00:00 | 00:00:00 | |
| OE5DXL-15 | 2026-08-31 00:59:18 | 49.51378 | 17.83885 | 111° | 113km/h | 11944m | -15.8m/s | -56.0°C | 48.5% | 0hPa | 2.5V | 08:15:00 | 00:00:00 | 00:00:00 | |
| OM5KV | 2026-08-31 00:59:16 | 49.51378 | 17.83885 | 111° | 113km/h | 11944m | -15.9m/s | -56.0°C | 40.2% | 0hPa | 2.5V | 08:15:00 | 00:00:00 | 00:00:00 | |
| POL1PZ | 2026-08-31 00:59:13 | 49.51406 | 17.83762 | 110° | 113km/h | 11993m | -16.1m/s | -56.2°C | 38.0% | 0hPa | 2.5V | 08:15:00 | 00:00:00 | 00:00:00 | |
| OM5KV | 2026-08-31 00:59:11 | 49.51425 | 17.83680 | 110° | 111km/h | 12025m | -16.1m/s | -56.5°C | 36.5% | 0hPa | 2.5V | 08:15:00 | 00:00:00 | 00:00:00 | |
| OM5KV | 2026-08-31 00:59:10 | 49.51434 | 17.83639 | 109° | 113km/h | 12041m | -17.5m/s | -56.6°C | 35.7% | 0hPa | 2.5V | 08:15:00 | 00:00:00 | 00:00:00 | |
| OM5KV | 2026-08-31 00:59:05 | 49.51480 | 17.83433 | 110° | 113km/h | 12125m | -15.8m/s | -57.1°C | 31.8% | 0hPa | 2.5V | 08:15:00 | 00:00:00 | 00:00:00 | |
| OE5DRO-10 | 2026-08-31 00:59:04 | 49.51498 | 17.83349 | 109° | 115km/h | 12157m | -16.1m/s | -57.3°C | 38.2% | 0hPa | 2.5V | 00:00:00 | 00:00:00 | 00:00:00 | |
| OE3OSB-13 | 2026-08-31 00:58:52 | 49.51613 | 17.82795 | 107° | 113km/h | 12373m | -16.3m/s | -58.5°C | 20.3% | -1.0hPa | 2.5V | 00:00:00 | 00:00:00 | 00:00:00 | |
| OM5KV | 2026-08-31 00:58:48 | 49.51630 | 17.82711 | 107° | 111km/h | 12407m | -16.6m/s | -58.5°C | 18.6% | 0hPa | 2.5V | 08:15:00 | 00:00:00 | 00:00:00 | |
| OE5DXL-15 | 2026-08-31 00:58:47 | 49.51644 | 17.82628 | 105° | 110km/h | 12439m | -16.0m/s | -58.5°C | 22.6% | 0hPa | 2.5V | 00:00:00 | 00:00:00 | 00:00:00 | |
| OE5DRO-10 | 2026-08-31 00:58:45 | 49.51658 | 17.82545 | 104° | 111km/h | 12471m | -15.9m/s | -58.6°C | 20.9% | 0hPa | 2.5V | 00:00:00 | 00:00:00 | 00:00:00 | |
| PG1ADW-2 | 2026-08-31 00:58:38 | 49.51700 | 17.82251 | 102° | 110km/h | 12582m | -17.3m/s | -58.3°C | 14.9% | 0hPa | 2.6V | 00:00:00 | 00:00:00 | 00:00:00 | |
| OM5KV | 2026-08-31 00:58:36 | 49.51706 | 17.82209 | 103° | 111km/h | 12599m | -16.3m/s | -58.3°C | 9.7% | 0hPa | 2.6V | 08:15:00 | 00:00:00 | 00:00:00 | |
| POL1PZ | 2026-08-31 00:58:31 | 49.51735 | 17.81995 | 102° | 111km/h | 12682m | -16.0m/s | -58.1°C | 8.1% | 0hPa | 2.6V | 08:16:00 | 00:00:00 | 00:00:00 | |
| OM5KV | 2026-08-31 00:58:30 | 49.51740 | 17.81953 | 102° | 111km/h | 12698m | -17.4m/s | -58.0°C | 7.9% | 0hPa | 2.6V | 08:16:00 | 00:00:00 | 00:00:00 | |
| OE5DRO-10 | 2026-08-31 00:58:26 | 49.51766 | 17.81740 | 101° | 104km/h | 12783m | -16.7m/s | -57.8°C | 11.1% | 0hPa | 2.6V | 00:00:00 | 00:00:00 | 00:00:00 | |
| OE3JTB-15 | 2026-08-31 00:58:25 | 49.51771 | 17.81698 | 102° | 104km/h | 12800m | -16.1m/s | -57.8°C | 10.9% | 0hPa | 2.6V | 00:00:00 | 02:24:18 | 00:00:00 | |
| OE3OSB-13 | 2026-08-31 00:58:21 | 49.51797 | 17.81495 | 100° | 106km/h | 12884m | -16.7m/s | -57.6°C | 5.9% | -1.0hPa | 2.6V | 00:00:00 | 00:00:00 | 00:00:00 | |
| PG1ADW-2 | 2026-08-31 00:58:18 | 49.51806 | 17.81414 | 101° | 99km/h | 12916m | -15.0m/s | -57.6°C | 9.8% | 0hPa | 2.6V | 00:00:00 | 00:00:00 | 00:00:00 | |
| OE5DXL-15 | 2026-08-31 00:58:17 | 49.51811 | 17.81374 | 101° | 95km/h | 12932m | -17.7m/s | -57.4°C | 9.5% | 0hPa | 2.6V | 00:00:00 | 00:00:00 | 00:00:00 | |
| HA6NAB-11 | 2026-08-31 00:58:15 | 49.51821 | 17.81294 | 101° | 102km/h | 12968m | -17.6m/s | -57.5°C | 5.6% | 0hPa | 2.6V | 08:16:00 | 00:00:00 | 00:00:00 | |
| OM5KV | 2026-08-31 00:58:14 | 49.51821 | 17.81294 | 101° | 102km/h | 12968m | -17.6m/s | -57.5°C | 5.6% | 0hPa | 2.6V | 08:16:00 | 00:00:00 | 00:00:00 | |
| POL1PZ | 2026-08-31 00:58:11 | 49.51835 | 17.81177 | 102° | 102km/h | 13021m | -17.4m/s | -57.4°C | 5.4% | 0hPa | 2.6V | 08:16:00 | 00:00:00 | 00:00:00 | |
| OM5KV | 2026-08-31 00:58:10 | 49.51839 | 17.81138 | 101° | 100km/h | 13038m | -17.2m/s | -57.4°C | 5.4% | 0hPa | 2.6V | 08:16:00 | 00:00:00 | 00:00:00 | |
| HA6NAB-11 | 2026-08-31 00:58:09 | 49.51844 | 17.81099 | 101° | 100km/h | 13055m | -17.0m/s | -57.3°C | 5.4% | 0hPa | 2.6V | 08:16:00 | 00:00:00 | 00:00:00 | |
| OM5KV | 2026-08-31 00:58:08 | 49.51849 | 17.81061 | 101° | 99km/h | 13072m | -16.5m/s | -57.0°C | 5.3% | 0hPa | 2.6V | 08:16:00 | 00:00:00 | 00:00:00 | |
| OE5DRO-10 | 2026-08-31 00:58:07 | 49.51857 | 17.80985 | 101° | 91km/h | 13106m | -16.2m/s | -56.9°C | 8.6% | 0hPa | 2.6V | 00:00:00 | 00:00:00 | 00:00:00 | |
| OM5KV | 2026-08-31 00:58:05 | 49.51862 | 17.80947 | 101° | 99km/h | 13122m | -15.9m/s | -56.9°C | 5.0% | 0hPa | 2.6V | 08:16:00 | 00:00:00 | 00:00:00 | |
| HA6NAB-11 | 2026-08-31 00:58:04 | 49.51866 | 17.80910 | 101° | 97km/h | 13138m | -17.1m/s | -56.9°C | 4.9% | 0hPa | 2.6V | 08:16:00 | 00:00:00 | 00:00:00 | |
| SP3WXH-11 | 2026-08-31 00:58:02 | 49.51920 | 17.80489 | 100° | 84km/h | 13343m | -16.8m/s | -57.2°C | 4.3% | -1.0hPa | 2.6V | 00:00:00 | 00:00:00 | 00:00:00 | |
| OE3OSB-13 | 2026-08-31 00:57:50 | 49.51935 | 17.80360 | 98° | 78km/h | 13410m | -16.8m/s | -57.2°C | 4.2% | -1.0hPa | 2.6V | 00:00:00 | 00:00:00 | 00:00:00 | |
| OE5DRO-10 | 2026-08-31 00:57:48 | 49.51937 | 17.80329 | 99° | 73km/h | 13427m | -17.2m/s | -57.3°C | 7.8% | 0hPa | 2.6V | 08:16:00 | 00:00:00 | 00:00:00 | |
| OE5DXL-15 | 2026-08-31 00:57:47 | 49.51940 | 17.80298 | 98° | 75km/h | 13445m | -18.4m/s | -57.4°C | 7.8% | 0hPa | 2.6V | 00:00:00 | 00:00:00 | 00:00:00 | |
| HA6NAB-11 | 2026-08-31 00:57:45 | 49.51942 | 17.80267 | 98° | 78km/h | 13463m | -17.3m/s | -57.5°C | 4.4% | 0hPa | 2.6V | 08:16:00 | 00:00:00 | 00:00:00 | |
| OM5KV | 2026-08-31 00:57:44 | 49.51945 | 17.80237 | 97° | 77km/h | 13480m | -16.4m/s | -57.6°C | 4.3% | 0hPa | 2.6V | 08:17:00 | 00:00:00 | 00:00:00 | |
| S52SK | 2026-08-31 00:57:43 | 49.51947 | 17.80207 | 96° | 77km/h | 13497m | -18.1m/s | -57.7°C | 4.3% | 0hPa | 2.6V | 00:00:00 | 00:00:00 | 00:00:00 | |
| HA6NAB-11 | 2026-08-31 00:57:40 | 49.51950 | 17.80119 | 94° | 73km/h | 13550m | -15.9m/s | -57.8°C | 4.2% | 0hPa | 2.6V | 00:00:00 | 00:00:00 | 00:00:00 | |
| PG1ADW-2 | 2026-08-31 00:57:38 | 49.51953 | 17.80034 | 93° | 75km/h | 13603m | -17.7m/s | -57.9°C | 8.1% | 0hPa | 2.6V | 00:00:00 | 00:00:00 | 00:00:00 | |
| S52SK | 2026-08-31 00:57:37 | 49.51953 | 17.80034 | 93° | 71km/h | 13603m | -17.7m/s | -57.9°C | 4.1% | 0hPa | 2.6V | 00:00:00 | 00:00:00 | 00:00:00 | |
| OM5KV | 2026-08-31 00:57:33 | 49.51954 | 17.79897 | 90° | 71km/h | 13692m | -19.3m/s | -58.1°C | 4.3% | 0hPa | 2.6V | 08:17:00 | 00:00:00 | 00:00:00 | |
| POL1PZ | 2026-08-31 00:57:31 | 49.51953 | 17.79842 | 89° | 71km/h | 13729m | -18.2m/s | -58.3°C | 4.2% | 0hPa | 2.6V | 08:17:00 | 00:00:00 | 00:00:00 | |
| OE5DRO-10 | 2026-08-31 00:57:29 | 49.51951 | 17.79785 | 87° | 77km/h | 13765m | -19.1m/s | -58.4°C | 7.8% | 0hPa | 2.6V | 00:00:00 | 00:00:00 | 00:00:00 | |
| OM5KV | 2026-08-31 00:57:27 | 49.51950 | 17.79757 | 87° | 75km/h | 13784m | -19.0m/s | -58.5°C | 4.1% | 0hPa | 2.6V | 08:17:00 | 00:00:00 | 00:00:00 | |
| OM5KV | 2026-08-31 00:57:25 | 49.51947 | 17.79698 | 88° | 75km/h | 13821m | -17.8m/s | -58.4°C | 3.9% | 0hPa | 2.6V | 08:17:00 | 00:00:00 | 00:00:00 | |
| OE3JTB-15 | 2026-08-31 00:57:23 | 49.51944 | 17.79578 | 89° | 71km/h | 13891m | -17.0m/s | -58.2°C | 7.5% | 0hPa | 2.6V | 00:00:00 | 00:00:00 | 00:00:00 | |
| OM5KV | 2026-08-31 00:57:21 | 49.51944 | 17.79578 | 89° | 78km/h | 13891m | -17.0m/s | -58.2°C | 3.8% | 0hPa | 2.6V | 08:17:00 | 00:00:00 | 00:00:00 | |
| OM5KV | 2026-08-31 00:57:19 | 49.51943 | 17.79517 | 90° | 78km/h | 13926m | -17.7m/s | -57.7°C | 3.6% | 0hPa | 2.6V | 08:17:00 | 00:00:00 | 00:00:00 | |
| PG1ADW-2 | 2026-08-31 00:57:18 | 49.51943 | 17.79456 | 90° | 73km/h | 13962m | -17.6m/s | -57.4°C | 7.0% | 0hPa | 2.6V | 00:00:00 | 00:00:00 | 00:00:00 | |
| OE5DXL-15 | 2026-08-31 00:57:17 | 49.51943 | 17.79426 | 90° | 73km/h | 13979m | -17.2m/s | -57.5°C | 7.0% | 0hPa | 2.6V | 00:00:00 | 00:00:00 | 00:00:00 | |
| OM5KV | 2026-08-31 00:57:15 | 49.51943 | 17.79396 | 92° | 77km/h | 13997m | -18.5m/s | -57.5°C | 3.5% | 0hPa | 2.6V | 08:17:00 | 00:00:00 | 00:00:00 | |
| OE5DRO-10 | 2026-08-31 00:57:10 | 49.51946 | 17.79217 | 91° | 71km/h | 14107m | -17.9m/s | -57.6°C | 6.9% | 0hPa | 2.6V | 00:00:00 | 00:00:00 | 00:00:00 | |
| OM5KV | 2026-08-31 00:57:09 | 49.51946 | 17.79217 | 91° | 73km/h | 14107m | -17.9m/s | -57.6°C | 3.4% | 0hPa | 2.6V | 08:17:00 | 00:00:00 | 00:00:00 | |
| OM5KV | 2026-08-31 00:57:03 | 49.51945 | 17.79050 | 89° | 69km/h | 14217m | -18.3m/s | -57.5°C | 3.2% | 0hPa | 2.6V | 08:17:00 | 00:00:00 | 00:00:00 | |
| OM5KV | 2026-08-31 00:57:02 | 49.51944 | 17.79023 | 89° | 71km/h | 14236m | -19.4m/s | -57.4°C | 3.2% | 0hPa | 2.6V | 08:17:00 | 00:00:00 | 00:00:00 | |
| SP3WXH-11 | 2026-08-31 00:57:00 | 49.51940 | 17.78940 | 85° | 69km/h | 14291m | -18.9m/s | -57.3°C | 2.9% | -1.0hPa | 2.6V | 00:00:00 | 00:00:00 | 00:00:00 | |
| OE3OSB-13 | 2026-08-31 00:56:47 | 49.51906 | 17.78568 | 78° | 68km/h | 14549m | -18.7m/s | -56.9°C | 2.8% | -1.0hPa | 2.6V | 00:00:00 | 00:00:00 | 00:00:00 | |
| OM5KV | 2026-08-31 00:56:44 | 49.51902 | 17.78542 | 79° | 68km/h | 14568m | -19.0m/s | -56.8°C | 3.0% | 0hPa | 2.6V | 08:18:00 | 00:00:00 | 00:00:00 | |
| OM5KV | 2026-08-31 00:56:39 | 49.51885 | 17.78410 | 80° | 73km/h | 14661m | -18.9m/s | -56.7°C | 3.0% | 0hPa | 2.6V | 08:18:00 | 00:00:00 | 00:00:00 | |
| PG1ADW-2 | 2026-08-31 00:56:38 | 49.51878 | 17.78353 | 82° | 68km/h | 14699m | -19.2m/s | -56.6°C | 6.2% | 0hPa | 2.6V | 00:00:00 | 02:22:31 | 00:00:00 | |
| OM5KV | 2026-08-31 00:56:33 | 49.51869 | 17.78234 | 87° | 77km/h | 14778m | -19.2m/s | -56.9°C | 3.1% | 0hPa | 2.6V | 08:18:00 | 00:00:00 | 00:00:00 | |
| OE5DRO-10 | 2026-08-31 00:56:32 | 49.51867 | 17.78175 | 89° | 64km/h | 14815m | -18.7m/s | -56.8°C | 6.3% | 0hPa | 2.6V | 00:00:00 | 00:00:00 | 00:00:00 | |
| SP3WXH-11 | 2026-08-31 00:56:31 | 49.51866 | 17.78091 | 89° | 69km/h | 14871m | -18.8m/s | -57.1°C | 2.8% | -1.0hPa | 2.6V | 00:00:00 | 00:00:00 | 00:00:00 | |
| OM5KV | 2026-08-31 00:56:28 | 49.51867 | 17.78064 | 91° | 69km/h | 14891m | -20.2m/s | -57.1°C | 3.0% | 0hPa | 2.6V | 08:18:00 | 00:00:00 | 00:00:00 | |
| OM5KV | 2026-08-31 00:56:26 | 49.51867 | 17.78038 | 91° | 68km/h | 14911m | -18.9m/s | -57.0°C | 3.0% | 0hPa | 2.6V | 08:18:00 | 00:00:00 | 00:00:00 | |
| OM5KV | 2026-08-31 00:56:20 | 49.51862 | 17.77896 | 84° | 58km/h | 15022m | -20.5m/s | -56.7°C | 2.7% | 0hPa | 2.6V | 08:18:00 | 00:00:00 | 00:00:00 | |
| PG1ADW-2 | 2026-08-31 00:56:18 | 49.51855 | 17.77828 | 80° | 68km/h | 15080m | -18.4m/s | -56.6°C | 6.1% | 0hPa | 2.6V | 00:00:00 | 00:00:00 | 00:00:00 | |
| DO3MHA-11 | 2026-08-31 00:56:15 | 49.51846 | 17.77756 | 78° | 68km/h | 15138m | -19.4m/s | -56.1°C | 5.8% | 0hPa | 2.6V | 00:00:00 | 02:22:08 | 00:00:00 | |
| OE5DRO-10 | 2026-08-31 00:56:13 | 49.51839 | 17.77706 | 79° | 66km/h | 15175m | -19.1m/s | -55.9°C | 5.7% | 0hPa | 2.5V | 00:00:00 | 00:00:00 | 00:00:00 | |
| POL1PZ | 2026-08-31 00:56:09 | 49.51829 | 17.77601 | 85° | 69km/h | 15252m | -21.8m/s | -56.0°C | 2.3% | 0hPa | 2.5V | 08:18:00 | 00:00:00 | 00:00:00 | |
| OM5KV | 2026-08-31 00:56:08 | 49.51829 | 17.77601 | 85° | 69km/h | 15252m | -21.8m/s | -56.0°C | 2.3% | 0hPa | 2.5V | 08:18:00 | 00:00:00 | 00:00:00 | |
| DO3MHA-11 | 2026-08-31 00:56:05 | 49.51827 | 17.77491 | 92° | 64km/h | 15336m | -21.5m/s | -56.0°C | 5.5% | 0hPa | 2.5V | 00:00:00 | 02:21:58 | 00:00:00 | |
| OM5KV | 2026-08-31 00:56:04 | 49.51827 | 17.77464 | 93° | 69km/h | 15357m | -20.2m/s | -55.6°C | 2.2% | 0hPa | 2.5V | 08:18:00 | 00:00:00 | 00:00:00 | |
| OM5KV | 2026-08-31 00:55:58 | 49.51833 | 17.77313 | 95° | 57km/h | 15477m | -20.2m/s | -54.4°C | 1.9% | 0hPa | 2.5V | 08:19:00 | 00:00:00 | 00:00:00 | |
| DO3MHA-11 | 2026-08-31 00:55:55 | 49.51836 | 17.77250 | 95° | 44km/h | 15540m | -21.1m/s | -54.4°C | 4.7% | 0hPa | 2.5V | 00:00:00 | 02:21:48 | 00:00:00 | |
| OE5DRO-10 | 2026-08-31 00:55:54 | 49.51837 | 17.77231 | 96° | 37km/h | 15560m | -20.3m/s | -54.4°C | 4.6% | 0hPa | 2.5V | 00:00:00 | 00:00:00 | 00:00:00 | |
| OM5KV | 2026-08-31 00:55:51 | 49.51839 | 17.77194 | 97° | 44km/h | 15601m | -20.3m/s | -54.5°C | 1.8% | 0hPa | 2.5V | 08:19:00 | 00:00:00 | 00:00:00 | |
| OM5KV | 2026-08-31 00:55:50 | 49.51840 | 17.77178 | 96° | 42km/h | 15621m | -19.7m/s | -54.6°C | 1.9% | 0hPa | 2.5V | 08:19:00 | 00:00:00 | 00:00:00 | |
| POL1PZ | 2026-08-31 00:55:48 | 49.51842 | 17.77147 | 95° | 38km/h | 15662m | -21.6m/s | -54.6°C | 1.9% | 0hPa | 2.5V | 08:19:00 | 00:00:00 | 00:00:00 | |
| OE5DXL-15 | 2026-08-31 00:55:47 | 49.51843 | 17.77118 | 93° | 35km/h | 15704m | -20.5m/s | -54.4°C | 4.6% | 0hPa | 2.5V | 00:00:00 | 00:00:00 | 00:00:00 | |
| OM5KV | 2026-08-31 00:55:46 | 49.51843 | 17.77118 | 93° | 35km/h | 15704m | -20.6m/s | -54.5°C | 1.9% | 0hPa | 2.5V | 08:19:00 | 00:00:00 | 00:00:00 | |
| DO3MHA-11 | 2026-08-31 00:55:45 | 49.51843 | 17.77091 | 86° | 35km/h | 15744m | -19.8m/s | -54.4°C | 4.6% | 0hPa | 2.5V | 08:18:00 | 02:21:38 | 00:00:00 | |
| OM5KV | 2026-08-31 00:55:40 | 49.51838 | 17.77045 | 74° | 31km/h | 15826m | -21.7m/s | -54.5°C | 1.8% | 0hPa | 2.5V | 08:19:00 | 00:00:00 | 00:00:00 | |
| OM5KV | 2026-08-31 00:55:39 | 49.51835 | 17.77033 | 73° | 31km/h | 15848m | -22.6m/s | -54.4°C | 1.8% | 0hPa | 2.5V | 08:19:00 | 00:00:00 | 00:00:00 | |
| PG1ADW-2 | 2026-08-31 00:55:38 | 49.51830 | 17.77008 | 73° | 37km/h | 15891m | -21.5m/s | -54.5°C | 4.5% | 0hPa | 2.5V | 00:00:00 | 00:00:00 | 00:00:00 | |
| OE5DRO-10 | 2026-08-31 00:55:35 | 49.51822 | 17.76967 | 73° | 37km/h | 15957m | -21.2m/s | -54.8°C | 4.6% | 0hPa | 2.5V | 00:00:00 | 00:00:00 | 00:00:00 | |
| DO3MHA-11 | 2026-08-31 00:55:32 | 49.51815 | 17.76923 | 82° | 26km/h | 16018m | -19.8m/s | -55.0°C | 4.7% | 0hPa | 2.5V | 00:00:00 | 02:21:25 | 00:00:00 | |
| HA6NAB-11 | 2026-08-31 00:55:29 | 49.51812 | 17.76892 | 83° | 38km/h | 16058m | -20.4m/s | -55.0°C | 1.8% | 0hPa | 2.5V | 08:19:00 | 00:00:00 | 00:00:00 | |
| POL1PZ | 2026-08-31 00:55:28 | 49.51811 | 17.76877 | 84° | 38km/h | 16078m | -19.6m/s | -55.0°C | 1.8% | 0hPa | 2.5V | 08:19:00 | 00:00:00 | 00:00:00 | |
| SP3WXH-11 | 2026-08-31 00:55:27 | 49.51809 | 17.76847 | 86° | 37km/h | 16117m | -21.5m/s | -55.2°C | 1.6% | -1.0hPa | 2.5V | 00:00:00 | 00:00:00 | 00:00:00 | |
| HA6NAB-11 | 2026-08-31 00:55:24 | 49.51808 | 17.76819 | 90° | 37km/h | 16160m | -20.9m/s | -55.2°C | 1.8% | 0hPa | 2.5V | 08:19:00 | 00:00:00 | 00:00:00 | |
| OM5KV | 2026-08-31 00:55:22 | 49.51808 | 17.76790 | 88° | 35km/h | 16204m | -23.0m/s | -55.1°C | 1.7% | 0hPa | 2.5V | 08:19:00 | 00:00:00 | 00:00:00 | |
| HA6NAB-11 | 2026-08-31 00:55:19 | 49.51805 | 17.76753 | 81° | 31km/h | 16271m | -22.1m/s | -55.4°C | 1.8% | 0hPa | 2.5V | 08:19:00 | 00:00:00 | 00:00:00 | |
| PG1ADW-2 | 2026-08-31 00:55:18 | 49.51802 | 17.76729 | 74° | 37km/h | 16316m | -21.8m/s | -55.7°C | 4.9% | 0hPa | 2.5V | 00:00:00 | 02:21:11 | 00:00:00 | |
| OE5DXL-15 | 2026-08-31 00:55:17 | 49.51800 | 17.76717 | 71° | 29km/h | 16337m | -21.4m/s | -55.9°C | 4.9% | 0hPa | 2.5V | 00:00:00 | 00:00:00 | 00:00:00 | |
| OE5DRO-10 | 2026-08-31 00:55:16 | 49.51797 | 17.76705 | 71° | 37km/h | 16359m | -22.5m/s | -56.0°C | 4.9% | 0hPa | 2.5V | 00:00:00 | 00:00:00 | 00:00:00 | |
| OM5KV | 2026-08-31 00:55:13 | 49.51788 | 17.76665 | 72° | 37km/h | 16425m | -22.8m/s | -56.4°C | 1.9% | 0hPa | 2.5V | 08:19:00 | 00:00:00 | 00:00:00 | |
| OM5KV | 2026-08-31 00:55:11 | 49.51783 | 17.76636 | 77° | 40km/h | 16468m | -20.3m/s | -56.1°C | 1.9% | 0hPa | 2.5V | 08:19:00 | 00:00:00 | 00:00:00 | |
| HA6NAB-11 | 2026-08-31 00:55:07 | 49.51777 | 17.76591 | 82° | 40km/h | 16531m | -23.1m/s | -55.5°C | 1.7% | 0hPa | 2.5V | 00:00:00 | 00:00:00 | 00:00:00 | |
| POL1PZ | 2026-08-31 00:55:06 | 49.51775 | 17.76577 | 82° | 38km/h | 16554m | -22.8m/s | -55.3°C | 1.7% | 0hPa | 2.5V | 08:19:00 | 00:00:00 | 00:00:00 | |
| OM5KV | 2026-08-31 00:55:04 | 49.51773 | 17.76546 | 88° | 38km/h | 16600m | -23.5m/s | -54.9°C | 1.6% | 0hPa | 2.5V | 08:19:00 | 00:00:00 | 00:00:00 | |
| SP3WXH-11 | 2026-08-31 00:54:56 | 49.51774 | 17.76436 | 88° | 22km/h | 16795m | -19.5m/s | -54.9°C | 1.4% | -1.0hPa | 2.5V | 00:00:00 | 00:00:00 | 00:00:00 | |
| OM5KV | 2026-08-31 00:54:54 | 49.51773 | 17.76427 | 88° | 20km/h | 16815m | -19.1m/s | -54.8°C | 1.5% | 0hPa | 2.5V | 08:19:00 | 00:00:00 | 00:00:00 | |
| DO3MHA-11 | 2026-08-31 00:54:48 | 49.51768 | 17.76383 | 69° | 22km/h | 16960m | -20.3m/s | -55.5°C | 4.4% | 0hPa | 2.5V | 00:00:00 | 02:20:41 | 00:00:00 | |
| OE5DXL-15 | 2026-08-31 00:54:47 | 49.51767 | 17.76377 | 65° | 31km/h | 16982m | -22.9m/s | -55.6°C | 4.5% | 0hPa | 2.5V | 08:19:00 | 00:00:00 | 00:00:00 | |
| POL1PZ | 2026-08-31 00:54:46 | 49.51767 | 17.76377 | 65° | 16km/h | 16982m | -22.9m/s | -55.7°C | 1.6% | 0hPa | 2.6V | 08:19:00 | 00:00:00 | 00:00:00 | |
| OM5KV | 2026-08-31 00:54:41 | 49.51753 | 17.76351 | 46° | 20km/h | 17090m | -21.2m/s | -56.6°C | 1.7% | 0hPa | 2.6V | 08:19:00 | 00:00:00 | 00:00:00 | |
| S52SK | 2026-08-31 00:54:39 | 49.51746 | 17.76339 | 51° | 24km/h | 17136m | -22.5m/s | -56.8°C | 1.8% | 0hPa | 2.6V | 00:00:00 | 00:00:00 | 00:00:00 | |
| PG1ADW-2 | 2026-08-31 00:54:38 | 49.51738 | 17.76323 | 52° | 37km/h | 17182m | -23.6m/s | -57.0°C | 5.1% | 0hPa | 2.6V | 00:00:00 | 00:00:00 | 00:00:00 | |
| OM5KV | 2026-08-31 00:54:37 | 49.51738 | 17.76323 | 53° | 27km/h | 17182m | -23.7m/s | -57.0°C | 1.8% | 0hPa | 2.6V | 08:19:00 | 00:00:00 | 00:00:00 | |
| OE3JTB-15 | 2026-08-31 00:54:35 | 49.51719 | 17.76281 | 55° | 31km/h | 17274m | -22.3m/s | -57.4°C | 5.4% | 0hPa | 2.6V | 00:00:00 | 00:00:00 | 00:00:00 | |
| S52SK | 2026-08-31 00:54:34 | 49.51719 | 17.76281 | 55° | 38km/h | 17274m | -22.4m/s | -57.4°C | 1.9% | 0hPa | 2.6V | 00:00:00 | 00:00:00 | 00:00:00 | |
| OM5KV | 2026-08-31 00:54:31 | 49.51707 | 17.76256 | 58° | 40km/h | 17316m | -19.4m/s | -57.5°C | 1.9% | 0hPa | 2.6V | 08:19:00 | 00:00:00 | 00:00:00 | |
| EDDB2-11 | 2026-08-31 00:54:29 | 49.51675 | 17.76155 | 75° | 38km/h | 17459m | -20.7m/s | -56.3°C | 1.6% | -1.0hPa | 2.6V | 00:00:00 | 00:00:00 | 00:00:00 | |
| SP3WXH-11 | 2026-08-31 00:54:25 | 49.51675 | 17.76155 | 75° | 38km/h | 17459m | -20.7m/s | -56.3°C | 1.6% | -1.0hPa | 2.6V | 00:00:00 | 00:00:00 | 00:00:00 | |
| OM5KV | 2026-08-31 00:54:24 | 49.51675 | 17.76155 | 76° | 40km/h | 17460m | -20.7m/s | -56.3°C | 1.8% | 0hPa | 2.6V | 08:19:00 | 00:00:00 | 00:00:00 | |
| OE5DRO-10 | 2026-08-31 00:54:19 | 49.51669 | 17.76082 | 90° | 16km/h | 17593m | -22.3m/s | -54.9°C | 4.4% | 0hPa | 2.6V | 00:00:00 | 00:00:00 | 00:00:00 | |
| PG1ADW-2 | 2026-08-31 00:54:18 | 49.51669 | 17.76073 | 93° | 16km/h | 17615m | -21.6m/s | -54.7°C | 4.3% | 0hPa | 2.6V | 00:00:00 | 00:00:00 | 00:00:00 | |
| OE5DXL-15 | 2026-08-31 00:54:17 | 49.51670 | 17.76065 | 89° | 20km/h | 17637m | -21.7m/s | -54.6°C | 4.3% | 0hPa | 2.6V | 00:00:00 | 00:00:00 | 00:00:00 | |
| DO3MHA-11 | 2026-08-31 00:54:15 | 49.51669 | 17.76052 | 87° | 13km/h | 17680m | -20.1m/s | -54.5°C | 4.2% | 0hPa | 2.6V | 00:00:00 | 02:20:08 | 00:00:00 | |
| OM5KV | 2026-08-31 00:54:14 | 49.51669 | 17.76052 | 87° | 15km/h | 17680m | -20.1m/s | -54.5°C | 1.4% | 0hPa | 2.5V | 08:20:00 | 00:00:00 | 00:00:00 | |
| OM5KV | 2026-08-31 00:54:12 | 49.51669 | 17.76042 | 84° | 13km/h | 17722m | -21.7m/s | -54.5°C | 1.4% | 0hPa | 2.5V | 08:20:00 | 00:00:00 | 00:00:00 | |
| OE3OSB-13 | 2026-08-31 00:54:11 | 49.51666 | 17.76027 | 73° | 11km/h | 17785m | -19.8m/s | -54.9°C | 1.3% | -1.0hPa | 2.5V | 00:00:00 | 00:00:00 | 00:00:00 | |
| OM5KV | 2026-08-31 00:54:09 | 49.51665 | 17.76022 | 73° | 13km/h | 17804m | -17.1m/s | -55.0°C | 1.5% | 0hPa | 2.5V | 08:20:00 | 00:00:00 | 00:00:00 | |
| OM5KV | 2026-08-31 00:54:08 | 49.51664 | 17.76017 | 65° | 15km/h | 17822m | -18.4m/s | -55.0°C | 1.5% | 0hPa | 2.5V | 08:20:00 | 00:00:00 | 00:00:00 | |
| DO3MHA-11 | 2026-08-31 00:54:05 | 49.51658 | 17.76003 | 45° | 22km/h | 17887m | -22.1m/s | -55.3°C | 4.4% | 0hPa | 2.5V | 00:00:00 | 02:19:58 | 00:00:00 | |
| POL1PZ | 2026-08-31 00:54:04 | 49.51658 | 17.76003 | 46° | 16km/h | 17887m | -22.1m/s | -55.4°C | 1.5% | 0hPa | 2.5V | 08:20:00 | 00:00:00 | 00:00:00 | |
| OM5KV | 2026-08-31 00:54:03 | 49.51654 | 17.75999 | 42° | 18km/h | 17909m | -21.1m/s | -55.5°C | 1.5% | 0hPa | 2.5V | 08:20:00 | 00:00:00 | 00:00:00 | |
| EDDB2-11 | 2026-08-31 00:53:58 | 49.51629 | 17.75965 | 43° | 24km/h | 18036m | -21.7m/s | -56.2°C | 1.5% | -1.0hPa | 2.5V | 00:00:00 | 00:00:00 | 00:00:00 | |
| SP3WXH-11 | 2026-08-31 00:53:54 | 49.51612 | 17.75934 | 55° | 26km/h | 18116m | -20.2m/s | -56.5°C | 1.5% | -1.0hPa | 2.5V | 00:00:00 | 00:00:00 | 00:00:00 | |
| OM5KV | 2026-08-31 00:53:51 | 49.51605 | 17.75918 | 61° | 26km/h | 18155m | -20.0m/s | -56.5°C | 1.8% | 0hPa | 2.5V | 08:20:00 | 00:00:00 | 00:00:00 | |
| OM5KV | 2026-08-31 00:53:49 | 49.51599 | 17.75901 | 62° | 22km/h | 18194m | -20.1m/s | -56.5°C | 1.7% | 0hPa | 2.5V | 08:20:00 | 00:00:00 | 00:00:00 | |
| OE5DXL-15 | 2026-08-31 00:53:47 | 49.51593 | 17.75880 | 73° | 16km/h | 18256m | -22.5m/s | -56.3°C | 5.1% | 0hPa | 2.5V | 00:00:00 | 00:00:00 | 00:00:00 | |
| DO3MHA-11 | 2026-08-31 00:53:45 | 49.51591 | 17.75864 | 75° | 20km/h | 18299m | -21.2m/s | -56.0°C | 5.1% | 0hPa | 2.5V | 00:00:00 | 02:19:38 | 00:00:00 | |
| POL1PZ | 2026-08-31 00:53:44 | 49.51591 | 17.75864 | 75° | 18km/h | 18299m | -21.3m/s | -56.1°C | 1.7% | 0hPa | 2.6V | 08:20:00 | 00:00:00 | 00:00:00 | |
| HA6NAB-11 | 2026-08-31 00:53:43 | 49.51590 | 17.75857 | 76° | 20km/h | 18320m | -21.3m/s | -55.7°C | 1.6% | 0hPa | 2.6V | 08:20:00 | 00:00:00 | 00:00:00 | |
| OE5DRO-10 | 2026-08-31 00:53:41 | 49.51586 | 17.75834 | 75° | 18km/h | 18387m | -23.5m/s | -54.9°C | 4.5% | 0hPa | 2.6V | 00:00:00 | 00:00:00 | 00:00:00 | |
| OM5KV | 2026-08-31 00:53:39 | 49.51585 | 17.75827 | 77° | 18km/h | 18410m | -23.0m/s | -54.8°C | 1.5% | 0hPa | 2.6V | 08:20:00 | 00:00:00 | 00:00:00 | |
| PG1ADW-2 | 2026-08-31 00:53:38 | 49.51583 | 17.75811 | 75° | 15km/h | 18458m | -24.1m/s | -54.8°C | 4.4% | 0hPa | 2.6V | 00:00:00 | 00:00:00 | 00:00:00 | |
| DO3MHA-11 | 2026-08-31 00:53:35 | 49.51577 | 17.75789 | 68° | 20km/h | 18533m | -23.8m/s | -54.2°C | 4.2% | 0hPa | 2.6V | 00:00:00 | 02:19:28 | 00:00:00 | |
| HA6NAB-11 | 2026-08-31 00:53:32 | 49.51573 | 17.75773 | 73° | 24km/h | 18581m | -23.3m/s | -54.3°C | 1.4% | 0hPa | 2.6V | 08:20:00 | 00:00:00 | 00:00:00 | |
| HA6NAB-11 | 2026-08-31 00:53:27 | 49.51563 | 17.75727 | 76° | 15km/h | 18723m | -23.5m/s | -54.5°C | 1.3% | 0hPa | 2.6V | 00:00:00 | 00:00:00 | 00:00:00 | |
| OM5KV | 2026-08-31 00:53:26 | 49.51562 | 17.75721 | 73° | 15km/h | 18747m | -25.3m/s | -54.4°C | 1.4% | 0hPa | 2.6V | 08:21:00 | 00:00:00 | 00:00:00 | |
| DO3MHA-11 | 2026-08-31 00:53:25 | 49.51560 | 17.75717 | 67° | 11km/h | 18772m | -24.9m/s | -54.5°C | 4.2% | 0hPa | 2.6V | 00:00:00 | 02:19:18 | 00:00:00 | |
| SP3WXH-11 | 2026-08-31 00:53:23 | 49.51559 | 17.75711 | 75° | 5km/h | 18820m | -23.2m/s | -54.8°C | 1.3% | -1.0hPa | 2.6V | 00:00:00 | 00:00:00 | 00:00:00 | |
| OE5DRO-10 | 2026-08-31 00:53:22 | 49.51558 | 17.75709 | 78° | 5km/h | 18844m | -25.7m/s | -54.7°C | 4.3% | 0hPa | 2.6V | 00:00:00 | 00:00:00 | 00:00:00 | |
| OM5KV | 2026-08-31 00:53:21 | 49.51558 | 17.75709 | 79° | 5km/h | 18844m | -25.8m/s | -54.7°C | 1.4% | 0hPa | 2.6V | 08:21:00 | 00:00:00 | 00:00:00 | |
| OM5KV | 2026-08-31 00:53:19 | 49.51558 | 17.75707 | 155° | 4km/h | 18892m | -23.3m/s | -54.7°C | 1.4% | 0hPa | 2.6V | 08:21:00 | 00:00:00 | 00:00:00 | |
| PG1ADW-2 | 2026-08-31 00:53:18 | 49.51560 | 17.75706 | 153° | 9km/h | 18937m | -22.9m/s | -54.9°C | 4.3% | 0hPa | 2.6V | 00:00:00 | 00:00:00 | 00:00:00 | |
| OE5DXL-15 | 2026-08-31 00:53:17 | 49.51561 | 17.75706 | 188° | 13km/h | 18960m | -23.8m/s | -55.0°C | 4.4% | 0hPa | 2.6V | 00:00:00 | 00:00:00 | 00:00:00 | |
| OM5KV | 2026-08-31 00:53:15 | 49.51561 | 17.75706 | 0° | 0km/h | 18984m | -24.5m/s | -55.1°C | 1.4% | 0hPa | 2.5V | 08:21:00 | 00:00:00 | 00:00:00 | |
| OM5KV | 2026-08-31 00:53:13 | 49.51561 | 17.75707 | 0° | 0km/h | 19031m | -22.1m/s | -55.4°C | 1.5% | 0hPa | 2.5V | 08:21:00 | 00:00:00 | 00:00:00 | |
| OE3OSB-13 | 2026-08-31 00:53:09 | 49.51555 | 17.75699 | 51° | 9km/h | 19162m | -21.6m/s | -55.2°C | 1.3% | -1.0hPa | 2.5V | 00:00:00 | 00:00:00 | 00:00:00 | |
| DO3MHA-11 | 2026-08-31 00:53:04 | 49.51548 | 17.75680 | 60° | 16km/h | 19251m | -23.4m/s | -55.4°C | 4.7% | 0hPa | 2.5V | 08:21:00 | 02:18:57 | 00:00:00 | |
| OE5DRO-10 | 2026-08-31 00:53:03 | 49.51545 | 17.75674 | 62° | 18km/h | 19275m | -22.8m/s | -55.5°C | 4.7% | 0hPa | 2.6V | 00:00:00 | 00:00:00 | 00:00:00 | |
| POL1PZ | 2026-08-31 00:53:02 | 49.51545 | 17.75674 | 62° | 18km/h | 19275m | -22.8m/s | -55.6°C | 1.5% | 0hPa | 2.5V | 08:21:00 | 00:00:00 | 00:00:00 | |
| EDDB2-11 | 2026-08-31 00:52:56 | 49.51529 | 17.75640 | 36° | 15km/h | 19441m | -26.3m/s | -55.2°C | 1.3% | -1.0hPa | 2.5V | 00:00:00 | 00:00:00 | 00:00:00 | |
| SP3WXH-11 | 2026-08-31 00:52:52 | 49.51513 | 17.75624 | 36° | 20km/h | 19544m | -25.7m/s | -54.9°C | 1.3% | -1.0hPa | 2.5V | 00:00:00 | 00:00:00 | 00:00:00 | |
| OM5KV | 2026-08-31 00:52:50 | 49.51509 | 17.75619 | 41° | 22km/h | 19569m | -24.6m/s | -55.0°C | 1.5% | 0hPa | 2.5V | 08:21:00 | 00:00:00 | 00:00:00 | |
| OE5DXL-15 | 2026-08-31 00:52:47 | 49.51495 | 17.75595 | 56° | 13km/h | 19663m | -22.9m/s | -55.0°C | 4.7% | 0hPa | 2.5V | 00:00:00 | 00:00:00 | 00:00:00 | |
| OE5DRO-10 | 2026-08-31 00:52:44 | 49.51488 | 17.75575 | 72° | 15km/h | 19730m | -23.0m/s | -54.9°C | 4.5% | 0hPa | 2.5V | 00:00:00 | 00:00:00 | 00:00:00 | |
| POL1PZ | 2026-08-31 00:52:42 | 49.51487 | 17.75569 | 78° | 15km/h | 19753m | -22.5m/s | -55.0°C | 1.5% | 0hPa | 2.5V | 08:21:00 | 00:00:00 | 00:00:00 | |
| PG1ADW-2 | 2026-08-31 00:52:38 | 49.51488 | 17.75543 | 115° | 13km/h | 19864m | -21.3m/s | -53.8°C | 4.2% | 0hPa | 2.5V | 00:00:00 | 02:18:31 | 00:00:00 | |
| OM5KV | 2026-08-31 00:52:36 | 49.51490 | 17.75538 | 119° | 15km/h | 19886m | -21.3m/s | -53.9°C | 1.4% | 0hPa | 2.5V | 08:22:00 | 00:00:00 | 00:00:00 | |
| DO3MHA-11 | 2026-08-31 00:52:34 | 49.51497 | 17.75522 | 128° | 15km/h | 19948m | -19.5m/s | -53.7°C | 4.2% | 0hPa | 2.5V | 00:00:00 | 02:18:27 | 00:00:00 | |
| OM5KV | 2026-08-31 00:52:33 | 49.51499 | 17.75517 | 130° | 18km/h | 19968m | -20.6m/s | -53.6°C | 1.3% | 0hPa | 2.5V | 08:22:00 | 00:00:00 | 00:00:00 | |
| OM5KV | 2026-08-31 00:52:30 | 49.51506 | 17.75508 | 142° | 16km/h | 20012m | -23.5m/s | -54.0°C | 1.4% | 0hPa | 2.5V | 08:22:00 | 00:00:00 | 00:00:00 | |
| OM5KV | 2026-08-31 00:52:26 | 49.51518 | 17.75495 | 161° | 11km/h | 20104m | -23.2m/s | -54.4°C | 1.4% | 0hPa | 2.5V | 08:22:00 | 00:00:00 | 00:00:00 | |
| OE5DRO-10 | 2026-08-31 00:52:25 | 49.51522 | 17.75494 | 184° | 11km/h | 20150m | -21.6m/s | -54.4°C | 4.5% | 0hPa | 2.5V | 00:00:00 | 00:00:00 | 00:00:00 | |
| DO3MHA-11 | 2026-08-31 00:52:24 | 49.51524 | 17.75494 | 200° | 9km/h | 20172m | -21.6m/s | -54.5°C | 4.5% | 0hPa | 2.5V | 00:00:00 | 02:18:17 | 00:00:00 | |
| OM5KV | 2026-08-31 00:52:23 | 49.51523 | 17.75494 | 201° | 5km/h | 20172m | -21.6m/s | -54.6°C | 1.4% | 0hPa | 2.5V | 08:22:00 | 00:00:00 | 00:00:00 | |
| SP3WXH-11 | 2026-08-31 00:52:21 | 49.51523 | 17.75498 | 327° | 5km/h | 20237m | -21.9m/s | -54.7°C | 1.4% | -1.0hPa | 2.5V | 00:00:00 | 00:00:00 | 00:00:00 | |
| OM5KV | 2026-08-31 00:52:19 | 49.51522 | 17.75499 | 340° | 7km/h | 20258m | -20.0m/s | -54.6°C | 1.5% | 0hPa | 2.5V | 08:22:00 | 00:00:00 | 00:00:00 | |
| PG1ADW-2 | 2026-08-31 00:52:18 | 49.51517 | 17.75501 | 353° | 13km/h | 20301m | -21.3m/s | -54.2°C | 4.5% | 0hPa | 2.5V | 00:00:00 | 00:00:00 | 00:00:00 | |
| OE5DXL-15 | 2026-08-31 00:52:17 | 49.51513 | 17.75502 | 357° | 15km/h | 20322m | -21.0m/s | -53.9°C | 4.4% | 0hPa | 2.5V | 00:00:00 | 00:00:00 | 00:00:00 | |
| DO3MHA-11 | 2026-08-31 00:52:14 | 49.51503 | 17.75501 | 12° | 15km/h | 20385m | -22.0m/s | -53.8°C | 4.3% | 0hPa | 2.5V | 00:00:00 | 02:18:07 | 00:00:00 | |
| OM5KV | 2026-08-31 00:52:13 | 49.51503 | 17.75501 | 12° | 13km/h | 20385m | -22.1m/s | -53.9°C | 1.4% | 0hPa | 2.5V | 08:22:00 | 00:00:00 | 00:00:00 | |
| OM5KV | 2026-08-31 00:52:12 | 49.51499 | 17.75500 | 9° | 15km/h | 20407m | -21.4m/s | -53.8°C | 1.4% | 0hPa | 2.5V | 08:22:00 | 00:00:00 | 00:00:00 | |
| OE5MMP-10 | 2026-08-31 00:52:11 | 49.51492 | 17.75498 | 12° | 15km/h | 20449m | -21.8m/s | -53.6°C | 4.2% | 0hPa | 2.5V | 00:00:00 | 02:18:04 | 00:00:00 | |
| NBG1-10 | 2026-08-31 00:52:10 | 49.51489 | 17.75497 | 13° | 13km/h | 20472m | -23.2m/s | -53.5°C | 4.2% | 0hPa | 2.5V | 00:00:00 | 02:18:03 | 00:00:00 | |
| OM5KV | 2026-08-31 00:52:07 | 49.51482 | 17.75495 | 10° | 15km/h | 20516m | -21.7m/s | -53.5°C | 1.3% | 0hPa | 2.5V | 08:22:00 | 00:00:00 | 00:00:00 | |
| OE5DRO-10 | 2026-08-31 00:52:06 | 49.51475 | 17.75493 | 9° | 13km/h | 20558m | -20.6m/s | -53.3°C | 4.0% | 0hPa | 2.5V | 08:22:00 | 00:00:00 | 00:00:00 | |
| DO3MHA-11 | 2026-08-31 00:52:04 | 49.51468 | 17.75493 | 359° | 13km/h | 20603m | -22.8m/s | -53.2°C | 3.9% | 0hPa | 2.5V | 00:00:00 | 02:17:57 | 00:00:00 | |
| OM5KV | 2026-08-31 00:52:02 | 49.51464 | 17.75493 | 358° | 15km/h | 20625m | -21.2m/s | -53.3°C | 1.2% | 0hPa | 2.5V | 08:22:00 | 00:00:00 | 00:00:00 | |
| EDDB2-11 | 2026-08-31 00:51:54 | 49.51436 | 17.75484 | 39° | 13km/h | 20824m | -20.3m/s | -53.8°C | 0% | -1.0hPa | 2.5V | 00:00:00 | 00:00:00 | 00:00:00 | |
| SP3WXH-11 | 2026-08-31 00:51:50 | 49.51424 | 17.75471 | 21° | 13km/h | 20906m | -21.1m/s | -54.4°C | 1.2% | -1.0hPa | 2.5V | 00:00:00 | 00:00:00 | 00:00:00 | |
| OE5MMP-10 | 2026-08-31 00:51:49 | 49.51420 | 17.75469 | 19° | 11km/h | 20927m | -22.1m/s | -54.6°C | 4.4% | 0hPa | 2.5V | 00:00:00 | 02:17:42 | 00:00:00 | |
| HA6NAB-11 | 2026-08-31 00:51:48 | 49.51420 | 17.75469 | 19° | 15km/h | 20927m | -22.2m/s | -54.6°C | 1.4% | 0hPa | 2.5V | 08:22:00 | 00:00:00 | 00:00:00 | |
| OE5DRO-10 | 2026-08-31 00:51:47 | 49.51413 | 17.75467 | 12° | 13km/h | 20971m | -21.4m/s | -54.9°C | 4.5% | 0hPa | 2.5V | 00:00:00 | 00:00:00 | 00:00:00 | |
| DO3MHA-11 | 2026-08-31 00:51:44 | 49.51405 | 17.75463 | 27° | 13km/h | 21035m | -20.8m/s | -55.2°C | 4.7% | 0hPa | 2.5V | 00:00:00 | 02:17:37 | 00:00:00 | |
| OM5KV | 2026-08-31 00:51:42 | 49.51403 | 17.75461 | 46° | 9km/h | 21056m | -21.1m/s | -55.4°C | 1.5% | 0hPa | 2.5V | 08:23:00 | 00:00:00 | 00:00:00 | |
| OE5MMP-10 | 2026-08-31 00:51:39 | 49.51399 | 17.75444 | 86° | 13km/h | 21145m | -23.2m/s | -55.1°C | 4.6% | 0hPa | 2.5V | 00:00:00 | 02:17:32 | 00:00:00 | |
| PG1ADW-2 | 2026-08-31 00:51:38 | 49.51398 | 17.75437 | 91° | 9km/h | 21168m | -21.7m/s | -55.1°C | 4.6% | 0hPa | 2.5V | 00:00:00 | 00:00:00 | 00:00:00 | |
| OM5KV | 2026-08-31 00:51:37 | 49.51398 | 17.75431 | 89° | 15km/h | 21190m | -22.4m/s | -55.1°C | 1.4% | 0hPa | 2.5V | 08:23:00 | 00:00:00 | 00:00:00 | |
| OE3OSB-13 | 2026-08-31 00:51:35 | 49.51398 | 17.75420 | 98° | 13km/h | 21235m | -23.2m/s | -55.1°C | 1.3% | -1.0hPa | 2.5V | 00:00:00 | 00:00:00 | 00:00:00 | |
| DO3MHA-11 | 2026-08-31 00:51:34 | 49.51399 | 17.75414 | 104° | 5km/h | 21258m | -22.1m/s | -55.0°C | 4.7% | 0hPa | 2.5V | 08:22:00 | 02:17:27 | 00:00:00 | |
| OM5KV | 2026-08-31 00:51:31 | 49.51401 | 17.75407 | 130° | 11km/h | 21304m | -24.7m/s | -55.0°C | 1.5% | 0hPa | 2.5V | 08:23:00 | 00:00:00 | 00:00:00 | |
| OE5MMP-10 | 2026-08-31 00:51:29 | 49.51407 | 17.75401 | 155° | 7km/h | 21374m | -24.4m/s | -54.8°C | 4.6% | 0hPa | 2.5V | 00:00:00 | 02:17:22 | 00:00:00 | |
| OE5DRO-10 | 2026-08-31 00:51:28 | 49.51409 | 17.75399 | 159° | 5km/h | 21398m | -23.8m/s | -54.7°C | 4.5% | 0hPa | 2.6V | 00:00:00 | 00:00:00 | 00:00:00 | |
| OM5KV | 2026-08-31 00:51:27 | 49.51409 | 17.75399 | 159° | 7km/h | 21398m | -23.8m/s | -54.7°C | 1.4% | 0hPa | 2.6V | 08:23:00 | 00:00:00 | 00:00:00 | |
| OM5KV | 2026-08-31 00:51:25 | 49.51412 | 17.75397 | 141° | 7km/h | 21446m | -24.8m/s | -54.8°C | 1.4% | 0hPa | 2.6V | 08:23:00 | 00:00:00 | 00:00:00 | |
| EDDB2-11 | 2026-08-31 00:51:23 | 49.51415 | 17.75390 | 118° | 7km/h | 21516m | -23.4m/s | -54.6°C | 1.3% | -1.0hPa | 2.6V | 00:00:00 | 00:00:00 | 00:00:00 | |
| OM5KV | 2026-08-31 00:51:21 | 49.51416 | 17.75388 | 122° | 7km/h | 21540m | -22.9m/s | -54.5°C | 1.4% | 0hPa | 2.6V | 08:23:00 | 00:00:00 | 00:00:00 | |
| OE5MMP-10 | 2026-08-31 00:51:19 | 49.51419 | 17.75381 | 127° | 5km/h | 21607m | -21.3m/s | -54.2°C | 4.5% | 0hPa | 2.6V | 00:00:00 | 02:17:12 | 00:00:00 | |
| PG1ADW-2 | 2026-08-31 00:51:18 | 49.51419 | 17.75380 | 152° | 7km/h | 21628m | -19.6m/s | -53.9°C | 4.4% | 0hPa | 2.6V | 00:00:00 | 02:17:11 | 00:00:00 | |
| OE5DXL-15 | 2026-08-31 00:51:17 | 49.51420 | 17.75380 | 204° | 11km/h | 21648m | -21.1m/s | -53.8°C | 4.2% | 0hPa | 2.6V | 00:00:00 | 00:00:00 | 00:00:00 | |
| DO3MHA-11 | 2026-08-31 00:51:16 | 49.51421 | 17.75381 | 220° | 5km/h | 21670m | -21.3m/s | -53.7°C | 4.3% | 0hPa | 2.6V | 00:00:00 | 02:17:09 | 00:00:00 | |
| OM5KV | 2026-08-31 00:51:15 | 49.51421 | 17.75381 | 220° | 4km/h | 21670m | -21.3m/s | -53.7°C | 1.3% | 0hPa | 2.6V | 08:23:00 | 00:00:00 | 00:00:00 | |
| OM5KV | 2026-08-31 00:51:10 | 49.51424 | 17.75390 | 245° | 7km/h | 21781m | -21.6m/s | -53.4°C | 0% | 0hPa | 2.6V | 08:23:00 | 00:00:00 | 00:00:00 | |
| OE5DRO-10 | 2026-08-31 00:51:09 | 49.51425 | 17.75394 | 267° | 13km/h | 21827m | -24.2m/s | -53.3°C | 4.1% | 0hPa | 2.6V | 00:00:00 | 00:00:00 | 00:00:00 | |
| OE5MMP-10 | 2026-08-31 00:51:08 | 49.51425 | 17.75396 | 259° | 7km/h | 21851m | -23.9m/s | -53.4°C | 4.1% | 0hPa | 2.5V | 00:00:00 | 02:17:01 | 00:00:00 | |
| DO3MHA-11 | 2026-08-31 00:51:06 | 49.51424 | 17.75397 | 338° | 13km/h | 21899m | -22.5m/s | -53.4°C | 4.1% | 0hPa | 2.5V | 00:00:00 | 02:16:59 | 00:00:00 | |
| OM5KV | 2026-08-31 00:51:04 | 49.51423 | 17.75398 | 343° | 5km/h | 21922m | -22.4m/s | 0°C | 0% | 0hPa | 2.5V | 08:23:00 | 00:00:00 | 00:00:00 | |
| EDDB2-11 | 2026-08-31 00:50:53 | 49.51391 | 17.75343 | 79° | 16km/h | 22209m | -23.6m/s | -53.9°C | 1.1% | -1.0hPa | 2.5V | 00:00:00 | 00:00:00 | 00:00:00 | |
| SP3WXH-11 | 2026-08-31 00:50:48 | 49.51393 | 17.75320 | 118° | 13km/h | 22302m | -23.3m/s | -54.1°C | 1.1% | -1.0hPa | 2.5V | 00:00:00 | 00:00:00 | 00:00:00 | |
| OE5MMP-10 | 2026-08-31 00:50:47 | 49.51395 | 17.75315 | 130° | 16km/h | 22325m | -23.2m/s | -54.0°C | 4.1% | 0hPa | 2.5V | 00:00:00 | 02:16:40 | 00:00:00 | |
| DO3MHA-11 | 2026-08-31 00:50:46 | 49.51397 | 17.75311 | 142° | 16km/h | 22348m | -22.3m/s | -54.1°C | 4.2% | 0hPa | 2.5V | 00:00:00 | 02:16:39 | 00:00:00 | |
| OM5KV | 2026-08-31 00:50:45 | 49.51397 | 17.75311 | 143° | 15km/h | 22348m | -22.3m/s | 0°C | 0% | 0hPa | 2.5V | 00:00:00 | 00:00:00 | 00:00:00 | |
| PG1ADW-2 | 2026-08-31 00:50:38 | 49.51428 | 17.75310 | 202° | 16km/h | 22531m | -22.8m/s | -54.7°C | 4.4% | 0hPa | 2.5V | 00:00:00 | 00:00:00 | 00:00:00 | |
| POL1PZ | 2026-08-31 00:50:37 | 49.51428 | 17.75310 | 203° | 15km/h | 22531m | -22.8m/s | -54.7°C | 1.3% | 0hPa | 2.5V | 08:24:00 | 00:00:00 | 00:00:00 | |
| OE5MMP-10 | 2026-08-31 00:50:36 | 49.51434 | 17.75315 | 214° | 16km/h | 22578m | -24.1m/s | -54.9°C | 4.6% | 0hPa | 2.5V | 00:00:00 | 02:16:29 | 00:00:00 | |
| OM5KV | 2026-08-31 00:50:35 | 49.51434 | 17.75315 | 215° | 13km/h | 22578m | -24.2m/s | 0°C | 0% | 0hPa | 2.5V | 00:00:00 | 00:00:00 | 00:00:00 | |
| OM5KV | 2026-08-31 00:50:34 | 49.51437 | 17.75318 | 217° | 13km/h | 22602m | -23.4m/s | 0°C | 0% | 0hPa | 2.5V | 00:00:00 | 00:00:00 | 00:00:00 | |
| OE3OSB-13 | 2026-08-31 00:50:33 | 49.51441 | 17.75326 | 244° | 11km/h | 22649m | -23.7m/s | -55.2°C | 1.3% | -1.0hPa | 2.5V | 00:00:00 | 00:00:00 | 00:00:00 | |
| OE5DRO-10 | 2026-08-31 00:50:31 | 49.51442 | 17.75336 | 276° | 13km/h | 22698m | -24.0m/s | -54.8°C | 4.6% | 0hPa | 2.5V | 00:00:00 | 00:00:00 | 00:00:00 | |
| OM5KV | 2026-08-31 00:50:29 | 49.51441 | 17.75342 | 287° | 16km/h | 22723m | -24.3m/s | 0°C | 0% | 0hPa | 2.5V | 00:00:00 | 00:00:00 | 00:00:00 | |
| OM5KV | 2026-08-31 00:50:28 | 49.51440 | 17.75348 | 290° | 18km/h | 22747m | -23.7m/s | 0°C | 0% | 0hPa | 2.5V | 00:00:00 | 00:00:00 | 00:00:00 | |
| DO3MHA-11 | 2026-08-31 00:50:26 | 49.51432 | 17.75368 | 307° | 13km/h | 22822m | -25.2m/s | -54.7°C | 4.5% | 0hPa | 2.5V | 00:00:00 | 02:16:19 | 00:00:00 | |
| OE5MMP-10 | 2026-08-31 00:50:25 | 49.51428 | 17.75375 | 312° | 11km/h | 22847m | -25.5m/s | -54.6°C | 4.5% | 0hPa | 2.5V | 00:00:00 | 02:16:18 | 00:00:00 | |
| HA6NAB-11 | 2026-08-31 00:50:23 | 49.51425 | 17.75381 | 315° | 20km/h | 22872m | -25.4m/s | -54.6°C | 1.3% | 0hPa | 2.5V | 08:24:00 | 00:00:00 | 00:00:00 | |
| EDDB2-11 | 2026-08-31 00:50:22 | 49.51416 | 17.75393 | 320° | 13km/h | 22948m | -25.0m/s | -54.1°C | 1.1% | -1.0hPa | 2.5V | 00:00:00 | 00:00:00 | 00:00:00 | |
| PG1ADW-2 | 2026-08-31 00:50:18 | 49.51410 | 17.75399 | 337° | 11km/h | 23023m | -24.5m/s | -54.3°C | 4.3% | 0hPa | 2.5V | 00:00:00 | 00:00:00 | 00:00:00 | |
| OE5DXL-15 | 2026-08-31 00:50:17 | 49.51410 | 17.75399 | 357° | 11km/h | 23047m | -23.9m/s | -54.4°C | 4.4% | 0hPa | 2.5V | 08:24:00 | 00:00:00 | 00:00:00 | |
| DO3MHA-11 | 2026-08-31 00:50:16 | 49.51409 | 17.75399 | 86° | 7km/h | 23071m | -24.5m/s | -54.4°C | 4.4% | 0hPa | 2.5V | 00:00:00 | 02:16:09 | 00:00:00 | |
| OE5MMP-10 | 2026-08-31 00:50:15 | 49.51410 | 17.75398 | 118° | 9km/h | 23095m | -23.9m/s | -54.6°C | 4.4% | 0hPa | 2.5V | 00:00:00 | 02:16:08 | 00:00:00 | |
| OE5DRO-10 | 2026-08-31 00:50:12 | 49.51412 | 17.75398 | 201° | 15km/h | 23168m | -24.1m/s | -54.7°C | 4.6% | 0hPa | 2.5V | 00:00:00 | 00:00:00 | 00:00:00 | |
| DO3MHA-11 | 2026-08-31 00:50:06 | 49.51425 | 17.75416 | 238° | 18km/h | 23305m | -23.2m/s | -54.6°C | 4.6% | 0hPa | 2.5V | 00:00:00 | 02:15:59 | 00:00:00 | |
| OE5MMP-10 | 2026-08-31 00:50:05 | 49.51427 | 17.75421 | 248° | 18km/h | 23328m | -23.4m/s | -54.6°C | 4.6% | 0hPa | 2.5V | 00:00:00 | 02:15:58 | 00:00:00 | |
| OE3OSB-13 | 2026-08-31 00:50:02 | 49.51426 | 17.75437 | 298° | 16km/h | 23399m | -23.5m/s | -54.4°C | 1.2% | -1.0hPa | 2.5V | 00:00:00 | 00:00:00 | 00:00:00 | |
| HA6NAB-11 | 2026-08-31 00:50:01 | 49.51426 | 17.75437 | 300° | 16km/h | 23399m | -23.5m/s | -54.4°C | 1.3% | 0hPa | 2.5V | 00:00:00 | 00:00:00 | 00:00:00 | |
| PG1ADW-2 | 2026-08-31 00:49:58 | 49.51412 | 17.75458 | 328° | 13km/h | 23490m | -22.0m/s | -54.5°C | 4.6% | 0hPa | 2.5V | 00:00:00 | 02:15:51 | 00:00:00 | |
| DO3MHA-11 | 2026-08-31 00:49:56 | 49.51403 | 17.75466 | 332° | 11km/h | 23537m | -23.3m/s | -54.4°C | 4.6% | 0hPa | 2.6V | 08:24:00 | 02:15:49 | 00:00:00 | |
| OE5MMP-10 | 2026-08-31 00:49:55 | 49.51399 | 17.75469 | 332° | 11km/h | 23560m | -21.8m/s | -54.3°C | 4.6% | 0hPa | 2.6V | 00:00:00 | 02:15:48 | 00:00:00 | |
| OE5DRO-10 | 2026-08-31 00:49:53 | 49.51393 | 17.75473 | 325° | 13km/h | 23602m | -22.2m/s | -54.1°C | 4.5% | 0hPa | 2.6V | 00:00:00 | 00:00:00 | 00:00:00 | |
| OE5DXL-15 | 2026-08-31 00:49:47 | 49.51389 | 17.75492 | 276° | 18km/h | 23747m | -25.6m/s | -53.2°C | 4.2% | 0hPa | 2.6V | 00:00:00 | 00:00:00 | 00:00:00 | |
| DO3MHA-11 | 2026-08-31 00:49:46 | 49.51389 | 17.75497 | 275° | 13km/h | 23772m | -24.4m/s | -53.0°C | 4.1% | 0hPa | 2.6V | 00:00:00 | 02:15:39 | 00:00:00 | |
| OE5MMP-10 | 2026-08-31 00:49:45 | 49.51388 | 17.75502 | 274° | 15km/h | 23797m | -24.5m/s | -52.9°C | 4.0% | 0hPa | 2.6V | 00:00:00 | 02:15:38 | 00:00:00 | |
| GYPAP8-17 | 2026-08-31 00:49:43 | 49.51388 | 17.75508 | 280° | 15km/h | 23821m | -24.8m/s | -52.9°C | 0% | 0hPa | 2.6V | 00:00:00 | 00:00:00 | 00:00:00 | |
| PG1ADW-2 | 2026-08-31 00:49:38 | 49.51381 | 17.75537 | 300° | 22km/h | 23967m | -23.5m/s | -52.9°C | 4.0% | 0hPa | 2.6V | 00:00:00 | 00:00:00 | 00:00:00 | |
| DO3MHA-11 | 2026-08-31 00:49:36 | 49.51377 | 17.75546 | 300° | 22km/h | 24015m | -26.7m/s | -52.9°C | 3.9% | 0hPa | 2.6V | 00:00:00 | 02:15:29 | 00:00:00 | |
| OE5MMP-10 | 2026-08-31 00:49:34 | 49.51373 | 17.75556 | 308° | 24km/h | 24067m | -24.2m/s | -53.0°C | 4.0% | 0hPa | 2.6V | 00:00:00 | 02:15:27 | 00:00:00 | |
| OE3OSB-13 | 2026-08-31 00:49:31 | 49.51363 | 17.75573 | 324° | 22km/h | 24139m | -24.2m/s | -53.3°C | 1.1% | -1.0hPa | 2.6V | 00:00:00 | 00:00:00 | 00:00:00 | |
| DO3MHA-11 | 2026-08-31 00:49:27 | 49.51332 | 17.75587 | 357° | 24km/h | 24255m | -24.4m/s | -53.3°C | 4.2% | 0hPa | 2.6V | 00:00:00 | 02:15:19 | 00:00:00 | |
| OE5MMP-10 | 2026-08-31 00:49:24 | 49.51319 | 17.75586 | 8° | 20km/h | 24304m | -24.0m/s | -53.3°C | 4.1% | 0hPa | 2.5V | 08:24:00 | 02:15:17 | 00:00:00 | |
| S52SK | 2026-08-31 00:49:23 | 49.51318 | 17.75586 | 8° | 27km/h | 24304m | -24.0m/s | -53.3°C | 1.2% | 0hPa | 2.5V | 00:00:00 | 00:00:00 | 00:00:00 | |
| S52SK | 2026-08-31 00:49:19 | 49.51290 | 17.75574 | 25° | 20km/h | 24423m | -23.3m/s | -53.4°C | 1.1% | 0hPa | 2.5V | 00:00:00 | 00:00:00 | 00:00:00 | |
| PG1ADW-2 | 2026-08-31 00:49:18 | 49.51286 | 17.75571 | 27° | 11km/h | 24447m | -23.8m/s | -53.3°C | 4.2% | 0hPa | 2.5V | 00:00:00 | 00:00:00 | 00:00:00 | |
| OE5DXL-15 | 2026-08-31 00:49:17 | 49.51282 | 17.75568 | 28° | 9km/h | 24470m | -21.8m/s | -53.3°C | 4.3% | 0hPa | 2.5V | 00:00:00 | 00:00:00 | 00:00:00 | |
| DO3MHA-11 | 2026-08-31 00:49:16 | 49.51279 | 17.75564 | 33° | 9km/h | 24492m | -23.1m/s | -53.3°C | 4.2% | 0hPa | 2.5V | 00:00:00 | 02:15:09 | 00:00:00 | |
| OE5DRO-10 | 2026-08-31 00:49:15 | 49.51276 | 17.75561 | 38° | 9km/h | 24516m | -25.7m/s | -53.4°C | 4.3% | 0hPa | 2.5V | 08:25:00 | 00:00:00 | 00:00:00 | |
| OE5MMP-10 | 2026-08-31 00:49:14 | 49.51273 | 17.75559 | 45° | 9km/h | 24542m | -26.0m/s | -53.4°C | 4.3% | 0hPa | 2.5V | 00:00:00 | 02:15:07 | 00:00:00 | |
| DO3MHA-11 | 2026-08-31 00:49:06 | 49.51284 | 17.75551 | 197° | 11km/h | 24753m | -26.8m/s | -53.1°C | 4.2% | 0hPa | 2.5V | 00:00:00 | 02:14:59 | 00:00:00 | |
| OE5MMP-10 | 2026-08-31 00:49:04 | 49.51289 | 17.75554 | 212° | 9km/h | 24806m | -24.3m/s | -53.0°C | 4.2% | 0hPa | 2.5V | 00:00:00 | 02:14:57 | 00:00:00 | |
| OE3OSB-13 | 2026-08-31 00:49:00 | 49.51295 | 17.75568 | 259° | 9km/h | 24902m | -24.1m/s | -52.9°C | 1.1% | -1.0hPa | 2.5V | 00:00:00 | 00:00:00 | 00:00:00 | |
| EDDB2-11 | 2026-08-31 00:48:48 | 49.51301 | 17.75610 | 238° | 7km/h | 25235m | -25.4m/s | -52.2°C | 1.0% | -1.0hPa | 2.5V | 00:00:00 | 00:00:00 | 00:00:00 | |
| OE5DXL-15 | 2026-08-31 00:48:47 | 49.51301 | 17.75610 | 239° | 9km/h | 25235m | -25.4m/s | -52.1°C | 4.0% | 0hPa | 2.5V | 00:00:00 | 00:00:00 | 00:00:00 | |
| DO3MHA-11 | 2026-08-31 00:48:46 | 49.51302 | 17.75612 | 241° | 13km/h | 25261m | -26.1m/s | -51.9°C | 3.9% | 0hPa | 2.5V | 00:00:00 | 02:14:39 | 00:00:00 | |
| OE5MMP-10 | 2026-08-31 00:48:44 | 49.51303 | 17.75618 | 252° | 15km/h | 25318m | -30.0m/s | -51.7°C | 3.9% | 0hPa | 2.5V | 00:00:00 | 02:14:37 | 00:00:00 | |
| PG1ADW-2 | 2026-08-31 00:48:38 | 49.51301 | 17.75647 | 296° | 9km/h | 25493m | -26.9m/s | -51.8°C | 3.9% | 0hPa | 2.5V | 00:00:00 | 02:14:31 | 00:00:00 | |
| OE5DRO-10 | 2026-08-31 00:48:37 | 49.51299 | 17.75653 | 300° | 9km/h | 25519m | -24.7m/s | -51.8°C | 3.9% | 0hPa | 2.5V | 00:00:00 | 00:00:00 | 00:00:00 | |
| DO3MHA-11 | 2026-08-31 00:48:36 | 49.51297 | 17.75658 | 307° | 11km/h | 25545m | -26.6m/s | -51.8°C | 3.9% | 0hPa | 2.5V | 00:00:00 | 02:14:29 | 00:00:00 | |
| OE5MMP-10 | 2026-08-31 00:48:34 | 49.51292 | 17.75668 | 317° | 9km/h | 25596m | -25.7m/s | -51.8°C | 3.9% | 0hPa | 2.5V | 00:00:00 | 02:14:27 | 00:00:00 | |
| OE3OSB-13 | 2026-08-31 00:48:29 | 49.51280 | 17.75681 | 330° | 7km/h | 25724m | -25.5m/s | -51.5°C | 1.0% | -1.0hPa | 2.5V | 00:00:00 | 00:00:00 | 00:00:00 | |
| DO3MHA-11 | 2026-08-31 00:48:26 | 49.51275 | 17.75685 | 316° | 5km/h | 25798m | -25.6m/s | -51.6°C | 3.9% | 0hPa | 2.5V | 08:25:00 | 02:14:19 | 00:00:00 | |
| OE5MMP-10 | 2026-08-31 00:48:24 | 49.51274 | 17.75688 | 298° | 5km/h | 25847m | -23.4m/s | -51.8°C | 4.0% | 0hPa | 2.6V | 00:00:00 | 02:14:17 | 00:00:00 | |
| OE5DRO-10 | 2026-08-31 00:48:18 | 49.51278 | 17.75697 | 214° | 11km/h | 26000m | -25.6m/s | -51.9°C | 4.0% | 0hPa | 2.6V | 00:00:00 | 00:00:00 | 00:00:00 | |
| EDDB2-11 | 2026-08-31 00:48:17 | 49.51281 | 17.75701 | 234° | 7km/h | 26053m | -27.5m/s | -51.9°C | 1.0% | -1.0hPa | 2.6V | 00:00:00 | 00:00:00 | 00:00:00 | |
| DO3MHA-11 | 2026-08-31 00:48:16 | 49.51280 | 17.75701 | 235° | 9km/h | 26054m | -27.4m/s | -51.9°C | 4.0% | 0hPa | 2.6V | 00:00:00 | 02:14:09 | 00:00:00 | |
| OE5MMP-10 | 2026-08-31 00:48:14 | 49.51283 | 17.75706 | 249° | 13km/h | 26108m | -27.3m/s | -51.9°C | 4.1% | 0hPa | 2.6V | 00:00:00 | 02:14:07 | 00:00:00 | |
| SP3WXH-11 | 2026-08-31 00:48:13 | 49.51283 | 17.75713 | 274° | 9km/h | 26166m | -28.8m/s | -51.7°C | 1.0% | -1.0hPa | 2.6V | 00:00:00 | 00:00:00 | 00:00:00 | |
| OE5MMP-10 | 2026-08-31 00:48:04 | 49.51266 | 17.75750 | 319° | 9km/h | 26382m | -27.8m/s | -50.8°C | 3.8% | 0hPa | 2.6V | 00:00:00 | 02:13:57 | 00:00:00 | |
| OE5DRO-10 | 2026-08-31 00:47:59 | 49.51257 | 17.75756 | 70° | 7km/h | 26515m | -26.6m/s | -50.9°C | 3.9% | 0hPa | 2.6V | 00:00:00 | 00:00:00 | 00:00:00 | |
| PG1ADW-2 | 2026-08-31 00:47:58 | 49.51257 | 17.75754 | 90° | 9km/h | 26541m | -25.9m/s | -51.0°C | 3.9% | 0hPa | 2.6V | 00:00:00 | 00:00:00 | 00:00:00 | |
| DB0DAN | 2026-08-31 00:47:55 | 49.51258 | 17.75743 | 92° | 11km/h | 26620m | -25.6m/s | -51.2°C | 1% | 0hPa | 2.5V | 00:00:00 | 00:00:00 | 00:00:00 | |
| EDDB2-11 | 2026-08-31 00:47:46 | 49.51259 | 17.75714 | 107° | 5km/h | 26886m | -27.7m/s | -50.0°C | 0.9% | -1.0hPa | 2.5V | 00:00:00 | 00:00:00 | 00:00:00 | |
| HA6NAB-11 | 2026-08-31 00:47:45 | 49.51259 | 17.75714 | 109° | 5km/h | 26886m | -27.7m/s | -50.0°C | 1.0% | 0hPa | 2.5V | 08:26:00 | 00:00:00 | 00:00:00 | |
| OE5MMP-10 | 2026-08-31 00:47:44 | 49.51260 | 17.75711 | 114° | 9km/h | 26914m | -28.0m/s | -49.7°C | 3.7% | 0hPa | 2.5V | 00:00:00 | 02:13:37 | 00:00:00 | |
| SP3WXH-11 | 2026-08-31 00:47:42 | 49.51265 | 17.75703 | 142° | 13km/h | 26999m | -29.7m/s | -49.5°C | 0.9% | -1.0hPa | 2.5V | 00:00:00 | 00:00:00 | 00:00:00 | |
| HA6NAB-11 | 2026-08-31 00:47:40 | 49.51267 | 17.75700 | 146° | 13km/h | 27028m | -28.1m/s | -49.4°C | 0.9% | 0hPa | 2.5V | 08:26:00 | 00:00:00 | 00:00:00 | |
| OE5MMP-10 | 2026-08-31 00:47:34 | 49.51274 | 17.75693 | 6° | 9km/h | 27177m | -25.9m/s | -49.1°C | 3.5% | 0hPa | 2.5V | 00:00:00 | 02:13:27 | 00:00:00 | |
| POL1PZ | 2026-08-31 00:47:33 | 49.51274 | 17.75693 | 7° | 5km/h | 27177m | -26.0m/s | -49.2°C | 0.9% | 0hPa | 2.5V | 08:26:00 | 00:00:00 | 00:00:00 | |
| DO3MHA-11 | 2026-08-31 00:47:30 | 49.51266 | 17.75693 | 2° | 11km/h | 27289m | -28.8m/s | -48.9°C | 3.5% | 0hPa | 2.5V | 00:00:00 | 02:13:23 | 00:00:00 | |
| HA6NAB-11 | 2026-08-31 00:47:28 | 49.51263 | 17.75693 | 7° | 11km/h | 27318m | -28.5m/s | -48.6°C | 0.8% | 0hPa | 2.5V | 00:00:00 | 00:00:00 | 00:00:00 | |
| OE5MMP-10 | 2026-08-31 00:47:24 | 49.51259 | 17.75681 | 109° | 9km/h | 27466m | -28.7m/s | -48.1°C | 3.3% | 0hPa | 2.5V | 00:00:00 | 02:13:17 | 00:00:00 | |
| OE5DRO-10 | 2026-08-31 00:47:21 | 49.51263 | 17.75667 | 118° | 9km/h | 27552m | -29.3m/s | -48.4°C | 3.3% | 0hPa | 2.5V | 00:00:00 | 00:00:00 | 00:00:00 | |
| DO3MHA-11 | 2026-08-31 00:47:20 | 49.51265 | 17.75663 | 121° | 7km/h | 27580m | -26.8m/s | -48.6°C | 3.4% | 0hPa | 2.5V | 00:00:00 | 02:13:13 | 00:00:00 | |
| OE5DXL-15 | 2026-08-31 00:47:17 | 49.51269 | 17.75654 | 141° | 9km/h | 27663m | -28.5m/s | -48.8°C | 3.5% | 0hPa | 2.5V | 00:00:00 | 00:00:00 | 00:00:00 | |
| OE5MMP-10 | 2026-08-31 00:47:14 | 49.51273 | 17.75653 | 206° | 7km/h | 27752m | -30.8m/s | -48.8°C | 3.5% | 0hPa | 2.5V | 00:00:00 | 02:13:07 | 00:00:00 | |
| POL1PZ | 2026-08-31 00:47:12 | 49.51274 | 17.75655 | 230° | 7km/h | 27783m | -31.4m/s | -48.8°C | 0.9% | 0hPa | 2.5V | 08:27:00 | 00:00:00 | 00:00:00 | |
| SP3WXH-11 | 2026-08-31 00:47:11 | 49.51276 | 17.75663 | 273° | 5km/h | 27871m | -28.0m/s | -48.4°C | 0.8% | -1.0hPa | 2.5V | 00:00:00 | 00:00:00 | 00:00:00 | |
| DO3MHA-11 | 2026-08-31 00:47:10 | 49.51276 | 17.75663 | 274° | 9km/h | 27871m | -27.9m/s | -48.3°C | 3.4% | 0hPa | 2.5V | 00:00:00 | 02:13:03 | 00:00:00 | |
| SP3BTT-10 | 2026-08-31 00:47:08 | 49.51275 | 17.75668 | 316° | 13km/h | 27928m | -29.9m/s | -48.1°C | 3.3% | 0hPa | 2.5V | 00:00:00 | 00:00:00 | 00:00:00 | |
| OE5MMP-10 | 2026-08-31 00:47:04 | 49.51265 | 17.75669 | 26° | 13km/h | 28049m | -30.2m/s | -48.5°C | 3.5% | 0hPa | 2.5V | 00:00:00 | 02:12:57 | 00:00:00 | |
| PG1ADW-2 | 2026-08-31 00:47:03 | 49.51263 | 17.75667 | 42° | 11km/h | 28079m | -30.6m/s | -48.4°C | 3.5% | 0hPa | 2.5V | 00:00:00 | 00:00:00 | 00:00:00 | |
| OE3OSB-13 | 2026-08-31 00:46:56 | 49.51260 | 17.75633 | 136° | 9km/h | 28316m | -28.5m/s | -47.7°C | 0.8% | -1.0hPa | 2.5V | 00:00:00 | 00:00:00 | 00:00:00 | |
| OE5MMP-10 | 2026-08-31 00:46:54 | 49.51262 | 17.75631 | 169° | 9km/h | 28345m | -29.8m/s | -47.5°C | 3.3% | 0hPa | 2.5V | 00:00:00 | 02:12:47 | 00:00:00 | |
| POL1PZ | 2026-08-31 00:46:52 | 49.51263 | 17.75632 | 203° | 7km/h | 28375m | -30.4m/s | -47.5°C | 0.9% | 0hPa | 2.5V | 08:27:00 | 00:00:00 | 00:00:00 | |
| DO3MHA-11 | 2026-08-31 00:46:50 | 49.51268 | 17.75640 | 248° | 11km/h | 28462m | -27.5m/s | -47.1°C | 3.2% | 0hPa | 2.5V | 00:00:00 | 02:12:43 | 00:00:00 | |
| OE5DXL-15 | 2026-08-31 00:46:47 | 49.51266 | 17.75649 | 316° | 13km/h | 28553m | -30.7m/s | -47.0°C | 3.2% | 0hPa | 2.5V | 00:00:00 | 00:00:00 | 00:00:00 | |
| EDDB2-11 | 2026-08-31 00:46:44 | 49.51254 | 17.75655 | 354° | 16km/h | 28676m | -29.0m/s | -46.7°C | 0.7% | -1.0hPa | 2.5V | 00:00:00 | 00:00:00 | 00:00:00 | |
| DB0DAN | 2026-08-31 00:46:40 | 49.51242 | 17.75657 | 360° | 16km/h | 28764m | -31.1m/s | -46.5°C | 0.7% | 0hPa | 2.5V | 00:00:00 | 00:00:00 | 00:00:00 | |
| OE5MMP-10 | 2026-08-31 00:46:34 | 49.51221 | 17.75647 | 42° | 15km/h | 28952m | -30.2m/s | -47.1°C | 3.3% | 0hPa | 2.5V | 00:00:00 | 02:12:27 | 00:00:00 | |
| POL1PZ | 2026-08-31 00:46:31 | 49.51215 | 17.75637 | 50° | 18km/h | 29010m | -29.2m/s | -47.1°C | 0.8% | 0hPa | 2.5V | 08:28:00 | 00:00:00 | 00:00:00 | |
| SQ9EZE-14 | 2026-08-31 00:46:30 | 49.51213 | 17.75631 | 61° | 18km/h | 29039m | -28.5m/s | 0°C | 0% | 0hPa | 2.5V | 00:00:00 | 00:00:00 | 00:00:00 | |
| OE3OSB-13 | 2026-08-31 00:46:25 | 49.51200 | 17.75604 | 52° | 4km/h | 29250m | -34.2m/s | -46.5°C | 0.8% | -1.0hPa | 2.5V | 00:00:00 | 00:00:00 | 00:00:00 | |
| OE5MMP-10 | 2026-08-31 00:46:24 | 49.51200 | 17.75604 | 53° | 7km/h | 29250m | -34.1m/s | -46.4°C | 3.3% | 0hPa | 2.5V | 08:27:00 | 02:12:17 | 00:00:00 | |
| SP3BTT-10 | 2026-08-31 00:46:23 | 49.51199 | 17.75602 | 68° | 16km/h | 29285m | -36.5m/s | -46.2°C | 3.2% | 0hPa | 2.5V | 00:00:00 | 00:00:00 | 08:30:00 | |
| PG1ADW-2 | 2026-08-31 00:46:22 | 49.51198 | 17.75600 | 78° | 7km/h | 29322m | -38.5m/s | -46.0°C | 3.2% | 0hPa | 2.5V | 00:00:00 | 00:00:00 | 00:00:00 | |
| OE5DXL-15 | 2026-08-31 00:46:17 | 49.51197 | 17.75585 | 76° | 13km/h | 29496m | -34.9m/s | -45.1°C | 3.0% | 0hPa | 2.5V | 00:00:00 | 00:00:00 | 00:00:00 | |
| OE5MMP-10 | 2026-08-31 00:46:14 | 49.51195 | 17.75573 | 83° | 5km/h | 29601m | -35.1m/s | -44.7°C | 2.9% | 0hPa | 2.5V | 00:00:00 | 02:12:07 | 00:00:00 | |
| EDDB2-11 | 2026-08-31 00:46:12 | 49.51195 | 17.75567 | 96° | 4km/h | 29670m | -33.6m/s | -44.5°C | 0.7% | -1.0hPa | 2.5V | 00:00:00 | 00:00:00 | 00:00:00 | |
| POL1PZ | 2026-08-31 00:46:11 | 49.51195 | 17.75567 | 98° | 5km/h | 29670m | -33.6m/s | -44.5°C | 0.7% | 0hPa | 2.5V | 08:28:00 | 00:00:00 | 00:00:00 | |
| SP3WXH-11 | 2026-08-31 00:46:09 | 49.51197 | 17.75567 | 254° | 2km/h | 29808m | -36.4m/s | -44.4°C | 0.7% | -1.0hPa | 2.5V | 00:00:00 | 00:00:00 | 00:00:00 | |
| OE5DRO-10 | 2026-08-31 00:46:05 | 49.51195 | 17.75575 | 315° | 16km/h | 29918m | -37.5m/s | -44.0°C | 2.8% | 0hPa | 2.5V | 00:00:00 | 00:00:00 | 00:00:00 | |
| OE5MMP-10 | 2026-08-31 00:46:04 | 49.51193 | 17.75577 | 334° | 13km/h | 29956m | -36.9m/s | -43.9°C | 2.8% | 0hPa | 2.5V | 00:00:00 | 02:11:57 | 00:00:00 | |
| OE3OSB-13 | 2026-08-31 00:45:53 | 49.51156 | 17.75600 | 347° | 18km/h | 30386m | -34.3m/s | -43.5°C | 0.7% | -1.0hPa | 2.5V | 00:00:00 | 00:00:00 | 00:00:00 | |
| POL1PZ | 2026-08-31 00:45:51 | 49.51152 | 17.75601 | 355° | 18km/h | 30423m | -38.0m/s | -43.4°C | 0.7% | 0hPa | 2.5V | 08:28:00 | 00:00:00 | 00:00:00 | |
| OE5DXL-15 | 2026-08-31 00:45:47 | 49.51128 | 17.75600 | 6° | 18km/h | 30612m | -40.9m/s | -43.1°C | 2.8% | 0hPa | 2.5V | 08:28:00 | 00:00:00 | 00:00:00 | |
| OE5DRO-10 | 2026-08-31 00:45:46 | 49.51123 | 17.75599 | 7° | 22km/h | 30653m | -40.6m/s | -43.0°C | 2.8% | 0hPa | 2.6V | 00:00:00 | 00:00:00 | 00:00:00 | |
| OE5MMP-10 | 2026-08-31 00:45:44 | 49.51112 | 17.75593 | 26° | 24km/h | 30734m | -40.9m/s | -42.9°C | 2.7% | 0hPa | 2.6V | 00:00:00 | 02:11:37 | 00:00:00 | |
| PG1ADW-2 | 2026-08-31 00:45:42 | 49.51104 | 17.75583 | 46° | 20km/h | 30813m | -37.9m/s | -42.6°C | 2.7% | 0hPa | 2.6V | 00:00:00 | 00:00:00 | 00:00:00 | |
| EDDB2-11 | 2026-08-31 00:45:41 | 49.51100 | 17.75576 | 44° | 22km/h | 30851m | -39.1m/s | -42.6°C | 0.6% | -1.0hPa | 2.6V | 00:00:00 | 00:00:00 | 00:00:00 | |
| HA6NAB-11 | 2026-08-31 00:45:40 | 49.51100 | 17.75576 | 45° | 24km/h | 30851m | -39.1m/s | -42.6°C | 0.7% | 0hPa | 2.6V | 00:00:00 | 00:00:00 | 00:00:00 | |
| SP3WXH-11 | 2026-08-31 00:45:38 | 49.51085 | 17.75545 | 59° | 24km/h | 31012m | -40.6m/s | -41.5°C | 0.5% | -1.0hPa | 2.6V | 00:00:00 | 00:00:00 | 00:00:00 | |
| OE3JTB-15 | 2026-08-31 00:45:35 | 49.51078 | 17.75530 | 48° | 22km/h | 31090m | -39.9m/s | -41.2°C | 2.4% | 0hPa | 2.6V | 00:00:00 | 02:11:28 | 00:00:00 | |
| OE5MMP-10 | 2026-08-31 00:45:34 | 49.51074 | 17.75525 | 41° | 18km/h | 31128m | -37.5m/s | -41.1°C | 2.4% | 0hPa | 2.6V | 00:00:00 | 02:11:27 | 00:00:00 | |
| POL1PZ | 2026-08-31 00:45:30 | 49.51062 | 17.75507 | 39° | 20km/h | 31244m | -40.3m/s | -41.0°C | 0.6% | 0hPa | 2.6V | 08:29:00 | 00:00:00 | 00:00:00 | |
| HA6NAB-11 | 2026-08-31 00:45:28 | 49.51055 | 17.75497 | 47° | 18km/h | 31326m | -42.6m/s | -40.7°C | 0.6% | 0hPa | 2.6V | 00:00:00 | 00:00:00 | 00:00:00 | |
| OE5DRO-10 | 2026-08-31 00:45:27 | 49.51049 | 17.75490 | 52° | 16km/h | 31413m | -42.5m/s | -40.6°C | 2.3% | 0hPa | 2.6V | 00:00:00 | 00:00:00 | 00:00:00 | |
| OE5MMP-10 | 2026-08-31 00:45:24 | 49.51042 | 17.75481 | 46° | 15km/h | 31537m | -43.0m/s | -40.8°C | 2.3% | 0hPa | 2.5V | 00:00:00 | 02:11:17 | 00:00:00 | |
| PG1ADW-2 | 2026-08-31 00:45:22 | 49.51037 | 17.75479 | 358° | 20km/h | 31620m | -40.9m/s | -41.1°C | 2.4% | 0hPa | 2.6V | 08:28:00 | 02:11:15 | 00:00:00 | |
| OE5DXL-15 | 2026-08-31 00:45:17 | 49.51021 | 17.75482 | 351° | 26km/h | 31826m | -43.2m/s | -41.1°C | 2.5% | 0hPa | 2.6V | 00:00:00 | 00:00:00 | 00:00:00 | |
| OE5MMP-10 | 2026-08-31 00:45:14 | 49.51005 | 17.75483 | 3° | 24km/h | 31950m | -40.8m/s | -40.9°C | 2.4% | 0hPa | 2.6V | 00:00:00 | 02:11:07 | 00:00:00 | |
| HA6NAB-11 | 2026-08-31 00:45:11 | 49.50994 | 17.75480 | 6° | 24km/h | 32039m | -44.6m/s | -41.0°C | 0.6% | 0hPa | 2.6V | 00:00:00 | 00:00:00 | 00:00:00 | |
| EDDB2-11 | 2026-08-31 00:45:10 | 49.50984 | 17.75476 | 16° | 22km/h | 32127m | -43.2m/s | -41.1°C | 0.6% | -1.0hPa | 2.6V | 00:00:00 | 00:00:00 | 00:00:00 | |
| SP3BTT-10 | 2026-08-31 00:45:08 | 49.50973 | 17.75470 | 24° | 29km/h | 32212m | -41.8m/s | -40.9°C | 2.5% | 0hPa | 2.6V | 00:00:00 | 00:00:00 | 00:00:00 | |
| SP3WXH-11 | 2026-08-31 00:45:07 | 49.50961 | 17.75463 | 11° | 24km/h | 32294m | -41.3m/s | -40.7°C | 0.5% | -1.0hPa | 2.6V | 00:00:00 | 00:00:00 | 00:00:00 | |
| OE5MMP-10 | 2026-08-31 00:45:05 | 49.50949 | 17.75460 | 11° | 26km/h | 32378m | -43.0m/s | -40.5°C | 2.4% | 0hPa | 2.6V | 00:00:00 | 02:10:57 | 00:00:00 | |
| OE3OSB-13 | 2026-08-31 00:44:51 | 49.50865 | 17.75411 | 35° | 33km/h | 32948m | -42.3m/s | -40.1°C | 0.5% | -1.0hPa | 2.6V | 00:00:00 | 00:00:00 | 00:00:00 | |
| S52SK | 2026-08-31 00:44:50 | 49.50865 | 17.75411 | 37° | 35km/h | 32948m | -42.3m/s | -40.1°C | 0.6% | 0hPa | 2.6V | 00:00:00 | 00:00:00 | 00:00:00 | |
| POL1PZ | 2026-08-31 00:44:49 | 49.50858 | 17.75404 | 37° | 31km/h | 32990m | -41.6m/s | -40.0°C | 0.6% | 0hPa | 2.6V | 00:00:00 | 00:00:00 | 00:00:00 | |
| OE5DRO-10 | 2026-08-31 00:44:48 | 49.50847 | 17.75388 | 50° | 33km/h | 33072m | -40.7m/s | -39.5°C | 2.4% | 0hPa | 2.6V | 00:00:00 | 00:00:00 | 00:00:00 | |
| OE5DXL-15 | 2026-08-31 00:44:47 | 49.50842 | 17.75379 | 56° | 37km/h | 33113m | -42.5m/s | -39.5°C | 2.4% | 0hPa | 2.6V | 00:00:00 | 02:10:40 | 00:00:00 | |
| OE5MMP-10 | 2026-08-31 00:44:44 | 49.50833 | 17.75354 | 54° | 29km/h | 33234m | -40.3m/s | -39.2°C | 2.3% | 0hPa | 2.6V | 00:00:00 | 02:10:37 | 00:00:00 | |
| PG1ADW-2 | 2026-08-31 00:44:42 | 49.50825 | 17.75341 | 32° | 38km/h | 33316m | -43.3m/s | -38.6°C | 2.2% | 0hPa | 2.6V | 00:00:00 | 00:00:00 | 00:00:00 | |
| EDDB2-11 | 2026-08-31 00:44:39 | 49.50807 | 17.75324 | 26° | 31km/h | 33449m | -44.1m/s | -38.1°C | 0.5% | -1.0hPa | 2.6V | 00:00:00 | 00:00:00 | 00:00:00 | |
| SP3WXH-11 | 2026-08-31 00:44:35 | 49.50781 | 17.75290 | 58° | 35km/h | 33608m | -36.9m/s | -37.6°C | 0.4% | -1.0hPa | 2.6V | 00:00:00 | 00:00:00 | 00:00:00 | |
| OE5MMP-10 | 2026-08-31 00:44:34 | 49.50777 | 17.75277 | 68° | 46km/h | 33645m | -35.9m/s | -37.4°C | 2.0% | 0hPa | 2.6V | 00:00:00 | 02:10:27 | 00:00:00 | |
| NBG1-10 | 2026-08-31 00:44:31 | 49.50768 | 17.75227 | 76° | 42km/h | 33766m | -44.8m/s | -36.9°C | 1.9% | 0hPa | 2.6V | 00:00:00 | 02:10:24 | 00:00:00 | |
| OE5DRO-10 | 2026-08-31 00:44:29 | 49.50761 | 17.75191 | 72° | 37km/h | 33853m | -41.7m/s | -36.8°C | 1.9% | 0hPa | 2.6V | 00:00:00 | 00:00:00 | 00:00:00 | |
| OE5MMP-10 | 2026-08-31 00:44:24 | 49.50733 | 17.75117 | 57° | 35km/h | 34043m | -35.7m/s | -37.1°C | 1.9% | 0hPa | 2.6V | 00:00:00 | 02:10:17 | 00:00:00 | |
| PG1ADW-2 | 2026-08-31 00:44:22 | 49.50725 | 17.75092 | 73° | 33km/h | 34111m | -32.7m/s | -37.4°C | 2.0% | 0hPa | 2.6V | 00:00:00 | 00:00:00 | 00:00:00 | |
| OE3OSB-13 | 2026-08-31 00:44:20 | 49.50724 | 17.75066 | 95° | 35km/h | 34180m | -37.3m/s | -37.6°C | 0.4% | -1.0hPa | 2.6V | 00:00:00 | 00:00:00 | 00:00:00 | |
| OE5DXL-15 | 2026-08-31 00:44:17 | 49.50727 | 17.75023 | 98° | 37km/h | 34293m | -36.5m/s | -38.1°C | 2.1% | 0hPa | 2.6V | 00:00:00 | 00:00:00 | 00:00:00 | |
| OE5MMP-10 | 2026-08-31 00:44:14 | 49.50723 | 17.74993 | 52° | 33km/h | 34407m | -37.1m/s | -38.2°C | 2.1% | 0hPa | 2.5V | 00:00:00 | 02:10:07 | 00:00:00 | |
| OE5DRO-10 | 2026-08-31 00:44:10 | 49.50700 | 17.74963 | 44° | 33km/h | 34545m | -30.8m/s | -37.9°C | 2.1% | 0hPa | 2.5V | 00:00:00 | 00:00:00 | 00:00:00 | |
| POL1PZ | 2026-08-31 00:44:09 | 49.50700 | 17.74962 | 44° | 31km/h | 34545m | -30.9m/s | -38.0°C | 0.5% | 0hPa | 2.5V | 00:00:00 | 00:00:00 | 00:00:00 | |
| EDDB2-11 | 2026-08-31 00:44:08 | 49.50690 | 17.74943 | 58° | 33km/h | 34600m | -25.4m/s | -38.0°C | 0.5% | -1.0hPa | 2.5V | 00:00:00 | 00:00:00 | 00:00:00 | |
| SP3BTT-10 | 2026-08-31 00:44:07 | 49.50686 | 17.74932 | 69° | 27km/h | 34624m | -22.0m/s | -38.0°C | 2.2% | 0hPa | 2.5V | 00:00:00 | 00:00:00 | 00:00:00 | |
| OE3JTB-15 | 2026-08-31 00:44:05 | 49.50682 | 17.74906 | 88° | 37km/h | 34660m | -16.3m/s | -37.8°C | 2.3% | 0hPa | 2.5V | 00:00:00 | 00:00:00 | 00:00:00 | |
| SP3WXH-11 | 2026-08-31 00:44:04 | 49.50683 | 17.74892 | 98° | 35km/h | 34677m | -18.5m/s | -37.7°C | 0.5% | -1.0hPa | 2.5V | 00:00:00 | 00:00:00 | 00:00:00 | |
| OE5MMP-10 | 2026-08-31 00:44:03 | 49.50684 | 17.74880 | 105° | 27km/h | 34696m | -20.5m/s | -37.5°C | 2.2% | 0hPa | 2.5V | 00:00:00 | 02:09:56 | 00:00:00 | |
| OE3OSB-13 | 2026-08-31 00:43:49 | 49.50627 | 17.74718 | 68° | 64km/h | 35034m | -5.8m/s | -36.7°C | 0.4% | -1.0hPa | 2.5V | 00:00:00 | 00:00:00 | 00:00:00 | |
| OE5MMP-10 | 2026-08-31 00:43:43 | 49.50599 | 17.74613 | 58° | 40km/h | 34993m | 8.4m/s | -36.5°C | 2.0% | 0hPa | 2.5V | 00:00:00 | 02:09:36 | 00:00:00 | |
| PG1ADW-2 | 2026-08-31 00:43:42 | 49.50595 | 17.74603 | 53° | 37km/h | 34985m | 7.8m/s | -36.4°C | 1.9% | 0hPa | 2.5V | 00:00:00 | 00:00:00 | 00:00:00 | |
| EDDB2-11 | 2026-08-31 00:43:37 | 49.50581 | 17.74540 | 85° | 44km/h | 34949m | 6.2m/s | -36.4°C | 0.4% | -1.0hPa | 2.5V | 00:00:00 | 00:00:00 | 00:00:00 | |
| OE5MMP-10 | 2026-08-31 00:43:33 | 49.50565 | 17.74466 | 54° | 29km/h | 34924m | 7.8m/s | -36.3°C | 1.9% | 0hPa | 2.5V | 00:00:00 | 02:09:26 | 00:00:00 | |
| OE5DRO-10 | 2026-08-31 00:43:32 | 49.50557 | 17.74451 | 43° | 31km/h | 34916m | 6.6m/s | -36.3°C | 1.9% | 0hPa | 2.5V | 00:00:00 | 00:00:00 | 08:30:00 | |
| DB0UT-7 | 2026-08-31 00:43:30 | 49.50540 | 17.74434 | 28° | 27km/h | 34904m | 5.9m/s | 0°C | 0% | 0hPa | 2.5V | 00:00:00 | 00:00:00 | 00:00:00 | |
| POL1PZ | 2026-08-31 00:43:28 | 49.50535 | 17.74429 | 28° | 20km/h | 34898m | 6.4m/s | -36.3°C | 0.4% | 0hPa | 2.5V | 00:00:00 | 00:00:00 | 00:00:00 | |
| OE5MMP-10 | 2026-08-31 00:43:23 | 49.50537 | 17.74371 | 81° | 27km/h | 34859m | 5.7m/s | -36.5°C | 1.8% | 0hPa | 2.5V | 00:00:00 | 02:09:16 | 08:30:00 | |
| PG1ADW-2 | 2026-08-31 00:43:22 | 49.50534 | 17.74353 | 67° | 29km/h | 34852m | 6.8m/s | -36.5°C | 1.8% | 0hPa | 2.5V | 00:00:00 | 00:00:00 | 00:00:00 | |
| OE3OSB-13 | 2026-08-31 00:43:18 | 49.50503 | 17.74310 | 23° | 27km/h | 34826m | 6.9m/s | -36.9°C | 0.4% | -1.0hPa | 2.7V | 00:00:00 | 00:00:00 | 00:00:00 | |
| OE5DXL-15 | 2026-08-31 00:43:17 | 49.50498 | 17.74306 | 26° | 27km/h | 34819m | 7.1m/s | -36.9°C | 1.9% | 0hPa | 2.7V | 00:00:00 | 00:00:00 | 00:00:00 | |
| OE5DRO-10 | 2026-08-31 00:43:13 | 49.50494 | 17.74286 | 93° | 26km/h | 34791m | 6.9m/s | -37.2°C | 1.9% | 0hPa | 2.7V | 00:00:00 | 00:00:00 | 00:00:00 | |
| OE5MMP-10 | 2026-08-31 00:43:12 | 49.50493 | 17.74276 | 85° | 29km/h | 34784m | 7.0m/s | -37.2°C | 1.9% | 0hPa | 2.7V | 00:00:00 | 02:09:05 | 00:00:00 | |
| SP3BTT-10 | 2026-08-31 00:43:07 | 49.50470 | 17.74230 | 31° | 31km/h | 34748m | 6.2m/s | -37.8°C | 2.0% | 0hPa | 2.7V | 00:00:00 | 00:00:00 | 00:00:00 | |
| EDDB2-11 | 2026-08-31 00:43:06 | 49.50463 | 17.74224 | 33° | 29km/h | 34741m | 6.4m/s | -37.9°C | 0.4% | -1.0hPa | 2.6V | 00:00:00 | 00:00:00 | 00:00:00 | |
| OE5MMP-10 | 2026-08-31 00:43:02 | 49.50451 | 17.74196 | 76° | 27km/h | 34713m | 5.8m/s | -38.0°C | 2.0% | 0hPa | 2.6V | 00:00:00 | 02:08:55 | 00:00:00 | |
| DB0UT-7 | 2026-08-31 00:42:59 | 49.50442 | 17.74179 | 34° | 31km/h | 34691m | 7.6m/s | 0°C | 0% | 0hPa | 2.6V | 00:00:00 | 02:08:52 | 00:00:00 | |
| OE5DRO-10 | 2026-08-31 00:42:54 | 49.50418 | 17.74139 | 63° | 31km/h | 34655m | 6.5m/s | -38.2°C | 2.1% | 0hPa | 2.6V | 00:00:00 | 00:00:00 | 00:00:00 | |
| OE5MMP-10 | 2026-08-31 00:42:52 | 49.50408 | 17.74114 | 58° | 31km/h | 34642m | 7.5m/s | -38.2°C | 2.1% | 0hPa | 2.6V | 00:00:00 | 02:08:45 | 00:00:00 | |
| NBG1-10 | 2026-08-31 00:42:48 | 49.50388 | 17.74074 | 56° | 33km/h | 34614m | 6.4m/s | -38.1°C | 2.0% | 0hPa | 2.5V | 00:00:00 | 02:08:41 | 00:00:00 | |
| OE5DXL-15 | 2026-08-31 00:42:47 | 49.50384 | 17.74064 | 68° | 29km/h | 34607m | 7.8m/s | -38.2°C | 2.0% | 0hPa | 2.5V | 00:00:00 | 00:00:00 | 00:00:00 | |
| POL1PZ | 2026-08-31 00:42:46 | 49.50384 | 17.74064 | 68° | 27km/h | 34607m | 7.8m/s | -38.2°C | 0.5% | 0hPa | 2.5V | 00:00:00 | 00:00:00 | 00:00:00 | |
| OE5MMP-10 | 2026-08-31 00:42:42 | 49.50377 | 17.74011 | 57° | 27km/h | 34573m | 7.5m/s | -38.3°C | 2.1% | 0hPa | 2.5V | 00:00:00 | 02:08:35 | 00:00:00 | |
| S52SK | 2026-08-31 00:42:41 | 49.50377 | 17.74010 | 58° | 27km/h | 34573m | 7.6m/s | -38.3°C | 0.5% | 0hPa | 2.5V | 00:00:00 | 00:00:00 | 00:00:00 | |
| OE5DRO-10 | 2026-08-31 00:42:35 | 49.50347 | 17.73953 | 92° | 29km/h | 34522m | 6.4m/s | -38.9°C | 2.2% | 0hPa | 2.5V | 00:00:00 | 00:00:00 | 00:00:00 | |
| OE3JTB-15 | 2026-08-31 00:42:34 | 49.50347 | 17.73922 | 86° | 29km/h | 34501m | 7.0m/s | -38.9°C | 2.2% | 0hPa | 2.5V | 00:00:00 | 00:00:00 | 00:00:00 | |
| OE5MMP-10 | 2026-08-31 00:42:32 | 49.50347 | 17.73922 | 86° | 26km/h | 34501m | 7.0m/s | -38.9°C | 2.2% | 0hPa | 2.5V | 00:00:00 | 02:08:25 | 00:00:00 | |
| SP3WXH-11 | 2026-08-31 00:42:31 | 49.50347 | 17.73913 | 86° | 22km/h | 34494m | 6.1m/s | -38.9°C | 0.5% | -1.0hPa | 2.5V | 00:00:00 | 00:00:00 | 00:00:00 | |
| POL1PZ | 2026-08-31 00:42:26 | 49.50351 | 17.73870 | 84° | 24km/h | 34459m | 6.6m/s | -38.6°C | 0.5% | 0hPa | 2.5V | 00:00:00 | 00:00:00 | 00:00:00 | |
| OE5MMP-10 | 2026-08-31 00:42:22 | 49.50337 | 17.73826 | 69° | 27km/h | 34430m | 5.9m/s | -38.5°C | 2.1% | 0hPa | 2.5V | 00:00:00 | 02:08:15 | 00:00:00 | |
| OE5DXL-15 | 2026-08-31 00:42:17 | 49.50336 | 17.73752 | 103° | 31km/h | 34394m | 7.5m/s | -38.5°C | 2.2% | 0hPa | 2.5V | 00:00:00 | 00:00:00 | 00:00:00 | |
| OE5DRO-10 | 2026-08-31 00:42:16 | 49.50337 | 17.73742 | 103° | 27km/h | 34386m | 8.0m/s | -38.5°C | 2.1% | 0hPa | 2.5V | 00:00:00 | 00:00:00 | 00:00:00 | |
| OE5MMP-10 | 2026-08-31 00:42:12 | 49.50341 | 17.73726 | 118° | 31km/h | 34356m | 7.1m/s | -38.6°C | 2.2% | 0hPa | 2.5V | 00:00:00 | 02:08:05 | 00:00:00 | |
| POL1PZ | 2026-08-31 00:42:05 | 49.50331 | 17.73668 | 63° | 42km/h | 34315m | 6.3m/s | -38.5°C | 0.5% | 0hPa | 2.5V | 00:00:00 | 00:00:00 | 00:00:00 | |
| SP3WXH-11 | 2026-08-31 00:42:00 | 49.50331 | 17.73581 | 115° | 29km/h | 34272m | 6.3m/s | -38.3°C | 0.5% | -1.0hPa | 2.5V | 00:00:00 | 00:00:00 | 00:00:00 | |
| OE3OSB-13 | 2026-08-31 00:41:45 | 49.50300 | 17.73404 | 75° | 27km/h | 34165m | 6.7m/s | -37.6°C | 0.5% | -1.0hPa | 2.5V | 00:00:00 | 00:00:00 | 00:00:00 | |
| POL1PZ | 2026-08-31 00:41:44 | 49.50300 | 17.73404 | 77° | 27km/h | 34165m | 6.7m/s | -37.6°C | 0.5% | 0hPa | 2.5V | 00:00:00 | 00:00:00 | 00:00:00 | |
| OE5MMP-10 | 2026-08-31 00:41:42 | 49.50296 | 17.73365 | 83° | 44km/h | 34144m | 6.9m/s | -37.6°C | 2.1% | 0hPa | 2.5V | 00:00:00 | 02:07:35 | 00:00:00 | |
| HA6NAB-11 | 2026-08-31 00:41:40 | 49.50294 | 17.73349 | 82° | 40km/h | 34137m | 6.8m/s | -37.6°C | 0.5% | 0hPa | 2.5V | 00:00:00 | 00:00:00 | 00:00:00 | |
| OE5DRO-10 | 2026-08-31 00:41:38 | 49.50287 | 17.73306 | 70° | 44km/h | 34115m | 7.3m/s | -37.5°C | 2.1% | 0hPa | 2.5V | 00:00:00 | 00:00:00 | 00:00:00 | |
| HA6NAB-11 | 2026-08-31 00:41:34 | 49.50276 | 17.73263 | 73° | 47km/h | 34094m | 8.0m/s | -37.4°C | 0.5% | 0hPa | 2.5V | 00:00:00 | 00:00:00 | 00:00:00 | |
| EDDB2-11 | 2026-08-31 00:41:33 | 49.50269 | 17.73224 | 76° | 57km/h | 34078m | 7.4m/s | -37.4°C | 0.5% | -1.0hPa | 2.5V | 00:00:00 | 00:00:00 | 00:00:00 | |
| OE5MMP-10 | 2026-08-31 00:41:32 | 49.50266 | 17.73202 | 77° | 44km/h | 34071m | 6.3m/s | -37.3°C | 2.1% | 0hPa | 2.5V | 00:00:00 | 02:07:25 | 00:00:00 | |
| OE3JTB-15 | 2026-08-31 00:41:31 | 49.50259 | 17.73166 | 72° | 44km/h | 34057m | 8.3m/s | -37.2°C | 2.0% | 0hPa | 2.5V | 00:00:00 | 00:00:00 | 00:00:00 | |
| SP3WXH-11 | 2026-08-31 00:41:30 | 49.50256 | 17.73151 | 66° | 35km/h | 34048m | 7.4m/s | -37.2°C | 0.5% | -1.0hPa | 2.7V | 00:00:00 | 00:00:00 | 00:00:00 | |
| HA6NAB-11 | 2026-08-31 00:41:29 | 49.50256 | 17.73151 | 68° | 37km/h | 34049m | 7.4m/s | -37.2°C | 0.5% | 0hPa | 2.7V | 00:00:00 | 00:00:00 | 00:00:00 | |
| POL1PZ | 2026-08-31 00:41:23 | 49.50238 | 17.73082 | 70° | 47km/h | 34013m | 6.8m/s | -37.1°C | 0.5% | 0hPa | 2.7V | 00:00:00 | 00:00:00 | 00:00:00 | |
| OE5MMP-10 | 2026-08-31 00:41:22 | 49.50228 | 17.73047 | 63° | 47km/h | 33999m | 8.4m/s | -37.0°C | 2.0% | 0hPa | 2.7V | 00:00:00 | 02:07:15 | 00:00:00 | |
| OE5DRO-10 | 2026-08-31 00:41:19 | 49.50211 | 17.72999 | 65° | 47km/h | 33978m | 5.8m/s | -37.0°C | 2.0% | 0hPa | 2.5V | 00:00:00 | 00:00:00 | 00:00:00 | |
| OE5DXL-15 | 2026-08-31 00:41:17 | 49.50202 | 17.72962 | 76° | 46km/h | 33962m | 8.3m/s | -37.1°C | 2.0% | 0hPa | 2.5V | 00:00:00 | 00:00:00 | 08:30:00 | |
| OE3OSB-13 | 2026-08-31 00:41:14 | 49.50193 | 17.72893 | 72° | 35km/h | 33933m | 8.5m/s | -37.3°C | 0.5% | -1.0hPa | 2.6V | 00:00:00 | 00:00:00 | 00:00:00 | |
| HA6NAB-11 | 2026-08-31 00:41:13 | 49.50193 | 17.72893 | 74° | 35km/h | 33933m | 8.5m/s | -37.3°C | 0% | 0hPa | 2.6V | 00:00:00 | 00:00:00 | 00:00:00 | |
| OE5MMP-10 | 2026-08-31 00:41:12 | 49.50190 | 17.72881 | 64° | 49km/h | 33925m | 7.1m/s | -37.3°C | 2.0% | 0hPa | 2.6V | 00:00:00 | 02:07:05 | 00:00:00 | |
| HA6NAB-11 | 2026-08-31 00:41:06 | 49.50162 | 17.72806 | 63° | 58km/h | 33889m | 6.3m/s | -37.2°C | 0% | 0hPa | 2.6V | 00:00:00 | 00:00:00 | 00:00:00 | |
| POL1PZ | 2026-08-31 00:41:03 | 49.50135 | 17.72731 | 65° | 49km/h | 33862m | 5.3m/s | -37.2°C | 0.5% | 0hPa | 2.6V | 00:00:00 | 00:00:00 | 00:00:00 | |
| EDDB2-11 | 2026-08-31 00:41:02 | 49.50130 | 17.72714 | 70° | 47km/h | 33857m | 6.0m/s | -37.2°C | 0.5% | -1.0hPa | 2.6V | 00:00:00 | 00:00:00 | 00:00:00 | |
| SP3WXH-11 | 2026-08-31 00:40:58 | 49.50120 | 17.72642 | 71° | 44km/h | 33831m | 5.4m/s | -37.3°C | 0.5% | -1.0hPa | 2.6V | 00:00:00 | 00:00:00 | 00:00:00 | |
| HA6NAB-11 | 2026-08-31 00:40:56 | 49.50115 | 17.72627 | 61° | 42km/h | 33824m | 7.6m/s | -37.3°C | 0% | 0hPa | 2.6V | 00:00:00 | 00:00:00 | 00:00:00 | |
| OE5MMP-10 | 2026-08-31 00:40:52 | 49.50073 | 17.72570 | 47° | 42km/h | 33787m | 7.7m/s | -37.3°C | 2.0% | 0hPa | 2.6V | 00:00:00 | 02:06:45 | 00:00:00 | |
| HA6NAB-11 | 2026-08-31 00:40:51 | 49.50066 | 17.72556 | 57° | 47km/h | 33780m | 7.3m/s | -37.4°C | 0% | 0hPa | 2.5V | 00:00:00 | 00:00:00 | 00:00:00 | |
| NBG1-10 | 2026-08-31 00:40:49 | 49.50055 | 17.72524 | 68° | 40km/h | 33766m | 6.5m/s | -37.5°C | 2.0% | 0hPa | 2.5V | 00:00:00 | 02:06:42 | 00:00:00 | |
| OE5DXL-15 | 2026-08-31 00:40:47 | 49.50047 | 17.72495 | 61° | 37km/h | 33751m | 7.7m/s | -37.6°C | 2.0% | 0hPa | 2.5V | 00:00:00 | 00:00:00 | 00:00:00 | |
| OE3OSB-13 | 2026-08-31 00:40:43 | 49.50016 | 17.72433 | 54° | 46km/h | 33716m | 7.5m/s | -37.8°C | 0.5% | -1.0hPa | 2.5V | 00:00:00 | 00:00:00 | 00:00:00 | |
| OE5MMP-10 | 2026-08-31 00:40:42 | 49.50016 | 17.72433 | 55° | 40km/h | 33717m | 7.5m/s | -37.7°C | 2.0% | 0hPa | 2.5V | 00:00:00 | 02:06:35 | 00:00:00 | |
| OE5DRO-10 | 2026-08-31 00:40:41 | 49.50009 | 17.72419 | 53° | 38km/h | 33710m | 6.2m/s | -37.7°C | 2.0% | 0hPa | 2.5V | 00:00:00 | 00:00:00 | 08:30:00 | |
| S52SK | 2026-08-31 00:40:40 | 49.50009 | 17.72419 | 54° | 49km/h | 33710m | 6.2m/s | -37.8°C | 0.5% | 0hPa | 2.5V | 00:00:00 | 00:00:00 | 00:00:00 | |
| S52SK | 2026-08-31 00:40:35 | 49.49962 | 17.72366 | 19° | 38km/h | 33675m | 5.8m/s | -37.9°C | 0.5% | 0hPa | 2.5V | 00:00:00 | 00:00:00 | 00:00:00 | |
| OE5MMP-10 | 2026-08-31 00:40:32 | 49.49938 | 17.72339 | 68° | 35km/h | 33647m | 7.5m/s | -37.8°C | 2.0% | 0hPa | 2.5V | 00:00:00 | 02:06:25 | 00:00:00 | |
| EDDB2-11 | 2026-08-31 00:40:31 | 49.49935 | 17.72327 | 72° | 35km/h | 33640m | 6.6m/s | -37.9°C | 0.5% | -1.0hPa | 2.5V | 00:00:00 | 00:00:00 | 00:00:00 | |
| S52SK | 2026-08-31 00:40:30 | 49.49932 | 17.72314 | 69° | 37km/h | 33634m | 6.0m/s | -37.9°C | 0.5% | 0hPa | 2.5V | 00:00:00 | 00:00:00 | 00:00:00 | |
| SP3WXH-11 | 2026-08-31 00:40:27 | 49.49915 | 17.72282 | 31° | 37km/h | 33612m | 6.7m/s | -38.0°C | 0.5% | -1.0hPa | 2.5V | 00:00:00 | 00:00:00 | 00:00:00 | |
| POL1PZ | 2026-08-31 00:40:22 | 49.49873 | 17.72253 | 26° | 29km/h | 33577m | 6.4m/s | -38.1°C | 0.5% | 0hPa | 2.5V | 00:00:00 | 00:00:00 | 00:00:00 | |
| OE5DXL-15 | 2026-08-31 00:40:17 | 49.49844 | 17.72243 | 21° | 24km/h | 33542m | 5.4m/s | -38.2°C | 2.1% | 0hPa | 2.5V | 00:00:00 | 00:00:00 | 00:00:00 | |
| OE5MMP-10 | 2026-08-31 00:40:12 | 49.49818 | 17.72201 | 44° | 26km/h | 33509m | 4.3m/s | -38.2°C | 2.1% | 0hPa | 2.5V | 00:00:00 | 02:06:05 | 00:00:00 | |
| OE5DRO-10 | 2026-08-31 00:40:03 | 49.49771 | 17.72209 | 71° | 24km/h | 33450m | 8.6m/s | -38.5°C | 2.1% | 0hPa | 2.5V | 00:00:00 | 00:00:00 | 00:00:00 | |
| EDDB2-11 | 2026-08-31 00:40:00 | 49.49755 | 17.72157 | 57° | 37km/h | 33419m | 6.0m/s | -38.8°C | 0.5% | -1.0hPa | 2.5V | 00:00:00 | 00:00:00 | 00:00:00 | |
| SP3WXH-11 | 2026-08-31 00:39:56 | 49.49743 | 17.72133 | 49° | 13km/h | 33398m | 8.4m/s | -38.8°C | 0.5% | -1.0hPa | 2.5V | 00:00:00 | 00:00:00 | 00:00:00 | |
| OE5MMP-10 | 2026-08-31 00:39:51 | 49.49739 | 17.72130 | 15° | 27km/h | 33361m | 6.9m/s | -38.8°C | 2.2% | 0hPa | 2.5V | 00:00:00 | 02:05:44 | 00:00:00 | |
| OE5DXL-15 | 2026-08-31 00:39:47 | 49.49721 | 17.72102 | 62° | 35km/h | 33331m | 7.9m/s | -38.8°C | 2.1% | 0hPa | 2.5V | 00:00:00 | 00:00:00 | 00:00:00 | |
| OE5DRO-10 | 2026-08-31 00:39:44 | 49.49710 | 17.72069 | 52° | 35km/h | 33313m | 5.4m/s | -38.9°C | 2.1% | 0hPa | 2.5V | 00:00:00 | 00:00:00 | 00:00:00 | |
| PG1ADW-2 | 2026-08-31 00:39:42 | 49.49699 | 17.72057 | 14° | 35km/h | 33298m | 9.1m/s | -39.0°C | 2.2% | 0hPa | 2.6V | 00:00:00 | 00:00:00 | 00:00:00 | |
| OE5MMP-10 | 2026-08-31 00:39:41 | 49.49692 | 17.72056 | 356° | 33km/h | 33289m | 7.1m/s | -39.1°C | 2.2% | 0hPa | 2.6V | 00:00:00 | 02:05:34 | 00:00:00 | |
| POL1PZ | 2026-08-31 00:39:40 | 49.49691 | 17.72056 | 356° | 31km/h | 33289m | 7.2m/s | -39.2°C | 0.5% | 0hPa | 2.6V | 00:00:00 | 00:00:00 | 00:00:00 | |
| SP3BTT-10 | 2026-08-31 00:39:36 | 49.49663 | 17.72053 | 50° | 33km/h | 33255m | 6.6m/s | -39.4°C | 2.2% | 0hPa | 2.6V | 00:00:00 | 00:00:00 | 00:00:00 | |
| OE5MMP-10 | 2026-08-31 00:39:31 | 49.49629 | 17.71989 | 51° | 37km/h | 33218m | 7.4m/s | -39.4°C | 2.2% | 0hPa | 2.5V | 00:00:00 | 02:05:24 | 00:00:00 | |
| EDDB2-11 | 2026-08-31 00:39:29 | 49.49606 | 17.71954 | 31° | 35km/h | 33197m | 6.2m/s | -39.5°C | 0.5% | -1.0hPa | 2.5V | 00:00:00 | 00:00:00 | 00:00:00 | |
| OE5DRO-10 | 2026-08-31 00:39:25 | 49.49579 | 17.71943 | 2° | 37km/h | 33174m | 6.6m/s | -39.5°C | 2.2% | 0hPa | 2.5V | 00:00:00 | 00:00:00 | 00:00:00 | |
| PG1ADW-2 | 2026-08-31 00:39:22 | 49.49556 | 17.71937 | 30° | 37km/h | 33156m | 8.5m/s | -39.5°C | 2.2% | 0hPa | 2.5V | 00:00:00 | 00:00:00 | 08:30:00 | |
| OE5MMP-10 | 2026-08-31 00:39:21 | 49.49551 | 17.71930 | 56° | 37km/h | 33147m | 9.1m/s | -39.6°C | 2.2% | 0hPa | 2.5V | 00:00:00 | 02:05:14 | 00:00:00 | |
| POL1PZ | 2026-08-31 00:39:19 | 49.49548 | 17.71921 | 74° | 31km/h | 33138m | 7.8m/s | -39.6°C | 0.5% | 0hPa | 2.5V | 00:00:00 | 00:00:00 | 00:00:00 | |
| OE5DXL-15 | 2026-08-31 00:39:17 | 49.49538 | 17.71880 | 56° | 37km/h | 33116m | 7.2m/s | -39.6°C | 2.3% | 0hPa | 2.5V | 00:00:00 | 00:00:00 | 00:00:00 | |
| OE5MMP-10 | 2026-08-31 00:39:11 | 49.49488 | 17.71832 | 13° | 37km/h | 33075m | 5.8m/s | -39.5°C | 2.2% | 0hPa | 2.5V | 00:00:00 | 02:05:04 | 00:00:00 | |
| OE3OSB-13 | 2026-08-31 00:39:10 | 49.49469 | 17.71825 | 14° | 38km/h | 33060m | 7.2m/s | -39.6°C | 0.5% | -1.0hPa | 2.5V | 00:00:00 | 00:00:00 | 00:00:00 | |
| OE5DRO-10 | 2026-08-31 00:39:06 | 49.49448 | 17.71802 | 59° | 35km/h | 33042m | 8.8m/s | -39.6°C | 2.2% | 0hPa | 2.5V | 00:00:00 | 00:00:00 | 00:00:00 | |
| EDDB2-11 | 2026-08-31 00:38:58 | 49.49407 | 17.71714 | 0° | 31km/h | 32978m | 8.2m/s | -40.2°C | 0.5% | -1.0hPa | 2.5V | 00:00:00 | 00:00:00 | 00:00:00 | |
| SP3WXH-11 | 2026-08-31 00:38:54 | 49.49388 | 17.71712 | 21° | 22km/h | 32956m | 5.8m/s | -40.3°C | 0.5% | -1.0hPa | 2.5V | 00:00:00 | 00:00:00 | 00:00:00 | |
| OE5MMP-10 | 2026-08-31 00:38:49 | 49.49354 | 17.71662 | 49° | 33km/h | 32920m | 6.5m/s | -40.3°C | 2.3% | 0hPa | 2.5V | 00:00:00 | 02:04:42 | 08:30:00 | |
| OE5DRO-10 | 2026-08-31 00:38:48 | 49.49339 | 17.71635 | 57° | 31km/h | 32907m | 6.2m/s | -40.2°C | 2.4% | 0hPa | 2.6V | 00:00:00 | 00:00:00 | 00:00:00 | |
| OE5DXL-15 | 2026-08-31 00:38:47 | 49.49339 | 17.71635 | 57° | 29km/h | 32907m | 6.2m/s | -40.2°C | 2.4% | 0hPa | 2.6V | 00:00:00 | 00:00:00 | 00:00:00 | |
| HA6NAB-11 | 2026-08-31 00:38:43 | 49.49328 | 17.71602 | 54° | 20km/h | 32886m | 5.7m/s | -40.3°C | 0% | 0hPa | 2.6V | 00:00:00 | 00:00:00 | 00:00:00 | |
| PG1ADW-2 | 2026-08-31 00:38:42 | 49.49319 | 17.71596 | 5° | 31km/h | 32873m | 8.7m/s | -40.2°C | 2.3% | 0hPa | 2.6V | 00:00:00 | 02:04:35 | 00:00:00 | |
| OE5MMP-10 | 2026-08-31 00:38:39 | 49.49294 | 17.71592 | 13° | 33km/h | 32852m | 5.5m/s | -40.2°C | 2.3% | 0hPa | 2.6V | 00:00:00 | 02:04:32 | 00:00:00 | |
| HA6NAB-11 | 2026-08-31 00:38:38 | 49.49294 | 17.71592 | 14° | 38km/h | 32852m | 5.6m/s | -40.2°C | 0% | 0hPa | 2.6V | 00:00:00 | 00:00:00 | 00:00:00 | |
| POL1PZ | 2026-08-31 00:38:37 | 49.49286 | 17.71588 | 20° | 35km/h | 32845m | 8.2m/s | -40.2°C | 0.6% | 0hPa | 2.6V | 00:00:00 | 00:00:00 | 00:00:00 | |
| SP3BTT-10 | 2026-08-31 00:38:34 | 49.49259 | 17.71567 | 32° | 29km/h | 32817m | 8.1m/s | -40.3°C | 2.3% | 0hPa | 2.6V | 00:00:00 | 00:00:00 | 00:00:00 | |
| HA6NAB-11 | 2026-08-31 00:38:33 | 49.49259 | 17.71567 | 32° | 31km/h | 32817m | 8.1m/s | -40.4°C | 0% | 0hPa | 2.6V | 00:00:00 | 00:00:00 | 00:00:00 | |
| OE5MMP-10 | 2026-08-31 00:38:29 | 49.49227 | 17.71527 | 38° | 29km/h | 32781m | 9.6m/s | -40.5°C | 2.3% | 0hPa | 2.6V | 00:00:00 | 02:04:22 | 00:00:00 | |
| OE5DRO-10 | 2026-08-31 00:38:28 | 49.49223 | 17.71525 | 3° | 29km/h | 32773m | 5.9m/s | -40.5°C | 2.4% | 0hPa | 2.6V | 00:00:00 | 00:00:00 | 00:00:00 | |
| EDDB2-11 | 2026-08-31 00:38:27 | 49.49211 | 17.71529 | 339° | 29km/h | 32759m | 7.8m/s | -40.5°C | 0.6% | -1.0hPa | 2.6V | 00:00:00 | 00:00:00 | 00:00:00 | |
| DB0UT-7 | 2026-08-31 00:38:24 | 49.49194 | 17.71536 | 353° | 26km/h | 32743m | 5.3m/s | 0°C | 0% | 0hPa | 2.6V | 00:00:00 | 00:00:00 | 00:00:00 | |
| SP3WXH-11 | 2026-08-31 00:38:23 | 49.49185 | 17.71537 | 359° | 35km/h | 32737m | 4.9m/s | -40.5°C | 0.5% | -1.0hPa | 2.6V | 00:00:00 | 00:00:00 | 00:00:00 | |
| PG1ADW-2 | 2026-08-31 00:38:22 | 49.49176 | 17.71537 | 4° | 26km/h | 32732m | 5.9m/s | -40.4°C | 2.3% | 0hPa | 2.6V | 00:00:00 | 00:00:00 | 00:00:00 | |
| HA6NAB-11 | 2026-08-31 00:38:21 | 49.49176 | 17.71537 | 4° | 35km/h | 32732m | 5.9m/s | -40.5°C | 0% | 0hPa | 2.5V | 00:00:00 | 00:00:00 | 00:00:00 | |
| OE5MMP-10 | 2026-08-31 00:38:19 | 49.49155 | 17.71533 | 8° | 27km/h | 32707m | 4.6m/s | -40.5°C | 2.3% | 0hPa | 2.5V | 00:00:00 | 02:04:12 | 00:00:00 | |
| OE5DXL-15 | 2026-08-31 00:38:17 | 49.49145 | 17.71530 | 9° | 24km/h | 32696m | 7.2m/s | -40.5°C | 2.3% | 0hPa | 2.6V | 00:00:00 | 00:00:00 | 00:00:00 | |
| HA6NAB-11 | 2026-08-31 00:38:15 | 49.49138 | 17.71529 | 10° | 29km/h | 32687m | 10.5m/s | -40.5°C | 0% | 0hPa | 2.5V | 00:00:00 | 00:00:00 | 00:00:00 | |
| OE5MMP-10 | 2026-08-31 00:38:09 | 49.49085 | 17.71533 | 360° | 22km/h | 32637m | 7.0m/s | -40.6°C | 2.3% | 0hPa | 2.5V | 00:00:00 | 02:04:02 | 00:00:00 | |
| OE3OSB-13 | 2026-08-31 00:38:08 | 49.49072 | 17.71530 | 20° | 27km/h | 32619m | 6.3m/s | -40.7°C | 0.6% | -1.0hPa | 2.5V | 00:00:00 | 00:00:00 | 00:00:00 | |
| EDDB2-11 | 2026-08-31 00:37:56 | 49.49006 | 17.71505 | 3° | 20km/h | 32532m | 6.6m/s | -40.8°C | 0.6% | -1.0hPa | 2.5V | 00:00:00 | 00:00:00 | 00:00:00 | |
| SP3WXH-11 | 2026-08-31 00:37:52 | 49.48990 | 17.71499 | 22° | 26km/h | 32510m | 8.2m/s | -40.8°C | 0.6% | -1.0hPa | 2.5V | 00:00:00 | 00:00:00 | 00:00:00 | |
| OE5DRO-10 | 2026-08-31 00:37:50 | 49.48978 | 17.71491 | 28° | 24km/h | 32497m | 6.5m/s | -40.8°C | 2.4% | 0hPa | 2.5V | 00:00:00 | 00:00:00 | 08:30:00 | |
| OE5MMP-10 | 2026-08-31 00:37:49 | 49.48973 | 17.71487 | 25° | 22km/h | 32489m | 8.6m/s | -40.8°C | 2.3% | 0hPa | 2.5V | 00:00:00 | 02:03:42 | 00:00:00 | |
| OE5DXL-15 | 2026-08-31 00:37:47 | 49.48967 | 17.71485 | 360° | 24km/h | 32474m | 6.1m/s | -40.8°C | 2.4% | 0hPa | 2.6V | 00:00:00 | 00:00:00 | 00:00:00 | |
| PG1ADW-2 | 2026-08-31 00:37:42 | 49.48936 | 17.71482 | 10° | 26km/h | 32438m | 6.3m/s | -40.9°C | 2.3% | 0hPa | 2.6V | 00:00:00 | 00:00:00 | 00:00:00 | |
| OE5MMP-10 | 2026-08-31 00:37:39 | 49.48919 | 17.71474 | 41° | 22km/h | 32416m | 6.8m/s | -41.0°C | 2.4% | 0hPa | 2.6V | 00:00:00 | 02:03:32 | 00:00:00 | |
| POL1PZ | 2026-08-31 00:37:37 | 49.48913 | 17.71461 | 58° | 26km/h | 32401m | 7.6m/s | -41.1°C | 0.6% | 0hPa | 2.6V | 00:00:00 | 00:00:00 | 00:00:00 | |
| OE3OSB-13 | 2026-08-31 00:37:36 | 49.48909 | 17.71452 | 55° | 27km/h | 32394m | 8.1m/s | -41.2°C | 0.6% | -1.0hPa | 2.6V | 00:00:00 | 00:00:00 | 00:00:00 | |
| SP3BTT-10 | 2026-08-31 00:37:34 | 49.48900 | 17.71434 | 51° | 15km/h | 32381m | 5.1m/s | -41.2°C | 2.4% | 0hPa | 2.6V | 00:00:00 | 00:00:00 | 00:00:00 | |
| OE5DRO-10 | 2026-08-31 00:37:31 | 49.48890 | 17.71414 | 55° | 20km/h | 32360m | 7.9m/s | -41.3°C | 2.4% | 0hPa | 2.6V | 00:00:00 | 00:00:00 | 00:00:00 | |
| OE5MMP-10 | 2026-08-31 00:37:29 | 49.48886 | 17.71409 | 14° | 26km/h | 32347m | 5.6m/s | -41.3°C | 2.4% | 0hPa | 2.6V | 00:00:00 | 02:03:22 | 00:00:00 | |
| EDDB2-11 | 2026-08-31 00:37:25 | 49.48852 | 17.71403 | 14° | 38km/h | 32310m | 5.9m/s | 0°C | -1.0% | -1.0hPa | 2.6V | 00:00:00 | 00:00:00 | 00:00:00 | |
| PG1ADW-2 | 2026-08-31 00:37:22 | 49.48836 | 17.71393 | 30° | 18km/h | 32296m | 7.6m/s | -41.7°C | 2.5% | 0hPa | 2.6V | 00:00:00 | 02:03:15 | 00:00:00 | |
| OE5MMP-10 | 2026-08-31 00:37:19 | 49.48825 | 17.71380 | 36° | 16km/h | 32276m | 6.3m/s | -41.7°C | 2.5% | 0hPa | 2.5V | 00:00:00 | 02:03:12 | 08:30:00 | |
| OE5DXL-15 | 2026-08-31 00:37:17 | 49.48818 | 17.71377 | 358° | 18km/h | 32262m | 7.9m/s | -41.7°C | 2.5% | 0hPa | 2.7V | 00:00:00 | 00:00:00 | 00:00:00 | |
| POL1PZ | 2026-08-31 00:37:15 | 49.48814 | 17.71378 | 351° | 18km/h | 32255m | 6.1m/s | -41.8°C | 0.6% | 0hPa | 2.7V | 00:00:00 | 00:00:00 | 00:00:00 | |
| OE5DRO-10 | 2026-08-31 00:37:13 | 49.48798 | 17.71378 | 12° | 18km/h | 32226m | 5.8m/s | -41.9°C | 2.5% | 0hPa | 2.7V | 00:00:00 | 00:00:00 | 00:00:00 | |
| OE5MMP-10 | 2026-08-31 00:37:09 | 49.48781 | 17.71377 | 357° | 20km/h | 32203m | 7.5m/s | -41.8°C | 2.5% | 0hPa | 2.7V | 00:00:00 | 02:03:02 | 00:00:00 | |
| OE3OSB-13 | 2026-08-31 00:37:05 | 49.48758 | 17.71374 | 30° | 15km/h | 32176m | 7.6m/s | -41.9°C | 0.6% | -1.0hPa | 2.7V | 00:00:00 | 00:00:00 | 00:00:00 | |
| NBG1-10 | 2026-08-31 00:37:04 | 49.48755 | 17.71371 | 40° | 15km/h | 32169m | 5.6m/s | -41.8°C | 2.5% | 0hPa | 2.7V | 00:00:00 | 02:02:57 | 00:00:00 | |
| EDDB2-11 | 2026-08-31 00:36:54 | 49.48710 | 17.71356 | 358° | 22km/h | 32090m | 7.3m/s | 0°C | -1.0% | -1.0hPa | 2.7V | 00:00:00 | 00:00:00 | 00:00:00 | |
| SP3WXH-11 | 2026-08-31 00:36:50 | 49.48692 | 17.71354 | 15° | 20km/h | 32072m | 7.3m/s | -41.8°C | 0.6% | -1.0hPa | 2.7V | 00:00:00 | 00:00:00 | 00:00:00 | |
| OE5MMP-10 | 2026-08-31 00:36:49 | 49.48688 | 17.71352 | 30° | 15km/h | 32064m | 8.3m/s | -41.7°C | 2.5% | 0hPa | 2.7V | 00:00:00 | 02:02:42 | 00:00:00 | |
| OE5DXL-15 | 2026-08-31 00:36:47 | 49.48685 | 17.71347 | 67° | 13km/h | 32049m | 5.9m/s | -41.7°C | 2.5% | 0hPa | 2.5V | 00:00:00 | 00:00:00 | 08:30:00 | |
| HA6NAB-11 | 2026-08-31 00:36:43 | 49.48679 | 17.71345 | 350° | 16km/h | 32029m | 8.0m/s | -41.7°C | 0% | 0hPa | 2.6V | 00:00:00 | 00:00:00 | 00:00:00 | |
| PG1ADW-2 | 2026-08-31 00:36:42 | 49.48669 | 17.71349 | 348° | 13km/h | 32015m | 6.2m/s | -41.6°C | 2.5% | 0hPa | 2.6V | 00:00:00 | 00:00:00 | 00:00:00 | |
| OE5MMP-10 | 2026-08-31 00:36:39 | 49.48655 | 17.71353 | 354° | 11km/h | 31993m | 7.5m/s | -41.6°C | 2.5% | 0hPa | 2.6V | 00:00:00 | 02:02:32 | 00:00:00 | |
| HA6NAB-11 | 2026-08-31 00:36:38 | 49.48655 | 17.71353 | 354° | 11km/h | 31993m | 7.6m/s | -41.7°C | 0% | 0hPa | 2.6V | 00:00:00 | 00:00:00 | 00:00:00 | |
| SP3BTT-10 | 2026-08-31 00:36:34 | 49.48643 | 17.71359 | 330° | 15km/h | 31956m | 6.7m/s | 0°C | 0% | 0hPa | 2.6V | 00:00:00 | 00:00:00 | 08:30:00 | |
| HA6NAB-11 | 2026-08-31 00:36:32 | 49.48640 | 17.71363 | 325° | 16km/h | 31950m | 6.3m/s | -41.7°C | 0% | 0hPa | 2.6V | 00:00:00 | 00:00:00 | 00:00:00 | |
| OE5MMP-10 | 2026-08-31 00:36:29 | 49.48634 | 17.71374 | 238° | 11km/h | 31921m | 6.2m/s | -41.6°C | 2.5% | 0hPa | 2.6V | 00:00:00 | 02:02:22 | 00:00:00 | |
| HA6NAB-11 | 2026-08-31 00:36:27 | 49.48634 | 17.71375 | 299° | 2km/h | 31915m | 5.7m/s | -41.7°C | 0% | 0hPa | 2.6V | 00:00:00 | 00:00:00 | 00:00:00 | |
| OE3JTB-15 | 2026-08-31 00:36:26 | 49.48622 | 17.71371 | 27° | 13km/h | 31886m | 6.0m/s | -41.7°C | 2.5% | 0hPa | 2.6V | 00:00:00 | 00:00:00 | 08:30:00 | |
| PG1ADW-2 | 2026-08-31 00:36:22 | 49.48615 | 17.71363 | 57° | 13km/h | 31871m | 8.3m/s | -41.7°C | 2.5% | 0hPa | 2.5V | 00:00:00 | 00:00:00 | 08:30:00 | |
| SP3WXH-11 | 2026-08-31 00:36:19 | 49.48613 | 17.71357 | 285° | 9km/h | 31840m | 9.1m/s | -41.7°C | 0.6% | -1.0hPa | 2.7V | 00:00:00 | 00:00:00 | 00:00:00 | |
| OE5DXL-15 | 2026-08-31 00:36:17 | 49.48612 | 17.71362 | 283° | 13km/h | 31833m | 6.2m/s | -41.6°C | 2.5% | 0hPa | 2.7V | 00:00:00 | 00:00:00 | 00:00:00 | |
| OE5DRO-10 | 2026-08-31 00:36:15 | 49.48612 | 17.71375 | 265° | 13km/h | 31820m | 7.8m/s | -41.6°C | 2.5% | 0hPa | 2.7V | 00:00:00 | 00:00:00 | 00:00:00 | |
| POL1PZ | 2026-08-31 00:36:14 | 49.48611 | 17.71375 | 266° | 16km/h | 31820m | 7.9m/s | -41.6°C | 0.6% | 0hPa | 2.7V | 00:00:00 | 00:00:00 | 00:00:00 | |
| OE5MMP-10 | 2026-08-31 00:36:09 | 49.48604 | 17.71373 | 33° | 15km/h | 31774m | 7.3m/s | -41.4°C | 2.5% | 0hPa | 2.7V | 00:00:00 | 02:02:02 | 00:00:00 | |
| OE3OSB-13 | 2026-08-31 00:36:04 | 49.48591 | 17.71344 | 171° | 9km/h | 31732m | 7.1m/s | -41.4°C | 0.6% | -1.0hPa | 2.7V | 00:00:00 | 00:00:00 | 00:00:00 | |
| SP3WXH-11 | 2026-08-31 00:35:48 | 49.48595 | 17.71315 | 105° | 15km/h | 31615m | 5.5m/s | -41.5°C | 0.6% | -1.0hPa | 2.7V | 00:00:00 | 00:00:00 | 00:00:00 | |
| OE5DXL-15 | 2026-08-31 00:35:47 | 49.48595 | 17.71315 | 106° | 15km/h | 31615m | 5.4m/s | -41.5°C | 2.5% | 0hPa | 2.7V | 00:00:00 | 00:00:00 | 00:00:00 | |
| PG1ADW-2 | 2026-08-31 00:35:42 | 49.48588 | 17.71294 | 49° | 15km/h | 31579m | 7.9m/s | -41.2°C | 2.5% | 0hPa | 2.7V | 00:00:00 | 00:00:00 | 00:00:00 | |
| OE5MMP-10 | 2026-08-31 00:35:40 | 49.48584 | 17.71277 | 79° | 15km/h | 31556m | 6.3m/s | -41.1°C | 2.4% | 0hPa | 2.7V | 00:00:00 | 02:01:32 | 00:00:00 | |
| OE5DRO-10 | 2026-08-31 00:35:37 | 49.48582 | 17.71270 | 54° | 15km/h | 31541m | 8.1m/s | -41.0°C | 2.4% | 0hPa | 2.7V | 00:00:00 | 00:00:00 | 00:00:00 | |
| POL1PZ | 2026-08-31 00:35:34 | 49.48579 | 17.71265 | 55° | 9km/h | 31528m | 5.4m/s | -41.1°C | 0.6% | 0hPa | 2.7V | 00:00:00 | 00:00:00 | 00:00:00 | |
| OE3OSB-13 | 2026-08-31 00:35:32 | 49.48576 | 17.71247 | 83° | 20km/h | 31505m | 7.0m/s | -41.0°C | 0.6% | -1.0hPa | 2.7V | 00:00:00 | 00:00:00 | 00:00:00 | |
| OE5MMP-10 | 2026-08-31 00:35:29 | 49.48574 | 17.71227 | 62° | 15km/h | 31485m | 8.6m/s | -41.0°C | 2.4% | 0hPa | 2.7V | 00:00:00 | 02:01:22 | 00:00:00 | |
| OE3JTB-15 | 2026-08-31 00:35:27 | 49.48564 | 17.71224 | 17° | 18km/h | 31457m | 6.3m/s | -41.0°C | 2.4% | 0hPa | 2.7V | 00:00:00 | 02:01:18 | 00:00:00 | |
| PG1ADW-2 | 2026-08-31 00:35:22 | 49.48560 | 17.71208 | 88° | 20km/h | 31436m | 6.2m/s | -41.1°C | 2.4% | 0hPa | 2.7V | 00:00:00 | 00:00:00 | 00:00:00 | |
| OE5MMP-10 | 2026-08-31 00:35:19 | 49.48559 | 17.71184 | 78° | 18km/h | 31415m | 7.4m/s | -41.1°C | 2.4% | 0hPa | 2.5V | 00:00:00 | 02:01:12 | 00:00:00 | |
| OE5DRO-10 | 2026-08-31 00:35:18 | 49.48558 | 17.71178 | 58° | 20km/h | 31408m | 6.4m/s | -41.1°C | 2.4% | 0hPa | 2.7V | 00:00:00 | 00:00:00 | 00:00:00 | |
| OE5DXL-15 | 2026-08-31 00:35:17 | 49.48555 | 17.71174 | 43° | 22km/h | 31402m | 5.5m/s | -41.1°C | 2.4% | 0hPa | 2.7V | 00:00:00 | 00:00:00 | 00:00:00 | |
| POL1PZ | 2026-08-31 00:35:13 | 49.48542 | 17.71156 | 45° | 26km/h | 31380m | 6.4m/s | -41.1°C | 0.6% | 0hPa | 2.6V | 00:00:00 | 00:00:00 | 00:00:00 | |
| OE5MMP-10 | 2026-08-31 00:35:09 | 49.48530 | 17.71135 | 58° | 22km/h | 31347m | 5.3m/s | -41.2°C | 2.4% | 0hPa | 2.6V | 00:00:00 | 02:01:02 | 00:00:00 | |
| OE3OSB-13 | 2026-08-31 00:35:01 | 49.48504 | 17.71083 | 32° | 22km/h | 31290m | 6.1m/s | -41.5°C | 0.6% | -1.0hPa | 2.6V | 00:00:00 | 00:00:00 | 00:00:00 | |
| SP3WXH-11 | 2026-08-31 00:34:46 | 49.48442 | 17.70994 | 51° | 18km/h | 31176m | 8.0m/s | -41.5°C | 0.6% | -1.0hPa | 2.6V | 00:00:00 | 00:00:00 | 00:00:00 | |
| PG1ADW-2 | 2026-08-31 00:34:42 | 49.48434 | 17.70968 | 77° | 22km/h | 31155m | 6.9m/s | -41.4°C | 2.5% | 0hPa | 2.6V | 00:00:00 | 02:00:35 | 00:00:00 | |
| OE5DRO-10 | 2026-08-31 00:34:40 | 49.48432 | 17.70951 | 85° | 22km/h | 31139m | 7.1m/s | -41.5°C | 2.5% | 0hPa | 2.6V | 00:00:00 | 00:00:00 | 00:00:00 | |
| OE5MMP-10 | 2026-08-31 00:34:39 | 49.48432 | 17.70943 | 84° | 20km/h | 31133m | 6.0m/s | -41.5°C | 2.5% | 0hPa | 2.6V | 00:00:00 | 02:00:32 | 00:00:00 | |
| POL1PZ | 2026-08-31 00:34:33 | 49.48422 | 17.70895 | 65° | 26km/h | 31098m | 6.0m/s | -41.6°C | 0.6% | 0hPa | 2.6V | 00:00:00 | 00:00:00 | 00:00:00 | |
| OE3OSB-13 | 2026-08-31 00:34:30 | 49.48415 | 17.70874 | 76° | 11km/h | 31069m | 6.7m/s | -41.7°C | 0.6% | -1.0hPa | 2.6V | 00:00:00 | 00:00:00 | 00:00:00 | |
| OE5MMP-10 | 2026-08-31 00:34:29 | 49.48414 | 17.70869 | 83° | 24km/h | 31062m | 8.2m/s | -41.7°C | 2.4% | 0hPa | 2.6V | 00:00:00 | 02:00:22 | 00:00:00 | |
| PG1ADW-2 | 2026-08-31 00:34:22 | 49.48402 | 17.70809 | 53° | 24km/h | 31014m | 6.3m/s | -42.0°C | 2.4% | 0hPa | 2.6V | 00:00:00 | 00:00:00 | 00:00:00 | |
| OE5DRO-10 | 2026-08-31 00:34:21 | 49.48398 | 17.70801 | 53° | 24km/h | 31007m | 8.7m/s | -42.1°C | 2.4% | 0hPa | 2.5V | 00:00:00 | 00:00:00 | 00:00:00 | |
| OE5MMP-10 | 2026-08-31 00:34:19 | 49.48389 | 17.70782 | 52° | 22km/h | 30992m | 5.6m/s | -42.3°C | 2.5% | 0hPa | 2.5V | 00:00:00 | 02:00:12 | 08:30:00 | |
| S52SK | 2026-08-31 00:34:18 | 49.48389 | 17.70782 | 53° | 31km/h | 30992m | 5.7m/s | -42.3°C | 0.6% | 0hPa | 2.5V | 00:00:00 | 00:00:00 | 00:00:00 | |
| OE5DXL-15 | 2026-08-31 00:34:17 | 49.48380 | 17.70767 | 49° | 18km/h | 30979m | 8.4m/s | -42.4°C | 2.5% | 0hPa | 2.5V | 00:00:00 | 00:00:00 | 00:00:00 | |
| SP3WXH-11 | 2026-08-31 00:34:15 | 49.48373 | 17.70751 | 63° | 16km/h | 30958m | 7.6m/s | -42.7°C | 0.6% | -1.0hPa | 2.5V | 00:00:00 | 00:00:00 | 00:00:00 | |
| NBG1-10 | 2026-08-31 00:34:14 | 49.48373 | 17.70751 | 64° | 16km/h | 30958m | 7.6m/s | -42.6°C | 2.6% | 0hPa | 2.5V | 00:00:00 | 02:00:07 | 00:00:00 | |
| S52SK | 2026-08-31 00:34:13 | 49.48373 | 17.70751 | 65° | 16km/h | 30958m | 7.6m/s | -42.7°C | 0.7% | 0hPa | 2.5V | 00:00:00 | 00:00:00 | 00:00:00 | |
| POL1PZ | 2026-08-31 00:34:12 | 49.48371 | 17.70744 | 67° | 22km/h | 30950m | 7.8m/s | -42.7°C | 0.7% | 0hPa | 2.5V | 00:00:00 | 00:00:00 | 00:00:00 | |
| OE5MMP-10 | 2026-08-31 00:34:09 | 49.48357 | 17.70716 | 35° | 22km/h | 30924m | 8.1m/s | -42.9°C | 2.6% | 0hPa | 2.5V | 00:00:00 | 02:00:02 | 00:00:00 | |
| OE5MMP-10 | 2026-08-31 00:33:59 | 49.48308 | 17.70682 | 3° | 15km/h | 30857m | 5.1m/s | -43.2°C | 2.6% | 0hPa | 2.5V | 00:00:00 | 01:59:52 | 00:00:00 | |
| POL1PZ | 2026-08-31 00:33:51 | 49.48288 | 17.70649 | 68° | 11km/h | 30811m | 7.3m/s | -43.4°C | 0.7% | 0hPa | 2.5V | 00:00:00 | 00:00:00 | 00:00:00 | |
| OE5MMP-10 | 2026-08-31 00:33:49 | 49.48283 | 17.70645 | 2° | 16km/h | 30792m | 7.7m/s | -43.6°C | 2.7% | 0hPa | 2.5V | 00:00:00 | 01:59:42 | 00:00:00 | |
| OE5DXL-15 | 2026-08-31 00:33:47 | 49.48275 | 17.70645 | 358° | 18km/h | 30777m | 6.8m/s | -43.8°C | 2.7% | 0hPa | 2.5V | 00:00:00 | 00:00:00 | 00:00:00 | |
| SP3WXH-11 | 2026-08-31 00:33:44 | 49.48257 | 17.70656 | 319° | 15km/h | 30750m | 5.9m/s | -43.9°C | 0.7% | -1.0hPa | 2.5V | 00:00:00 | 00:00:00 | 00:00:00 | |
| OE5DRO-10 | 2026-08-31 00:33:43 | 49.48257 | 17.70656 | 320° | 20km/h | 30750m | 5.8m/s | -43.9°C | 2.7% | 0hPa | 2.5V | 00:00:00 | 00:00:00 | 00:00:00 | |
| PG1ADW-2 | 2026-08-31 00:33:42 | 49.48254 | 17.70659 | 340° | 20km/h | 30744m | 6.6m/s | -43.9°C | 2.7% | 0hPa | 2.5V | 00:00:00 | 00:00:00 | 00:00:00 | |
| OE5MMP-10 | 2026-08-31 00:33:39 | 49.48244 | 17.70654 | 40° | 22km/h | 30722m | 4.1m/s | -43.9°C | 2.7% | 0hPa | 2.5V | 00:00:00 | 01:59:32 | 00:00:00 | |
| SP3BTT-10 | 2026-08-31 00:33:37 | 49.48239 | 17.70647 | 33° | 16km/h | 30709m | 9.6m/s | 0°C | 0% | 0hPa | 2.5V | 00:00:00 | 00:00:00 | 00:00:00 | |
| POL1PZ | 2026-08-31 00:33:32 | 49.48216 | 17.70634 | 23° | 33km/h | 30675m | 8.0m/s | -44.1°C | 0.7% | 0hPa | 2.5V | 00:00:00 | 00:00:00 | 00:00:00 | |
| OE5MMP-10 | 2026-08-31 00:33:29 | 49.48193 | 17.70628 | 356° | 18km/h | 30656m | 9.8m/s | -44.1°C | 2.8% | 0hPa | 2.5V | 00:00:00 | 01:59:22 | 00:00:00 | |
| OE3OSB-13 | 2026-08-31 00:33:28 | 49.48181 | 17.70634 | 328° | 20km/h | 30640m | 5.1m/s | -44.2°C | 0.7% | -1.0hPa | 2.5V | 00:00:00 | 00:00:00 | 00:00:00 | |
| OE5DRO-10 | 2026-08-31 00:33:24 | 49.48169 | 17.70642 | 358° | 16km/h | 30617m | 5.7m/s | -44.1°C | 2.7% | 0hPa | 2.5V | 00:00:00 | 00:00:00 | 00:00:00 | |
| PG1ADW-2 | 2026-08-31 00:33:22 | 49.48161 | 17.70642 | 354° | 15km/h | 30606m | 7.7m/s | -44.1°C | 2.7% | 0hPa | 2.5V | 00:00:00 | 01:59:15 | 08:30:00 | |
| OE5MMP-10 | 2026-08-31 00:33:19 | 49.48152 | 17.70646 | 348° | 18km/h | 30584m | 5.9m/s | -44.1°C | 2.8% | 0hPa | 2.5V | 00:00:00 | 01:59:12 | 00:00:00 | |
| OE5DXL-15 | 2026-08-31 00:33:17 | 49.48142 | 17.70647 | 6° | 15km/h | 30568m | 8.8m/s | -44.2°C | 2.8% | 0hPa | 2.5V | 00:00:00 | 00:00:00 | 00:00:00 | |
| OE3JTB-15 | 2026-08-31 00:33:15 | 49.48122 | 17.70651 | 314° | 15km/h | 30540m | 7.8m/s | -44.3°C | 2.8% | 0hPa | 2.5V | 00:00:00 | 00:00:00 | 00:00:00 | |
| SP3WXH-11 | 2026-08-31 00:33:13 | 49.48120 | 17.70657 | 299° | 16km/h | 30532m | 6.7m/s | -44.4°C | 0.7% | -1.0hPa | 2.7V | 00:00:00 | 00:00:00 | 00:00:00 | |
| POL1PZ | 2026-08-31 00:33:11 | 49.48120 | 17.70657 | 301° | 16km/h | 30532m | 6.7m/s | -44.4°C | 0.7% | 0hPa | 2.7V | 00:00:00 | 00:00:00 | 00:00:00 | |
| OE5MMP-10 | 2026-08-31 00:33:09 | 49.48115 | 17.70671 | 286° | 15km/h | 30510m | 6.2m/s | -44.4°C | 2.8% | 0hPa | 2.7V | 00:00:00 | 01:59:02 | 00:00:00 | |
| NBG1-10 | 2026-08-31 00:33:06 | 49.48116 | 17.70682 | 257° | 18km/h | 30489m | 6.8m/s | -44.4°C | 2.8% | 0hPa | 2.7V | 00:00:00 | 01:58:59 | 00:00:00 | |
| OE5DRO-10 | 2026-08-31 00:33:05 | 49.48116 | 17.70686 | 284° | 15km/h | 30483m | 5.0m/s | -44.3°C | 2.8% | 0hPa | 2.7V | 00:00:00 | 00:00:00 | 00:00:00 | |
| OE3OSB-13 | 2026-08-31 00:32:57 | 49.48079 | 17.70715 | 282° | 15km/h | 30421m | 6.0m/s | -44.6°C | 0.7% | -1.0hPa | 2.5V | 00:00:00 | 00:00:00 | 00:00:00 | |
| POL1PZ | 2026-08-31 00:32:50 | 49.48076 | 17.70720 | 357° | 5km/h | 30386m | 8.1m/s | -44.7°C | 0.8% | 0hPa | 2.5V | 00:00:00 | 00:00:00 | 00:00:00 | |
| OE5MMP-10 | 2026-08-31 00:32:49 | 49.48071 | 17.70723 | 337° | 20km/h | 30371m | 6.3m/s | -44.6°C | 2.9% | 0hPa | 2.5V | 00:00:00 | 01:58:42 | 08:30:00 | |
| OE5DXL-15 | 2026-08-31 00:32:47 | 49.48062 | 17.70727 | 357° | 16km/h | 30357m | 8.3m/s | -44.6°C | 2.8% | 0hPa | 2.5V | 00:00:00 | 00:00:00 | 00:00:00 | |
| OE3JTB-15 | 2026-08-31 00:32:46 | 49.48041 | 17.70726 | 350° | 15km/h | 30329m | 7.9m/s | -44.5°C | 2.9% | 0hPa | 2.5V | 00:00:00 | 00:00:00 | 00:00:00 | |
| SP3WXH-11 | 2026-08-31 00:32:42 | 49.48032 | 17.70733 | 323° | 20km/h | 30315m | 5.9m/s | -44.4°C | 0.7% | -1.0hPa | 2.5V | 00:00:00 | 00:00:00 | 00:00:00 | |
| HA6NAB-11 | 2026-08-31 00:32:41 | 49.48032 | 17.70733 | 324° | 20km/h | 30315m | 5.9m/s | -44.4°C | 0% | 0hPa | 2.5V | 00:00:00 | 00:00:00 | 00:00:00 | |
| OE5MMP-10 | 2026-08-31 00:32:39 | 49.48024 | 17.70740 | 340° | 15km/h | 30303m | 6.7m/s | -44.3°C | 2.8% | 0hPa | 2.5V | 00:00:00 | 01:58:32 | 00:00:00 | |
| HA6NAB-11 | 2026-08-31 00:32:35 | 49.48009 | 17.70733 | 18° | 20km/h | 30276m | 6.9m/s | -44.4°C | 0% | 0hPa | 2.5V | 00:00:00 | 00:00:00 | 00:00:00 | |
| SP3BTT-10 | 2026-08-31 00:32:32 | 49.47996 | 17.70735 | 331° | 9km/h | 30256m | 4.6m/s | 0°C | 0% | 0hPa | 2.5V | 00:00:00 | 00:00:00 | 00:00:00 | |
| NBG1-10 | 2026-08-31 00:32:30 | 49.47992 | 17.70740 | 325° | 11km/h | 30241m | 8.9m/s | -44.4°C | 2.8% | 0hPa | 2.5V | 00:00:00 | 01:58:23 | 00:00:00 | |
| HA6NAB-11 | 2026-08-31 00:32:29 | 49.47990 | 17.70741 | 337° | 7km/h | 30234m | 5.2m/s | -44.5°C | 0% | 0hPa | 2.5V | 00:00:00 | 00:00:00 | 00:00:00 | |
| OE5DRO-10 | 2026-08-31 00:32:27 | 49.47986 | 17.70745 | 331° | 15km/h | 30222m | 8.3m/s | -44.4°C | 2.9% | 0hPa | 2.5V | 00:00:00 | 00:00:00 | 00:00:00 | |
| OE3OSB-13 | 2026-08-31 00:32:26 | 49.47976 | 17.70753 | 334° | 26km/h | 30206m | 5.6m/s | -44.5°C | 0.7% | -1.0hPa | 2.5V | 00:00:00 | 00:00:00 | 00:00:00 | |
| HA6NAB-11 | 2026-08-31 00:32:24 | 49.47970 | 17.70756 | 340° | 26km/h | 30200m | 6.8m/s | -44.5°C | 0% | 0hPa | 2.5V | 00:00:00 | 00:00:00 | 00:00:00 | |
| PG1ADW-2 | 2026-08-31 00:32:22 | 49.47960 | 17.70762 | 348° | 11km/h | 30185m | 6.6m/s | -44.4°C | 2.9% | 0hPa | 2.5V | 00:00:00 | 00:00:00 | 00:00:00 | |
| OE5MMP-10 | 2026-08-31 00:32:19 | 49.47949 | 17.70769 | 316° | 11km/h | 30163m | 8.3m/s | -44.3°C | 2.8% | 0hPa | 2.5V | 00:00:00 | 01:58:12 | 00:00:00 | |
| OE5DXL-15 | 2026-08-31 00:32:17 | 49.47948 | 17.70775 | 250° | 9km/h | 30151m | 6.0m/s | -44.3°C | 2.8% | 0hPa | 2.5V | 00:00:00 | 00:00:00 | 08:30:00 | |
| OE3JTB-15 | 2026-08-31 00:32:14 | 49.47957 | 17.70778 | 254° | 11km/h | 30114m | 9.1m/s | -44.3°C | 2.8% | 0hPa | 2.5V | 00:00:00 | 01:58:05 | 00:00:00 | |
| SP3WXH-11 | 2026-08-31 00:32:11 | 49.47953 | 17.70785 | 328° | 16km/h | 30102m | 4.4m/s | -44.4°C | 0.7% | -1.0hPa | 2.5V | 00:00:00 | 00:00:00 | 00:00:00 | |
| OE5DRO-10 | 2026-08-31 00:32:08 | 49.47945 | 17.70789 | 356° | 9km/h | 30087m | 9.4m/s | -44.4°C | 2.8% | 0hPa | 2.5V | 00:00:00 | 00:00:00 | 08:30:00 | |
| DO3MHA-11 | 2026-08-31 00:32:07 | 49.47942 | 17.70789 | 4° | 9km/h | 30079m | 4.8m/s | -44.4°C | 2.8% | 0hPa | 2.5V | 00:00:00 | 01:58:00 | 08:30:00 | |
| HA6NAB-11 | 2026-08-31 00:32:05 | 49.47938 | 17.70790 | 351° | 11km/h | 30075m | 5.1m/s | 0°C | 0% | 0hPa | 2.5V | 00:00:00 | 00:00:00 | 00:00:00 | |
| OE3OSB-13 | 2026-08-31 00:31:55 | 49.47943 | 17.70805 | 282° | 7km/h | 29988m | 9.2m/s | -44.7°C | 0.7% | -1.0hPa | 2.5V | 00:00:00 | 00:00:00 | 00:00:00 | |
| OE5DRO-10 | 2026-08-31 00:31:49 | 49.47938 | 17.70822 | 262° | 11km/h | 29951m | 6.3m/s | -44.7°C | 2.8% | 0hPa | 2.5V | 00:00:00 | 00:00:00 | 00:00:00 | |
| DO3MHA-11 | 2026-08-31 00:31:48 | 49.47939 | 17.70827 | 236° | 13km/h | 29945m | 5.6m/s | -44.7°C | 2.8% | 0hPa | 2.5V | 00:00:00 | 01:57:41 | 00:00:00 | |
| POL1PZ | 2026-08-31 00:31:47 | 49.47939 | 17.70827 | 237° | 13km/h | 29945m | 5.7m/s | -44.8°C | 0.8% | 0hPa | 2.5V | 00:00:00 | 00:00:00 | 00:00:00 | |
| OE5DXL-15 | 2026-08-31 00:31:46 | 49.47944 | 17.70831 | 177° | 11km/h | 29930m | 8.5m/s | -44.7°C | 2.8% | 0hPa | 2.5V | 00:00:00 | 00:00:00 | 00:00:00 | |
| OE3JTB-15 | 2026-08-31 00:31:45 | 49.47955 | 17.70827 | 177° | 11km/h | 29907m | 8.0m/s | -44.7°C | 2.9% | 0hPa | 2.5V | 00:00:00 | 00:00:00 | 08:30:00 | |
| PG1ADW-2 | 2026-08-31 00:31:42 | 49.47957 | 17.70828 | 208° | 11km/h | 29900m | 6.9m/s | -44.8°C | 2.8% | 0hPa | 2.5V | 00:00:00 | 00:00:00 | 00:00:00 | |
| SP3WXH-11 | 2026-08-31 00:31:40 | 49.47958 | 17.70835 | 338° | 5km/h | 29880m | 8.3m/s | -45.0°C | 0.7% | -1.0hPa | 2.5V | 00:00:00 | 00:00:00 | 00:00:00 | |
| OE5MMP-10 | 2026-08-31 00:31:39 | 49.47958 | 17.70835 | 339° | 9km/h | 29880m | 8.3m/s | -45.0°C | 2.9% | 0hPa | 2.5V | 00:00:00 | 01:57:32 | 00:00:00 | |
| OE5DRO-10 | 2026-08-31 00:31:30 | 49.47951 | 17.70832 | 101° | 13km/h | 29816m | 7.5m/s | -45.0°C | 3.0% | 0hPa | 2.5V | 00:00:00 | 00:00:00 | 00:00:00 | |
| OE5MMP-10 | 2026-08-31 00:31:29 | 49.47952 | 17.70827 | 86° | 11km/h | 29809m | 6.1m/s | -45.0°C | 3.0% | 0hPa | 2.5V | 00:00:00 | 01:57:22 | 00:00:00 | |
| POL1PZ | 2026-08-31 00:31:27 | 49.47950 | 17.70819 | 39° | 11km/h | 29795m | 8.2m/s | -44.9°C | 0.8% | 0hPa | 2.5V | 00:00:00 | 00:00:00 | 00:00:00 | |
| OE3OSB-13 | 2026-08-31 00:31:24 | 49.47937 | 17.70813 | 37° | 13km/h | 29767m | 7.3m/s | -44.8°C | 0.8% | -1.0hPa | 2.5V | 00:00:00 | 00:00:00 | 00:00:00 | |
| PG1ADW-2 | 2026-08-31 00:31:22 | 49.47935 | 17.70809 | 60° | 11km/h | 29761m | 6.0m/s | -44.8°C | 2.8% | 0hPa | 2.5V | 00:00:00 | 00:00:00 | 00:00:00 | |
| SP3BTT-10 | 2026-08-31 00:31:20 | 49.47935 | 17.70804 | 156° | 9km/h | 29748m | 7.9m/s | 0°C | 0% | 0hPa | 2.5V | 00:00:00 | 00:00:00 | 00:00:00 | |
| OE5MMP-10 | 2026-08-31 00:31:19 | 49.47937 | 17.70804 | 192° | 15km/h | 29739m | 8.6m/s | -44.7°C | 2.8% | 0hPa | 2.5V | 00:00:00 | 01:57:12 | 08:30:00 | |
| OE5DXL-15 | 2026-08-31 00:31:16 | 49.47947 | 17.70805 | 156° | 13km/h | 29718m | 8.1m/s | -44.8°C | 2.8% | 0hPa | 2.7V | 00:00:00 | 00:00:00 | 00:00:00 | |
| OE3JTB-15 | 2026-08-31 00:31:15 | 49.47948 | 17.70790 | 63° | 13km/h | 29697m | 6.5m/s | -44.9°C | 2.8% | 0hPa | 2.7V | 00:00:00 | 00:00:00 | 00:00:00 | |
| OE5DRO-10 | 2026-08-31 00:31:11 | 49.47942 | 17.70781 | 23° | 11km/h | 29681m | 7.3m/s | -44.9°C | 2.8% | 0hPa | 2.7V | 00:00:00 | 00:00:00 | 00:00:00 | |
| SP3WXH-11 | 2026-08-31 00:31:09 | 49.47932 | 17.70774 | 43° | 13km/h | 29661m | 8.2m/s | -45.0°C | 0.7% | -1.0hPa | 2.5V | 00:00:00 | 00:00:00 | 00:00:00 | |
| DO3MHA-11 | 2026-08-31 00:31:07 | 49.47930 | 17.70771 | 74° | 9km/h | 29654m | 6.3m/s | -45.0°C | 2.8% | 0hPa | 2.5V | 00:00:00 | 01:57:00 | 00:00:00 | |
| POL1PZ | 2026-08-31 00:31:06 | 49.47930 | 17.70771 | 74° | 11km/h | 29654m | 6.3m/s | -45.0°C | 0.8% | 0hPa | 2.5V | 00:00:00 | 00:00:00 | 00:00:00 | |
| OE3OSB-13 | 2026-08-31 00:30:53 | 49.47921 | 17.70739 | 335° | 11km/h | 29556m | 6.0m/s | -45.6°C | 0.8% | -1.0hPa | 2.5V | 00:00:00 | 00:00:00 | 00:00:00 | |
| OE5DRO-10 | 2026-08-31 00:30:52 | 49.47921 | 17.70739 | 336° | 13km/h | 29556m | 5.9m/s | -45.6°C | 2.9% | 0hPa | 2.5V | 00:00:00 | 00:00:00 | 00:00:00 | |
| OE5MMP-10 | 2026-08-31 00:30:49 | 49.47912 | 17.70735 | 59° | 13km/h | 29535m | 5.9m/s | -45.5°C | 2.9% | 0hPa | 2.5V | 00:00:00 | 01:56:42 | 00:00:00 | |
| DO3MHA-11 | 2026-08-31 00:30:47 | 49.47912 | 17.70727 | 109° | 13km/h | 29520m | 9.2m/s | -45.6°C | 2.9% | 0hPa | 2.7V | 00:00:00 | 01:56:40 | 00:00:00 | |
| NBG1-10 | 2026-08-31 00:30:46 | 49.47913 | 17.70723 | 128° | 11km/h | 29512m | 6.7m/s | -45.7°C | 2.9% | 0hPa | 2.7V | 00:00:00 | 01:56:39 | 00:00:00 | |
| OE5DXL-15 | 2026-08-31 00:30:45 | 49.47915 | 17.70719 | 123° | 9km/h | 29506m | 5.9m/s | -45.8°C | 2.9% | 0hPa | 2.7V | 00:00:00 | 00:00:00 | 00:00:00 | |
| PG1ADW-2 | 2026-08-31 00:30:42 | 49.47917 | 17.70701 | 68° | 7km/h | 29485m | 5.0m/s | -46.0°C | 3.0% | 0hPa | 2.5V | 00:00:00 | 01:56:35 | 00:00:00 | |
| OE5MMP-10 | 2026-08-31 00:30:39 | 49.47910 | 17.70695 | 325° | 7km/h | 29465m | 7.8m/s | -46.2°C | 3.0% | 0hPa | 2.5V | 00:00:00 | 01:56:32 | 00:00:00 | |
| SP3WXH-11 | 2026-08-31 00:30:38 | 49.47907 | 17.70703 | 296° | 13km/h | 29451m | 6.7m/s | -46.4°C | 0.8% | -1.0hPa | 2.5V | 00:00:00 | 00:00:00 | 00:00:00 | |
| DO3MHA-11 | 2026-08-31 00:30:37 | 49.47907 | 17.70703 | 297° | 5km/h | 29451m | 6.6m/s | -46.4°C | 3.1% | 0hPa | 2.5V | 00:00:00 | 01:56:30 | 00:00:00 | |
| OE5DRO-10 | 2026-08-31 00:30:33 | 49.47903 | 17.70708 | 92° | 7km/h | 29423m | 6.5m/s | -46.6°C | 3.1% | 0hPa | 2.5V | 00:00:00 | 00:00:00 | 00:00:00 | |
| OE5MMP-10 | 2026-08-31 00:30:28 | 49.47908 | 17.70707 | 25° | 5km/h | 29388m | 7.6m/s | -46.6°C | 3.1% | 0hPa | 2.5V | 00:00:00 | 01:56:21 | 00:00:00 | |
| DO3MHA-11 | 2026-08-31 00:30:27 | 49.47907 | 17.70706 | 35° | 7km/h | 29380m | 8.5m/s | -46.6°C | 3.1% | 0hPa | 2.5V | 00:00:00 | 01:56:20 | 00:00:00 | |
| POL1PZ | 2026-08-31 00:30:25 | 49.47905 | 17.70704 | 34° | 9km/h | 29373m | 5.6m/s | -46.7°C | 0.8% | 0hPa | 2.5V | 00:00:00 | 00:00:00 | 00:00:00 | |
| PG1ADW-2 | 2026-08-31 00:30:22 | 49.47900 | 17.70704 | 301° | 13km/h | 29347m | 5.7m/s | -46.7°C | 3.1% | 0hPa | 2.5V | 00:00:00 | 00:00:00 | 08:30:00 | |
| OE3OSB-13 | 2026-08-31 00:30:21 | 49.47899 | 17.70705 | 320° | 4km/h | 29341m | 5.5m/s | -46.7°C | 0.8% | -1.0hPa | 2.5V | 00:00:00 | 00:00:00 | 00:00:00 | |
| OE5MMP-10 | 2026-08-31 00:30:18 | 49.47896 | 17.70700 | 78° | 16km/h | 29321m | 6.1m/s | -46.8°C | 3.1% | 0hPa | 2.5V | 00:00:00 | 01:56:11 | 00:00:00 | |
| DO3MHA-11 | 2026-08-31 00:30:17 | 49.47895 | 17.70695 | 94° | 18km/h | 29314m | 6.2m/s | -46.9°C | 3.1% | 0hPa | 2.5V | 00:00:00 | 01:56:10 | 00:00:00 | |
| OE5DXL-15 | 2026-08-31 00:30:16 | 49.47898 | 17.70684 | 122° | 16km/h | 29300m | 6.7m/s | -47.0°C | 3.1% | 0hPa | 2.5V | 00:00:00 | 00:00:00 | 00:00:00 | |
| OE5DRO-10 | 2026-08-31 00:30:14 | 49.47900 | 17.70679 | 123° | 18km/h | 29293m | 5.1m/s | -47.0°C | 3.2% | 0hPa | 2.5V | 00:00:00 | 00:00:00 | 00:00:00 | |
| NBG1-10 | 2026-08-31 00:30:13 | 49.47901 | 17.70674 | 108° | 16km/h | 29289m | 5.0m/s | -47.1°C | 3.1% | 0hPa | 2.5V | 00:00:00 | 01:56:06 | 00:00:00 | |
| OE5MMP-10 | 2026-08-31 00:30:08 | 49.47883 | 17.70656 | 4° | 16km/h | 29255m | 6.2m/s | -47.3°C | 3.3% | 0hPa | 2.5V | 00:00:00 | 01:56:01 | 00:00:00 | |
| SP3WXH-11 | 2026-08-31 00:30:07 | 49.47874 | 17.70658 | 343° | 11km/h | 29240m | 6.8m/s | -47.4°C | 0.8% | -1.0hPa | 2.5V | 00:00:00 | 00:00:00 | 00:00:00 | |
| POL1PZ | 2026-08-31 00:30:05 | 49.47874 | 17.70658 | 344° | 11km/h | 29241m | 6.8m/s | -47.4°C | 0.9% | 0hPa | 2.5V | 00:00:00 | 00:00:00 | 00:00:00 | |
| OE3OSB-13 | 2026-08-31 00:29:50 | 49.47834 | 17.70594 | 96° | 7km/h | 29130m | 6.7m/s | -47.4°C | 0.8% | -1.0hPa | 2.5V | 00:00:00 | 00:00:00 | 00:00:00 | |
| OE5MMP-10 | 2026-08-31 00:29:48 | 49.47834 | 17.70584 | 87° | 16km/h | 29114m | 6.5m/s | -47.4°C | 3.2% | 0hPa | 2.5V | 00:00:00 | 01:55:41 | 08:30:00 | |
| DO3MHA-11 | 2026-08-31 00:29:47 | 49.47834 | 17.70578 | 82° | 15km/h | 29108m | 4.8m/s | -47.4°C | 3.2% | 0hPa | 2.7V | 00:00:00 | 01:55:40 | 00:00:00 | |
| POL1PZ | 2026-08-31 00:29:45 | 49.47832 | 17.70568 | 62° | 9km/h | 29094m | 9.0m/s | -47.5°C | 0.9% | 0hPa | 2.7V | 00:00:00 | 00:00:00 | 00:00:00 | |
| OE5DXL-15 | 2026-08-31 00:29:44 | 49.47831 | 17.70566 | 22° | 15km/h | 29087m | 5.6m/s | -47.4°C | 3.3% | 0hPa | 2.7V | 00:00:00 | 00:00:00 | 00:00:00 | |
| DB0DAN | 2026-08-31 00:29:40 | 49.47815 | 17.70559 | 12° | 18km/h | 29058m | 5.9m/s | -47.4°C | 0.8% | 0hPa | 2.7V | 00:00:00 | 00:00:00 | 00:00:00 | |
| OE5MMP-10 | 2026-08-31 00:29:38 | 49.47806 | 17.70558 | 349° | 15km/h | 29044m | 8.1m/s | -47.4°C | 3.3% | 0hPa | 2.5V | 00:00:00 | 01:55:31 | 00:00:00 | |
| NBG1-10 | 2026-08-31 00:29:37 | 49.47801 | 17.70560 | 343° | 15km/h | 29037m | 6.4m/s | -47.4°C | 3.3% | 0hPa | 2.5V | 00:00:00 | 01:55:30 | 00:00:00 | |
| OE5DRO-10 | 2026-08-31 00:29:36 | 49.47798 | 17.70561 | 351° | 13km/h | 29031m | 6.1m/s | -47.4°C | 3.3% | 0hPa | 2.5V | 00:00:00 | 00:00:00 | 00:00:00 | |
| SP3WXH-11 | 2026-08-31 00:29:35 | 49.47794 | 17.70562 | 6° | 13km/h | 29023m | 8.4m/s | -47.5°C | 0.8% | -1.0hPa | 2.5V | 00:00:00 | 00:00:00 | 00:00:00 | |
| DO3MHA-11 | 2026-08-31 00:29:34 | 49.47791 | 17.70560 | 28° | 15km/h | 29016m | 7.1m/s | -47.4°C | 3.3% | 0hPa | 2.5V | 00:00:00 | 01:55:27 | 00:00:00 | |
| OE5MMP-10 | 2026-08-31 00:29:28 | 49.47772 | 17.70553 | 343° | 13km/h | 28976m | 5.5m/s | -47.3°C | 3.3% | 0hPa | 2.5V | 00:00:00 | 01:55:21 | 00:00:00 | |
| DO3MHA-11 | 2026-08-31 00:29:24 | 49.47757 | 17.70548 | 36° | 15km/h | 28949m | 5.6m/s | -47.3°C | 3.3% | 0hPa | 2.5V | 00:00:00 | 01:55:17 | 00:00:00 | |
| PG1ADW-2 | 2026-08-31 00:29:22 | 49.47752 | 17.70544 | 8° | 16km/h | 28935m | 8.2m/s | -47.3°C | 3.3% | 0hPa | 2.5V | 00:00:00 | 01:55:15 | 00:00:00 | |
| OE3OSB-13 | 2026-08-31 00:29:19 | 49.47747 | 17.70543 | 23° | 7km/h | 28914m | 8.7m/s | -47.3°C | 0.9% | -1.0hPa | 2.5V | 00:00:00 | 00:00:00 | 00:00:00 | |
| OE5MMP-10 | 2026-08-31 00:29:18 | 49.47744 | 17.70542 | 28° | 22km/h | 28906m | 7.0m/s | -47.2°C | 3.3% | 0hPa | 2.5V | 00:00:00 | 01:55:11 | 00:00:00 | |
| OE5DRO-10 | 2026-08-31 00:29:17 | 49.47741 | 17.70540 | 14° | 20km/h | 28900m | 5.5m/s | -47.2°C | 3.3% | 0hPa | 2.5V | 00:00:00 | 00:00:00 | 08:30:00 | |
| GYPAP8-17 | 2026-08-31 00:29:15 | 49.47737 | 17.70539 | 1° | 20km/h | 28893m | 7.5m/s | -47.2°C | 0% | 0hPa | 2.5V | 00:00:00 | 00:00:00 | 00:00:00 | |
| OE5DXL-15 | 2026-08-31 00:29:14 | 49.47725 | 17.70543 | 342° | 16km/h | 28876m | 6.8m/s | -47.1°C | 3.3% | 0hPa | 2.5V | 00:00:00 | 00:00:00 | 00:00:00 | |
| SP3BTT-10 | 2026-08-31 00:29:09 | 49.47693 | 17.70551 | 357° | 9km/h | 28842m | 7.6m/s | 0°C | 0% | 0hPa | 2.5V | 00:00:00 | 00:00:00 | 00:00:00 | |
| OE5MMP-10 | 2026-08-31 00:29:08 | 49.47689 | 17.70552 | 348° | 18km/h | 28834m | 8.3m/s | -47.0°C | 3.2% | 0hPa | 2.5V | 00:00:00 | 01:55:01 | 00:00:00 | |
| SP3WXH-11 | 2026-08-31 00:29:05 | 49.47675 | 17.70553 | 26° | 13km/h | 28805m | 7.7m/s | -46.9°C | 0.8% | -1.0hPa | 2.5V | 00:00:00 | 00:00:00 | 00:00:00 | |
| PG1ADW-2 | 2026-08-31 00:29:02 | 49.47668 | 17.70550 | 4° | 16km/h | 28794m | 5.8m/s | -46.7°C | 3.1% | 0hPa | 2.5V | 00:00:00 | 00:00:00 | 00:00:00 | |
| OE5MMP-10 | 2026-08-31 00:28:58 | 49.47646 | 17.70563 | 336° | 13km/h | 28763m | 8.0m/s | -46.7°C | 3.1% | 0hPa | 2.5V | 00:00:00 | 01:54:51 | 00:00:00 | |
| DO3MHA-11 | 2026-08-31 00:28:56 | 49.47635 | 17.70569 | 343° | 9km/h | 28748m | 5.2m/s | -46.7°C | 3.1% | 0hPa | 2.5V | 00:00:00 | 01:54:49 | 00:00:00 | |
| S52SK | 2026-08-31 00:28:49 | 49.47623 | 17.70581 | 75° | 4km/h | 28708m | 8.3m/s | -46.9°C | 0.9% | 0hPa | 2.5V | 00:00:00 | 00:00:00 | 00:00:00 | |
| OE5MMP-10 | 2026-08-31 00:28:48 | 49.47621 | 17.70577 | 28° | 15km/h | 28695m | 5.4m/s | -46.9°C | 3.2% | 0hPa | 2.5V | 00:00:00 | 01:54:41 | 00:00:00 | |
| DO3MHA-11 | 2026-08-31 00:28:46 | 49.47616 | 17.70579 | 327° | 16km/h | 28680m | 8.6m/s | -47.0°C | 3.2% | 0hPa | 2.7V | 00:00:00 | 01:54:39 | 00:00:00 | |
| OE5DXL-15 | 2026-08-31 00:28:44 | 49.47608 | 17.70590 | 317° | 15km/h | 28666m | 5.9m/s | -47.0°C | 3.2% | 0hPa | 2.5V | 00:00:00 | 00:00:00 | 00:00:00 | |
| NBG1-10 | 2026-08-31 00:28:43 | 49.47604 | 17.70595 | 317° | 13km/h | 28660m | 7.4m/s | -47.0°C | 3.2% | 0hPa | 2.5V | 00:00:00 | 01:54:36 | 08:30:00 | |
| PG1ADW-2 | 2026-08-31 00:28:42 | 49.47601 | 17.70600 | 307° | 15km/h | 28652m | 7.3m/s | -47.0°C | 3.2% | 0hPa | 2.5V | 00:00:00 | 00:00:00 | 00:00:00 | |
| OE5DRO-10 | 2026-08-31 00:28:39 | 49.47603 | 17.70613 | 235° | 15km/h | 28630m | 8.2m/s | -47.1°C | 3.2% | 0hPa | 2.5V | 00:00:00 | 00:00:00 | 00:00:00 | |
| OE5MMP-10 | 2026-08-31 00:28:38 | 49.47605 | 17.70618 | 231° | 15km/h | 28623m | 5.6m/s | -47.2°C | 3.2% | 0hPa | 2.5V | 00:00:00 | 01:54:31 | 00:00:00 | |
| DO3MHA-11 | 2026-08-31 00:28:36 | 49.47610 | 17.70625 | 223° | 13km/h | 28612m | 7.9m/s | -47.2°C | 3.2% | 0hPa | 2.5V | 00:00:00 | 01:54:29 | 00:00:00 | |
| SP3WXH-11 | 2026-08-31 00:28:33 | 49.47611 | 17.70632 | 293° | 9km/h | 28591m | 7.3m/s | -47.3°C | 0.8% | -1.0hPa | 2.5V | 00:00:00 | 00:00:00 | 00:00:00 | |
| OE5MMP-10 | 2026-08-31 00:28:28 | 49.47603 | 17.70665 | 277° | 15km/h | 28555m | 8.0m/s | -47.3°C | 3.2% | 0hPa | 2.5V | 00:00:00 | 01:54:21 | 00:00:00 | |
| DO3MHA-11 | 2026-08-31 00:28:26 | 49.47605 | 17.70673 | 222° | 13km/h | 28542m | 6.1m/s | -47.2°C | 3.2% | 0hPa | 2.5V | 00:00:00 | 01:54:19 | 00:00:00 | |
| POL1PZ | 2026-08-31 00:28:24 | 49.47612 | 17.70679 | 206° | 18km/h | 28527m | 6.9m/s | -47.2°C | 0.9% | 0hPa | 2.5V | 00:00:00 | 00:00:00 | 00:00:00 | |
| PG1ADW-2 | 2026-08-31 00:28:22 | 49.47621 | 17.70682 | 178° | 13km/h | 28514m | 7.4m/s | -47.2°C | 3.2% | 0hPa | 2.5V | 00:00:00 | 00:00:00 | 00:00:00 | |
| OE5DRO-10 | 2026-08-31 00:28:20 | 49.47628 | 17.70679 | 146° | 11km/h | 28499m | 6.2m/s | -47.3°C | 3.2% | 0hPa | 2.7V | 00:00:00 | 00:00:00 | 00:00:00 | |
| OE5MMP-10 | 2026-08-31 00:28:18 | 49.47630 | 17.70676 | 350° | 11km/h | 28484m | 9.0m/s | -47.3°C | 3.2% | 0hPa | 2.5V | 00:00:00 | 01:54:11 | 08:30:00 | |
| OE3OSB-13 | 2026-08-31 00:28:17 | 49.47629 | 17.70677 | 319° | 9km/h | 28476m | 7.1m/s | -47.4°C | 0.9% | -1.0hPa | 2.7V | 00:00:00 | 00:00:00 | 00:00:00 | |
| DO3MHA-11 | 2026-08-31 00:28:16 | 49.47627 | 17.70680 | 315° | 13km/h | 28470m | 5.4m/s | -47.4°C | 3.2% | 0hPa | 2.7V | 00:00:00 | 01:54:09 | 08:30:00 | |
| OE5DXL-15 | 2026-08-31 00:28:14 | 49.47623 | 17.70687 | 313° | 11km/h | 28458m | 7.1m/s | -47.5°C | 3.3% | 0hPa | 2.7V | 00:00:00 | 00:00:00 | 00:00:00 | |
| OE5MMP-10 | 2026-08-31 00:28:10 | 49.47640 | 17.70679 | 167° | 9km/h | 28417m | 4.8m/s | -47.7°C | 3.3% | 0hPa | 2.7V | 00:00:00 | 01:54:01 | 00:00:00 | |
| DO3MHA-11 | 2026-08-31 00:28:09 | 49.47646 | 17.70674 | 131° | 9km/h | 28405m | 7.8m/s | -47.6°C | 3.3% | 0hPa | 2.7V | 00:00:00 | 01:53:59 | 00:00:00 | |
| OE5DXL-15 | 2026-08-31 00:27:58 | 49.47667 | 17.70601 | 342° | 15km/h | 28255m | 4.9m/s | -47.8°C | 3.3% | 0hPa | 2.7V | 00:00:00 | 00:00:00 | 08:30:00 | |
| OE5DRO-10 | 2026-08-31 00:27:48 | 49.47664 | 17.70599 | 44° | 15km/h | 28240m | 7.5m/s | -47.9°C | 3.3% | 0hPa | 2.7V | 00:00:00 | 00:00:00 | 00:00:00 | |
| PG1ADW-2 | 2026-08-31 00:27:47 | 49.47664 | 17.70599 | 44° | 15km/h | 28240m | 7.5m/s | -47.9°C | 3.3% | 0hPa | 2.7V | 00:00:00 | 00:00:00 | 00:00:00 | |
| POL1PZ | 2026-08-31 00:27:43 | 49.47664 | 17.70599 | 44° | 13km/h | 28240m | 7.6m/s | -48.0°C | 0.9% | 0hPa | 2.7V | 00:00:00 | 00:00:00 | 00:00:00 | |
| OE5MMP-10 | 2026-08-31 00:27:38 | 49.47653 | 17.70577 | 65° | 15km/h | 28212m | 5.9m/s | -48.0°C | 3.3% | 0hPa | 2.7V | 00:00:00 | 01:53:31 | 00:00:00 | |
| DO3MHA-11 | 2026-08-31 00:27:36 | 49.47649 | 17.70561 | 69° | 13km/h | 28199m | 8.2m/s | -48.1°C | 3.3% | 0hPa | 2.7V | 00:00:00 | 01:53:29 | 00:00:00 | |
| NBG1-10 | 2026-08-31 00:27:33 | 49.47642 | 17.70539 | 64° | 9km/h | 28179m | 7.8m/s | -48.2°C | 3.3% | 0hPa | 2.7V | 00:00:00 | 01:53:26 | 00:00:00 | |
| SP3WXH-11 | 2026-08-31 00:27:31 | 49.47641 | 17.70536 | 327° | 2km/h | 28164m | 5.9m/s | -48.4°C | 0.9% | -1.0hPa | 2.7V | 00:00:00 | 00:00:00 | 00:00:00 | |
| OE5MMP-10 | 2026-08-31 00:27:28 | 49.47636 | 17.70534 | 34° | 15km/h | 28144m | 6.7m/s | -48.5°C | 3.3% | 0hPa | 2.7V | 00:00:00 | 01:53:21 | 00:00:00 | |
| DO3MHA-11 | 2026-08-31 00:27:26 | 49.47631 | 17.70528 | 44° | 7km/h | 28131m | 7.7m/s | -48.6°C | 3.4% | 0hPa | 2.7V | 00:00:00 | 01:53:19 | 00:00:00 | |
| OE5DRO-10 | 2026-08-31 00:27:23 | 49.47624 | 17.70520 | 34° | 11km/h | 28111m | 6.7m/s | -48.7°C | 3.4% | 0hPa | 2.7V | 00:00:00 | 00:00:00 | 00:00:00 | |
| PG1ADW-2 | 2026-08-31 00:27:22 | 49.47621 | 17.70517 | 30° | 9km/h | 28103m | 8.6m/s | -48.7°C | 3.5% | 0hPa | 2.7V | 00:00:00 | 00:00:00 | 08:30:00 | |
| POL1PZ | 2026-08-31 00:27:21 | 49.47621 | 17.70517 | 31° | 18km/h | 28103m | 8.7m/s | -48.8°C | 1.0% | 0hPa | 2.7V | 00:00:00 | 00:00:00 | 00:00:00 | |
| OE5MMP-10 | 2026-08-31 00:27:18 | 49.47603 | 17.70517 | 311° | 9km/h | 28075m | 8.0m/s | -48.8°C | 3.6% | 0hPa | 2.7V | 00:00:00 | 01:53:11 | 00:00:00 | |
| OE3OSB-13 | 2026-08-31 00:27:15 | 49.47598 | 17.70534 | 296° | 13km/h | 28055m | 8.1m/s | -48.8°C | 0.9% | -1.0hPa | 2.7V | 00:00:00 | 00:00:00 | 00:00:00 | |
| OE5DXL-15 | 2026-08-31 00:27:14 | 49.47597 | 17.70538 | 296° | 7km/h | 28049m | 4.9m/s | -48.8°C | 3.5% | 0hPa | 2.7V | 00:00:00 | 00:00:00 | 00:00:00 | |
| OE5MMP-10 | 2026-08-31 00:27:08 | 49.47596 | 17.70545 | 9° | 7km/h | 28010m | 8.0m/s | -48.6°C | 3.4% | 0hPa | 2.7V | 00:00:00 | 01:53:01 | 00:00:00 | |
| HA6NAB-11 | 2026-08-31 00:27:06 | 49.47594 | 17.70545 | 2° | 11km/h | 28003m | 5.8m/s | 0°C | 0% | 0hPa | 2.7V | 00:00:00 | 00:00:00 | 00:00:00 | |
| OE5DRO-10 | 2026-08-31 00:27:04 | 49.47588 | 17.70549 | 272° | 7km/h | 27982m | 6.3m/s | -48.5°C | 3.4% | 0hPa | 2.7V | 00:00:00 | 00:00:00 | 00:00:00 | |
| DO3MHA-11 | 2026-08-31 00:27:03 | 49.47589 | 17.70551 | 256° | 9km/h | 27977m | 5.6m/s | -48.4°C | 3.4% | 0hPa | 2.7V | 00:00:00 | 01:52:56 | 00:00:00 | |
| POL1PZ | 2026-08-31 00:27:01 | 49.47589 | 17.70553 | 258° | 5km/h | 27970m | 7.8m/s | -48.5°C | 0.9% | 0hPa | 2.5V | 00:00:00 | 00:00:00 | 00:00:00 | |
| NBG1-10 | 2026-08-31 00:27:00 | 49.47590 | 17.70556 | 224° | 11km/h | 27956m | 5.2m/s | -48.4°C | 3.3% | 0hPa | 2.5V | 00:00:00 | 01:52:53 | 00:00:00 | |
| OE5MMP-10 | 2026-08-31 00:26:58 | 49.47593 | 17.70560 | 211° | 7km/h | 27943m | 8.5m/s | -48.4°C | 3.3% | 0hPa | 2.7V | 00:00:00 | 01:52:51 | 00:00:00 | |
| DO3MHA-11 | 2026-08-31 00:26:53 | 49.47604 | 17.70573 | 328° | 7km/h | 27909m | 6.0m/s | -48.8°C | 3.4% | 0hPa | 2.7V | 00:00:00 | 01:52:46 | 00:00:00 | |
| OE5MMP-10 | 2026-08-31 00:26:48 | 49.47602 | 17.70576 | 314° | 13km/h | 27876m | 7.0m/s | -48.9°C | 3.4% | 0hPa | 2.7V | 00:00:00 | 01:52:41 | 08:30:00 | |
| OE5DRO-10 | 2026-08-31 00:26:45 | 49.47599 | 17.70585 | 276° | 13km/h | 27858m | 5.7m/s | -49.1°C | 3.4% | 0hPa | 2.5V | 00:00:00 | 00:00:00 | 00:00:00 | |
| OE5DXL-15 | 2026-08-31 00:26:44 | 49.47599 | 17.70590 | 258° | 16km/h | 27851m | 8.0m/s | -49.2°C | 3.4% | 0hPa | 2.5V | 00:00:00 | 00:00:00 | 00:00:00 | |
| DO3MHA-11 | 2026-08-31 00:26:43 | 49.47601 | 17.70598 | 244° | 13km/h | 27844m | 6.9m/s | -49.3°C | 3.5% | 0hPa | 2.5V | 00:00:00 | 01:52:36 | 00:00:00 | |
| PG1ADW-2 | 2026-08-31 00:26:41 | 49.47607 | 17.70612 | 230° | 13km/h | 27833m | 4.8m/s | -49.4°C | 3.6% | 0hPa | 2.5V | 00:00:00 | 01:52:34 | 00:00:00 | |
| POL1PZ | 2026-08-31 00:26:40 | 49.47607 | 17.70612 | 230° | 16km/h | 27833m | 4.9m/s | -49.5°C | 1.0% | 0hPa | 2.5V | 00:00:00 | 00:00:00 | 00:00:00 | |
| OE5MMP-10 | 2026-08-31 00:26:38 | 49.47611 | 17.70615 | 95° | 11km/h | 27812m | 5.9m/s | -49.4°C | 3.5% | 0hPa | 2.5V | 00:00:00 | 01:52:31 | 00:00:00 | |
| DO3MHA-11 | 2026-08-31 00:26:33 | 49.47617 | 17.70595 | 128° | 13km/h | 27778m | 8.0m/s | -49.4°C | 3.6% | 0hPa | 2.5V | 00:00:00 | 01:52:26 | 08:30:00 | |
| SP3WXH-11 | 2026-08-31 00:26:29 | 49.47626 | 17.70596 | 200° | 18km/h | 27750m | 7.1m/s | -49.6°C | 1.0% | -1.0hPa | 2.5V | 00:00:00 | 00:00:00 | 00:00:00 | |
| OE5MMP-10 | 2026-08-31 00:26:28 | 49.47630 | 17.70599 | 197° | 18km/h | 27744m | 4.7m/s | -49.5°C | 3.7% | 0hPa | 2.5V | 00:00:00 | 01:52:21 | 00:00:00 | |
| OE5DRO-10 | 2026-08-31 00:26:26 | 49.47638 | 17.70601 | 174° | 16km/h | 27732m | 7.6m/s | -49.5°C | 3.6% | 0hPa | 2.5V | 00:00:00 | 00:00:00 | 08:30:00 | |
| DO3MHA-11 | 2026-08-31 00:26:23 | 49.47642 | 17.70590 | 113° | 22km/h | 27715m | 6.5m/s | -49.4°C | 3.7% | 0hPa | 2.6V | 00:00:00 | 01:52:16 | 00:00:00 | |
| PG1ADW-2 | 2026-08-31 00:26:21 | 49.47648 | 17.70575 | 122° | 16km/h | 27701m | 6.1m/s | -49.3°C | 3.6% | 0hPa | 2.6V | 00:00:00 | 00:00:00 | 00:00:00 | |
| NBG1-10 | 2026-08-31 00:26:20 | 49.47651 | 17.70566 | 119° | 16km/h | 27695m | 6.4m/s | -49.3°C | 3.6% | 0hPa | 2.5V | 00:00:00 | 01:52:13 | 00:00:00 | |
| POL1PZ | 2026-08-31 00:26:19 | 49.47651 | 17.70567 | 119° | 29km/h | 27695m | 6.4m/s | -49.3°C | 1.0% | 0hPa | 2.5V | 00:00:00 | 00:00:00 | 00:00:00 | |
| OE5MMP-10 | 2026-08-31 00:26:18 | 49.47657 | 17.70546 | 113° | 15km/h | 27681m | 5.6m/s | -49.2°C | 3.6% | 0hPa | 2.5V | 00:00:00 | 01:52:11 | 00:00:00 | |
| OE5DXL-15 | 2026-08-31 00:26:14 | 49.47671 | 17.70526 | 189° | 9km/h | 27655m | 6.5m/s | -49.2°C | 3.6% | 0hPa | 2.7V | 00:00:00 | 00:00:00 | 00:00:00 | |
| DO3MHA-11 | 2026-08-31 00:26:13 | 49.47674 | 17.70527 | 213° | 11km/h | 27649m | 6.3m/s | -49.2°C | 3.6% | 0hPa | 2.5V | 00:00:00 | 01:52:06 | 00:00:00 | |
| OE5MMP-10 | 2026-08-31 00:26:08 | 49.47673 | 17.70532 | 82° | 15km/h | 27618m | 7.2m/s | -49.0°C | 3.5% | 0hPa | 2.5V | 00:00:00 | 01:52:01 | 00:00:00 | |
| OE5DRO-10 | 2026-08-31 00:26:07 | 49.47673 | 17.70529 | 110° | 11km/h | 27611m | 6.5m/s | -49.0°C | 3.6% | 0hPa | 2.5V | 00:00:00 | 00:00:00 | 00:00:00 | |
| DO3MHA-11 | 2026-08-31 00:26:03 | 49.47676 | 17.70501 | 84° | 9km/h | 27585m | 6.5m/s | -48.8°C | 3.5% | 0hPa | 2.5V | 00:00:00 | 01:51:56 | 00:00:00 | |
| PG1ADW-2 | 2026-08-31 00:26:01 | 49.47675 | 17.70488 | 89° | 7km/h | 27573m | 7.1m/s | -48.7°C | 3.4% | 0hPa | 2.5V | 00:00:00 | 00:00:00 | 00:00:00 | |
| POL1PZ | 2026-08-31 00:25:59 | 49.47675 | 17.70483 | 109° | 9km/h | 27566m | 7.2m/s | -48.7°C | 1.0% | 0hPa | 2.5V | 00:00:00 | 00:00:00 | 00:00:00 | |
| OE5MMP-10 | 2026-08-31 00:25:58 | 49.47677 | 17.70481 | 217° | 9km/h | 27553m | 6.2m/s | -48.7°C | 3.4% | 0hPa | 2.5V | 00:00:00 | 01:51:51 | 00:00:00 | |
| DO3MHA-11 | 2026-08-31 00:25:53 | 49.47669 | 17.70486 | 30° | 7km/h | 27522m | 7.4m/s | -48.6°C | 3.4% | 0hPa | 2.5V | 00:00:00 | 01:51:46 | 00:00:00 | |
| OE5MMP-10 | 2026-08-31 00:25:48 | 49.47667 | 17.70469 | 60° | 7km/h | 27489m | 4.8m/s | -48.6°C | 3.4% | 0hPa | 2.5V | 00:00:00 | 01:51:41 | 00:00:00 | |
| OE5DXL-15 | 2026-08-31 00:25:44 | 49.47667 | 17.70465 | 240° | 11km/h | 27464m | 4.9m/s | -48.6°C | 3.3% | 0hPa | 2.7V | 00:00:00 | 00:00:00 | 00:00:00 | |
| DO3MHA-11 | 2026-08-31 00:25:43 | 49.47667 | 17.70466 | 345° | 9km/h | 27457m | 7.1m/s | -48.7°C | 3.3% | 0hPa | 2.7V | 00:00:00 | 01:51:36 | 00:00:00 | |
| OE3OSB-13 | 2026-08-31 00:25:42 | 49.47665 | 17.70466 | 350° | 9km/h | 27449m | 8.5m/s | -48.8°C | 0.9% | -1.0hPa | 2.7V | 00:00:00 | 00:00:00 | 00:00:00 | |
| PG1ADW-2 | 2026-08-31 00:25:41 | 49.47662 | 17.70467 | 353° | 13km/h | 27442m | 5.4m/s | -48.8°C | 3.3% | 0hPa | 2.7V | 00:00:00 | 00:00:00 | 00:00:00 | |
| OE5MMP-10 | 2026-08-31 00:25:38 | 49.47653 | 17.70468 | 5° | 9km/h | 27423m | 6.0m/s | -49.0°C | 3.4% | 0hPa | 2.7V | 00:00:00 | 01:51:31 | 00:00:00 | |
| DO3MHA-11 | 2026-08-31 00:25:33 | 49.47640 | 17.70465 | 350° | 13km/h | 27391m | 7.2m/s | -49.3°C | 3.5% | 0hPa | 2.7V | 00:00:00 | 01:51:26 | 00:00:00 | |
| OE5DRO-10 | 2026-08-31 00:25:29 | 49.47639 | 17.70472 | 318° | 13km/h | 27365m | 8.0m/s | -49.5°C | 3.5% | 0hPa | 2.5V | 00:00:00 | 00:00:00 | 00:00:00 | |
| OE5MMP-10 | 2026-08-31 00:25:28 | 49.47636 | 17.70475 | 332° | 16km/h | 27357m | 6.7m/s | -49.5°C | 3.5% | 0hPa | 2.7V | 00:00:00 | 01:51:21 | 00:00:00 | |
| SP3WXH-11 | 2026-08-31 00:25:27 | 49.47632 | 17.70479 | 331° | 20km/h | 27352m | 4.9m/s | -49.6°C | 0.9% | -1.0hPa | 2.7V | 00:00:00 | 00:00:00 | 00:00:00 | |
| SP3BTT-10 | 2026-08-31 00:25:24 | 49.47619 | 17.70491 | 325° | 13km/h | 27333m | 5.0m/s | 0°C | 0% | 0hPa | 2.7V | 00:00:00 | 00:00:00 | 00:00:00 | |
| DO3MHA-11 | 2026-08-31 00:25:23 | 49.47616 | 17.70494 | 332° | 13km/h | 27327m | 5.3m/s | -49.8°C | 3.6% | 0hPa | 2.7V | 00:00:00 | 01:51:16 | 00:00:00 | |
| PG1ADW-2 | 2026-08-31 00:25:21 | 49.47609 | 17.70497 | 351° | 7km/h | 27315m | 6.1m/s | -49.8°C | 3.6% | 0hPa | 2.7V | 00:00:00 | 01:51:14 | 00:00:00 | |
| OE5MMP-10 | 2026-08-31 00:25:18 | 49.47602 | 17.70501 | 270° | 7km/h | 27296m | 7.7m/s | -49.8°C | 3.6% | 0hPa | 2.6V | 00:00:00 | 01:51:11 | 08:30:00 | |
| NBG1-10 | 2026-08-31 00:25:15 | 49.47607 | 17.70506 | 186° | 7km/h | 27277m | 6.4m/s | -49.9°C | 3.6% | 0hPa | 2.5V | 00:00:00 | 01:51:08 | 00:00:00 | |
| OE5DXL-15 | 2026-08-31 00:25:14 | 49.47608 | 17.70505 | 126° | 11km/h | 27271m | 6.9m/s | -50.0°C | 3.6% | 0hPa | 2.5V | 00:00:00 | 00:00:00 | 00:00:00 | |
| DO3MHA-11 | 2026-08-31 00:25:13 | 49.47608 | 17.70503 | 100° | 7km/h | 27265m | 5.3m/s | -50.0°C | 3.6% | 0hPa | 2.5V | 00:00:00 | 01:51:06 | 00:00:00 | |
| OE3OSB-13 | 2026-08-31 00:25:11 | 49.47609 | 17.70496 | 109° | 7km/h | 27252m | 7.3m/s | -50.1°C | 1.0% | -1.0hPa | 2.5V | 00:00:00 | 00:00:00 | 00:00:00 | |
| OE5DRO-10 | 2026-08-31 00:25:10 | 49.47610 | 17.70494 | 135° | 11km/h | 27245m | 6.8m/s | -50.1°C | 3.6% | 0hPa | 2.5V | 00:00:00 | 00:00:00 | 00:00:00 | |
| OE5MMP-10 | 2026-08-31 00:25:08 | 49.47610 | 17.70494 | 327° | 11km/h | 27233m | 6.8m/s | -50.1°C | 3.7% | 0hPa | 2.5V | 00:00:00 | 01:51:01 | 00:00:00 | |
| SP3WXH-11 | 2026-08-31 00:24:56 | 49.47623 | 17.70465 | 124° | 11km/h | 27155m | 6.2m/s | -50.3°C | 1.0% | -1.0hPa | 2.5V | 00:00:00 | 00:00:00 | 00:00:00 | |
| OE5DRO-10 | 2026-08-31 00:24:51 | 49.47617 | 17.70458 | 13° | 11km/h | 27124m | 4.4m/s | -50.4°C | 3.6% | 0hPa | 2.5V | 00:00:00 | 00:00:00 | 00:00:00 | |
| OE5MMP-10 | 2026-08-31 00:24:48 | 49.47618 | 17.70456 | 151° | 11km/h | 27104m | 5.7m/s | -50.5°C | 3.7% | 0hPa | 2.5V | 00:00:00 | 01:50:41 | 00:00:00 | |
| OE5DXL-15 | 2026-08-31 00:24:44 | 49.47628 | 17.70436 | 118° | 9km/h | 27079m | 5.0m/s | -50.6°C | 3.7% | 0hPa | 2.7V | 00:00:00 | 00:00:00 | 00:00:00 | |
| PG1ADW-2 | 2026-08-31 00:24:41 | 49.47631 | 17.70432 | 271° | 9km/h | 27060m | 5.9m/s | -50.6°C | 3.6% | 0hPa | 2.5V | 00:00:00 | 00:00:00 | 00:00:00 | |
| OE3OSB-13 | 2026-08-31 00:24:40 | 49.47631 | 17.70435 | 293° | 7km/h | 27054m | 5.6m/s | -50.7°C | 1.0% | -1.0hPa | 2.5V | 00:00:00 | 00:00:00 | 00:00:00 | |
| OE5MMP-10 | 2026-08-31 00:24:38 | 49.47628 | 17.70439 | 355° | 9km/h | 27041m | 5.9m/s | -50.7°C | 3.7% | 0hPa | 2.5V | 00:00:00 | 01:50:31 | 00:00:00 | |
| POL1PZ | 2026-08-31 00:24:37 | 49.47628 | 17.70439 | 356° | 5km/h | 27041m | 5.9m/s | -50.7°C | 1.1% | 0hPa | 2.5V | 00:00:00 | 00:00:00 | 00:00:00 | |
| OE5DRO-10 | 2026-08-31 00:24:32 | 49.47636 | 17.70420 | 114° | 9km/h | 27004m | 7.7m/s | -51.0°C | 3.7% | 0hPa | 2.5V | 00:00:00 | 00:00:00 | 00:00:00 | |
| DO3MHA-11 | 2026-08-31 00:24:31 | 49.47637 | 17.70415 | 92° | 7km/h | 26997m | 5.8m/s | -51.1°C | 3.7% | 0hPa | 2.6V | 00:00:00 | 01:50:24 | 00:00:00 | |
| OE5MMP-10 | 2026-08-31 00:24:28 | 49.47636 | 17.70410 | 266° | 9km/h | 26977m | 8.0m/s | -51.4°C | 3.8% | 0hPa | 2.6V | 00:00:00 | 01:50:21 | 00:00:00 | |
| NBG1-10 | 2026-08-31 00:24:26 | 49.47636 | 17.70413 | 307° | 11km/h | 26966m | 6.0m/s | -51.4°C | 3.9% | 0hPa | 2.6V | 00:00:00 | 01:50:19 | 00:00:00 | |
| SP3WXH-11 | 2026-08-31 00:24:25 | 49.47635 | 17.70415 | 349° | 5km/h | 26958m | 8.6m/s | -51.5°C | 1.0% | -1.0hPa | 2.7V | 00:00:00 | 00:00:00 | 00:00:00 | |
| DO3MHA-11 | 2026-08-31 00:24:21 | 49.47630 | 17.70405 | 85° | 11km/h | 26929m | 6.4m/s | -51.5°C | 3.9% | 0hPa | 2.7V | 00:00:00 | 01:50:14 | 00:00:00 | |
| OE5MMP-10 | 2026-08-31 00:24:18 | 49.47628 | 17.70389 | 78° | 9km/h | 26909m | 6.8m/s | -51.6°C | 3.9% | 0hPa | 2.7V | 00:00:00 | 01:50:11 | 00:00:00 | |
| POL1PZ | 2026-08-31 00:24:17 | 49.47627 | 17.70390 | 79° | 18km/h | 26909m | 6.9m/s | -51.6°C | 1.1% | 0hPa | 2.7V | 00:00:00 | 00:00:00 | 00:00:00 | |
| S52SK | 2026-08-31 00:24:15 | 49.47626 | 17.70377 | 85° | 13km/h | 26897m | 6.9m/s | -51.7°C | 1.1% | 0hPa | 2.7V | 00:00:00 | 00:00:00 | 00:00:00 | |
| OE5DRO-10 | 2026-08-31 00:24:13 | 49.47625 | 17.70370 | 36° | 13km/h | 26877m | 5.7m/s | -51.7°C | 3.9% | 0hPa | 2.7V | 00:00:00 | 00:00:00 | 00:00:00 | |
| DO3MHA-11 | 2026-08-31 00:24:11 | 49.47623 | 17.70367 | 39° | 16km/h | 26864m | 6.1m/s | -51.7°C | 4.0% | 0hPa | 2.7V | 00:00:00 | 01:50:04 | 00:00:00 | |
| OE3OSB-13 | 2026-08-31 00:24:09 | 49.47618 | 17.70358 | 69° | 7km/h | 26846m | 7.2m/s | -51.8°C | 1.1% | -1.0hPa | 2.7V | 00:00:00 | 00:00:00 | 00:00:00 | |
| OE5MMP-10 | 2026-08-31 00:24:08 | 49.47618 | 17.70358 | 70° | 16km/h | 26846m | 7.2m/s | -51.8°C | 4.0% | 0hPa | 2.7V | 00:00:00 | 01:50:01 | 00:00:00 | |
| DO3MHA-11 | 2026-08-31 00:24:01 | 49.47616 | 17.70307 | 90° | 9km/h | 26800m | 7.3m/s | -51.9°C | 4.0% | 0hPa | 2.7V | 00:00:00 | 01:49:54 | 00:00:00 | |
| OE5MMP-10 | 2026-08-31 00:23:58 | 49.47615 | 17.70294 | 38° | 11km/h | 26782m | 6.1m/s | -52.0°C | 4.0% | 0hPa | 2.6V | 00:00:00 | 01:49:51 | 00:00:00 | |
| POL1PZ | 2026-08-31 00:23:56 | 49.47614 | 17.70293 | 10° | 7km/h | 26775m | 7.8m/s | -52.0°C | 1.2% | 0hPa | 2.6V | 00:00:00 | 00:00:00 | 00:00:00 | |
| OE5DRO-10 | 2026-08-31 00:23:54 | 49.47609 | 17.70294 | 326° | 13km/h | 26756m | 6.2m/s | -52.0°C | 4.0% | 0hPa | 2.6V | 00:00:00 | 00:00:00 | 00:00:00 | |
| DO3MHA-11 | 2026-08-31 00:23:51 | 49.47612 | 17.70290 | 129° | 16km/h | 26736m | 6.3m/s | -51.9°C | 4.0% | 0hPa | 2.6V | 00:00:00 | 01:49:44 | 00:00:00 | |
| OE5MMP-10 | 2026-08-31 00:23:48 | 49.47618 | 17.70265 | 99° | 15km/h | 26715m | 5.0m/s | -51.9°C | 4.0% | 0hPa | 2.6V | 00:00:00 | 01:49:41 | 08:30:00 | |
| OE5DXL-15 | 2026-08-31 00:23:43 | 49.47618 | 17.70242 | 338° | 13km/h | 26683m | 7.6m/s | -52.0°C | 4.0% | 0hPa | 2.7V | 00:00:00 | 00:00:00 | 00:00:00 | |
| DO3MHA-11 | 2026-08-31 00:23:41 | 49.47612 | 17.70247 | 330° | 11km/h | 26669m | 5.7m/s | -52.0°C | 4.1% | 0hPa | 2.7V | 00:00:00 | 01:49:34 | 00:00:00 | |
| OE3OSB-13 | 2026-08-31 00:23:38 | 49.47607 | 17.70254 | 116° | 2km/h | 26643m | 6.3m/s | -51.9°C | 1.1% | -1.0hPa | 2.7V | 00:00:00 | 00:00:00 | 00:00:00 | |
| POL1PZ | 2026-08-31 00:23:36 | 49.47606 | 17.70254 | 117° | 4km/h | 26643m | 6.3m/s | -51.9°C | 1.2% | 0hPa | 2.7V | 00:00:00 | 00:00:00 | 00:00:00 | |
| OE5DRO-10 | 2026-08-31 00:23:35 | 49.47606 | 17.70248 | 65° | 15km/h | 26629m | 7.7m/s | -51.8°C | 4.0% | 0hPa | 2.7V | 00:00:00 | 00:00:00 | 08:30:00 | |
| DO3MHA-11 | 2026-08-31 00:23:31 | 49.47595 | 17.70234 | 345° | 13km/h | 26604m | 7.0m/s | -51.7°C | 4.0% | 0hPa | 2.7V | 00:00:00 | 01:49:24 | 08:30:00 | |
| OE5MMP-10 | 2026-08-31 00:23:28 | 49.47584 | 17.70247 | 320° | 13km/h | 26583m | 7.5m/s | -51.7°C | 4.0% | 0hPa | 2.7V | 00:00:00 | 01:49:21 | 00:00:00 | |
| SP3WXH-11 | 2026-08-31 00:23:23 | 49.47574 | 17.70268 | 165° | 2km/h | 26551m | 5.8m/s | -51.6°C | 1.0% | -1.0hPa | 2.7V | 00:00:00 | 00:00:00 | 00:00:00 | |
| PG1ADW-2 | 2026-08-31 00:23:21 | 49.47573 | 17.70264 | 57° | 18km/h | 26537m | 7.2m/s | -51.5°C | 3.8% | 0hPa | 2.7V | 00:00:00 | 00:00:00 | 00:00:00 | |
| OE5MMP-10 | 2026-08-31 00:23:18 | 49.47565 | 17.70253 | 28° | 18km/h | 26518m | 6.7m/s | -51.6°C | 3.9% | 0hPa | 2.6V | 00:00:00 | 01:49:11 | 00:00:00 | |
| NBG1-10 | 2026-08-31 00:23:17 | 49.47562 | 17.70252 | 5° | 16km/h | 26512m | 5.6m/s | -51.7°C | 3.9% | 0hPa | 2.6V | 00:00:00 | 01:49:10 | 00:00:00 | |
| OE5DRO-10 | 2026-08-31 00:23:16 | 49.47559 | 17.70253 | 344° | 20km/h | 26507m | 5.1m/s | -51.7°C | 4.0% | 0hPa | 2.6V | 00:00:00 | 00:00:00 | 00:00:00 | |
| POL1PZ | 2026-08-31 00:23:15 | 49.47559 | 17.70253 | 344° | 16km/h | 26507m | 5.2m/s | -51.8°C | 1.1% | 0hPa | 2.6V | 00:00:00 | 00:00:00 | 00:00:00 | |
| OE5DXL-15 | 2026-08-31 00:23:12 | 49.47541 | 17.70271 | 306° | 16km/h | 26482m | 6.7m/s | -51.8°C | 4.0% | 0hPa | 2.6V | 00:00:00 | 00:00:00 | 08:30:00 | |
| DO3MHA-11 | 2026-08-31 00:23:11 | 49.47539 | 17.70277 | 294° | 18km/h | 26474m | 8.7m/s | -51.7°C | 4.0% | 0hPa | 2.7V | 00:00:00 | 01:49:04 | 00:00:00 | |
| OE5MMP-10 | 2026-08-31 00:23:08 | 49.47534 | 17.70295 | 315° | 20km/h | 26454m | 8.9m/s | -51.7°C | 3.9% | 0hPa | 2.7V | 00:00:00 | 01:49:01 | 00:00:00 | |
| OE3OSB-13 | 2026-08-31 00:23:06 | 49.47526 | 17.70302 | 332° | 18km/h | 26440m | 6.2m/s | -51.9°C | 1.0% | -1.0hPa | 2.7V | 00:00:00 | 00:00:00 | 00:00:00 | |
| SP3WXH-11 | 2026-08-31 00:22:52 | 49.47493 | 17.70378 | 352° | 5km/h | 26347m | 6.0m/s | -52.1°C | 1.1% | -1.0hPa | 2.7V | 00:00:00 | 00:00:00 | 00:00:00 | |
| DO3MHA-11 | 2026-08-31 00:22:51 | 49.47491 | 17.70379 | 331° | 9km/h | 26341m | 7.1m/s | -52.0°C | 4.0% | 0hPa | 2.7V | 00:00:00 | 01:48:44 | 00:00:00 | |
| OE5MMP-10 | 2026-08-31 00:22:48 | 49.47489 | 17.70388 | 288° | 9km/h | 26322m | 5.1m/s | -52.0°C | 4.0% | 0hPa | 2.7V | 00:00:00 | 01:48:41 | 00:00:00 | |
| NBG1-10 | 2026-08-31 00:22:44 | 49.47480 | 17.70403 | 332° | 11km/h | 26296m | 5.7m/s | -52.0°C | 3.9% | 0hPa | 2.6V | 00:00:00 | 01:48:37 | 08:30:00 | |
| OE5DXL-15 | 2026-08-31 00:22:42 | 49.47478 | 17.70406 | 203° | 11km/h | 26282m | 6.9m/s | -52.0°C | 4.0% | 0hPa | 2.6V | 00:00:00 | 01:48:35 | 00:00:00 | |
| PG1ADW-2 | 2026-08-31 00:22:41 | 49.47479 | 17.70406 | 202° | 13km/h | 26275m | 6.1m/s | -52.0°C | 4.0% | 0hPa | 2.6V | 00:00:00 | 01:48:34 | 00:00:00 | |
| OE5MMP-10 | 2026-08-31 00:22:38 | 49.47482 | 17.70414 | 247° | 13km/h | 26255m | 5.6m/s | -52.0°C | 4.0% | 0hPa | 2.6V | 00:00:00 | 01:48:31 | 00:00:00 | |
| OE3OSB-13 | 2026-08-31 00:22:35 | 49.47490 | 17.70433 | 241° | 20km/h | 26234m | 6.3m/s | -52.2°C | 1.1% | -1.0hPa | 2.6V | 00:00:00 | 00:00:00 | 00:00:00 | |
| POL1PZ | 2026-08-31 00:22:33 | 49.47492 | 17.70440 | 254° | 18km/h | 26228m | 6.6m/s | -52.3°C | 1.2% | 0hPa | 2.6V | 00:00:00 | 00:00:00 | 00:00:00 | |
| DO3MHA-11 | 2026-08-31 00:22:31 | 49.47490 | 17.70455 | 316° | 11km/h | 26209m | 5.2m/s | -52.3°C | 4.1% | 0hPa | 2.6V | 00:00:00 | 01:48:24 | 00:00:00 | |
| OE5MMP-10 | 2026-08-31 00:22:28 | 49.47491 | 17.70454 | 155° | 13km/h | 26188m | 5.5m/s | -52.3°C | 4.1% | 0hPa | 2.7V | 00:00:00 | 01:48:21 | 00:00:00 | |
| DO3MHA-11 | 2026-08-31 00:22:21 | 49.47511 | 17.70469 | 221° | 7km/h | 26143m | 5.0m/s | -52.3°C | 4.1% | 0hPa | 2.7V | 00:00:00 | 01:48:14 | 00:00:00 | |
| OE3JTB-15 | 2026-08-31 00:22:18 | 49.47512 | 17.70483 | 315° | 7km/h | 26117m | 5.7m/s | -52.2°C | 4.1% | 0hPa | 2.7V | 00:00:00 | 00:00:00 | 00:00:00 | |
| OE5DRO-10 | 2026-08-31 00:22:17 | 49.47512 | 17.70483 | 315° | 7km/h | 26117m | 5.7m/s | -52.2°C | 4.1% | 0hPa | 2.5V | 00:00:00 | 00:00:00 | 00:00:00 | |
| POL1PZ | 2026-08-31 00:22:13 | 49.47512 | 17.70482 | 117° | 5km/h | 26097m | 5.1m/s | -52.2°C | 1.2% | 0hPa | 2.5V | 00:00:00 | 00:00:00 | 00:00:00 | |
| DO3MHA-11 | 2026-08-31 00:22:11 | 49.47513 | 17.70476 | 114° | 9km/h | 26077m | 5.6m/s | -52.1°C | 4.0% | 0hPa | 2.5V | 00:00:00 | 01:48:04 | 00:00:00 | |
| OE5MMP-10 | 2026-08-31 00:22:08 | 49.47519 | 17.70471 | 186° | 9km/h | 26056m | 6.0m/s | -52.2°C | 4.0% | 0hPa | 2.5V | 00:00:00 | 01:48:01 | 00:00:00 | |
| OE3OSB-13 | 2026-08-31 00:22:05 | 49.47524 | 17.70486 | 280° | 13km/h | 26029m | 4.9m/s | -52.3°C | 1.1% | -1.0hPa | 2.5V | 00:00:00 | 00:00:00 | 00:00:00 | |
| SP3WXH-11 | 2026-08-31 00:21:50 | 49.47517 | 17.70491 | 279° | 13km/h | 25938m | 5.1m/s | -52.2°C | 1.1% | -1.0hPa | 2.5V | 00:00:00 | 00:00:00 | 00:00:00 | |
| OE5MMP-10 | 2026-08-31 00:21:48 | 49.47516 | 17.70500 | 285° | 9km/h | 25925m | 6.6m/s | -52.1°C | 4.1% | 0hPa | 2.5V | 00:00:00 | 01:47:41 | 00:00:00 | |
| DO3MHA-11 | 2026-08-31 00:21:41 | 49.47503 | 17.70497 | 75° | 7km/h | 25878m | 5.1m/s | -52.1°C | 4.1% | 0hPa | 2.7V | 00:00:00 | 01:47:34 | 00:00:00 | |
| OE5DRO-10 | 2026-08-31 00:21:39 | 49.47502 | 17.70493 | 26° | 7km/h | 25865m | 7.9m/s | -52.1°C | 4.0% | 0hPa | 2.7V | 00:00:00 | 00:00:00 | 00:00:00 | |
| OE5MMP-10 | 2026-08-31 00:21:38 | 49.47501 | 17.70493 | 319° | 9km/h | 25858m | 5.8m/s | -52.0°C | 4.1% | 0hPa | 2.6V | 00:00:00 | 01:47:31 | 00:00:00 | |
| NBG1-10 | 2026-08-31 00:21:35 | 49.47500 | 17.70496 | 334° | 11km/h | 25838m | 5.0m/s | -51.9°C | 4.0% | 0hPa | 2.6V | 00:00:00 | 01:47:28 | 00:00:00 | |
| OE3OSB-13 | 2026-08-31 00:21:34 | 49.47496 | 17.70499 | 327° | 11km/h | 25825m | 8.5m/s | -51.9°C | 1.1% | -1.0hPa | 2.6V | 00:00:00 | 00:00:00 | 00:00:00 | |
| POL1PZ | 2026-08-31 00:21:32 | 49.47496 | 17.70499 | 329° | 11km/h | 25825m | 8.5m/s | -51.9°C | 1.1% | 0hPa | 2.6V | 00:00:00 | 00:00:00 | 00:00:00 | |
| DO3MHA-11 | 2026-08-31 00:21:31 | 49.47490 | 17.70504 | 342° | 9km/h | 25812m | 5.5m/s | -51.8°C | 3.9% | 0hPa | 2.6V | 00:00:00 | 01:47:24 | 00:00:00 | |
| OE5MMP-10 | 2026-08-31 00:21:28 | 49.47480 | 17.70504 | 15° | 11km/h | 25792m | 5.6m/s | -51.7°C | 3.9% | 0hPa | 2.6V | 00:00:00 | 01:47:21 | 00:00:00 | |
| PG1ADW-2 | 2026-08-31 00:21:21 | 49.47472 | 17.70515 | 311° | 18km/h | 25746m | 6.3m/s | -51.8°C | 4.0% | 0hPa | 2.6V | 00:00:00 | 01:47:14 | 08:30:00 | |
| OE5DRO-10 | 2026-08-31 00:21:20 | 49.47470 | 17.70519 | 314° | 18km/h | 25739m | 7.5m/s | -51.8°C | 3.9% | 0hPa | 2.6V | 00:00:00 | 00:00:00 | 00:00:00 | |
| OE3JTB-15 | 2026-08-31 00:21:19 | 49.47466 | 17.70525 | 319° | 15km/h | 25732m | 5.9m/s | -51.9°C | 4.0% | 0hPa | 2.6V | 00:00:00 | 01:47:12 | 00:00:00 | |
| OE5MMP-10 | 2026-08-31 00:21:18 | 49.47461 | 17.70530 | 327° | 20km/h | 25727m | 4.5m/s | -51.9°C | 3.9% | 0hPa | 2.6V | 00:00:00 | 01:47:11 | 00:00:00 | |
| POL1PZ | 2026-08-31 00:21:12 | 49.47437 | 17.70545 | 324° | 18km/h | 25696m | 8.6m/s | -52.0°C | 1.2% | 0hPa | 2.7V | 00:00:00 | 00:00:00 | 00:00:00 | |
| DO3MHA-11 | 2026-08-31 00:21:11 | 49.47432 | 17.70556 | 291° | 18km/h | 25682m | 6.2m/s | -52.0°C | 4.0% | 0hPa | 2.7V | 00:00:00 | 01:47:04 | 00:00:00 | |
| OE5DXL-15 | 2026-08-31 00:21:10 | 49.47430 | 17.70562 | 287° | 13km/h | 25675m | 8.1m/s | -52.1°C | 4.0% | 0hPa | 2.7V | 00:00:00 | 00:00:00 | 00:00:00 | |
| OE5MMP-10 | 2026-08-31 00:21:08 | 49.47429 | 17.70575 | 285° | 16km/h | 25661m | 5.9m/s | -52.1°C | 4.0% | 0hPa | 2.7V | 00:00:00 | 01:47:01 | 00:00:00 | |
| NBG1-10 | 2026-08-31 00:21:03 | 49.47410 | 17.70599 | 4° | 11km/h | 25623m | 5.0m/s | -52.3°C | 4.0% | 0hPa | 2.7V | 00:00:00 | 01:46:55 | 00:00:00 | |
| DO3MHA-11 | 2026-08-31 00:21:01 | 49.47406 | 17.70599 | 357° | 15km/h | 25617m | 6.0m/s | -52.4°C | 4.1% | 0hPa | 2.7V | 00:00:00 | 01:46:54 | 00:00:00 | |
| OE5MMP-10 | 2026-08-31 00:20:58 | 49.47397 | 17.70608 | 287° | 13km/h | 25598m | 5.9m/s | -52.4°C | 4.1% | 0hPa | 2.6V | 00:00:00 | 01:46:51 | 00:00:00 | |
| POL1PZ | 2026-08-31 00:20:52 | 49.47402 | 17.70641 | 261° | 15km/h | 25559m | 3.8m/s | -52.4°C | 1.2% | 0hPa | 2.6V | 00:00:00 | 00:00:00 | 00:00:00 | |
| DO3MHA-11 | 2026-08-31 00:20:51 | 49.47402 | 17.70646 | 283° | 9km/h | 25554m | 6.2m/s | -52.4°C | 4.2% | 0hPa | 2.6V | 00:00:00 | 01:46:44 | 00:00:00 | |
| OE5MMP-10 | 2026-08-31 00:20:48 | 49.47396 | 17.70648 | 19° | 11km/h | 25534m | 6.4m/s | -52.4°C | 4.1% | 0hPa | 2.6V | 00:00:00 | 01:46:41 | 08:30:00 | |
| OE3JTB-15 | 2026-08-31 00:20:47 | 49.47392 | 17.70646 | 11° | 9km/h | 25520m | 5.0m/s | -52.3°C | 4.1% | 0hPa | 2.7V | 00:00:00 | 00:00:00 | 08:30:00 | |
| OE5DRO-10 | 2026-08-31 00:20:42 | 49.47386 | 17.70650 | 263° | 13km/h | 25497m | 6.3m/s | -52.2°C | 4.0% | 0hPa | 2.7V | 00:00:00 | 00:00:00 | 08:30:00 | |
| DO3MHA-11 | 2026-08-31 00:20:41 | 49.47388 | 17.70654 | 236° | 11km/h | 25490m | 8.3m/s | -52.1°C | 4.0% | 0hPa | 2.6V | 00:00:00 | 01:46:34 | 00:00:00 | |
| OE5DXL-15 | 2026-08-31 00:20:40 | 49.47390 | 17.70659 | 232° | 13km/h | 25482m | 5.9m/s | -52.1°C | 4.0% | 0hPa | 2.6V | 00:00:00 | 00:00:00 | 00:00:00 | |
| OE5MMP-10 | 2026-08-31 00:20:38 | 49.47395 | 17.70671 | 246° | 9km/h | 25470m | 7.5m/s | -52.1°C | 4.0% | 0hPa | 2.6V | 00:00:00 | 01:46:31 | 00:00:00 | |
| OE3OSB-13 | 2026-08-31 00:20:32 | 49.47394 | 17.70681 | 37° | 13km/h | 25423m | 6.0m/s | -52.1°C | 1.1% | -1.0hPa | 2.6V | 00:00:00 | 00:00:00 | 00:00:00 | |
| DO3MHA-11 | 2026-08-31 00:20:30 | 49.47392 | 17.70678 | 42° | 15km/h | 25418m | 4.2m/s | -52.1°C | 4.0% | 0hPa | 2.6V | 00:00:00 | 01:46:23 | 08:30:00 | |
| NBG1-10 | 2026-08-31 00:20:29 | 49.47390 | 17.70676 | 60° | 16km/h | 25413m | 5.3m/s | -52.1°C | 4.0% | 0hPa | 2.7V | 00:00:00 | 01:46:22 | 00:00:00 | |
| OE5MMP-10 | 2026-08-31 00:20:28 | 49.47390 | 17.70675 | 162° | 15km/h | 25406m | 7.3m/s | -52.1°C | 4.0% | 0hPa | 2.7V | 00:00:00 | 01:46:21 | 00:00:00 | |
| OE5DRO-10 | 2026-08-31 00:20:23 | 49.47406 | 17.70697 | 247° | 15km/h | 25373m | 5.5m/s | -52.1°C | 4.0% | 0hPa | 2.7V | 00:00:00 | 00:00:00 | 00:00:00 | |
| PG1ADW-2 | 2026-08-31 00:20:21 | 49.47409 | 17.70708 | 237° | 15km/h | 25363m | 6.0m/s | -52.1°C | 4.0% | 0hPa | 2.7V | 00:00:00 | 00:00:00 | 00:00:00 | |
| DO3MHA-11 | 2026-08-31 00:20:20 | 49.47411 | 17.70710 | 207° | 11km/h | 25356m | 7.7m/s | -52.1°C | 4.0% | 0hPa | 2.6V | 00:00:00 | 01:46:13 | 00:00:00 | |
| OE5MMP-10 | 2026-08-31 00:20:18 | 49.47415 | 17.70708 | 127° | 13km/h | 25343m | 5.5m/s | -52.1°C | 4.0% | 0hPa | 2.6V | 00:00:00 | 01:46:11 | 00:00:00 | |
| SP3WXH-11 | 2026-08-31 00:20:17 | 49.47416 | 17.70701 | 95° | 11km/h | 25329m | 6.0m/s | -52.2°C | 1.1% | -1.0hPa | 2.6V | 00:00:00 | 00:00:00 | 00:00:00 | |
| OE3JTB-15 | 2026-08-31 00:20:14 | 49.47421 | 17.70688 | 148° | 13km/h | 25310m | 5.9m/s | -52.1°C | 4.0% | 0hPa | 2.6V | 00:00:00 | 00:00:00 | 00:00:00 | |
| DO3MHA-11 | 2026-08-31 00:20:10 | 49.47431 | 17.70688 | 220° | 15km/h | 25290m | 7.3m/s | -52.1°C | 4.0% | 0hPa | 2.6V | 00:00:00 | 01:46:03 | 00:00:00 | |
| OE5MMP-10 | 2026-08-31 00:20:08 | 49.47436 | 17.70699 | 240° | 13km/h | 25278m | 5.7m/s | -52.1°C | 4.0% | 0hPa | 2.6V | 00:00:00 | 01:46:01 | 00:00:00 | |
| OE5DRO-10 | 2026-08-31 00:20:04 | 49.47449 | 17.70722 | 227° | 9km/h | 25254m | 5.4m/s | -52.1°C | 4.0% | 0hPa | 2.6V | 00:00:00 | 00:00:00 | 00:00:00 | |
| OE3OSB-13 | 2026-08-31 00:20:00 | 49.47453 | 17.70731 | 169° | 4km/h | 25227m | 7.0m/s | -52.2°C | 1.1% | -1.0hPa | 2.6V | 00:00:00 | 00:00:00 | 00:00:00 | |
| SP3WXH-11 | 2026-08-31 00:19:46 | 49.47477 | 17.70747 | 91° | 9km/h | 25131m | 6.1m/s | -52.6°C | -1.0% | -1.0hPa | 2.6V | 00:00:00 | 00:00:00 | 00:00:00 | |
| OE5DRO-10 | 2026-08-31 00:19:45 | 49.47477 | 17.70747 | 92° | 11km/h | 25131m | 6.0m/s | -52.5°C | 4.1% | 0hPa | 2.6V | 00:00:00 | 00:00:00 | 00:00:00 | |
| PG1ADW-2 | 2026-08-31 00:19:41 | 49.47480 | 17.70742 | 206° | 11km/h | 25106m | 5.9m/s | -52.5°C | 4.1% | 0hPa | 2.6V | 00:00:00 | 00:00:00 | 00:00:00 | |
| DO3MHA-11 | 2026-08-31 00:19:40 | 49.47482 | 17.70743 | 205° | 13km/h | 25099m | 7.8m/s | -52.5°C | 4.1% | 0hPa | 2.6V | 00:00:00 | 01:45:33 | 00:00:00 | |
| OE5DXL-15 | 2026-08-31 00:19:39 | 49.47485 | 17.70746 | 209° | 11km/h | 25092m | 5.9m/s | -52.4°C | 4.1% | 0hPa | 2.6V | 00:00:00 | 00:00:00 | 00:00:00 | |
| OE5MMP-10 | 2026-08-31 00:19:38 | 49.47489 | 17.70750 | 221° | 13km/h | 25086m | 5.0m/s | -52.4°C | 4.1% | 0hPa | 2.6V | 00:00:00 | 01:45:31 | 00:00:00 | |
| OE3JTB-15 | 2026-08-31 00:19:33 | 49.47495 | 17.70776 | 318° | 18km/h | 25057m | 6.5m/s | -52.3°C | 4.1% | 0hPa | 2.6V | 00:00:00 | 01:45:26 | 00:00:00 | |
| DO3MHA-11 | 2026-08-31 00:19:30 | 49.47497 | 17.70769 | 123° | 11km/h | 25038m | 5.3m/s | -52.4°C | 4.1% | 0hPa | 2.6V | 00:00:00 | 01:45:23 | 00:00:00 | |
| OE3OSB-13 | 2026-08-31 00:19:29 | 49.47498 | 17.70766 | 134° | 7km/h | 25032m | 5.8m/s | -52.5°C | 1.1% | -1.0hPa | 2.6V | 00:00:00 | 00:00:00 | 00:00:00 | |
| OE5MMP-10 | 2026-08-31 00:19:28 | 49.47500 | 17.70765 | 164° | 11km/h | 25026m | 6.5m/s | -52.4°C | 4.1% | 0hPa | 2.6V | 00:00:00 | 01:45:21 | 00:00:00 | |
| OE5DRO-10 | 2026-08-31 00:19:26 | 49.47502 | 17.70767 | 230° | 9km/h | 25014m | 6.1m/s | -52.4°C | 4.1% | 0hPa | 2.6V | 00:00:00 | 00:00:00 | 00:00:00 | |
| PG1ADW-2 | 2026-08-31 00:19:21 | 49.47510 | 17.70786 | 257° | 11km/h | 24981m | 7.1m/s | -52.4°C | 4.1% | 0hPa | 2.6V | 00:00:00 | 00:00:00 | 00:00:00 | |
| DO3MHA-11 | 2026-08-31 00:19:20 | 49.47510 | 17.70792 | 263° | 7km/h | 24975m | 5.2m/s | -52.3°C | 4.1% | 0hPa | 2.7V | 00:00:00 | 01:45:13 | 00:00:00 | |
| OE5MMP-10 | 2026-08-31 00:19:18 | 49.47511 | 17.70801 | 264° | 7km/h | 24963m | 7.6m/s | -52.3°C | 4.0% | 0hPa | 2.7V | 00:00:00 | 01:45:11 | 08:30:00 | |
| DO3MHA-11 | 2026-08-31 00:19:10 | 49.47517 | 17.70799 | 195° | 16km/h | 24911m | 5.8m/s | -52.3°C | 4.1% | 0hPa | 2.6V | 00:00:00 | 01:45:03 | 00:00:00 | |
| OE5DXL-15 | 2026-08-31 00:19:09 | 49.47520 | 17.70801 | 210° | 16km/h | 24905m | 7.6m/s | -52.3°C | 4.1% | 0hPa | 2.6V | 00:00:00 | 00:00:00 | 00:00:00 | |
| OE5MMP-10 | 2026-08-31 00:19:08 | 49.47524 | 17.70805 | 224° | 16km/h | 24898m | 6.5m/s | -52.3°C | 4.1% | 0hPa | 2.6V | 00:00:00 | 01:45:01 | 00:00:00 | |
| OE5DRO-10 | 2026-08-31 00:19:07 | 49.47527 | 17.70810 | 227° | 13km/h | 24892m | 4.9m/s | -52.3°C | 4.1% | 0hPa | 2.6V | 00:00:00 | 00:00:00 | 00:00:00 | |
| PG1ADW-2 | 2026-08-31 00:19:01 | 49.47547 | 17.70830 | 210° | 16km/h | 24855m | 6.3m/s | -52.3°C | 4.1% | 0hPa | 2.6V | 00:00:00 | 00:00:00 | 00:00:00 | |
| DO3MHA-11 | 2026-08-31 00:19:00 | 49.47550 | 17.70832 | 197° | 13km/h | 24849m | 5.7m/s | -52.3°C | 4.1% | 0hPa | 2.6V | 00:00:00 | 01:44:53 | 08:30:00 | |
| OE5MMP-10 | 2026-08-31 00:18:58 | 49.47557 | 17.70832 | 168° | 13km/h | 24835m | 7.5m/s | -52.3°C | 4.1% | 0hPa | 2.7V | 00:00:00 | 01:44:51 | 00:00:00 | |
| S52SK | 2026-08-31 00:18:56 | 49.47562 | 17.70830 | 165° | 18km/h | 24829m | 4.7m/s | -52.3°C | 1.2% | 0hPa | 2.7V | 00:00:00 | 00:00:00 | 00:00:00 | |
| GYPAP8-17 | 2026-08-31 00:18:55 | 49.47566 | 17.70829 | 169° | 16km/h | 24823m | 5.8m/s | -52.3°C | 0% | 0hPa | 2.7V | 00:00:00 | 00:00:00 | 00:00:00 | |
| DO3MHA-11 | 2026-08-31 00:18:50 | 49.47581 | 17.70825 | 169° | 20km/h | 24784m | 6.4m/s | -52.4°C | 4.1% | 0hPa | 2.7V | 00:00:00 | 01:44:43 | 00:00:00 | |
| OE5DRO-10 | 2026-08-31 00:18:48 | 49.47586 | 17.70825 | 192° | 16km/h | 24770m | 5.3m/s | -52.4°C | 4.1% | 0hPa | 2.7V | 00:00:00 | 00:00:00 | 00:00:00 | |
| PG1ADW-2 | 2026-08-31 00:18:41 | 49.47627 | 17.70820 | 170° | 13km/h | 24725m | 5.6m/s | -52.3°C | 4.1% | 0hPa | 2.6V | 00:00:00 | 01:44:34 | 00:00:00 | |
| DO3MHA-11 | 2026-08-31 00:18:40 | 49.47632 | 17.70818 | 156° | 11km/h | 24719m | 7.3m/s | -52.3°C | 4.0% | 0hPa | 2.6V | 00:00:00 | 01:44:33 | 00:00:00 | |
| OE5DXL-15 | 2026-08-31 00:18:39 | 49.47635 | 17.70814 | 133° | 13km/h | 24712m | 5.8m/s | -52.3°C | 4.1% | 0hPa | 2.6V | 00:00:00 | 00:00:00 | 08:30:00 | |
| OE5MMP-10 | 2026-08-31 00:18:38 | 49.47637 | 17.70810 | 108° | 13km/h | 24706m | 6.0m/s | -52.4°C | 4.0% | 0hPa | 2.7V | 00:00:00 | 01:44:31 | 00:00:00 | |
| DO3MHA-11 | 2026-08-31 00:18:30 | 49.47643 | 17.70785 | 162° | 13km/h | 24656m | 7.3m/s | -52.5°C | 4.0% | 0hPa | 2.7V | 00:00:00 | 01:44:23 | 00:00:00 | |
| OE5DRO-10 | 2026-08-31 00:18:29 | 49.47648 | 17.70783 | 177° | 13km/h | 24649m | 6.4m/s | -52.6°C | 4.1% | 0hPa | 2.7V | 00:00:00 | 00:00:00 | 00:00:00 | |
| OE5MMP-10 | 2026-08-31 00:18:28 | 49.47653 | 17.70783 | 183° | 13km/h | 24643m | 5.2m/s | -52.6°C | 4.1% | 0hPa | 2.7V | 00:00:00 | 01:44:21 | 00:00:00 | |
| OE3OSB-13 | 2026-08-31 00:18:27 | 49.47657 | 17.70783 | 175° | 16km/h | 24638m | 5.9m/s | -52.7°C | 1.1% | -1.0hPa | 2.7V | 00:00:00 | 00:00:00 | 00:00:00 | |
| PG1ADW-2 | 2026-08-31 00:18:21 | 49.47663 | 17.70766 | 46° | 15km/h | 24599m | 5.0m/s | -53.0°C | 4.2% | 0hPa | 2.7V | 00:00:00 | 00:00:00 | 08:30:00 | |
| DO3MHA-11 | 2026-08-31 00:18:20 | 49.47661 | 17.70762 | 54° | 13km/h | 24593m | 7.6m/s | -53.1°C | 4.3% | 0hPa | 2.6V | 00:00:00 | 01:44:13 | 00:00:00 | |
| OE5MMP-10 | 2026-08-31 00:18:18 | 49.47657 | 17.70750 | 72° | 13km/h | 24580m | 5.0m/s | -53.0°C | 4.3% | 0hPa | 2.6V | 00:00:00 | 01:44:11 | 00:00:00 | |
| DO3MHA-11 | 2026-08-31 00:18:10 | 49.47660 | 17.70714 | 52° | 15km/h | 24529m | 7.1m/s | -52.9°C | 4.3% | 0hPa | 2.7V | 00:00:00 | 01:44:03 | 00:00:00 | |
| OE5MMP-10 | 2026-08-31 00:18:08 | 49.47655 | 17.70710 | 26° | 16km/h | 24517m | 5.8m/s | -52.9°C | 4.3% | 0hPa | 2.7V | 00:00:00 | 01:44:01 | 00:00:00 | |
| POL1PZ | 2026-08-31 00:18:07 | 49.47655 | 17.70710 | 26° | 16km/h | 24517m | 5.9m/s | -52.9°C | 1.3% | 0hPa | 2.7V | 00:00:00 | 00:00:00 | 00:00:00 | |
| OE3OSB-13 | 2026-08-31 00:17:56 | 49.47634 | 17.70650 | 34° | 9km/h | 24443m | 5.5m/s | -52.6°C | 1.1% | -1.0hPa | 2.7V | 00:00:00 | 00:00:00 | 00:00:00 | |
| OE5DRO-10 | 2026-08-31 00:17:51 | 49.47613 | 17.70639 | 20° | 22km/h | 24413m | 5.5m/s | -52.7°C | 4.1% | 0hPa | 2.7V | 00:00:00 | 00:00:00 | 08:30:00 | |
| DO3MHA-11 | 2026-08-31 00:17:50 | 49.47608 | 17.70636 | 17° | 18km/h | 24407m | 7.5m/s | -52.7°C | 4.1% | 0hPa | 2.6V | 00:00:00 | 01:43:43 | 00:00:00 | |
| OE5MMP-10 | 2026-08-31 00:17:48 | 49.47600 | 17.70632 | 32° | 20km/h | 24394m | 5.0m/s | -52.8°C | 4.2% | 0hPa | 2.6V | 00:00:00 | 01:43:41 | 08:30:00 | |
| POL1PZ | 2026-08-31 00:17:46 | 49.47597 | 17.70628 | 45° | 16km/h | 24388m | 7.6m/s | -52.8°C | 1.2% | 0hPa | 2.7V | 00:00:00 | 00:00:00 | 00:00:00 | |
| GYPAP8-17 | 2026-08-31 00:17:43 | 49.47589 | 17.70611 | 55° | 16km/h | 24369m | 7.3m/s | -52.8°C | 0% | 0hPa | 2.7V | 00:00:00 | 00:00:00 | 00:00:00 | |
| PG1ADW-2 | 2026-08-31 00:17:41 | 49.47578 | 17.70603 | 13° | 24km/h | 24351m | 7.3m/s | -52.9°C | 4.2% | 0hPa | 2.7V | 00:00:00 | 00:00:00 | 00:00:00 | |
| DO3MHA-11 | 2026-08-31 00:17:40 | 49.47572 | 17.70601 | 11° | 26km/h | 24343m | 6.7m/s | -52.9°C | 4.2% | 0hPa | 2.7V | 00:00:00 | 01:43:33 | 00:00:00 | |
| OE5MMP-10 | 2026-08-31 00:17:38 | 49.47558 | 17.70599 | 360° | 22km/h | 24331m | 7.6m/s | -52.9°C | 4.2% | 0hPa | 2.7V | 00:00:00 | 01:43:31 | 00:00:00 | |
| OE5DRO-10 | 2026-08-31 00:17:32 | 49.47520 | 17.70595 | 20° | 22km/h | 24293m | 6.1m/s | -53.0°C | 4.2% | 0hPa | 2.7V | 00:00:00 | 00:00:00 | 00:00:00 | |
| DO3MHA-11 | 2026-08-31 00:17:30 | 49.47511 | 17.70590 | 16° | 24km/h | 24280m | 5.9m/s | -53.0°C | 4.3% | 0hPa | 2.7V | 00:00:00 | 01:43:23 | 08:30:00 | |
| OE5MMP-10 | 2026-08-31 00:17:28 | 49.47503 | 17.70588 | 11° | 26km/h | 24268m | 6.1m/s | -53.0°C | 4.3% | 0hPa | 2.7V | 00:00:00 | 01:43:21 | 00:00:00 | |
| POL1PZ | 2026-08-31 00:17:26 | 49.47498 | 17.70587 | 1° | 24km/h | 24262m | 5.7m/s | -53.0°C | 1.3% | 0hPa | 2.7V | 00:00:00 | 00:00:00 | 00:00:00 | |
| OE3OSB-13 | 2026-08-31 00:17:25 | 49.47485 | 17.70591 | 339° | 29km/h | 24250m | 7.1m/s | -53.0°C | 1.2% | -1.0hPa | 2.7V | 00:00:00 | 00:00:00 | 00:00:00 | |
| PG1ADW-2 | 2026-08-31 00:17:21 | 49.47458 | 17.70610 | 344° | 20km/h | 24226m | 6.5m/s | -52.8°C | 4.2% | 0hPa | 2.7V | 00:00:00 | 01:43:14 | 00:00:00 | |
| DO3MHA-11 | 2026-08-31 00:17:20 | 49.47451 | 17.70612 | 350° | 20km/h | 24220m | 5.0m/s | -52.8°C | 4.2% | 0hPa | 2.6V | 00:00:00 | 01:43:13 | 00:00:00 | |
| OE5MMP-10 | 2026-08-31 00:17:18 | 49.47442 | 17.70615 | 347° | 22km/h | 24208m | 6.9m/s | -52.7°C | 4.2% | 0hPa | 2.6V | 00:00:00 | 01:43:11 | 00:00:00 | |
| OE5DRO-10 | 2026-08-31 00:17:13 | 49.47423 | 17.70625 | 332° | 20km/h | 24178m | 4.6m/s | -52.7°C | 4.1% | 0hPa | 2.6V | 00:00:00 | 00:00:00 | 00:00:00 | |
| DO3MHA-11 | 2026-08-31 00:17:10 | 49.47406 | 17.70646 | 318° | 18km/h | 24159m | 5.3m/s | -52.7°C | 4.1% | 0hPa | 2.6V | 00:00:00 | 01:43:03 | 00:00:00 | |
| OE5MMP-10 | 2026-08-31 00:17:08 | 49.47393 | 17.70661 | 332° | 15km/h | 24146m | 5.8m/s | -52.7°C | 4.1% | 0hPa | 2.6V | 00:00:00 | 01:43:01 | 00:00:00 | |
| OE5DXL-15 | 2026-08-31 00:17:07 | 49.47386 | 17.70666 | 337° | 13km/h | 24140m | 4.7m/s | -52.7°C | 4.1% | 0hPa | 2.6V | 00:00:00 | 00:00:00 | 00:00:00 | |
| POL1PZ | 2026-08-31 00:17:05 | 49.47382 | 17.70669 | 341° | 20km/h | 24134m | 7.6m/s | -52.8°C | 1.3% | 0hPa | 2.7V | 00:00:00 | 00:00:00 | 00:00:00 | |
| PG1ADW-2 | 2026-08-31 00:17:01 | 49.47370 | 17.70670 | 323° | 15km/h | 24103m | 5.7m/s | -52.8°C | 4.2% | 0hPa | 2.7V | 00:00:00 | 00:00:00 | 00:00:00 | |
| DO3MHA-11 | 2026-08-31 00:17:00 | 49.47369 | 17.70672 | 293° | 18km/h | 24096m | 7.6m/s | -52.8°C | 4.1% | 0hPa | 2.7V | 00:00:00 | 01:42:53 | 00:00:00 | |
| OE5MMP-10 | 2026-08-31 00:16:58 | 49.47366 | 17.70684 | 294° | 16km/h | 24085m | 4.9m/s | -52.7°C | 4.1% | 0hPa | 2.6V | 00:00:00 | 01:42:51 | 00:00:00 | |
| OE5DRO-10 | 2026-08-31 00:16:54 | 49.47352 | 17.70713 | 310° | 11km/h | 24059m | 7.0m/s | -52.7°C | 4.1% | 0hPa | 2.6V | 00:00:00 | 00:00:00 | 00:00:00 | |
| DO3MHA-11 | 2026-08-31 00:16:50 | 49.47343 | 17.70723 | 356° | 11km/h | 24035m | 5.2m/s | -52.7°C | 4.1% | 0hPa | 2.6V | 00:00:00 | 01:42:43 | 00:00:00 | |
| OE5MMP-10 | 2026-08-31 00:16:48 | 49.47340 | 17.70724 | 305° | 13km/h | 24023m | 7.7m/s | -52.7°C | 4.0% | 0hPa | 2.6V | 00:00:00 | 01:42:41 | 00:00:00 | |
| POL1PZ | 2026-08-31 00:16:45 | 49.47340 | 17.70729 | 274° | 9km/h | 24010m | 5.6m/s | -52.8°C | 1.2% | 0hPa | 2.6V | 00:00:00 | 00:00:00 | 00:00:00 | |
| PG1ADW-2 | 2026-08-31 00:16:41 | 49.47330 | 17.70753 | 300° | 9km/h | 23980m | 6.3m/s | -53.0°C | 4.1% | 0hPa | 2.6V | 00:00:00 | 00:00:00 | 00:00:00 | |
| DO3MHA-11 | 2026-08-31 00:16:40 | 49.47329 | 17.70757 | 299° | 13km/h | 23974m | 5.0m/s | -53.0°C | 4.1% | 0hPa | 2.6V | 00:00:00 | 01:42:33 | 00:00:00 | |
| OE5MMP-10 | 2026-08-31 00:16:38 | 49.47325 | 17.70765 | 318° | 9km/h | 23962m | 7.0m/s | -53.1°C | 4.1% | 0hPa | 2.6V | 00:00:00 | 01:42:31 | 00:00:00 | |
| OE5DXL-15 | 2026-08-31 00:16:37 | 49.47323 | 17.70768 | 318° | 11km/h | 23956m | 4.8m/s | -53.1°C | 4.1% | 0hPa | 2.6V | 00:00:00 | 00:00:00 | 00:00:00 | |
| OE5DRO-10 | 2026-08-31 00:16:35 | 49.47321 | 17.70772 | 255° | 9km/h | 23944m | 6.9m/s | -53.1°C | 4.2% | 0hPa | 2.6V | 00:00:00 | 00:00:00 | 00:00:00 | |
| OE5MMP-10 | 2026-08-31 00:16:28 | 49.47327 | 17.70795 | 257° | 9km/h | 23905m | 6.5m/s | -53.3°C | 4.2% | 0hPa | 2.6V | 00:00:00 | 01:42:21 | 00:00:00 | |
| POL1PZ | 2026-08-31 00:16:25 | 49.47328 | 17.70803 | 277° | 7km/h | 23894m | 4.6m/s | -53.4°C | 1.3% | 0hPa | 2.6V | 00:00:00 | 00:00:00 | 00:00:00 | |
| DO3MHA-11 | 2026-08-31 00:16:23 | 49.47323 | 17.70808 | 352° | 11km/h | 23875m | 4.5m/s | -53.4°C | 4.1% | 0hPa | 2.6V | 00:00:00 | 01:42:16 | 00:00:00 | |
| PG1ADW-2 | 2026-08-31 00:16:21 | 49.47319 | 17.70811 | 304° | 11km/h | 23863m | 6.1m/s | -53.4°C | 4.1% | 0hPa | 2.7V | 00:00:00 | 00:00:00 | 00:00:00 | |
| S52SK | 2026-08-31 00:16:20 | 49.47319 | 17.70811 | 304° | 9km/h | 23863m | 6.2m/s | -53.4°C | 1.3% | 0hPa | 2.6V | 00:00:00 | 00:00:00 | 00:00:00 | |
| OE5MMP-10 | 2026-08-31 00:16:18 | 49.47317 | 17.70821 | 258° | 13km/h | 23845m | 5.8m/s | -53.5°C | 4.2% | 0hPa | 2.6V | 00:00:00 | 01:42:11 | 08:30:00 | |
| OE5DRO-10 | 2026-08-31 00:16:16 | 49.47321 | 17.70828 | 216° | 11km/h | 23833m | 7.5m/s | -53.6°C | 4.2% | 0hPa | 2.6V | 00:00:00 | 00:00:00 | 00:00:00 | |
| S52SK | 2026-08-31 00:16:14 | 49.47325 | 17.70831 | 201° | 18km/h | 23827m | 5.5m/s | -53.7°C | 1.3% | 0hPa | 2.6V | 00:00:00 | 00:00:00 | 00:00:00 | |
| DO3MHA-11 | 2026-08-31 00:16:13 | 49.47332 | 17.70833 | 178° | 11km/h | 23818m | 4.4m/s | -53.7°C | 4.3% | 0hPa | 2.6V | 00:00:00 | 01:42:06 | 00:00:00 | |
| S52SK | 2026-08-31 00:16:09 | 49.47332 | 17.70827 | 33° | 13km/h | 23799m | 5.6m/s | -53.9°C | 1.4% | 0hPa | 2.6V | 00:00:00 | 00:00:00 | 00:00:00 | |
| OE5MMP-10 | 2026-08-31 00:16:08 | 49.47325 | 17.70825 | 359° | 9km/h | 23788m | 6.5m/s | -53.9°C | 4.4% | 0hPa | 2.6V | 00:00:00 | 01:42:01 | 00:00:00 | |
| OE5DXL-15 | 2026-08-31 00:16:06 | 49.47321 | 17.70829 | 310° | 16km/h | 23776m | 5.2m/s | -54.0°C | 4.3% | 0hPa | 2.6V | 00:00:00 | 00:00:00 | 00:00:00 | |
| POL1PZ | 2026-08-31 00:16:04 | 49.47319 | 17.70832 | 308° | 13km/h | 23770m | 6.8m/s | -54.1°C | 1.3% | 0hPa | 2.6V | 00:00:00 | 00:00:00 | 00:00:00 | |
| OE3OSB-13 | 2026-08-31 00:15:52 | 49.47300 | 17.70839 | 327° | 24km/h | 23687m | 6.8m/s | -54.7°C | 1.3% | -1.0hPa | 2.6V | 00:00:00 | 00:00:00 | 00:00:00 | |
| OE5MMP-10 | 2026-08-31 00:15:48 | 49.47287 | 17.70854 | 306° | 16km/h | 23669m | 7.5m/s | -54.8°C | 4.5% | 0hPa | 2.6V | 00:00:00 | 01:41:41 | 00:00:00 | |
| POL1PZ | 2026-08-31 00:15:43 | 49.47282 | 17.70862 | 9° | 11km/h | 23646m | 6.3m/s | -55.0°C | 1.4% | 0hPa | 2.7V | 00:00:00 | 00:00:00 | 00:00:00 | |
| DO3MHA-11 | 2026-08-31 00:15:42 | 49.47273 | 17.70861 | 360° | 22km/h | 23636m | 4.8m/s | -55.0°C | 4.6% | 0hPa | 2.7V | 00:00:00 | 01:41:35 | 00:00:00 | |
| PG1ADW-2 | 2026-08-31 00:15:41 | 49.47267 | 17.70862 | 350° | 18km/h | 23631m | 6.4m/s | -55.0°C | 4.6% | 0hPa | 2.7V | 00:00:00 | 00:00:00 | 00:00:00 | |
| OE5MMP-10 | 2026-08-31 00:15:38 | 49.47250 | 17.70875 | 327° | 24km/h | 23612m | 7.0m/s | -55.1°C | 4.5% | 0hPa | 2.7V | 00:00:00 | 01:41:31 | 00:00:00 | |
| OE5DXL-15 | 2026-08-31 00:15:37 | 49.47238 | 17.70890 | 317° | 15km/h | 23600m | 4.2m/s | -55.1°C | 4.6% | 0hPa | 2.7V | 00:00:00 | 00:00:00 | 00:00:00 | |
| DO3MHA-11 | 2026-08-31 00:15:28 | 49.47214 | 17.70940 | 325° | 13km/h | 23553m | 7.1m/s | -55.1°C | 4.7% | 0hPa | 2.6V | 00:00:00 | 01:41:21 | 00:00:00 | |
| GYPAP8-17 | 2026-08-31 00:15:25 | 49.47211 | 17.70943 | 336° | 7km/h | 23542m | 4.8m/s | -55.1°C | 0% | 0hPa | 2.6V | 00:00:00 | 00:00:00 | 00:00:00 | |
| OE3OSB-13 | 2026-08-31 00:15:21 | 49.47203 | 17.70965 | 266° | 22km/h | 23508m | 5.3m/s | -55.0°C | 1.3% | -1.0hPa | 2.6V | 00:00:00 | 00:00:00 | 00:00:00 | |
| OE5DRO-10 | 2026-08-31 00:15:19 | 49.47203 | 17.70974 | 269° | 16km/h | 23503m | 4.6m/s | -54.9°C | 4.7% | 0hPa | 2.6V | 00:00:00 | 00:00:00 | 00:00:00 | |
| DO3MHA-11 | 2026-08-31 00:15:18 | 49.47203 | 17.70983 | 275° | 13km/h | 23497m | 6.9m/s | -54.9°C | 4.6% | 0hPa | 2.6V | 00:00:00 | 01:41:11 | 00:00:00 | |
| OE5MMP-10 | 2026-08-31 00:15:08 | 49.47201 | 17.71029 | 268° | 20km/h | 23441m | 5.1m/s | -54.7°C | 4.4% | 0hPa | 2.6V | 00:00:00 | 01:41:01 | 00:00:00 | |
| OE5DXL-15 | 2026-08-31 00:15:06 | 49.47203 | 17.71041 | 247° | 15km/h | 23428m | 5.8m/s | -54.8°C | 4.5% | 0hPa | 2.6V | 00:00:00 | 00:00:00 | 00:00:00 | |
| GYPAP8-17 | 2026-08-31 00:15:05 | 49.47205 | 17.71049 | 248° | 20km/h | 23423m | 5.4m/s | -54.9°C | 0% | 0hPa | 2.6V | 00:00:00 | 00:00:00 | 00:00:00 | |
| OE3OSB-13 | 2026-08-31 00:14:50 | 49.47241 | 17.71114 | 253° | 11km/h | 23328m | 5.7m/s | -55.2°C | 1.3% | -1.0hPa | 2.6V | 00:00:00 | 00:00:00 | 00:00:00 | |
| DO3MHA-11 | 2026-08-31 00:14:48 | 49.47242 | 17.71118 | 252° | 13km/h | 23323m | 5.3m/s | -55.2°C | 4.6% | 0hPa | 2.6V | 00:00:00 | 01:40:41 | 00:00:00 | |
| PG1ADW-2 | 2026-08-31 00:14:41 | 49.47260 | 17.71128 | 175° | 7km/h | 23282m | 5.5m/s | -55.2°C | 4.7% | 0hPa | 2.7V | 00:00:00 | 01:40:34 | 00:00:00 | |
| POL1PZ | 2026-08-31 00:14:39 | 49.47264 | 17.71127 | 166° | 15km/h | 23275m | 7.2m/s | -55.3°C | 1.4% | 0hPa | 2.7V | 00:00:00 | 00:00:00 | 00:00:00 | |
| DO3MHA-11 | 2026-08-31 00:14:38 | 49.47270 | 17.71123 | 142° | 5km/h | 23264m | 5.0m/s | -55.2°C | 4.7% | 0hPa | 2.7V | 00:00:00 | 01:40:31 | 00:00:00 | |
| OE5DXL-15 | 2026-08-31 00:14:36 | 49.47272 | 17.71119 | 102° | 7km/h | 23252m | 5.6m/s | -55.2°C | 4.7% | 0hPa | 2.7V | 00:00:00 | 00:00:00 | 00:00:00 | |
| OE5MMP-10 | 2026-08-31 00:14:28 | 49.47279 | 17.71113 | 143° | 7km/h | 23204m | 7.3m/s | -55.1°C | 4.7% | 0hPa | 2.7V | 00:00:00 | 01:40:21 | 00:00:00 | |
| OE5DRO-10 | 2026-08-31 00:14:22 | 49.47278 | 17.71094 | 58° | 7km/h | 23167m | 10.6m/s | -55.1°C | 4.7% | 0hPa | 2.7V | 00:00:00 | 00:00:00 | 00:00:00 | |
| PG1ADW-2 | 2026-08-31 00:14:21 | 49.47278 | 17.71092 | 73° | 7km/h | 23158m | 7.0m/s | -55.1°C | 4.7% | 0hPa | 2.7V | 00:00:00 | 00:00:00 | 00:00:00 | |
| OE3OSB-13 | 2026-08-31 00:14:19 | 49.47280 | 17.71095 | 239° | 5km/h | 23139m | 7.0m/s | -55.0°C | 1.3% | -1.0hPa | 2.6V | 00:00:00 | 00:00:00 | 00:00:00 | |
| DO3MHA-11 | 2026-08-31 00:14:18 | 49.47280 | 17.71095 | 240° | 7km/h | 23139m | 6.9m/s | -55.0°C | 4.7% | 0hPa | 2.6V | 00:00:00 | 01:40:11 | 08:30:00 | |
| DO3MHA-11 | 2026-08-31 00:14:08 | 49.47281 | 17.71095 | 17° | 9km/h | 23079m | 6.1m/s | -54.5°C | 4.6% | 0hPa | 2.7V | 00:00:00 | 01:40:01 | 00:00:00 | |
| OE5DXL-15 | 2026-08-31 00:14:06 | 49.47277 | 17.71095 | 340° | 13km/h | 23066m | 7.7m/s | -54.4°C | 4.6% | 0hPa | 2.7V | 00:00:00 | 00:00:00 | 08:30:00 | |
| S52SK | 2026-08-31 00:14:04 | 49.47274 | 17.71097 | 328° | 13km/h | 23060m | 5.3m/s | -54.5°C | 1.4% | 0hPa | 2.6V | 00:00:00 | 00:00:00 | 00:00:00 | |
| OE5DRO-10 | 2026-08-31 00:14:03 | 49.47270 | 17.71103 | 317° | 11km/h | 23049m | 7.4m/s | -54.4°C | 4.6% | 0hPa | 2.6V | 00:00:00 | 00:00:00 | 00:00:00 | |
| OE3OSB-13 | 2026-08-31 00:13:47 | 49.47237 | 17.71145 | 304° | 18km/h | 22947m | 6.3m/s | -54.1°C | 1.3% | -1.0hPa | 2.7V | 00:00:00 | 00:00:00 | 00:00:00 | |
| GYPAP8-17 | 2026-08-31 00:13:46 | 49.47235 | 17.71151 | 303° | 18km/h | 22940m | 5.9m/s | -54.1°C | 0% | 0hPa | 2.7V | 00:00:00 | 00:00:00 | 00:00:00 | |
| NBG1-10 | 2026-08-31 00:13:45 | 49.47232 | 17.71156 | 304° | 18km/h | 22934m | 7.6m/s | -54.0°C | 4.4% | 0hPa | 2.7V | 00:00:00 | 01:39:38 | 00:00:00 | |
| OE5DRO-10 | 2026-08-31 00:13:44 | 49.47231 | 17.71160 | 306° | 22km/h | 22927m | 5.8m/s | -54.0°C | 4.4% | 0hPa | 2.7V | 00:00:00 | 00:00:00 | 00:00:00 | |
| PG1ADW-2 | 2026-08-31 00:13:41 | 49.47224 | 17.71174 | 305° | 22km/h | 22908m | 6.0m/s | -54.1°C | 4.3% | 0hPa | 2.7V | 00:00:00 | 00:00:00 | 00:00:00 | |
| DO3MHA-11 | 2026-08-31 00:13:38 | 49.47214 | 17.71192 | 316° | 27km/h | 22890m | 5.2m/s | -54.2°C | 4.3% | 0hPa | 2.7V | 00:00:00 | 01:39:31 | 00:00:00 | |
| POL1PZ | 2026-08-31 00:13:37 | 49.47214 | 17.71192 | 317° | 22km/h | 22890m | 5.3m/s | -54.2°C | 1.4% | 0hPa | 2.7V | 00:00:00 | 00:00:00 | 00:00:00 | |
| OE5DXL-15 | 2026-08-31 00:13:36 | 49.47206 | 17.71206 | 313° | 18km/h | 22878m | 7.5m/s | -54.3°C | 4.4% | 0hPa | 2.7V | 00:00:00 | 00:00:00 | 00:00:00 | |
| DO3MHA-11 | 2026-08-31 00:13:28 | 49.47176 | 17.71277 | 280° | 16km/h | 22829m | 4.8m/s | -54.5°C | 4.5% | 0hPa | 2.7V | 00:00:00 | 01:39:21 | 00:00:00 | |
| DB0DAN | 2026-08-31 00:13:25 | 49.47175 | 17.71298 | 269° | 15km/h | 22809m | 5.2m/s | -54.6°C | 0% | 0hPa | 2.7V | 00:00:00 | 00:00:00 | 00:00:00 | |
| PG1ADW-2 | 2026-08-31 00:13:21 | 49.47175 | 17.71322 | 277° | 13km/h | 22786m | 7.2m/s | -54.6°C | 4.5% | 0hPa | 2.7V | 00:00:00 | 01:39:14 | 00:00:00 | |
| DO3MHA-11 | 2026-08-31 00:13:18 | 49.47173 | 17.71335 | 282° | 13km/h | 22767m | 6.6m/s | -54.6°C | 4.5% | 0hPa | 2.6V | 00:00:00 | 01:39:11 | 00:00:00 | |
| OE3OSB-13 | 2026-08-31 00:13:16 | 49.47171 | 17.71349 | 284° | 18km/h | 22755m | 5.1m/s | -54.8°C | 1.3% | -1.0hPa | 2.7V | 00:00:00 | 00:00:00 | 00:00:00 | |
| DB0DAN | 2026-08-31 00:13:10 | 49.47168 | 17.71377 | 243° | 9km/h | 22717m | 5.7m/s | -54.7°C | 0% | 0hPa | 2.7V | 00:00:00 | 00:00:00 | 00:00:00 | |
| DO3MHA-11 | 2026-08-31 00:13:08 | 49.47171 | 17.71382 | 203° | 11km/h | 22704m | 7.5m/s | -54.6°C | 4.6% | 0hPa | 2.7V | 00:00:00 | 01:39:01 | 00:00:00 | |
| OE5MMP-10 | 2026-08-31 00:13:07 | 49.47173 | 17.71383 | 198° | 9km/h | 22698m | 4.5m/s | -54.6°C | 4.5% | 0hPa | 2.7V | 00:00:00 | 01:39:00 | 00:00:00 | |
| OE5DXL-15 | 2026-08-31 00:13:06 | 49.47176 | 17.71385 | 208° | 15km/h | 22693m | 6.3m/s | -54.6°C | 4.5% | 0hPa | 2.7V | 00:00:00 | 00:00:00 | 00:00:00 | |
| PG1ADW-2 | 2026-08-31 00:13:01 | 49.47186 | 17.71398 | 216° | 16km/h | 22662m | 4.9m/s | -54.6°C | 4.5% | 0hPa | 2.7V | 00:00:00 | 00:00:00 | 00:00:00 | |
| DO3MHA-11 | 2026-08-31 00:12:58 | 49.47191 | 17.71408 | 238° | 16km/h | 22643m | 4.7m/s | -54.7°C | 4.6% | 0hPa | 2.7V | 00:00:00 | 01:38:51 | 00:00:00 | |
| DB0DAN | 2026-08-31 00:12:55 | 49.47198 | 17.71420 | 208° | 13km/h | 22626m | 5.6m/s | -54.7°C | 0% | 0hPa | 2.7V | 00:00:00 | 00:00:00 | 00:00:00 | |
| OE3OSB-13 | 2026-08-31 00:12:45 | 49.47236 | 17.71462 | 211° | 16km/h | 22565m | 5.1m/s | -54.6°C | 1.3% | -1.0hPa | 2.7V | 00:00:00 | 00:00:00 | 00:00:00 | |
| DB0DAN | 2026-08-31 00:12:40 | 49.47256 | 17.71470 | 196° | 16km/h | 22536m | 6.5m/s | 0°C | 0% | 0hPa | 2.7V | 00:00:00 | 00:00:00 | 00:00:00 | |
| DO3MHA-11 | 2026-08-31 00:12:38 | 49.47264 | 17.71474 | 197° | 18km/h | 22525m | 5.2m/s | -54.4°C | 4.5% | 0hPa | 2.7V | 00:00:00 | 01:38:31 | 00:00:00 | |
| OE5DXL-15 | 2026-08-31 00:12:36 | 49.47273 | 17.71476 | 181° | 16km/h | 22512m | 6.0m/s | -54.5°C | 4.6% | 0hPa | 2.7V | 00:00:00 | 00:00:00 | 00:00:00 | |
| POL1PZ | 2026-08-31 00:12:35 | 49.47273 | 17.71476 | 182° | 18km/h | 22512m | 6.0m/s | -54.6°C | 1.5% | 0hPa | 2.7V | 00:00:00 | 00:00:00 | 00:00:00 | |
| OE5MMP-10 | 2026-08-31 00:12:32 | 49.47291 | 17.71480 | 190° | 18km/h | 22488m | 5.3m/s | -54.5°C | 4.5% | 0hPa | 2.7V | 00:00:00 | 01:38:25 | 00:00:00 | |
| DO3MHA-11 | 2026-08-31 00:12:28 | 49.47307 | 17.71474 | 163° | 16km/h | 22463m | 7.5m/s | -54.4°C | 4.5% | 0hPa | 2.7V | 00:00:00 | 01:38:21 | 00:00:00 | |
| DB0DAN | 2026-08-31 00:12:25 | 49.47321 | 17.71467 | 153° | 20km/h | 22444m | 7.4m/s | 0°C | 0% | 0hPa | 2.7V | 00:00:00 | 00:00:00 | 00:00:00 | |
| NBG1-10 | 2026-08-31 00:12:23 | 49.47329 | 17.71459 | 148° | 16km/h | 22433m | 4.3m/s | 0°C | 0% | 0hPa | 2.7V | 00:00:00 | 01:38:16 | 08:30:00 | |
| OE5MMP-10 | 2026-08-31 00:12:22 | 49.47333 | 17.71455 | 155° | 15km/h | 22427m | 6.8m/s | -54.2°C | 4.5% | 0hPa | 2.7V | 00:00:00 | 01:38:15 | 00:00:00 | |
| PG1ADW-2 | 2026-08-31 00:12:21 | 49.47337 | 17.71453 | 164° | 13km/h | 22421m | 5.5m/s | -54.2°C | 4.5% | 0hPa | 2.7V | 00:00:00 | 00:00:00 | 08:30:00 | |
| DO3MHA-11 | 2026-08-31 00:12:18 | 49.47345 | 17.71449 | 150° | 13km/h | 22405m | 6.4m/s | -54.1°C | 4.5% | 0hPa | 2.6V | 00:00:00 | 01:38:11 | 00:00:00 | |
| POL1PZ | 2026-08-31 00:12:14 | 49.47356 | 17.71440 | 161° | 16km/h | 22387m | 7.1m/s | -54.1°C | 1.4% | 0hPa | 2.6V | 00:00:00 | 00:00:00 | 00:00:00 | |
| OE5MMP-10 | 2026-08-31 00:12:12 | 49.47366 | 17.71432 | 136° | 13km/h | 22371m | 6.5m/s | -54.0°C | 4.5% | 0hPa | 2.6V | 00:00:00 | 01:38:05 | 00:00:00 | |
| OE5DRO-10 | 2026-08-31 00:12:09 | 49.47372 | 17.71415 | 116° | 13km/h | 22353m | 6.7m/s | -53.9°C | 4.5% | 0hPa | 2.6V | 00:00:00 | 00:00:00 | 08:30:00 | |
| OE5DXL-15 | 2026-08-31 00:12:05 | 49.47378 | 17.71397 | 109° | 16km/h | 22330m | 6.5m/s | -53.8°C | 4.4% | 0hPa | 2.6V | 00:00:00 | 00:00:00 | 00:00:00 | |
| OE5MMP-10 | 2026-08-31 00:12:02 | 49.47381 | 17.71386 | 123° | 13km/h | 22312m | 6.3m/s | -53.7°C | 4.3% | 0hPa | 2.6V | 00:00:00 | 01:37:55 | 00:00:00 | |
| DO3MHA-11 | 2026-08-31 00:12:01 | 49.47381 | 17.71384 | 105° | 15km/h | 22307m | 4.5m/s | -53.7°C | 4.3% | 0hPa | 2.6V | 00:00:00 | 01:37:54 | 00:00:00 | |
| POL1PZ | 2026-08-31 00:11:54 | 49.47377 | 17.71358 | 79° | 15km/h | 22271m | 4.8m/s | -53.9°C | 1.4% | 0hPa | 2.6V | 00:00:00 | 00:00:00 | 00:00:00 | |
| OE5MMP-10 | 2026-08-31 00:11:52 | 49.47373 | 17.71337 | 78° | 20km/h | 22253m | 5.3m/s | -53.9°C | 4.4% | 0hPa | 2.6V | 00:00:00 | 01:37:45 | 00:00:00 | |
| DO3MHA-11 | 2026-08-31 00:11:51 | 49.47372 | 17.71330 | 86° | 20km/h | 22247m | 6.1m/s | -53.9°C | 4.3% | 0hPa | 2.6V | 00:00:00 | 01:37:44 | 00:00:00 | |
| OE5DRO-10 | 2026-08-31 00:11:50 | 49.47372 | 17.71323 | 99° | 22km/h | 22241m | 6.2m/s | -53.9°C | 4.3% | 0hPa | 2.6V | 00:00:00 | 00:00:00 | 00:00:00 | |
| OE3OSB-13 | 2026-08-31 00:11:43 | 49.47369 | 17.71272 | 52° | 18km/h | 22201m | 4.9m/s | -54.1°C | 1.3% | -1.0hPa | 2.6V | 00:00:00 | 00:00:00 | 00:00:00 | |
| OE5MMP-10 | 2026-08-31 00:11:42 | 49.47366 | 17.71267 | 41° | 22km/h | 22197m | 4.4m/s | -54.1°C | 4.5% | 0hPa | 2.6V | 00:00:00 | 01:37:35 | 08:30:00 | |
| DO3MHA-11 | 2026-08-31 00:11:41 | 49.47361 | 17.71261 | 36° | 22km/h | 22191m | 6.5m/s | -54.0°C | 4.5% | 0hPa | 2.7V | 00:00:00 | 01:37:34 | 00:00:00 | |
| OE5DXL-15 | 2026-08-31 00:11:36 | 49.47341 | 17.71232 | 62° | 15km/h | 22164m | 4.5m/s | -54.1°C | 4.5% | 0hPa | 2.7V | 00:00:00 | 00:00:00 | 00:00:00 | |
| NBG1-10 | 2026-08-31 00:11:34 | 49.47335 | 17.71218 | 57° | 9km/h | 22152m | 6.3m/s | 0°C | 0% | 0hPa | 2.7V | 00:00:00 | 01:37:27 | 00:00:00 | |
| POL1PZ | 2026-08-31 00:11:33 | 49.47335 | 17.71218 | 57° | 24km/h | 22152m | 6.4m/s | -54.1°C | 1.4% | 0hPa | 2.7V | 00:00:00 | 00:00:00 | 00:00:00 | |
| OE5MMP-10 | 2026-08-31 00:11:32 | 49.47328 | 17.71203 | 45° | 16km/h | 22142m | 5.2m/s | -54.0°C | 4.4% | 0hPa | 2.7V | 00:00:00 | 01:37:25 | 00:00:00 | |
| DO3MHA-11 | 2026-08-31 00:11:31 | 49.47324 | 17.71199 | 38° | 16km/h | 22136m | 6.6m/s | -54.0°C | 4.4% | 0hPa | 2.7V | 00:00:00 | 01:37:24 | 00:00:00 | |
| S52SK | 2026-08-31 00:11:25 | 49.47304 | 17.71192 | 359° | 16km/h | 22106m | 6.9m/s | -54.0°C | 1.4% | 0hPa | 2.7V | 00:00:00 | 00:00:00 | 00:00:00 | |
| OE5MMP-10 | 2026-08-31 00:11:22 | 49.47287 | 17.71192 | 10° | 15km/h | 22082m | 5.6m/s | -53.9°C | 4.4% | 0hPa | 2.7V | 00:00:00 | 01:37:15 | 00:00:00 | |
| PG1ADW-2 | 2026-08-31 00:11:21 | 49.47283 | 17.71191 | 17° | 11km/h | 22077m | 4.9m/s | -53.9°C | 4.4% | 0hPa | 2.7V | 00:00:00 | 00:00:00 | 00:00:00 | |
| S52SK | 2026-08-31 00:11:20 | 49.47283 | 17.71190 | 18° | 16km/h | 22077m | 4.9m/s | -53.9°C | 1.4% | 0hPa | 2.6V | 00:00:00 | 00:00:00 | 00:00:00 | |
| OE5DRO-10 | 2026-08-31 00:11:12 | 49.47256 | 17.71173 | 2° | 9km/h | 22028m | 5.6m/s | -53.7°C | 4.4% | 0hPa | 2.6V | 00:00:00 | 00:00:00 | 00:00:00 | |
| DO3MHA-11 | 2026-08-31 00:11:11 | 49.47254 | 17.71174 | 342° | 9km/h | 22022m | 4.1m/s | -53.7°C | 4.4% | 0hPa | 2.7V | 00:00:00 | 01:37:04 | 08:30:00 | |
| OE5DXL-15 | 2026-08-31 00:11:06 | 49.47241 | 17.71180 | 359° | 9km/h | 21994m | 6.4m/s | -53.8°C | 4.4% | 0hPa | 2.7V | 00:00:00 | 00:00:00 | 00:00:00 | |
| OE5MMP-10 | 2026-08-31 00:11:02 | 49.47236 | 17.71172 | 56° | 9km/h | 21972m | 4.2m/s | -53.8°C | 4.3% | 0hPa | 2.6V | 00:00:00 | 01:36:55 | 00:00:00 | |
| DO3MHA-11 | 2026-08-31 00:11:01 | 49.47235 | 17.71169 | 74° | 11km/h | 21967m | 4.8m/s | -53.8°C | 4.4% | 0hPa | 2.6V | 00:00:00 | 01:36:54 | 00:00:00 | |
| OE5DRO-10 | 2026-08-31 00:10:53 | 49.47235 | 17.71191 | 266° | 9km/h | 21921m | 4.6m/s | -53.8°C | 4.4% | 0hPa | 2.6V | 00:00:00 | 00:00:00 | 00:00:00 | |
| OE5MMP-10 | 2026-08-31 00:10:52 | 49.47235 | 17.71197 | 269° | 9km/h | 21916m | 4.2m/s | -53.8°C | 4.4% | 0hPa | 2.6V | 00:00:00 | 01:36:45 | 00:00:00 | |
| DO3MHA-11 | 2026-08-31 00:10:51 | 49.47235 | 17.71202 | 283° | 9km/h | 21911m | 5.9m/s | -53.7°C | 4.3% | 0hPa | 2.6V | 00:00:00 | 01:36:44 | 00:00:00 | |
| OE5MMP-10 | 2026-08-31 00:10:42 | 49.47231 | 17.71231 | 269° | 9km/h | 21859m | 6.7m/s | -53.7°C | 4.4% | 0hPa | 2.6V | 00:00:00 | 01:36:35 | 00:00:00 | |
| DO3MHA-11 | 2026-08-31 00:10:41 | 49.47231 | 17.71235 | 265° | 9km/h | 21853m | 5.2m/s | -53.6°C | 4.4% | 0hPa | 2.7V | 00:00:00 | 01:36:34 | 00:00:00 | |
| OE5DXL-15 | 2026-08-31 00:10:36 | 49.47225 | 17.71251 | 304° | 7km/h | 21826m | 6.9m/s | -53.6°C | 4.4% | 0hPa | 2.6V | 00:00:00 | 00:00:00 | 00:00:00 | |
| OE5DRO-10 | 2026-08-31 00:10:34 | 49.47225 | 17.71257 | 249° | 9km/h | 21815m | 4.2m/s | -53.6°C | 4.3% | 0hPa | 2.6V | 00:00:00 | 00:00:00 | 00:00:00 | |
| OE5MMP-10 | 2026-08-31 00:10:32 | 49.47226 | 17.71263 | 270° | 13km/h | 21803m | 6.0m/s | -53.7°C | 4.4% | 0hPa | 2.6V | 00:00:00 | 01:36:25 | 00:00:00 | |
| DO3MHA-11 | 2026-08-31 00:10:31 | 49.47225 | 17.71268 | 278° | 11km/h | 21797m | 5.5m/s | -53.7°C | 4.4% | 0hPa | 2.6V | 00:00:00 | 01:36:24 | 00:00:00 | |
| OE5MMP-10 | 2026-08-31 00:10:22 | 49.47227 | 17.71307 | 265° | 5km/h | 21747m | 6.6m/s | -53.8°C | 4.4% | 0hPa | 2.6V | 00:00:00 | 01:36:15 | 00:00:00 | |
| DO3MHA-11 | 2026-08-31 00:10:21 | 49.47227 | 17.71308 | 222° | 5km/h | 21741m | 5.1m/s | -53.8°C | 4.4% | 0hPa | 2.6V | 00:00:00 | 01:36:14 | 00:00:00 | |
| NBG1-10 | 2026-08-31 00:10:17 | 49.47229 | 17.71312 | 222° | 5km/h | 21718m | 5.6m/s | 0°C | 0% | 0hPa | 2.6V | 00:00:00 | 01:36:10 | 00:00:00 | |
| OE5DRO-10 | 2026-08-31 00:10:15 | 49.47232 | 17.71314 | 179° | 5km/h | 21705m | 5.2m/s | -53.6°C | 4.3% | 0hPa | 2.6V | 00:00:00 | 00:00:00 | 00:00:00 | |
| OE5MMP-10 | 2026-08-31 00:10:12 | 49.47236 | 17.71312 | 144° | 5km/h | 21688m | 5.4m/s | -53.6°C | 4.2% | 0hPa | 2.6V | 00:00:00 | 01:36:05 | 08:30:00 | |
| DO3MHA-11 | 2026-08-31 00:10:11 | 49.47237 | 17.71312 | 131° | 4km/h | 21683m | 4.6m/s | -53.6°C | 4.2% | 0hPa | 2.6V | 00:00:00 | 01:36:04 | 00:00:00 | |
| OE3OSB-13 | 2026-08-31 00:10:10 | 49.47238 | 17.71311 | 143° | 5km/h | 21677m | 6.3m/s | -53.7°C | 1.2% | -1.0hPa | 2.7V | 00:00:00 | 00:00:00 | 00:00:00 | |
| OE5DXL-15 | 2026-08-31 00:10:06 | 49.47245 | 17.71311 | 222° | 7km/h | 21655m | 5.0m/s | -53.8°C | 4.3% | 0hPa | 2.7V | 00:00:00 | 00:00:00 | 00:00:00 | |
| OE5MMP-10 | 2026-08-31 00:10:02 | 49.47249 | 17.71314 | 322° | 7km/h | 21634m | 4.7m/s | -53.9°C | 4.3% | 0hPa | 2.7V | 00:00:00 | 01:35:55 | 00:00:00 | |
| PG1ADW-2 | 2026-08-31 00:10:01 | 49.47248 | 17.71315 | 340° | 7km/h | 21628m | 7.0m/s | -53.9°C | 4.3% | 0hPa | 2.7V | 00:00:00 | 00:00:00 | 00:00:00 | |
| OE5DRO-10 | 2026-08-31 00:09:56 | 49.47238 | 17.71309 | 47° | 7km/h | 21598m | 5.1m/s | -54.2°C | 4.4% | 0hPa | 2.7V | 00:00:00 | 00:00:00 | 00:00:00 | |
| OE5MMP-10 | 2026-08-31 00:09:52 | 49.47230 | 17.71303 | 12° | 5km/h | 21574m | 7.0m/s | -54.3°C | 4.5% | 0hPa | 2.7V | 00:00:00 | 01:35:45 | 00:00:00 | |
| POL1PZ | 2026-08-31 00:09:50 | 49.47230 | 17.71303 | 0° | 0km/h | 21568m | 6.0m/s | -54.4°C | 1.4% | 0hPa | 2.7V | 00:00:00 | 00:00:00 | 00:00:00 | |
| DO3MHA-11 | 2026-08-31 00:09:46 | 49.47231 | 17.71305 | 63° | 7km/h | 21540m | 6.3m/s | -54.4°C | 4.5% | 0hPa | 2.7V | 00:00:00 | 01:35:39 | 00:00:00 | |
| NBG1-10 | 2026-08-31 00:09:44 | 49.47231 | 17.71300 | 94° | 9km/h | 21527m | 5.4m/s | 0°C | 0% | 0hPa | 2.7V | 00:00:00 | 01:35:37 | 00:00:00 | |
| OE5MMP-10 | 2026-08-31 00:09:42 | 49.47230 | 17.71292 | 79° | 9km/h | 21515m | 5.7m/s | -54.5°C | 4.6% | 0hPa | 2.7V | 00:00:00 | 01:35:35 | 00:00:00 | |
| PG1ADW-2 | 2026-08-31 00:09:41 | 49.47230 | 17.71289 | 90° | 9km/h | 21509m | 5.0m/s | -54.5°C | 4.5% | 0hPa | 2.7V | 00:00:00 | 00:00:00 | 00:00:00 | |
| OE3OSB-13 | 2026-08-31 00:09:39 | 49.47234 | 17.71283 | 179° | 7km/h | 21491m | 5.4m/s | -54.5°C | 1.3% | -1.0hPa | 2.7V | 00:00:00 | 00:00:00 | 00:00:00 | |
| OE5DRO-10 | 2026-08-31 00:09:37 | 49.47236 | 17.71284 | 204° | 9km/h | 21485m | 7.2m/s | -54.4°C | 4.5% | 0hPa | 2.7V | 00:00:00 | 00:00:00 | 00:00:00 | |
| DO3MHA-11 | 2026-08-31 00:09:36 | 49.47238 | 17.71286 | 218° | 7km/h | 21479m | 5.1m/s | -54.5°C | 4.5% | 0hPa | 2.7V | 00:00:00 | 01:35:29 | 00:00:00 | |
| OE5MMP-10 | 2026-08-31 00:09:32 | 49.47247 | 17.71290 | 182° | 7km/h | 21456m | 5.6m/s | -54.6°C | 4.6% | 0hPa | 2.7V | 00:00:00 | 01:35:25 | 00:00:00 | |
| POL1PZ | 2026-08-31 00:09:29 | 49.47250 | 17.71290 | 168° | 4km/h | 21444m | 5.6m/s | -54.7°C | 1.5% | 0hPa | 2.7V | 00:00:00 | 00:00:00 | 00:00:00 | |
| DO3MHA-11 | 2026-08-31 00:09:26 | 49.47256 | 17.71284 | 148° | 9km/h | 21420m | 5.8m/s | -54.5°C | 4.6% | 0hPa | 2.7V | 00:00:00 | 01:35:19 | 08:30:00 | |
| OE5MMP-10 | 2026-08-31 00:09:22 | 49.47265 | 17.71277 | 142° | 7km/h | 21396m | 6.1m/s | -54.4°C | 4.5% | 0hPa | 2.7V | 00:00:00 | 01:35:15 | 00:00:00 | |
| PG1ADW-2 | 2026-08-31 00:09:21 | 49.47267 | 17.71274 | 136° | 7km/h | 21390m | 4.6m/s | -54.4°C | 4.6% | 0hPa | 2.7V | 00:00:00 | 01:35:14 | 08:30:00 | |
| OE5DRO-10 | 2026-08-31 00:09:18 | 49.47270 | 17.71268 | 122° | 7km/h | 21373m | 5.5m/s | -54.3°C | 4.5% | 0hPa | 2.6V | 00:00:00 | 00:00:00 | 08:30:00 | |
| DO3MHA-11 | 2026-08-31 00:09:16 | 49.47272 | 17.71262 | 119° | 5km/h | 21361m | 5.0m/s | -54.3°C | 4.5% | 0hPa | 2.7V | 00:00:00 | 01:35:09 | 00:00:00 | |
| OE5MMP-10 | 2026-08-31 00:09:12 | 49.47274 | 17.71253 | 104° | 7km/h | 21338m | 5.6m/s | -54.3°C | 4.4% | 0hPa | 2.7V | 00:00:00 | 01:35:05 | 00:00:00 | |
| NBG1-10 | 2026-08-31 00:09:11 | 49.47275 | 17.71251 | 122° | 15km/h | 21332m | 6.4m/s | 0°C | 0% | 0hPa | 2.6V | 00:00:00 | 01:35:04 | 00:00:00 | |
| OE3OSB-13 | 2026-08-31 00:09:08 | 49.47280 | 17.71245 | 188° | 2km/h | 21309m | 5.5m/s | -54.4°C | 1.4% | -1.0hPa | 2.6V | 00:00:00 | 00:00:00 | 00:00:00 | |
| DO3MHA-11 | 2026-08-31 00:09:06 | 49.47280 | 17.71245 | 157° | 9km/h | 21303m | 5.4m/s | -54.3°C | 4.5% | 0hPa | 2.6V | 00:00:00 | 01:34:59 | 00:00:00 | |
| PG1ADW-2 | 2026-08-31 00:09:01 | 49.47280 | 17.71229 | 54° | 15km/h | 21275m | 6.6m/s | -54.3°C | 4.5% | 0hPa | 2.6V | 00:00:00 | 00:00:00 | 00:00:00 | |
| OE5DRO-10 | 2026-08-31 00:08:59 | 49.47275 | 17.71223 | 40° | 15km/h | 21264m | 5.1m/s | -54.3°C | 4.5% | 0hPa | 2.6V | 00:00:00 | 00:00:00 | 00:00:00 | |
| DO3MHA-11 | 2026-08-31 00:08:56 | 49.47270 | 17.71213 | 51° | 15km/h | 21246m | 6.0m/s | -54.3°C | 4.4% | 0hPa | 2.6V | 00:00:00 | 01:34:49 | 00:00:00 | |
| OE5MMP-10 | 2026-08-31 00:08:51 | 49.47267 | 17.71193 | 106° | 18km/h | 21216m | 5.4m/s | -54.5°C | 4.5% | 0hPa | 2.6V | 00:00:00 | 01:34:44 | 00:00:00 | |
| DO3MHA-11 | 2026-08-31 00:08:46 | 49.47266 | 17.71158 | 80° | 18km/h | 21188m | 6.5m/s | -54.6°C | 4.6% | 0hPa | 2.6V | 00:00:00 | 01:34:39 | 00:00:00 | |
| OE5MMP-10 | 2026-08-31 00:08:41 | 49.47262 | 17.71121 | 63° | 15km/h | 21158m | 6.5m/s | -54.5°C | 4.6% | 0hPa | 2.6V | 00:00:00 | 01:34:34 | 08:30:00 | |
| OE5DRO-10 | 2026-08-31 00:08:40 | 49.47260 | 17.71116 | 60° | 13km/h | 21153m | 4.7m/s | -54.5°C | 4.6% | 0hPa | 2.6V | 00:00:00 | 00:00:00 | 00:00:00 | |
| NBG1-10 | 2026-08-31 00:08:38 | 49.47255 | 17.71103 | 68° | 15km/h | 21141m | 5.7m/s | 0°C | 0% | 0hPa | 2.6V | 00:00:00 | 01:34:31 | 00:00:00 | |
| OE3OSB-13 | 2026-08-31 00:08:37 | 49.47251 | 17.71091 | 55° | 16km/h | 21128m | 7.1m/s | -54.6°C | 1.3% | -1.0hPa | 2.6V | 00:00:00 | 00:00:00 | 00:00:00 | |
| DO3MHA-11 | 2026-08-31 00:08:36 | 49.47251 | 17.71091 | 56° | 11km/h | 21129m | 7.1m/s | -54.5°C | 4.5% | 0hPa | 2.6V | 00:00:00 | 01:34:29 | 00:00:00 | |
| OE5MMP-10 | 2026-08-31 00:08:31 | 49.47242 | 17.71072 | 44° | 13km/h | 21100m | 4.8m/s | -54.4°C | 4.4% | 0hPa | 2.6V | 00:00:00 | 01:34:24 | 00:00:00 | |
| DO3MHA-11 | 2026-08-31 00:08:26 | 49.47230 | 17.71070 | 20° | 16km/h | 21070m | 6.0m/s | -54.5°C | 4.5% | 0hPa | 2.6V | 00:00:00 | 01:34:19 | 00:00:00 | |
| OE5MMP-10 | 2026-08-31 00:08:21 | 49.47214 | 17.71055 | 47° | 16km/h | 21041m | 6.7m/s | -54.5°C | 4.6% | 0hPa | 2.6V | 00:00:00 | 01:34:14 | 00:00:00 | |
| DO3MHA-11 | 2026-08-31 00:08:16 | 49.47197 | 17.71036 | 8° | 15km/h | 21014m | 4.4m/s | -54.5°C | 4.6% | 0hPa | 2.6V | 00:00:00 | 01:34:09 | 00:00:00 | |
| OE5MMP-10 | 2026-08-31 00:08:11 | 49.47178 | 17.71038 | 342° | 15km/h | 20983m | 6.3m/s | -54.5°C | 4.6% | 0hPa | 2.6V | 00:00:00 | 01:34:04 | 00:00:00 | |
| DO3MHA-11 | 2026-08-31 00:08:06 | 49.47160 | 17.71040 | 9° | 16km/h | 20955m | 6.2m/s | -54.5°C | 4.7% | 0hPa | 2.7V | 00:00:00 | 01:33:59 | 00:00:00 | |
| OE5DRO-10 | 2026-08-31 00:08:02 | 49.47144 | 17.71036 | 19° | 15km/h | 20930m | 5.6m/s | -54.3°C | 4.6% | 0hPa | 2.7V | 00:00:00 | 00:00:00 | 00:00:00 | |
| OE5MMP-10 | 2026-08-31 00:08:01 | 49.47140 | 17.71034 | 15° | 16km/h | 20925m | 4.7m/s | -54.2°C | 4.6% | 0hPa | 2.7V | 00:00:00 | 01:33:54 | 00:00:00 | |
| GYPAP8-17 | 2026-08-31 00:07:59 | 49.47137 | 17.71034 | 6° | 16km/h | 20919m | 6.8m/s | -54.3°C | 0% | 0hPa | 2.7V | 00:00:00 | 00:00:00 | 00:00:00 | |
| DO3MHA-11 | 2026-08-31 00:07:55 | 49.47116 | 17.71037 | 352° | 11km/h | 20889m | 5.3m/s | -53.9°C | 4.5% | 0hPa | 2.7V | 00:00:00 | 01:33:48 | 08:30:00 | |
| POL1PZ | 2026-08-31 00:07:52 | 49.47108 | 17.71040 | 349° | 18km/h | 20876m | 5.2m/s | -53.9°C | 1.5% | 0hPa | 2.7V | 00:00:00 | 00:00:00 | 00:00:00 | |
| OE5MMP-10 | 2026-08-31 00:07:51 | 49.47100 | 17.71040 | 9° | 11km/h | 20865m | 6.5m/s | -53.8°C | 4.5% | 0hPa | 2.7V | 00:00:00 | 01:33:44 | 00:00:00 | |
| DO3MHA-11 | 2026-08-31 00:07:44 | 49.47084 | 17.71043 | 343° | 16km/h | 20825m | 6.3m/s | -53.4°C | 4.3% | 0hPa | 2.7V | 00:00:00 | 01:33:37 | 00:00:00 | |
| OE5DRO-10 | 2026-08-31 00:07:43 | 49.47082 | 17.71044 | 351° | 15km/h | 20820m | 4.7m/s | -53.4°C | 4.3% | 0hPa | 2.7V | 00:00:00 | 00:00:00 | 00:00:00 | |
| OE5MMP-10 | 2026-08-31 00:07:41 | 49.47075 | 17.71047 | 343° | 18km/h | 20808m | 7.0m/s | -53.3°C | 4.3% | 0hPa | 2.7V | 00:00:00 | 01:33:34 | 00:00:00 | |
| OE5DXL-15 | 2026-08-31 00:07:36 | 49.47053 | 17.71052 | 356° | 13km/h | 20779m | 5.4m/s | -53.3°C | 4.2% | 0hPa | 2.7V | 00:00:00 | 00:00:00 | 00:00:00 | |
| OE3OSB-13 | 2026-08-31 00:07:35 | 49.47043 | 17.71054 | 348° | 18km/h | 20767m | 5.5m/s | -53.4°C | 1.3% | -1.0hPa | 2.7V | 00:00:00 | 00:00:00 | 00:00:00 | |
| DO3MHA-11 | 2026-08-31 00:07:34 | 49.47042 | 17.71054 | 349° | 11km/h | 20767m | 5.5m/s | -53.3°C | 4.3% | 0hPa | 2.7V | 00:00:00 | 01:33:27 | 00:00:00 | |
| OE5MMP-10 | 2026-08-31 00:07:31 | 49.47030 | 17.71056 | 359° | 9km/h | 20749m | 5.2m/s | -53.3°C | 4.3% | 0hPa | 2.7V | 00:00:00 | 01:33:24 | 00:00:00 | |
| NBG1-10 | 2026-08-31 00:07:30 | 49.47027 | 17.71056 | 348° | 13km/h | 20743m | 7.4m/s | 0°C | 0% | 0hPa | 2.7V | 00:00:00 | 01:33:23 | 00:00:00 | |
| DO3MHA-11 | 2026-08-31 00:07:24 | 49.47015 | 17.71060 | 6° | 13km/h | 20707m | 6.2m/s | -53.3°C | 4.3% | 0hPa | 2.7V | 00:00:00 | 01:33:17 | 00:00:00 | |
| OE5MMP-10 | 2026-08-31 00:07:21 | 49.47007 | 17.71062 | 352° | 13km/h | 20690m | 6.0m/s | -53.2°C | 4.2% | 0hPa | 2.6V | 00:00:00 | 01:33:14 | 00:00:00 | |
| DO3MHA-11 | 2026-08-31 00:07:14 | 49.46984 | 17.71071 | 350° | 13km/h | 20650m | 6.1m/s | -53.3°C | 4.2% | 0hPa | 2.6V | 00:00:00 | 01:33:07 | 00:00:00 | |
| OE5MMP-10 | 2026-08-31 00:07:11 | 49.46978 | 17.71074 | 329° | 15km/h | 20633m | 5.7m/s | -53.3°C | 4.2% | 0hPa | 2.6V | 00:00:00 | 01:33:04 | 08:30:00 | |
| POL1PZ | 2026-08-31 00:07:10 | 49.46978 | 17.71074 | 329° | 9km/h | 20633m | 5.7m/s | -53.4°C | 1.4% | 0hPa | 2.6V | 00:00:00 | 00:00:00 | 00:00:00 | |
| OE5DXL-15 | 2026-08-31 00:07:06 | 49.46960 | 17.71077 | 2° | 13km/h | 20605m | 6.8m/s | -53.4°C | 4.3% | 0hPa | 2.6V | 00:00:00 | 00:00:00 | 00:00:00 | |
| OE5DRO-10 | 2026-08-31 00:07:05 | 49.46956 | 17.71077 | 354° | 13km/h | 20600m | 4.9m/s | -53.4°C | 4.3% | 0hPa | 2.6V | 00:00:00 | 00:00:00 | 00:00:00 | |
| OE3OSB-13 | 2026-08-31 00:07:04 | 49.46949 | 17.71079 | 350° | 16km/h | 20588m | 6.5m/s | -53.6°C | 1.3% | -1.0hPa | 2.6V | 00:00:00 | 00:00:00 | 00:00:00 | |
| OE5MMP-10 | 2026-08-31 00:07:01 | 49.46940 | 17.71082 | 343° | 11km/h | 20577m | 5.8m/s | -53.7°C | 4.4% | 0hPa | 2.6V | 00:00:00 | 01:32:54 | 00:00:00 | |
| DO3MHA-11 | 2026-08-31 00:06:54 | 49.46920 | 17.71081 | 15° | 13km/h | 20537m | 6.8m/s | -53.8°C | 4.4% | 0hPa | 2.6V | 00:00:00 | 01:32:47 | 00:00:00 | |
| OE5MMP-10 | 2026-08-31 00:06:51 | 49.46913 | 17.71079 | 8° | 13km/h | 20520m | 5.3m/s | -53.9°C | 4.4% | 0hPa | 2.6V | 00:00:00 | 01:32:44 | 00:00:00 | |
| POL1PZ | 2026-08-31 00:06:50 | 49.46914 | 17.71079 | 8° | 11km/h | 20520m | 5.4m/s | -53.9°C | 1.4% | 0hPa | 2.6V | 00:00:00 | 00:00:00 | 00:00:00 | |
| OE5DRO-10 | 2026-08-31 00:06:46 | 49.46897 | 17.71084 | 352° | 15km/h | 20491m | 5.5m/s | -53.9°C | 4.4% | 0hPa | 2.6V | 00:00:00 | 00:00:00 | 00:00:00 | |
| DO3MHA-11 | 2026-08-31 00:06:44 | 49.46890 | 17.71084 | 2° | 15km/h | 20481m | 5.7m/s | -53.9°C | 4.4% | 0hPa | 2.6V | 00:00:00 | 01:32:37 | 00:00:00 | |
| NBG1-10 | 2026-08-31 00:06:42 | 49.46884 | 17.71084 | 359° | 15km/h | 20469m | 4.9m/s | 0°C | 0% | 0hPa | 2.6V | 00:00:00 | 01:32:35 | 00:00:00 | |
| OE5MMP-10 | 2026-08-31 00:06:41 | 49.46882 | 17.71084 | 359° | 16km/h | 20464m | 5.1m/s | -53.9°C | 4.4% | 0hPa | 2.6V | 00:00:00 | 01:32:34 | 00:00:00 | |
| GYPAP8-17 | 2026-08-31 00:06:39 | 49.46880 | 17.71085 | 359° | 13km/h | 20458m | 6.4m/s | -53.9°C | 0% | 0hPa | 2.6V | 00:00:00 | 00:00:00 | 00:00:00 | |
| OE5DXL-15 | 2026-08-31 00:06:36 | 49.46862 | 17.71091 | 336° | 13km/h | 20436m | 5.4m/s | -53.8°C | 4.4% | 0hPa | 2.6V | 00:00:00 | 00:00:00 | 00:00:00 | |
| DO3MHA-11 | 2026-08-31 00:06:34 | 49.46854 | 17.71096 | 342° | 15km/h | 20425m | 6.3m/s | -53.8°C | 4.4% | 0hPa | 2.6V | 00:00:00 | 01:32:27 | 00:00:00 | |
| OE3OSB-13 | 2026-08-31 00:06:32 | 49.46845 | 17.71099 | 352° | 16km/h | 20415m | 3.8m/s | -54.0°C | 1.3% | -1.0hPa | 2.6V | 00:00:00 | 00:00:00 | 00:00:00 | |
| OE5MMP-10 | 2026-08-31 00:06:31 | 49.46841 | 17.71100 | 357° | 15km/h | 20410m | 6.0m/s | -54.1°C | 4.5% | 0hPa | 2.6V | 00:00:00 | 01:32:24 | 00:00:00 | |
| POL1PZ | 2026-08-31 00:06:29 | 49.46838 | 17.71100 | 2° | 11km/h | 20404m | 5.6m/s | -54.1°C | 1.5% | 0hPa | 2.6V | 00:00:00 | 00:00:00 | 00:00:00 | |
| S52SK | 2026-08-31 00:06:28 | 49.46834 | 17.71099 | 9° | 11km/h | 20399m | 4.8m/s | -54.1°C | 1.4% | 0hPa | 2.6V | 00:00:00 | 00:00:00 | 00:00:00 | |
| OE5DRO-10 | 2026-08-31 00:06:27 | 49.46828 | 17.71098 | 6° | 11km/h | 20387m | 5.3m/s | -54.0°C | 4.3% | 0hPa | 2.6V | 00:00:00 | 00:00:00 | 08:30:00 | |
| DO3MHA-11 | 2026-08-31 00:06:24 | 49.46817 | 17.71101 | 324° | 13km/h | 20370m | 5.1m/s | -53.9°C | 4.3% | 0hPa | 2.7V | 00:00:00 | 01:32:17 | 08:30:00 | |
| OE5MMP-10 | 2026-08-31 00:06:21 | 49.46807 | 17.71116 | 315° | 9km/h | 20353m | 4.2m/s | -53.9°C | 4.3% | 0hPa | 2.6V | 00:00:00 | 01:32:14 | 00:00:00 | |
| DO3MHA-11 | 2026-08-31 00:06:14 | 49.46799 | 17.71137 | 345° | 7km/h | 20316m | 4.6m/s | -53.9°C | 4.4% | 0hPa | 2.6V | 00:00:00 | 01:32:07 | 00:00:00 | |
| OE5MMP-10 | 2026-08-31 00:06:11 | 49.46796 | 17.71141 | 268° | 11km/h | 20299m | 5.3m/s | -54.0°C | 4.4% | 0hPa | 2.6V | 00:00:00 | 01:32:04 | 00:00:00 | |
| POL1PZ | 2026-08-31 00:06:09 | 49.46796 | 17.71144 | 267° | 9km/h | 20294m | 5.0m/s | -54.1°C | 1.4% | 0hPa | 2.6V | 00:00:00 | 00:00:00 | 00:00:00 | |
| OE5DRO-10 | 2026-08-31 00:06:08 | 49.46796 | 17.71153 | 268° | 9km/h | 20283m | 4.9m/s | -54.3°C | 4.4% | 0hPa | 2.6V | 00:00:00 | 00:00:00 | 00:00:00 | |
| OE5DXL-15 | 2026-08-31 00:06:06 | 49.46798 | 17.71163 | 243° | 11km/h | 20272m | 6.6m/s | -54.4°C | 4.4% | 0hPa | 2.6V | 00:00:00 | 00:00:00 | 00:00:00 | |
| OE5MMP-10 | 2026-08-31 00:06:01 | 49.46805 | 17.71182 | 243° | 7km/h | 20244m | 6.1m/s | -54.5°C | 4.5% | 0hPa | 2.6V | 00:00:00 | 01:31:54 | 00:00:00 | |
| DO3MHA-11 | 2026-08-31 00:05:56 | 49.46807 | 17.71192 | 241° | 9km/h | 20216m | 4.8m/s | -54.4°C | 4.5% | 0hPa | 2.6V | 00:00:00 | 01:31:49 | 00:00:00 | |
| OE5MMP-10 | 2026-08-31 00:05:51 | 49.46819 | 17.71199 | 194° | 13km/h | 20189m | 5.4m/s | -54.4°C | 4.6% | 0hPa | 2.6V | 00:00:00 | 01:31:44 | 00:00:00 | |
| OE5DRO-10 | 2026-08-31 00:05:49 | 49.46823 | 17.71200 | 194° | 13km/h | 20179m | 5.8m/s | -54.4°C | 4.6% | 0hPa | 2.6V | 00:00:00 | 00:00:00 | 00:00:00 | |
| DO3MHA-11 | 2026-08-31 00:05:46 | 49.46830 | 17.71208 | 240° | 13km/h | 20163m | 6.4m/s | -54.3°C | 4.5% | 0hPa | 2.6V | 00:00:00 | 01:31:39 | 00:00:00 | |
| PG1ADW-2 | 2026-08-31 00:05:41 | 49.46842 | 17.71223 | 148° | 13km/h | 20138m | 4.1m/s | -54.2°C | 4.5% | 0hPa | 2.6V | 00:00:00 | 00:00:00 | 00:00:00 | |
| OE5MMP-10 | 2026-08-31 00:05:40 | 49.46844 | 17.71220 | 131° | 11km/h | 20133m | 5.9m/s | -54.1°C | 4.5% | 0hPa | 2.6V | 00:00:00 | 01:31:33 | 08:30:00 | |
| DO3MHA-11 | 2026-08-31 00:05:36 | 49.46851 | 17.71208 | 166° | 13km/h | 20110m | 5.9m/s | -54.0°C | 4.4% | 0hPa | 2.7V | 00:00:00 | 01:31:29 | 00:00:00 | |
| GYPAP8-17 | 2026-08-31 00:05:32 | 49.46861 | 17.71210 | 209° | 11km/h | 20094m | 5.9m/s | -54.1°C | 0% | 0hPa | 2.7V | 00:00:00 | 00:00:00 | 00:00:00 | |
| OE5MMP-10 | 2026-08-31 00:05:30 | 49.46869 | 17.71214 | 181° | 15km/h | 20077m | 6.6m/s | -54.1°C | 4.4% | 0hPa | 2.7V | 00:00:00 | 01:31:23 | 00:00:00 | |
| DO3MHA-11 | 2026-08-31 00:05:26 | 49.46882 | 17.71207 | 144° | 16km/h | 20055m | 6.2m/s | -54.3°C | 4.5% | 0hPa | 2.7V | 00:00:00 | 01:31:19 | 00:00:00 | |
| POL1PZ | 2026-08-31 00:05:22 | 49.46889 | 17.71197 | 141° | 16km/h | 20038m | 7.4m/s | -54.3°C | 1.5% | 0hPa | 2.7V | 00:00:00 | 00:00:00 | 00:00:00 | |
| PG1ADW-2 | 2026-08-31 00:05:21 | 49.46897 | 17.71187 | 138° | 13km/h | 20025m | 4.8m/s | -54.1°C | 4.5% | 0hPa | 2.7V | 00:00:00 | 01:31:14 | 00:00:00 | |
| OE5MMP-10 | 2026-08-31 00:05:20 | 49.46901 | 17.71181 | 133° | 16km/h | 20020m | 6.8m/s | -54.0°C | 4.5% | 0hPa | 2.7V | 00:00:00 | 01:31:13 | 00:00:00 | |
| DO3MHA-11 | 2026-08-31 00:05:16 | 49.46909 | 17.71161 | 125° | 13km/h | 19995m | 6.2m/s | -53.9°C | 4.4% | 0hPa | 2.7V | 00:00:00 | 01:31:09 | 00:00:00 | |
| OE5DRO-10 | 2026-08-31 00:05:11 | 49.46919 | 17.71134 | 123° | 11km/h | 19967m | 6.3m/s | -53.8°C | 4.4% | 0hPa | 2.7V | 00:00:00 | 00:00:00 | 00:00:00 | |
| OE5MMP-10 | 2026-08-31 00:05:10 | 49.46921 | 17.71130 | 139° | 9km/h | 19960m | 6.0m/s | -53.8°C | 4.4% | 0hPa | 2.7V | 00:00:00 | 01:31:03 | 00:00:00 | |
| DO3MHA-11 | 2026-08-31 00:05:07 | 49.46929 | 17.71121 | 143° | 9km/h | 19938m | 5.3m/s | -53.7°C | 4.3% | 0hPa | 2.7V | 00:00:00 | 01:30:59 | 00:00:00 | |
| OE3OSB-13 | 2026-08-31 00:04:59 | 49.46937 | 17.71104 | 91° | 7km/h | 19898m | 6.6m/s | -53.8°C | 1.3% | -1.0hPa | 2.7V | 00:00:00 | 00:00:00 | 00:00:00 | |
| DO3MHA-11 | 2026-08-31 00:04:56 | 49.46937 | 17.71092 | 78° | 13km/h | 19881m | 6.8m/s | -53.8°C | 4.2% | 0hPa | 2.7V | 00:00:00 | 01:30:49 | 00:00:00 | |
| OE5MMP-10 | 2026-08-31 00:04:50 | 49.46938 | 17.71061 | 95° | 16km/h | 19848m | 6.2m/s | -54.0°C | 4.2% | 0hPa | 2.7V | 00:00:00 | 01:30:43 | 00:00:00 | |
| DO3MHA-11 | 2026-08-31 00:04:46 | 49.46936 | 17.71044 | 75° | 18km/h | 19827m | 4.6m/s | -54.4°C | 4.3% | 0hPa | 2.7V | 00:00:00 | 01:30:39 | 08:30:00 | |
| PG1ADW-2 | 2026-08-31 00:04:41 | 49.46925 | 17.71010 | 71° | 18km/h | 19800m | 6.2m/s | -54.8°C | 4.6% | 0hPa | 2.7V | 00:00:00 | 00:00:00 | 00:00:00 | |
| OE5MMP-10 | 2026-08-31 00:04:40 | 49.46923 | 17.71001 | 78° | 15km/h | 19794m | 4.5m/s | -54.9°C | 4.6% | 0hPa | 2.7V | 00:00:00 | 01:30:33 | 00:00:00 | |
| POL1PZ | 2026-08-31 00:04:39 | 49.46922 | 17.70993 | 78° | 20km/h | 19789m | 5.6m/s | -55.0°C | 1.5% | 0hPa | 2.7V | 00:00:00 | 00:00:00 | 00:00:00 | |
| DO3MHA-11 | 2026-08-31 00:04:37 | 49.46918 | 17.70976 | 73° | 18km/h | 19772m | 6.5m/s | -54.9°C | 4.5% | 0hPa | 2.7V | 00:00:00 | 01:30:29 | 00:00:00 | |
| OE5DRO-10 | 2026-08-31 00:04:34 | 49.46915 | 17.70968 | 32° | 20km/h | 19755m | 6.7m/s | -55.1°C | 4.6% | 0hPa | 2.7V | 00:00:00 | 00:00:00 | 00:00:00 | |
| OE5MMP-10 | 2026-08-31 00:04:30 | 49.46906 | 17.70957 | 47° | 22km/h | 19739m | 5.9m/s | -55.4°C | 4.7% | 0hPa | 2.7V | 00:00:00 | 01:30:23 | 00:00:00 | |
| OE3OSB-13 | 2026-08-31 00:04:28 | 49.46900 | 17.70943 | 64° | 22km/h | 19728m | 5.5m/s | -55.5°C | 1.4% | -1.0hPa | 2.7V | 00:00:00 | 00:00:00 | 00:00:00 | |
| DO3MHA-11 | 2026-08-31 00:04:25 | 49.46891 | 17.70919 | 52° | 22km/h | 19711m | 5.6m/s | -55.4°C | 4.7% | 0hPa | 2.7V | 00:00:00 | 01:30:18 | 00:00:00 | |
| PG1ADW-2 | 2026-08-31 00:04:21 | 49.46875 | 17.70897 | 30° | 22km/h | 19690m | 4.1m/s | -55.3°C | 4.7% | 0hPa | 2.7V | 00:00:00 | 00:00:00 | 00:00:00 | |
| OE5MMP-10 | 2026-08-31 00:04:20 | 49.46871 | 17.70894 | 25° | 22km/h | 19685m | 5.8m/s | -55.3°C | 4.7% | 0hPa | 2.6V | 00:00:00 | 01:30:13 | 00:00:00 | |
| POL1PZ | 2026-08-31 00:04:19 | 49.46867 | 17.70890 | 22° | 22km/h | 19679m | 5.9m/s | -55.3°C | 1.6% | 0hPa | 2.6V | 00:00:00 | 00:00:00 | 00:00:00 | |
| DO3MHA-11 | 2026-08-31 00:04:15 | 49.46845 | 17.70880 | 18° | 22km/h | 19657m | 4.7m/s | -55.1°C | 4.6% | 0hPa | 2.6V | 00:00:00 | 01:30:08 | 00:00:00 | |
| OE5DRO-10 | 2026-08-31 00:04:14 | 49.46840 | 17.70877 | 18° | 22km/h | 19652m | 6.0m/s | -55.1°C | 4.6% | 0hPa | 2.7V | 00:00:00 | 00:00:00 | 00:00:00 | |
| OE5MMP-10 | 2026-08-31 00:04:10 | 49.46819 | 17.70867 | 19° | 22km/h | 19629m | 5.0m/s | -55.0°C | 4.6% | 0hPa | 2.7V | 00:00:00 | 01:30:03 | 08:30:00 | |
| OE5DXL-15 | 2026-08-31 00:04:06 | 49.46798 | 17.70859 | 10° | 18km/h | 19607m | 4.8m/s | -55.1°C | 4.6% | 0hPa | 2.7V | 00:00:00 | 00:00:00 | 00:00:00 | |
| DO3MHA-11 | 2026-08-31 00:04:05 | 49.46792 | 17.70858 | 9° | 16km/h | 19602m | 6.4m/s | -55.2°C | 4.6% | 0hPa | 2.7V | 00:00:00 | 01:29:58 | 00:00:00 | |
| S52SK | 2026-08-31 00:04:04 | 49.46792 | 17.70858 | 9° | 22km/h | 19602m | 6.4m/s | -55.3°C | 1.6% | 0hPa | 2.7V | 00:00:00 | 00:00:00 | 00:00:00 | |
| OE3OSB-13 | 2026-08-31 00:03:57 | 49.46750 | 17.70854 | 2° | 16km/h | 19557m | 4.9m/s | -55.4°C | 1.4% | -1.0hPa | 2.7V | 00:00:00 | 00:00:00 | 00:00:00 | |
| OE5DRO-10 | 2026-08-31 00:03:55 | 49.46740 | 17.70852 | 10° | 15km/h | 19546m | 4.8m/s | -55.3°C | 4.6% | 0hPa | 2.7V | 00:00:00 | 00:00:00 | 00:00:00 | |
| OE5MMP-10 | 2026-08-31 00:03:50 | 49.46723 | 17.70846 | 22° | 15km/h | 19518m | 5.7m/s | -55.3°C | 4.6% | 0hPa | 2.7V | 00:00:00 | 01:29:43 | 00:00:00 | |
| DO3MHA-11 | 2026-08-31 00:03:46 | 49.46709 | 17.70839 | 14° | 16km/h | 19497m | 5.8m/s | -55.4°C | 4.6% | 0hPa | 2.7V | 00:00:00 | 01:29:39 | 00:00:00 | |
| PG1ADW-2 | 2026-08-31 00:03:41 | 49.46692 | 17.70830 | 14° | 20km/h | 19469m | 6.1m/s | -55.7°C | 4.7% | 0hPa | 2.7V | 00:00:00 | 00:00:00 | 00:00:00 | |
| OE5MMP-10 | 2026-08-31 00:03:40 | 49.46688 | 17.70829 | 18° | 18km/h | 19464m | 4.6m/s | -55.6°C | 4.7% | 0hPa | 2.7V | 00:00:00 | 01:29:33 | 00:00:00 | |
| POL1PZ | 2026-08-31 00:03:38 | 49.46680 | 17.70823 | 30° | 20km/h | 19453m | 5.9m/s | -55.8°C | 1.5% | 0hPa | 2.6V | 00:00:00 | 00:00:00 | 00:00:00 | |
| OE5DRO-10 | 2026-08-31 00:03:37 | 49.46671 | 17.70815 | 31° | 20km/h | 19442m | 6.1m/s | -55.8°C | 4.8% | 0hPa | 2.6V | 00:00:00 | 00:00:00 | 08:30:00 | |
| DO3MHA-11 | 2026-08-31 00:03:36 | 49.46671 | 17.70815 | 31° | 18km/h | 19442m | 6.1m/s | -55.8°C | 4.8% | 0hPa | 2.6V | 00:00:00 | 01:29:29 | 00:00:00 | |
| NBG1-10 | 2026-08-31 00:03:33 | 49.46657 | 17.70800 | 47° | 18km/h | 19420m | 6.0m/s | 0°C | 0% | 0hPa | 2.7V | 00:00:00 | 01:29:25 | 00:00:00 | |
| OE5MMP-10 | 2026-08-31 00:03:32 | 49.46651 | 17.70788 | 58° | 22km/h | 19408m | 6.8m/s | -55.9°C | 4.9% | 0hPa | 2.7V | 00:00:00 | 01:29:23 | 00:00:00 | |
| OE3OSB-13 | 2026-08-31 00:03:27 | 49.46641 | 17.70762 | 51° | 24km/h | 19386m | 5.7m/s | -55.8°C | 1.5% | -1.0hPa | 2.7V | 00:00:00 | 00:00:00 | 00:00:00 | |
| DO3MHA-11 | 2026-08-31 00:03:26 | 49.46641 | 17.70762 | 52° | 22km/h | 19386m | 5.6m/s | -55.8°C | 4.9% | 0hPa | 2.7V | 00:00:00 | 01:29:19 | 00:00:00 | |
| PG1ADW-2 | 2026-08-31 00:03:21 | 49.46616 | 17.70735 | 29° | 18km/h | 19357m | 6.9m/s | -55.6°C | 4.8% | 0hPa | 2.7V | 00:00:00 | 00:00:00 | 08:30:00 | |
| OE5MMP-10 | 2026-08-31 00:03:20 | 49.46610 | 17.70730 | 31° | 18km/h | 19351m | 4.7m/s | -55.6°C | 4.9% | 0hPa | 2.7V | 00:00:00 | 01:29:13 | 00:00:00 | |
| POL1PZ | 2026-08-31 00:03:19 | 49.46598 | 17.70719 | 33° | 13km/h | 19335m | 5.8m/s | -55.5°C | 1.6% | 0hPa | 2.7V | 00:00:00 | 00:00:00 | 00:00:00 | |
| OE5MMP-10 | 2026-08-31 00:03:11 | 49.46580 | 17.70679 | 58° | 15km/h | 19298m | 3.8m/s | -55.2°C | 4.6% | 0hPa | 2.7V | 00:00:00 | 01:29:03 | 00:00:00 | |
| OE5DXL-15 | 2026-08-31 00:03:07 | 49.46562 | 17.70661 | 16° | 13km/h | 19277m | 5.5m/s | -55.2°C | 4.6% | 0hPa | 2.6V | 00:00:00 | 00:00:00 | 00:00:00 | |
| DO3MHA-11 | 2026-08-31 00:03:06 | 49.46562 | 17.70661 | 16° | 13km/h | 19277m | 5.5m/s | -55.2°C | 4.6% | 0hPa | 2.6V | 00:00:00 | 01:28:59 | 08:30:00 | |
| DO3MHA-11 | 2026-08-31 00:02:55 | 49.46502 | 17.70565 | 174° | 11km/h | 19003m | 6.7m/s | -54.8°C | 4.6% | 0hPa | 2.6V | 00:00:00 | 01:28:09 | 00:00:00 | |
| POL1PZ | 2026-08-31 00:02:50 | 49.46508 | 17.70563 | 158° | 13km/h | 18992m | 4.8m/s | -54.8°C | 1.6% | 0hPa | 2.6V | 00:00:00 | 00:00:00 | 00:00:00 | |
| OE5MMP-10 | 2026-08-31 00:02:45 | 49.46515 | 17.70559 | 192° | 15km/h | 18972m | 5.1m/s | -54.9°C | 4.6% | 0hPa | 2.6V | 00:00:00 | 01:28:03 | 00:00:00 | |
| DO3MHA-11 | 2026-08-31 00:02:37 | 49.46527 | 17.70557 | 167° | 18km/h | 18949m | 6.1m/s | -55.0°C | 4.6% | 0hPa | 2.7V | 00:00:00 | 01:27:59 | 00:00:00 | |
| PG1ADW-2 | 2026-08-31 00:02:32 | 49.46543 | 17.70542 | 121° | 15km/h | 18921m | 5.8m/s | -54.9°C | 4.6% | 0hPa | 2.6V | 00:00:00 | 00:00:00 | 00:00:00 | |
| OE5MMP-10 | 2026-08-31 00:02:31 | 49.46546 | 17.70534 | 117° | 13km/h | 18916m | 4.7m/s | -54.8°C | 4.6% | 0hPa | 2.6V | 00:00:00 | 01:27:53 | 00:00:00 | |
| DO3MHA-11 | 2026-08-31 00:02:23 | 49.46553 | 17.70509 | 106° | 11km/h | 18894m | 6.4m/s | -54.7°C | 4.6% | 0hPa | 2.6V | 00:00:00 | 01:27:49 | 00:00:00 | |
| OE3OSB-13 | 2026-08-31 00:02:21 | 49.46555 | 17.70498 | 92° | 4km/h | 18877m | 6.0m/s | -54.8°C | 1.4% | -1.0hPa | 2.6V | 00:00:00 | 00:00:00 | 00:00:00 | |
| OE5MMP-10 | 2026-08-31 00:02:15 | 49.46555 | 17.70492 | 96° | 16km/h | 18861m | 5.6m/s | -54.8°C | 4.5% | 0hPa | 2.6V | 00:00:00 | 01:27:43 | 00:00:00 | |
| DO3MHA-11 | 2026-08-31 00:02:11 | 49.46562 | 17.70471 | 121° | 15km/h | 18840m | 4.8m/s | -55.0°C | 4.6% | 0hPa | 2.6V | 00:00:00 | 01:27:39 | 00:00:00 | |
| OE5DRO-10 | 2026-08-31 00:02:05 | 49.46566 | 17.70444 | 94° | 18km/h | 18820m | 4.7m/s | -55.1°C | 4.6% | 0hPa | 2.6V | 00:00:00 | 00:00:00 | 00:00:00 | |
| PG1ADW-2 | 2026-08-31 00:02:03 | 49.46566 | 17.70434 | 75° | 20km/h | 18809m | 4.8m/s | -55.2°C | 4.6% | 0hPa | 2.7V | 00:00:00 | 00:00:00 | 00:00:00 | |
| OE5MMP-10 | 2026-08-31 00:02:02 | 49.46566 | 17.70434 | 75° | 15km/h | 18809m | 4.8m/s | -55.2°C | 4.6% | 0hPa | 2.7V | 00:00:00 | 01:27:33 | 00:00:00 | |
| OE5DXL-15 | 2026-08-31 00:01:54 | 49.46561 | 17.70420 | 67° | 22km/h | 18788m | 5.7m/s | -55.3°C | 4.7% | 0hPa | 2.7V | 00:00:00 | 00:00:00 | 00:00:00 | |
| OE5MMP-10 | 2026-08-31 00:01:45 | 49.46555 | 17.70375 | 83° | 24km/h | 18756m | 5.7m/s | -55.4°C | 4.6% | 0hPa | 2.7V | 00:00:00 | 01:27:23 | 00:00:00 | |
| POL1PZ | 2026-08-31 00:01:40 | 49.46553 | 17.70345 | 88° | 26km/h | 18740m | 5.3m/s | -55.6°C | 1.6% | 0hPa | 2.7V | 00:00:00 | 00:00:00 | 00:00:00 | |
| DO3MHA-11 | 2026-08-31 00:01:37 | 49.46553 | 17.70335 | 82° | 22km/h | 18735m | 5.6m/s | -55.6°C | 4.7% | 0hPa | 2.7V | 00:00:00 | 01:27:19 | 00:00:00 | |
| OE5DRO-10 | 2026-08-31 00:01:34 | 49.46548 | 17.70309 | 63° | 20km/h | 18718m | 4.9m/s | -55.6°C | 4.8% | 0hPa | 2.7V | 00:00:00 | 00:00:00 | 00:00:00 | |
| PG1ADW-2 | 2026-08-31 00:01:33 | 49.46542 | 17.70296 | 53° | 20km/h | 18708m | 6.2m/s | -55.6°C | 4.8% | 0hPa | 2.7V | 00:00:00 | 01:27:14 | 00:00:00 | |
| OE5MMP-10 | 2026-08-31 00:01:30 | 49.46538 | 17.70289 | 52° | 22km/h | 18703m | 4.4m/s | 0°C | 0% | 0hPa | 2.7V | 00:00:00 | 01:27:13 | 00:00:00 | |
| GYPAP8-17 | 2026-08-31 00:01:25 | 49.46525 | 17.70263 | 50° | 20km/h | 18682m | 4.0m/s | -55.6°C | 0% | 0hPa | 2.7V | 00:00:00 | 00:00:00 | 00:00:00 | |
| OE5MMP-10 | 2026-08-31 00:01:18 | 49.46505 | 17.70225 | 49° | 22km/h | 18650m | 5.3m/s | 0°C | 0% | 0hPa | 2.7V | 00:00:00 | 01:27:03 | 08:30:00 | |
| POL1PZ | 2026-08-31 00:01:13 | 49.46497 | 17.70210 | 58° | 15km/h | 18634m | 6.2m/s | -55.8°C | 1.7% | 0hPa | 2.7V | 00:00:00 | 00:00:00 | 00:00:00 | |
| DO3MHA-11 | 2026-08-31 00:01:12 | 49.46495 | 17.70205 | 73° | 22km/h | 18629m | 4.6m/s | -55.8°C | 4.8% | 0hPa | 2.7V | 00:00:00 | 01:26:59 | 00:00:00 | |
| OE5DRO-10 | 2026-08-31 00:01:11 | 49.46494 | 17.70191 | 82° | 22km/h | 18619m | 5.8m/s | -56.0°C | 4.9% | 0hPa | 2.6V | 00:00:00 | 00:00:00 | 00:00:00 | |
| PG1ADW-2 | 2026-08-31 00:01:09 | 49.46490 | 17.70160 | 78° | 20km/h | 18603m | 4.7m/s | -56.2°C | 5.0% | 0hPa | 2.6V | 00:00:00 | 00:00:00 | 00:00:00 | |
| OE5MMP-10 | 2026-08-31 00:01:01 | 49.46486 | 17.70126 | 74° | 20km/h | 18582m | 6.1m/s | 0°C | 0% | 0hPa | 2.6V | 00:00:00 | 01:26:50 | 00:00:00 | |
| DO3MHA-11 | 2026-08-31 00:01:00 | 49.46485 | 17.70120 | 69° | 20km/h | 18576m | 4.7m/s | -56.1°C | 4.9% | 0hPa | 2.6V | 00:00:00 | 01:26:49 | 00:00:00 | |
| OE3OSB-13 | 2026-08-31 00:00:54 | 49.46480 | 17.70079 | 76° | 24km/h | 18544m | 4.3m/s | -55.9°C | 1.5% | -1.0hPa | 2.6V | 00:00:00 | 00:00:00 | 00:00:00 | |
| S52SK | 2026-08-31 00:00:53 | 49.46480 | 17.70079 | 77° | 26km/h | 18544m | 4.3m/s | -55.9°C | 1.7% | 0hPa | 2.6V | 00:00:00 | 00:00:00 | 00:00:00 | |
| OE5MMP-10 | 2026-08-31 00:00:47 | 49.46475 | 17.70051 | 66° | 15km/h | 18528m | 5.1m/s | 0°C | 0% | 0hPa | 2.6V | 00:00:00 | 01:26:40 | 00:00:00 | |
| DO3MHA-11 | 2026-08-31 00:00:46 | 49.46472 | 17.70044 | 55° | 15km/h | 18523m | 5.9m/s | -55.8°C | 4.6% | 0hPa | 2.6V | 00:00:00 | 01:26:39 | 00:00:00 | |
| S52SK | 2026-08-31 00:00:45 | 49.46468 | 17.70038 | 45° | 20km/h | 18518m | 4.1m/s | -55.8°C | 1.7% | 0hPa | 2.6V | 00:00:00 | 00:00:00 | 00:00:00 | |
| PG1ADW-2 | 2026-08-31 00:00:44 | 49.46460 | 17.70022 | 71° | 13km/h | 18496m | 5.2m/s | -55.9°C | 4.6% | 0hPa | 2.6V | 00:00:00 | 00:00:00 | 00:00:00 | |
| OE5MMP-10 | 2026-08-31 00:00:41 | 49.46456 | 17.70004 | 81° | 16km/h | 18476m | 6.1m/s | 0°C | 0% | 0hPa | 2.6V | 00:00:00 | 01:26:30 | 00:00:00 | |
| DO3MHA-11 | 2026-08-31 00:00:40 | 49.46456 | 17.69998 | 79° | 15km/h | 18470m | 4.7m/s | -56.2°C | 4.8% | 0hPa | 2.6V | 00:00:00 | 01:26:29 | 00:00:00 | |
| OE5DXL-15 | 2026-08-31 00:00:39 | 49.46456 | 17.69998 | 79° | 15km/h | 18470m | 4.7m/s | -56.2°C | 4.8% | 0hPa | 2.6V | 00:00:00 | 01:26:29 | 08:30:00 | |
| OE5MMP-10 | 2026-08-31 00:00:31 | 49.46441 | 17.69952 | 64° | 13km/h | 18424m | 5.8m/s | 0°C | 0% | 0hPa | 2.6V | 00:00:00 | 01:26:20 | 00:00:00 | |
| OE5DRO-10 | 2026-08-31 00:00:29 | 49.46440 | 17.69948 | 57° | 15km/h | 18418m | 4.6m/s | -56.5°C | 5.0% | 0hPa | 2.6V | 00:00:00 | 00:00:00 | 00:00:00 | |
| POL1PZ | 2026-08-31 00:00:28 | 49.46440 | 17.69948 | 58° | 13km/h | 18418m | 4.7m/s | -56.5°C | 1.7% | 0hPa | 2.6V | 00:00:00 | 00:00:00 | 00:00:00 | |
| PG1ADW-2 | 2026-08-31 00:00:26 | 49.46429 | 17.69934 | 353° | 18km/h | 18391m | 5.5m/s | -56.5°C | 4.9% | 0hPa | 2.6V | 00:00:00 | 00:00:00 | 08:30:00 | |
| OE3OSB-13 | 2026-08-31 00:00:24 | 49.46421 | 17.69936 | 357° | 13km/h | 18380m | 6.5m/s | -56.5°C | 1.5% | -1.0hPa | 2.6V | 00:00:00 | 00:00:00 | 00:00:00 | |
| OE5MMP-10 | 2026-08-31 00:00:20 | 49.46415 | 17.69935 | 8° | 16km/h | 18369m | 7.6m/s | 0°C | 0% | 0hPa | 2.6V | 00:00:00 | 01:26:10 | 00:00:00 | |
| DO3MHA-11 | 2026-08-31 00:00:19 | 49.46413 | 17.69933 | 53° | 16km/h | 18363m | 4.2m/s | -56.4°C | 5.0% | 0hPa | 2.6V | 00:00:00 | 01:26:09 | 00:00:00 | |
| GYPAP8-17 | 2026-08-31 00:00:10 | 49.46400 | 17.69899 | 49° | 16km/h | 18326m | 4.4m/s | -56.8°C | 0% | 0hPa | 2.6V | 00:00:00 | 00:00:00 | 00:00:00 | |
| OE5DRO-10 | 2026-08-31 00:00:09 | 49.46393 | 17.69883 | 64° | 24km/h | 18308m | 5.9m/s | -56.6°C | 5.1% | 0hPa | 2.6V | 00:00:00 | 00:00:00 | 00:00:00 | |
| POL1PZ | 2026-08-31 00:00:08 | 49.46390 | 17.69875 | 65° | 24km/h | 18301m | 7.5m/s | -56.6°C | 1.8% | 0hPa | 2.6V | 00:00:00 | 00:00:00 | 00:00:00 | |
| PG1ADW-2 | 2026-08-31 00:00:01 | 49.46375 | 17.69829 | 72° | 26km/h | 18266m | 5.7m/s | -56.3°C | 5.0% | 0hPa | 2.6V | 00:00:00 | 01:25:54 | 00:00:00 | |
| DO3MHA-11 | 2026-08-30 23:59:54 | 49.46364 | 17.69764 | 78° | 22km/h | 18217m | 6.0m/s | -56.2°C | 5.0% | 0hPa | 2.6V | 00:00:00 | 01:25:47 | 00:00:00 | |
| OE5MMP-10 | 2026-08-30 23:59:52 | 49.46362 | 17.69750 | 76° | 22km/h | 18202m | 5.7m/s | 0°C | 0% | 0hPa | 2.6V | 00:00:00 | 01:25:45 | 00:00:00 | |
| OE3OSB-13 | 2026-08-30 23:59:49 | 49.46358 | 17.69720 | 76° | 22km/h | 18178m | 9.9m/s | -56.1°C | 1.6% | -1.0hPa | 2.6V | 00:00:00 | 00:00:00 | 00:00:00 | |
| OE5DRO-10 | 2026-08-30 23:59:48 | 49.46358 | 17.69720 | 77° | 24km/h | 18178m | 9.9m/s | -56.1°C | 4.9% | 0hPa | 2.6V | 00:00:00 | 00:00:00 | 00:00:00 | |
| DO3MHA-11 | 2026-08-30 23:59:44 | 49.46346 | 17.69677 | 59° | 20km/h | 18151m | 7.3m/s | -55.8°C | 4.8% | 0hPa | 2.7V | 00:00:00 | 01:25:37 | 00:00:00 | |
| PG1ADW-2 | 2026-08-30 23:59:41 | 49.46332 | 17.69647 | 54° | 20km/h | 18132m | 5.8m/s | -55.7°C | 4.9% | 0hPa | 2.7V | 00:00:00 | 00:00:00 | 00:00:00 | |
| OE5DXL-15 | 2026-08-30 23:59:33 | 49.46312 | 17.69616 | 59° | 22km/h | 18080m | 3.4m/s | -55.6°C | 4.8% | 0hPa | 2.7V | 00:00:00 | 00:00:00 | 00:00:00 | |
| OE5DRO-10 | 2026-08-30 23:59:29 | 49.46294 | 17.69583 | 49° | 22km/h | 18050m | 10.8m/s | -55.6°C | 4.8% | 0hPa | 2.7V | 00:00:00 | 00:00:00 | 00:00:00 | |
| POL1PZ | 2026-08-30 23:59:23 | 49.46272 | 17.69550 | 46° | 15km/h | 18016m | 3.0m/s | -55.5°C | 1.7% | 0hPa | 2.7V | 00:00:00 | 00:00:00 | 00:00:00 | |
| DO3MHA-11 | 2026-08-30 23:59:22 | 49.46267 | 17.69542 | 39° | 24km/h | 18002m | 11.6m/s | -55.3°C | 4.7% | 0hPa | 2.7V | 00:00:00 | 01:25:15 | 00:00:00 | |
| OE5MMP-10 | 2026-08-30 23:59:19 | 49.46257 | 17.69527 | 50° | 18km/h | 17981m | 3.5m/s | 0°C | 0% | 0hPa | 2.6V | 00:00:00 | 01:25:12 | 00:00:00 | |
| OE3OSB-13 | 2026-08-30 23:59:18 | 49.46248 | 17.69513 | 40° | 27km/h | 17969m | 6.8m/s | -55.3°C | 1.5% | -1.0hPa | 2.6V | 00:00:00 | 00:00:00 | 00:00:00 | |
| DO3MHA-11 | 2026-08-30 23:59:12 | 49.46220 | 17.69487 | 14° | 16km/h | 17940m | 6.1m/s | -55.5°C | 4.9% | 0hPa | 2.6V | 00:00:00 | 01:25:05 | 00:00:00 | |
| OE5DRO-10 | 2026-08-30 23:59:10 | 49.46212 | 17.69485 | 10° | 15km/h | 17926m | 9.4m/s | -55.5°C | 5.0% | 0hPa | 2.6V | 00:00:00 | 00:00:00 | 00:00:00 | |
| OE5MMP-10 | 2026-08-30 23:59:03 | 49.46190 | 17.69458 | 44° | 22km/h | 17876m | 5.7m/s | 0°C | 0% | 0hPa | 2.6V | 00:00:00 | 01:24:56 | 00:00:00 | |
| POL1PZ | 2026-08-30 23:59:02 | 49.46189 | 17.69458 | 44° | 26km/h | 17876m | 5.7m/s | -55.4°C | 1.7% | 0hPa | 2.6V | 00:00:00 | 00:00:00 | 00:00:00 | |
| OE3OSB-13 | 2026-08-30 23:58:46 | 49.46157 | 17.69373 | 44° | 11km/h | 17756m | 5.6m/s | -54.6°C | 1.5% | -1.0hPa | 2.6V | 00:00:00 | 00:00:00 | 00:00:00 | |
| S52SK | 2026-08-30 23:58:43 | 49.46155 | 17.69367 | 115° | 7km/h | 17738m | 5.5m/s | -54.6°C | 1.6% | 0hPa | 2.6V | 00:00:00 | 00:00:00 | 00:00:00 | |
| DO3MHA-11 | 2026-08-30 23:58:42 | 49.46156 | 17.69364 | 114° | 15km/h | 17730m | 9.6m/s | -54.5°C | 4.5% | 0hPa | 2.6V | 00:00:00 | 01:24:35 | 00:00:00 | |
| PG1ADW-2 | 2026-08-30 23:58:41 | 49.46157 | 17.69359 | 118° | 20km/h | 17723m | 5.1m/s | -54.6°C | 4.5% | 0hPa | 2.6V | 00:00:00 | 01:24:34 | 00:00:00 | |
| S52SK | 2026-08-30 23:58:37 | 49.46162 | 17.69340 | 95° | 15km/h | 17703m | 7.4m/s | -54.7°C | 1.7% | 0hPa | 2.6V | 00:00:00 | 00:00:00 | 00:00:00 | |
| OE5DXL-15 | 2026-08-30 23:58:33 | 49.46159 | 17.69315 | 112° | 29km/h | 17675m | 6.3m/s | -54.9°C | 4.4% | 0hPa | 2.6V | 00:00:00 | 00:00:00 | 00:00:00 | |
| OE5DRO-10 | 2026-08-30 23:58:32 | 49.46160 | 17.69311 | 117° | 27km/h | 17667m | 9.8m/s | -55.0°C | 4.5% | 0hPa | 2.6V | 00:00:00 | 00:00:00 | 00:00:00 | |
| DO3MHA-11 | 2026-08-30 23:58:31 | 49.46162 | 17.69307 | 111° | 24km/h | 17659m | 4.9m/s | -55.2°C | 4.6% | 0hPa | 2.6V | 00:00:00 | 01:24:24 | 00:00:00 | |
| S52SK | 2026-08-30 23:58:26 | 49.46166 | 17.69284 | 99° | 22km/h | 17632m | 9.7m/s | -55.6°C | 0% | 0hPa | 2.6V | 00:00:00 | 00:00:00 | 00:00:00 | |
| DO3MHA-11 | 2026-08-30 23:58:21 | 49.46162 | 17.69210 | 79° | 33km/h | 17594m | 8.7m/s | -56.1°C | 4.9% | 0hPa | 2.6V | 00:00:00 | 01:24:14 | 08:30:00 | |
| OE3OSB-13 | 2026-08-30 23:58:15 | 49.46156 | 17.69142 | 82° | 37km/h | 17554m | 3.5m/s | -56.2°C | 1.7% | -1.0hPa | 2.6V | 00:00:00 | 00:00:00 | 00:00:00 | |
| OE5DRO-10 | 2026-08-30 23:58:13 | 49.46152 | 17.69113 | 76° | 38km/h | 17542m | 7.1m/s | -56.1°C | 4.8% | 0hPa | 2.6V | 00:00:00 | 00:00:00 | 00:00:00 | |
| DO3MHA-11 | 2026-08-30 23:58:11 | 49.46147 | 17.69084 | 77° | 38km/h | 17528m | 4.2m/s | -56.2°C | 4.9% | 0hPa | 2.6V | 00:00:00 | 01:24:04 | 00:00:00 | |
| OE5DXL-15 | 2026-08-30 23:58:03 | 49.46122 | 17.68973 | 74° | 38km/h | 17476m | 6.0m/s | -56.3°C | 4.8% | 0hPa | 2.6V | 00:00:00 | 00:00:00 | 00:00:00 | |
| PG1ADW-2 | 2026-08-30 23:58:01 | 49.46117 | 17.68944 | 79° | 40km/h | 17460m | 6.0m/s | -56.4°C | 4.8% | 0hPa | 2.6V | 00:00:00 | 00:00:00 | 00:00:00 | |
| DO3MHA-11 | 2026-08-30 23:57:59 | 49.46112 | 17.68915 | 74° | 37km/h | 17450m | 6.1m/s | -56.6°C | 4.8% | 0hPa | 2.6V | 00:00:00 | 01:23:52 | 00:00:00 | |
| OE5DRO-10 | 2026-08-30 23:57:54 | 49.46097 | 17.68844 | 67° | 40km/h | 17419m | 7.2m/s | -57.2°C | 5.1% | 0hPa | 2.6V | 00:00:00 | 00:00:00 | 08:30:00 | |
| DO3MHA-11 | 2026-08-30 23:57:49 | 49.46075 | 17.68786 | 52° | 46km/h | 17387m | 3.2m/s | -57.3°C | 5.3% | 0hPa | 2.6V | 00:00:00 | 01:23:42 | 00:00:00 | |
| OE3OSB-13 | 2026-08-30 23:57:44 | 49.46041 | 17.68715 | 54° | 51km/h | 17354m | 4.3m/s | -57.5°C | 1.7% | -1.0hPa | 2.7V | 00:00:00 | 00:00:00 | 00:00:00 | |
| PG1ADW-2 | 2026-08-30 23:57:41 | 49.46018 | 17.68666 | 57° | 26km/h | 17338m | 8.0m/s | -57.6°C | 5.2% | 0hPa | 2.7V | 00:00:00 | 00:00:00 | 00:00:00 | |
| POL1PZ | 2026-08-30 23:57:40 | 49.46018 | 17.68666 | 58° | 49km/h | 17338m | 8.1m/s | -57.7°C | 1.9% | 0hPa | 2.7V | 00:00:00 | 00:00:00 | 00:00:00 | |
| DO3MHA-11 | 2026-08-30 23:57:39 | 49.46008 | 17.68637 | 64° | 29km/h | 17324m | 9.1m/s | -58.0°C | 5.5% | 0hPa | 2.7V | 00:00:00 | 01:23:32 | 00:00:00 | |
| OE5DRO-10 | 2026-08-30 23:57:35 | 49.45992 | 17.68598 | 43° | 24km/h | 17299m | 8.4m/s | -58.0°C | 5.5% | 0hPa | 2.7V | 00:00:00 | 00:00:00 | 00:00:00 | |
| OE5DXL-15 | 2026-08-30 23:57:33 | 49.45981 | 17.68585 | 34° | 20km/h | 17284m | 6.0m/s | -57.9°C | 5.5% | 0hPa | 2.7V | 00:00:00 | 00:00:00 | 00:00:00 | |
| DO3MHA-11 | 2026-08-30 23:57:29 | 49.45958 | 17.68566 | 40° | 18km/h | 17258m | 4.1m/s | -57.7°C | 5.5% | 0hPa | 2.7V | 00:00:00 | 01:23:22 | 00:00:00 | |
| PG1ADW-2 | 2026-08-30 23:57:21 | 49.45930 | 17.68532 | 32° | 20km/h | 17207m | 9.3m/s | -57.3°C | 5.4% | 0hPa | 2.7V | 00:00:00 | 01:23:14 | 08:30:00 | |
| POL1PZ | 2026-08-30 23:57:20 | 49.45930 | 17.68532 | 32° | 24km/h | 17207m | 9.4m/s | -57.4°C | 2.0% | 0hPa | 2.6V | 00:00:00 | 00:00:00 | 00:00:00 | |
| OE5DRO-10 | 2026-08-30 23:57:16 | 49.45904 | 17.68489 | 68° | 18km/h | 17173m | 5.6m/s | -57.1°C | 5.4% | 0hPa | 2.6V | 00:00:00 | 00:00:00 | 00:00:00 | |
| OE3OSB-13 | 2026-08-30 23:57:14 | 49.45900 | 17.68466 | 74° | 15km/h | 17154m | 5.7m/s | -56.9°C | 1.8% | -1.0hPa | 2.6V | 00:00:00 | 00:00:00 | 00:00:00 | |
| DO3MHA-11 | 2026-08-30 23:57:09 | 49.45889 | 17.68458 | 1° | 18km/h | 17127m | 7.0m/s | -56.7°C | 5.3% | 0hPa | 2.6V | 00:00:00 | 01:23:02 | 00:00:00 | |
| OE5DXL-15 | 2026-08-30 23:57:03 | 49.45869 | 17.68448 | 53° | 18km/h | 17091m | 6.0m/s | -56.3°C | 5.1% | 0hPa | 2.6V | 00:00:00 | 00:00:00 | 00:00:00 | |
| DO3MHA-11 | 2026-08-30 23:56:59 | 49.45851 | 17.68426 | 34° | 20km/h | 17064m | 4.6m/s | -56.1°C | 5.1% | 0hPa | 2.6V | 00:00:00 | 01:22:52 | 00:00:00 | |
| OE5DRO-10 | 2026-08-30 23:56:57 | 49.45841 | 17.68415 | 34° | 18km/h | 17051m | 6.2m/s | -56.0°C | 5.0% | 0hPa | 2.6V | 00:00:00 | 00:00:00 | 00:00:00 | |
| DO3MHA-11 | 2026-08-30 23:56:49 | 49.45809 | 17.68392 | 62° | 18km/h | 17003m | 4.8m/s | -55.6°C | 4.9% | 0hPa | 2.6V | 00:00:00 | 01:22:42 | 00:00:00 | |
| GYPAP8-17 | 2026-08-30 23:56:45 | 49.45802 | 17.68379 | 36° | 16km/h | 16987m | 6.1m/s | -55.5°C | 0% | 0hPa | 2.6V | 00:00:00 | 00:00:00 | 00:00:00 | |
| OE3OSB-13 | 2026-08-30 23:56:42 | 49.45784 | 17.68371 | 355° | 20km/h | 16962m | 6.0m/s | -55.4°C | 1.6% | -1.0hPa | 2.6V | 00:00:00 | 00:00:00 | 00:00:00 | |
| PG1ADW-2 | 2026-08-30 23:56:41 | 49.45779 | 17.68372 | 354° | 22km/h | 16957m | 3.9m/s | -55.3°C | 4.9% | 0hPa | 2.6V | 00:00:00 | 00:00:00 | 00:00:00 | |
| DO3MHA-11 | 2026-08-30 23:56:39 | 49.45768 | 17.68372 | 8° | 27km/h | 16945m | 6.2m/s | -55.2°C | 4.9% | 0hPa | 2.6V | 00:00:00 | 01:22:32 | 08:30:00 | |
| OE5DRO-10 | 2026-08-30 23:56:38 | 49.45763 | 17.68371 | 17° | 24km/h | 16939m | 5.5m/s | -55.2°C | 4.9% | 0hPa | 2.6V | 00:00:00 | 00:00:00 | 00:00:00 | |
| OE5DXL-15 | 2026-08-30 23:56:33 | 49.45751 | 17.68350 | 71° | 24km/h | 16908m | 6.2m/s | -55.0°C | 5.0% | 0hPa | 2.6V | 00:00:00 | 00:00:00 | 00:00:00 | |
| GYPAP8-17 | 2026-08-30 23:56:24 | 49.45713 | 17.68353 | 5° | 38km/h | 16852m | 6.1m/s | 0°C | 0% | 0hPa | 2.6V | 00:00:00 | 00:00:00 | 00:00:00 | |
| PG1ADW-2 | 2026-08-30 23:56:21 | 49.45692 | 17.68320 | 89° | 22km/h | 16825m | 8.6m/s | -54.6°C | 4.7% | 0hPa | 2.6V | 00:00:00 | 00:00:00 | 00:00:00 | |
| OE5DRO-10 | 2026-08-30 23:56:19 | 49.45694 | 17.68294 | 104° | 22km/h | 16808m | 6.9m/s | -54.5°C | 4.8% | 0hPa | 2.6V | 00:00:00 | 00:00:00 | 00:00:00 | |
| POL1PZ | 2026-08-30 23:56:17 | 49.45696 | 17.68284 | 103° | 24km/h | 16801m | 7.3m/s | -54.6°C | 1.8% | 0hPa | 2.6V | 00:00:00 | 00:00:00 | 00:00:00 | |
| OE3OSB-13 | 2026-08-30 23:56:13 | 49.45694 | 17.68230 | 106° | 20km/h | 16750m | 5.1m/s | -54.1°C | 1.6% | -1.0hPa | 2.6V | 00:00:00 | 00:00:00 | 00:00:00 | |
| OE5DXL-15 | 2026-08-30 23:56:03 | 49.45692 | 17.68166 | 89° | 24km/h | 16706m | 4.7m/s | -53.6°C | 4.5% | 0hPa | 2.6V | 00:00:00 | 00:00:00 | 08:30:00 | |
| PG1ADW-2 | 2026-08-30 23:56:01 | 49.45691 | 17.68151 | 83° | 24km/h | 16695m | 6.4m/s | -53.6°C | 4.4% | 0hPa | 2.7V | 00:00:00 | 01:21:54 | 00:00:00 | |
| OE5DRO-10 | 2026-08-30 23:56:00 | 49.45690 | 17.68142 | 82° | 24km/h | 16690m | 4.5m/s | -53.5°C | 4.4% | 0hPa | 2.7V | 00:00:00 | 00:00:00 | 00:00:00 | |
| HA6NAB-11 | 2026-08-30 23:55:58 | 49.45689 | 17.68134 | 83° | 20km/h | 16685m | 5.6m/s | 0°C | 0% | 0hPa | 2.7V | 00:00:00 | 00:00:00 | 00:00:00 | |
| POL1PZ | 2026-08-30 23:55:56 | 49.45688 | 17.68120 | 93° | 18km/h | 16672m | 4.5m/s | -53.6°C | 1.7% | 0hPa | 2.7V | 00:00:00 | 00:00:00 | 00:00:00 | |
| HA6NAB-11 | 2026-08-30 23:55:52 | 49.45688 | 17.68086 | 85° | 24km/h | 16650m | 5.7m/s | 0°C | 0% | 0hPa | 2.7V | 00:00:00 | 00:00:00 | 00:00:00 | |
| PG1ADW-2 | 2026-08-30 23:55:41 | 49.45687 | 17.67969 | 95° | 27km/h | 16588m | 2.5m/s | -53.4°C | 4.5% | 0hPa | 2.7V | 00:00:00 | 00:00:00 | 00:00:00 | |
| OE3OSB-13 | 2026-08-30 23:55:40 | 49.45688 | 17.67959 | 104° | 27km/h | 16581m | 11.8m/s | -53.3°C | 1.6% | -1.0hPa | 2.7V | 00:00:00 | 00:00:00 | 00:00:00 | |
| OE3JTB-15 | 2026-08-30 23:55:37 | 49.45694 | 17.67925 | 103° | 31km/h | 16557m | 8.8m/s | -53.1°C | 4.4% | 0hPa | 2.7V | 00:00:00 | 00:00:00 | 00:00:00 | |
| POL1PZ | 2026-08-30 23:55:35 | 49.45695 | 17.67915 | 93° | 26km/h | 16551m | 3.7m/s | -53.1°C | 1.7% | 0hPa | 2.6V | 00:00:00 | 00:00:00 | 00:00:00 | |
| OE5DXL-15 | 2026-08-30 23:55:33 | 49.45692 | 17.67882 | 73° | 33km/h | 16532m | 4.8m/s | -53.0°C | 4.2% | 0hPa | 2.6V | 00:00:00 | 00:00:00 | 00:00:00 | |
| OE5DRO-10 | 2026-08-30 23:55:22 | 49.45688 | 17.67778 | 78° | 37km/h | 16454m | 4.6m/s | -53.7°C | 4.3% | 0hPa | 2.6V | 00:00:00 | 00:00:00 | 00:00:00 | |
| PG1ADW-2 | 2026-08-30 23:55:21 | 49.45686 | 17.67764 | 76° | 38km/h | 16449m | 6.1m/s | -53.8°C | 4.4% | 0hPa | 2.6V | 00:00:00 | 00:00:00 | 00:00:00 | |
| POL1PZ | 2026-08-30 23:55:14 | 49.45679 | 17.67677 | 92° | 37km/h | 16405m | 2.3m/s | -54.4°C | 1.9% | 0hPa | 2.7V | 00:00:00 | 00:00:00 | 00:00:00 | |
| OE3OSB-13 | 2026-08-30 23:55:09 | 49.45685 | 17.67601 | 79° | 35km/h | 16368m | 5.5m/s | -55.7°C | 1.9% | -1.0hPa | 2.7V | 00:00:00 | 00:00:00 | 00:00:00 | |
| OE3JTB-15 | 2026-08-30 23:55:05 | 49.45677 | 17.67545 | 83° | 49km/h | 16336m | 8.8m/s | -55.8°C | 5.2% | 0hPa | 2.7V | 00:00:00 | 00:00:00 | 00:00:00 | |
| OE5DXL-15 | 2026-08-30 23:55:03 | 49.45675 | 17.67511 | 86° | 49km/h | 16325m | 5.7m/s | -55.8°C | 5.2% | 0hPa | 2.7V | 00:00:00 | 00:00:00 | 00:00:00 | |
| PG1ADW-2 | 2026-08-30 23:55:01 | 49.45672 | 17.67471 | 83° | 49km/h | 16314m | 7.8m/s | -55.7°C | 5.2% | 0hPa | 2.7V | 00:00:00 | 00:00:00 | 00:00:00 | |
| POL1PZ | 2026-08-30 23:54:54 | 49.45656 | 17.67344 | 83° | 53km/h | 16270m | 7.0m/s | -55.6°C | 2.1% | 0hPa | 2.7V | 00:00:00 | 00:00:00 | 00:00:00 | |
| HA6NAB-11 | 2026-08-30 23:54:50 | 49.45653 | 17.67277 | 89° | 38km/h | 16241m | 9.0m/s | 0°C | 0% | 0hPa | 2.7V | 00:00:00 | 00:00:00 | 00:00:00 | |
| OE5DRO-10 | 2026-08-30 23:54:44 | 49.45643 | 17.67152 | 79° | 53km/h | 16191m | 10.8m/s | -55.4°C | 5.2% | 0hPa | 2.7V | 00:00:00 | 00:00:00 | 00:00:00 | |
| PG1ADW-2 | 2026-08-30 23:54:41 | 49.45633 | 17.67091 | 73° | 53km/h | 16166m | 5.4m/s | -55.3°C | 5.2% | 0hPa | 2.7V | 00:00:00 | 01:20:34 | 00:00:00 | |
| OE3OSB-13 | 2026-08-30 23:54:38 | 49.45628 | 17.67020 | 94° | 47km/h | 16139m | 5.5m/s | -55.3°C | 2.0% | -1.0hPa | 2.7V | 00:00:00 | 00:00:00 | 00:00:00 | |
| OE3JTB-15 | 2026-08-30 23:54:36 | 49.45630 | 17.67001 | 100° | 53km/h | 16132m | 7.8m/s | -55.3°C | 5.1% | 0hPa | 2.7V | 00:00:00 | 01:20:29 | 00:00:00 | |
| DO3MHA-11 | 2026-08-30 23:54:35 | 49.45632 | 17.66980 | 100° | 55km/h | 16125m | 5.3m/s | -55.4°C | 5.2% | 0hPa | 2.7V | 00:00:00 | 01:20:28 | 00:00:00 | |
| POL1PZ | 2026-08-30 23:54:34 | 49.45632 | 17.66980 | 101° | 55km/h | 16125m | 5.4m/s | -55.5°C | 2.2% | 0hPa | 2.7V | 00:00:00 | 00:00:00 | 00:00:00 | |
| OE5DXL-15 | 2026-08-30 23:54:33 | 49.45634 | 17.66937 | 89° | 49km/h | 16112m | 5.5m/s | -55.5°C | 5.3% | 0hPa | 2.7V | 00:00:00 | 00:00:00 | 00:00:00 | |
| HA6NAB-11 | 2026-08-30 23:54:30 | 49.45630 | 17.66897 | 74° | 53km/h | 16100m | 7.3m/s | 0°C | 0% | 0hPa | 2.7V | 00:00:00 | 00:00:00 | 00:00:00 | |
| OE5DRO-10 | 2026-08-30 23:54:25 | 49.45608 | 17.66775 | 83° | 47km/h | 16064m | 7.7m/s | -55.7°C | 5.3% | 0hPa | 2.7V | 00:00:00 | 00:00:00 | 00:00:00 | |
| DO3MHA-11 | 2026-08-30 23:54:24 | 49.45606 | 17.66754 | 84° | 53km/h | 16054m | 11.2m/s | -55.7°C | 5.3% | 0hPa | 2.7V | 00:00:00 | 01:20:17 | 00:00:00 | |
| PG1ADW-2 | 2026-08-30 23:54:21 | 49.45604 | 17.66690 | 90° | 44km/h | 16034m | 3.7m/s | -55.8°C | 5.4% | 0hPa | 2.7V | 00:00:00 | 00:00:00 | 08:30:00 | |
| DO3MHA-11 | 2026-08-30 23:54:14 | 49.45594 | 17.66563 | 83° | 42km/h | 15985m | 4.5m/s | -55.7°C | 5.4% | 0hPa | 2.7V | 00:00:00 | 01:20:07 | 00:00:00 | |
| POL1PZ | 2026-08-30 23:54:13 | 49.45594 | 17.66563 | 84° | 42km/h | 15985m | 4.5m/s | -55.8°C | 2.3% | 0hPa | 2.6V | 00:00:00 | 00:00:00 | 00:00:00 | |
| OE3OSB-13 | 2026-08-30 23:54:07 | 49.45582 | 17.66428 | 83° | 38km/h | 15936m | 7.7m/s | -55.7°C | 2.1% | -1.0hPa | 2.6V | 00:00:00 | 00:00:00 | 00:00:00 | |
| OE5DRO-10 | 2026-08-30 23:54:06 | 49.45582 | 17.66428 | 84° | 46km/h | 15936m | 7.7m/s | -55.7°C | 5.3% | 0hPa | 2.6V | 00:00:00 | 00:00:00 | 00:00:00 | |
| DO3MHA-11 | 2026-08-30 23:54:03 | 49.45576 | 17.66382 | 80° | 51km/h | 15916m | 10.0m/s | -55.8°C | 5.5% | 0hPa | 2.7V | 00:00:00 | 01:19:56 | 00:00:00 | |
| PG1ADW-2 | 2026-08-30 23:54:01 | 49.45575 | 17.66352 | 88° | 47km/h | 15901m | 9.7m/s | -55.7°C | 5.5% | 0hPa | 2.7V | 00:00:00 | 00:00:00 | 00:00:00 | |
| GYPAP8-17 | 2026-08-30 23:53:53 | 49.45583 | 17.66224 | 97° | 55km/h | 15852m | 5.2m/s | 0°C | 0% | 0hPa | 2.7V | 00:00:00 | 00:00:00 | 00:00:00 | |
| DO3MHA-11 | 2026-08-30 23:53:48 | 49.45590 | 17.66103 | 99° | 47km/h | 15813m | 4.9m/s | -56.1°C | 5.6% | 0hPa | 2.7V | 00:00:00 | 01:19:41 | 00:00:00 | |
| OE5DRO-10 | 2026-08-30 23:53:47 | 49.45591 | 17.66088 | 100° | 47km/h | 15805m | 10.0m/s | -56.1°C | 5.7% | 0hPa | 2.7V | 00:00:00 | 00:00:00 | 00:00:00 | |
| PG1ADW-2 | 2026-08-30 23:53:41 | 49.45601 | 17.65988 | 95° | 55km/h | 15762m | 6.8m/s | -56.2°C | 6.0% | 0hPa | 2.7V | 00:00:00 | 00:00:00 | 00:00:00 | |
| DO3MHA-11 | 2026-08-30 23:53:37 | 49.45608 | 17.65907 | 95° | 49km/h | 15738m | 4.9m/s | -56.1°C | 5.9% | 0hPa | 2.7V | 00:00:00 | 01:19:30 | 00:00:00 | |
| OE3OSB-13 | 2026-08-30 23:53:36 | 49.45610 | 17.65871 | 94° | 46km/h | 15724m | 10.8m/s | -56.0°C | 2.4% | -1.0hPa | 2.7V | 00:00:00 | 00:00:00 | 00:00:00 | |
| POL1PZ | 2026-08-30 23:53:33 | 49.45610 | 17.65837 | 92° | 40km/h | 15707m | 11.1m/s | -56.0°C | 2.7% | 0hPa | 2.7V | 00:00:00 | 00:00:00 | 00:00:00 | |
| OE5DRO-10 | 2026-08-30 23:53:28 | 49.45622 | 17.65738 | 105° | 66km/h | 15671m | 8.5m/s | -55.8°C | 5.8% | 0hPa | 2.7V | 00:00:00 | 00:00:00 | 00:00:00 | |
| DO3MHA-11 | 2026-08-30 23:53:27 | 49.45626 | 17.65715 | 101° | 60km/h | 15662m | 7.0m/s | -55.8°C | 5.8% | 0hPa | 2.7V | 00:00:00 | 01:19:20 | 00:00:00 | |
| PG1ADW-2 | 2026-08-30 23:53:21 | 49.45625 | 17.65571 | 88° | 66km/h | 15627m | 7.7m/s | -55.9°C | 5.8% | 0hPa | 2.7V | 00:00:00 | 01:19:14 | 00:00:00 | |
| DO3MHA-11 | 2026-08-30 23:53:17 | 49.45629 | 17.65481 | 102° | 71km/h | 15601m | 7.2m/s | -56.3°C | 6.0% | 0hPa | 2.7V | 00:00:00 | 01:19:10 | 00:00:00 | |
| POL1PZ | 2026-08-30 23:53:11 | 49.45649 | 17.65343 | 103° | 77km/h | 15568m | 8.7m/s | -56.5°C | 3.0% | 0hPa | 2.7V | 00:00:00 | 00:00:00 | 00:00:00 | |
| OE5DRO-10 | 2026-08-30 23:53:09 | 49.45659 | 17.65261 | 98° | 73km/h | 15551m | 3.5m/s | -56.9°C | 6.7% | 0hPa | 2.7V | 00:00:00 | 00:00:00 | 00:00:00 | |
| DO3MHA-11 | 2026-08-30 23:53:07 | 49.45662 | 17.65208 | 93° | 69km/h | 15540m | 6.9m/s | 0°C | 0% | 0hPa | 2.7V | 00:00:00 | 01:19:00 | 00:00:00 | |
| OE3OSB-13 | 2026-08-30 23:53:05 | 49.45664 | 17.65135 | 91° | 60km/h | 15515m | 10.6m/s | -57.2°C | 3.2% | -1.0hPa | 2.7V | 00:00:00 | 00:00:00 | 00:00:00 | |
| OE5DXL-15 | 2026-08-30 23:53:03 | 49.45664 | 17.65110 | 93° | 71km/h | 15508m | 4.8m/s | -57.2°C | 6.9% | 0hPa | 2.7V | 00:00:00 | 00:00:00 | 00:00:00 | |
| PG1ADW-2 | 2026-08-30 23:53:01 | 49.45667 | 17.65058 | 95° | 73km/h | 15495m | 4.3m/s | -57.3°C | 6.9% | 0hPa | 2.7V | 00:00:00 | 00:00:00 | 00:00:00 | |
| DO3MHA-11 | 2026-08-30 23:52:57 | 49.45669 | 17.64940 | 88° | 68km/h | 15465m | 4.1m/s | 0°C | 0% | 0hPa | 2.7V | 00:00:00 | 01:18:50 | 00:00:00 | |
| POL1PZ | 2026-08-30 23:52:51 | 49.45662 | 17.64783 | 85° | 77km/h | 15434m | 4.4m/s | -57.5°C | 3.8% | 0hPa | 2.7V | 00:00:00 | 00:00:00 | 00:00:00 | |
| OE5DRO-10 | 2026-08-30 23:52:50 | 49.45657 | 17.64727 | 81° | 64km/h | 15424m | 7.5m/s | -57.4°C | 7.3% | 0hPa | 2.7V | 00:00:00 | 00:00:00 | 00:00:00 | |
| PG1ADW-2 | 2026-08-30 23:52:41 | 49.45639 | 17.64492 | 86° | 58km/h | 15352m | 3.3m/s | -57.3°C | 7.4% | 0hPa | 2.7V | 00:00:00 | 00:00:00 | 00:00:00 | |
| OE3OSB-13 | 2026-08-30 23:52:34 | 49.45607 | 17.64304 | 66° | 55km/h | 15299m | 6.9m/s | -57.8°C | 3.9% | -1.0hPa | 2.7V | 00:00:00 | 00:00:00 | 00:00:00 | |
| OE5DXL-15 | 2026-08-30 23:52:33 | 49.45607 | 17.64304 | 67° | 55km/h | 15299m | 6.9m/s | -57.7°C | 7.7% | 0hPa | 2.7V | 00:00:00 | 00:00:00 | 00:00:00 | |
| OE5DRO-10 | 2026-08-30 23:52:31 | 49.45598 | 17.64268 | 71° | 55km/h | 15287m | 7.4m/s | -57.8°C | 7.7% | 0hPa | 2.7V | 00:00:00 | 00:00:00 | 00:00:00 | |
| PG1ADW-2 | 2026-08-30 23:52:21 | 49.45577 | 17.64053 | 88° | 57km/h | 15223m | 5.0m/s | -58.1°C | 8.2% | 0hPa | 2.7V | 00:00:00 | 00:00:00 | 00:00:00 | |
| OE5DRO-10 | 2026-08-30 23:52:12 | 49.45567 | 17.63866 | 98° | 62km/h | 15156m | 5.1m/s | -58.2°C | 8.2% | 0hPa | 2.7V | 00:00:00 | 00:00:00 | 08:30:00 | |
| POL1PZ | 2026-08-30 23:52:10 | 49.45569 | 17.63847 | 98° | 51km/h | 15150m | 5.7m/s | -58.3°C | 4.4% | 0hPa | 2.7V | 00:00:00 | 00:00:00 | 00:00:00 | |
| OE3OSB-13 | 2026-08-30 23:52:03 | 49.45565 | 17.63647 | 91° | 75km/h | 15091m | 4.5m/s | -58.6°C | 4.1% | -1.0hPa | 2.7V | 00:00:00 | 00:00:00 | 00:00:00 | |
| PG1ADW-2 | 2026-08-30 23:52:01 | 49.45566 | 17.63617 | 93° | 73km/h | 15085m | 7.1m/s | -58.6°C | 8.1% | 0hPa | 2.7V | 00:00:00 | 01:17:54 | 00:00:00 | |
| S52SK | 2026-08-30 23:51:55 | 49.45562 | 17.63484 | 87° | 60km/h | 15055m | 4.6m/s | -58.4°C | 0% | 0hPa | 2.7V | 00:00:00 | 00:00:00 | 00:00:00 | |
| OE3JTB-15 | 2026-08-30 23:51:53 | 49.45560 | 17.63408 | 90° | 75km/h | 15034m | 8.4m/s | -58.2°C | 7.9% | 0hPa | 2.7V | 00:00:00 | 00:00:00 | 00:00:00 | |
| POL1PZ | 2026-08-30 23:51:50 | 49.45559 | 17.63347 | 91° | 82km/h | 15020m | 9.1m/s | -58.3°C | 4.0% | 0hPa | 2.7V | 00:00:00 | 00:00:00 | 00:00:00 | |
| S52SK | 2026-08-30 23:51:49 | 49.45560 | 17.63315 | 93° | 84km/h | 15014m | 4.3m/s | -58.3°C | 0% | 0hPa | 2.7V | 00:00:00 | 00:00:00 | 00:00:00 | |
| S52SK | 2026-08-30 23:51:44 | 49.45557 | 17.63168 | 86° | 71km/h | 14986m | 6.0m/s | -58.4°C | 0% | 0hPa | 2.7V | 00:00:00 | 00:00:00 | 00:00:00 | |
| PG1ADW-2 | 2026-08-30 23:51:41 | 49.45546 | 17.63053 | 83° | 73km/h | 14957m | 4.5m/s | -58.3°C | 7.7% | 0hPa | 2.7V | 00:00:00 | 00:00:00 | 00:00:00 | |
| OE5DRO-10 | 2026-08-30 23:51:34 | 49.45529 | 17.62837 | 86° | 68km/h | 14909m | 9.5m/s | -58.3°C | 7.4% | 0hPa | 2.7V | 00:00:00 | 00:00:00 | 00:00:00 | |
| OE5DXL-15 | 2026-08-30 23:51:33 | 49.45527 | 17.62810 | 85° | 64km/h | 14901m | 6.5m/s | -58.3°C | 7.5% | 0hPa | 2.7V | 00:00:00 | 00:00:00 | 08:30:00 | |
| OE3OSB-13 | 2026-08-30 23:51:32 | 49.45523 | 17.62762 | 81° | 60km/h | 14888m | 7.9m/s | -58.4°C | 3.7% | -1.0hPa | 2.7V | 00:00:00 | 00:00:00 | 00:00:00 | |
| POL1PZ | 2026-08-30 23:51:30 | 49.45523 | 17.62762 | 83° | 60km/h | 14888m | 7.9m/s | -58.4°C | 3.9% | 0hPa | 2.7V | 00:00:00 | 00:00:00 | 00:00:00 | |
| PG1ADW-2 | 2026-08-30 23:51:21 | 49.45485 | 17.62493 | 77° | 60km/h | 14829m | 10.3m/s | -58.0°C | 6.9% | 0hPa | 2.7V | 00:00:00 | 00:00:00 | 08:30:00 | |
| OE3JTB-15 | 2026-08-30 23:51:19 | 49.45477 | 17.62442 | 78° | 66km/h | 14814m | 9.9m/s | -58.0°C | 6.8% | 0hPa | 2.7V | 00:00:00 | 01:17:12 | 00:00:00 | |
| OE5DRO-10 | 2026-08-30 23:51:15 | 49.45465 | 17.62361 | 72° | 62km/h | 14784m | 5.2m/s | -58.1°C | 6.8% | 0hPa | 2.7V | 00:00:00 | 00:00:00 | 00:00:00 | |
| POL1PZ | 2026-08-30 23:51:09 | 49.45448 | 17.62263 | 81° | 62km/h | 14753m | 6.6m/s | -58.2°C | 3.4% | 0hPa | 2.7V | 00:00:00 | 00:00:00 | 00:00:00 | |
| OE5DXL-15 | 2026-08-30 23:51:03 | 49.45430 | 17.62086 | 76° | 64km/h | 14710m | 6.4m/s | -58.1°C | 7.1% | 0hPa | 2.7V | 00:00:00 | 00:00:00 | 00:00:00 | |
| OE3OSB-13 | 2026-08-30 23:51:00 | 49.45416 | 17.62012 | 76° | 66km/h | 14691m | 3.8m/s | -58.1°C | 3.2% | -1.0hPa | 2.7V | 00:00:00 | 00:00:00 | 00:00:00 | |
| HA6NAB-11 | 2026-08-30 23:50:58 | 49.45412 | 17.61987 | 78° | 64km/h | 14685m | 9.7m/s | 0°C | 0% | 0hPa | 2.7V | 00:00:00 | 00:00:00 | 00:00:00 | |
| OE5DRO-10 | 2026-08-30 23:50:56 | 49.45408 | 17.61917 | 90° | 64km/h | 14664m | 10.6m/s | -58.1°C | 6.9% | 0hPa | 2.7V | 00:00:00 | 00:00:00 | 00:00:00 | |
| HA6NAB-11 | 2026-08-30 23:50:51 | 49.45399 | 17.61821 | 75° | 66km/h | 14635m | 8.3m/s | 0°C | 0% | 0hPa | 2.7V | 00:00:00 | 00:00:00 | 00:00:00 | |
| POL1PZ | 2026-08-30 23:50:49 | 49.45389 | 17.61771 | 73° | 66km/h | 14624m | 7.3m/s | -58.2°C | 3.4% | 0hPa | 2.7V | 00:00:00 | 00:00:00 | 00:00:00 | |
| HA6NAB-11 | 2026-08-30 23:50:45 | 49.45370 | 17.61681 | 79° | 60km/h | 14596m | 4.7m/s | 0°C | 0% | 0hPa | 2.7V | 00:00:00 | 00:00:00 | 00:00:00 | |
| OE3JTB-15 | 2026-08-30 23:50:44 | 49.45362 | 17.61634 | 74° | 68km/h | 14582m | 3.8m/s | -58.0°C | 7.3% | 0hPa | 2.7V | 00:00:00 | 00:00:00 | 08:30:00 | |
| PG1ADW-2 | 2026-08-30 23:50:41 | 49.45349 | 17.61564 | 75° | 66km/h | 14564m | 5.2m/s | -57.9°C | 7.2% | 0hPa | 2.7V | 00:00:00 | 01:16:34 | 00:00:00 | |
| OE5DRO-10 | 2026-08-30 23:50:37 | 49.45335 | 17.61464 | 80° | 64km/h | 14537m | 3.4m/s | -57.9°C | 7.3% | 0hPa | 2.7V | 00:00:00 | 00:00:00 | 00:00:00 | |
| OE3OSB-13 | 2026-08-30 23:50:29 | 49.45289 | 17.61279 | 69° | 66km/h | 14483m | 3.4m/s | -57.6°C | 3.4% | -1.0hPa | 2.7V | 00:00:00 | 00:00:00 | 00:00:00 | |
| PG1ADW-2 | 2026-08-30 23:50:21 | 49.45260 | 17.61078 | 80° | 62km/h | 14427m | 4.0m/s | -57.4°C | 7.2% | 0hPa | 2.7V | 00:00:00 | 00:00:00 | 00:00:00 | |
| OE5DRO-10 | 2026-08-30 23:50:18 | 49.45249 | 17.61013 | 72° | 60km/h | 14410m | 7.5m/s | -57.4°C | 7.1% | 0hPa | 2.7V | 00:00:00 | 00:00:00 | 00:00:00 | |
| DO3MHA-11 | 2026-08-30 23:50:12 | 49.45221 | 17.60889 | 79° | 68km/h | 14371m | 5.6m/s | 0°C | 0% | 0hPa | 2.7V | 00:00:00 | 01:16:05 | 00:00:00 | |
| S52SK | 2026-08-30 23:50:11 | 49.45221 | 17.60889 | 79° | 60km/h | 14371m | 5.7m/s | -57.6°C | 0% | 0hPa | 2.7V | 00:00:00 | 00:00:00 | 00:00:00 | |
| POL1PZ | 2026-08-30 23:50:08 | 49.45215 | 17.60813 | 87° | 69km/h | 14353m | 7.7m/s | -57.9°C | 4.1% | 0hPa | 2.7V | 00:00:00 | 00:00:00 | 00:00:00 | |
| S52SK | 2026-08-30 23:50:05 | 49.45209 | 17.60733 | 82° | 71km/h | 14335m | 12.3m/s | -57.8°C | 0% | 0hPa | 2.7V | 00:00:00 | 00:00:00 | 00:00:00 | |
| OE5DXL-15 | 2026-08-30 23:50:03 | 49.45199 | 17.60659 | 79° | 60km/h | 14310m | 5.4m/s | -57.9°C | 7.7% | 0hPa | 2.7V | 00:00:00 | 00:00:00 | 00:00:00 | |
| OE3OSB-13 | 2026-08-30 23:49:58 | 49.45190 | 17.60551 | 87° | 62km/h | 14276m | 4.3m/s | -57.8°C | 4.0% | -1.0hPa | 2.7V | 00:00:00 | 00:00:00 | 00:00:00 | |
| POL1PZ | 2026-08-30 23:49:47 | 49.45179 | 17.60313 | 95° | 60km/h | 14203m | 9.4m/s | -57.8°C | 4.2% | 0hPa | 2.7V | 00:00:00 | 00:00:00 | 00:00:00 | |
| PG1ADW-2 | 2026-08-30 23:49:41 | 49.45178 | 17.60156 | 88° | 66km/h | 14146m | 5.9m/s | -57.6°C | 8.0% | 0hPa | 2.7V | 00:00:00 | 00:00:00 | 00:00:00 | |
| DO3MHA-11 | 2026-08-30 23:49:40 | 49.45178 | 17.60133 | 89° | 64km/h | 14139m | 8.2m/s | 0°C | 0% | 0hPa | 2.7V | 00:00:00 | 01:15:33 | 00:00:00 | |
| OE5DXL-15 | 2026-08-30 23:49:33 | 49.45173 | 17.59957 | 91° | 71km/h | 14087m | 9.5m/s | -57.2°C | 7.7% | 0hPa | 2.7V | 00:00:00 | 00:00:00 | 00:00:00 | |
| DO3MHA-11 | 2026-08-30 23:49:30 | 49.45179 | 17.59885 | 102° | 69km/h | 14063m | 9.0m/s | 0°C | 0% | 0hPa | 2.7V | 00:00:00 | 01:15:23 | 00:00:00 | |
| OE3OSB-13 | 2026-08-30 23:49:27 | 49.45185 | 17.59811 | 90° | 71km/h | 14041m | 2.9m/s | -57.0°C | 3.9% | -1.0hPa | 2.7V | 00:00:00 | 00:00:00 | 00:00:00 | |
| PG1ADW-2 | 2026-08-30 23:49:21 | 49.45182 | 17.59645 | 89° | 75km/h | 13997m | 5.5m/s | -56.8°C | 7.6% | 0hPa | 2.7V | 00:00:00 | 01:15:14 | 00:00:00 | |
| DO3MHA-11 | 2026-08-30 23:49:20 | 49.45182 | 17.59617 | 91° | 73km/h | 13989m | 9.8m/s | 0°C | 0% | 0hPa | 2.7V | 00:00:00 | 01:15:13 | 00:00:00 | |
| DO3MHA-11 | 2026-08-30 23:49:10 | 49.45193 | 17.59330 | 89° | 78km/h | 13923m | 6.4m/s | 0°C | 0% | 0hPa | 2.7V | 00:00:00 | 01:15:03 | 00:00:00 | |
| POL1PZ | 2026-08-30 23:49:06 | 49.45193 | 17.59242 | 93° | 75km/h | 13905m | 7.2m/s | -56.7°C | 4.2% | 0hPa | 2.7V | 00:00:00 | 00:00:00 | 00:00:00 | |
| OE5DXL-15 | 2026-08-30 23:49:03 | 49.45197 | 17.59124 | 94° | 78km/h | 13874m | 5.8m/s | -56.7°C | 7.7% | 0hPa | 2.7V | 00:00:00 | 00:00:00 | 00:00:00 | |
| OE3OSB-13 | 2026-08-30 23:48:56 | 49.45187 | 17.58884 | 81° | 78km/h | 13825m | 3.2m/s | -56.5°C | 0% | -1.0hPa | 2.7V | 00:00:00 | 00:00:00 | 00:00:00 | |
| DO3MHA-11 | 2026-08-30 23:48:50 | 49.45176 | 17.58712 | 88° | 78km/h | 13781m | 11.9m/s | 0°C | 0% | 0hPa | 2.7V | 00:00:00 | 01:14:43 | 00:00:00 | |
| POL1PZ | 2026-08-30 23:48:46 | 49.45178 | 17.58589 | 95° | 82km/h | 13750m | 10.0m/s | -56.2°C | 4.2% | 0hPa | 2.7V | 00:00:00 | 00:00:00 | 00:00:00 | |
| OE5DRO-10 | 2026-08-30 23:48:43 | 49.45177 | 17.58498 | 85° | 73km/h | 13730m | 4.9m/s | -56.4°C | 7.9% | 0hPa | 2.7V | 00:00:00 | 00:00:00 | 00:00:00 | |
| PG1ADW-2 | 2026-08-30 23:48:41 | 49.45173 | 17.58441 | 83° | 75km/h | 13717m | 2.8m/s | -56.4°C | 8.1% | 0hPa | 2.7V | 00:00:00 | 00:00:00 | 00:00:00 | |
| OE5DXL-15 | 2026-08-30 23:48:33 | 49.45157 | 17.58216 | 89° | 73km/h | 13664m | 6.5m/s | -56.6°C | 8.3% | 0hPa | 2.7V | 00:00:00 | 00:00:00 | 00:00:00 | |
| OE3OSB-13 | 2026-08-30 23:48:25 | 49.45142 | 17.57995 | 83° | 82km/h | 13601m | 4.4m/s | -56.8°C | 4.7% | -1.0hPa | 2.7V | 00:00:00 | 00:00:00 | 00:00:00 | |
| OE5DRO-10 | 2026-08-30 23:48:24 | 49.45139 | 17.57962 | 84° | 75km/h | 13595m | 7.7m/s | -56.7°C | 8.5% | 0hPa | 2.7V | 00:00:00 | 00:00:00 | 00:00:00 | |
| PG1ADW-2 | 2026-08-30 23:48:21 | 49.45134 | 17.57869 | 88° | 73km/h | 13575m | 9.9m/s | -56.7°C | 8.6% | 0hPa | 2.7V | 00:00:00 | 00:00:00 | 08:30:00 | |
| OE5DRO-10 | 2026-08-30 23:48:05 | 49.45121 | 17.57414 | 88° | 68km/h | 13461m | 9.8m/s | -56.6°C | 8.5% | 0hPa | 2.7V | 00:00:00 | 00:00:00 | 00:00:00 | |
| POL1PZ | 2026-08-30 23:48:04 | 49.45121 | 17.57414 | 88° | 73km/h | 13461m | 9.9m/s | -56.6°C | 5.0% | 0hPa | 2.7V | 00:00:00 | 00:00:00 | 00:00:00 | |
| OE5DXL-15 | 2026-08-30 23:48:03 | 49.45118 | 17.57362 | 80° | 68km/h | 13447m | 1.7m/s | -56.6°C | 8.3% | 0hPa | 2.7V | 00:00:00 | 00:00:00 | 00:00:00 | |
| OE3OSB-13 | 2026-08-30 23:47:54 | 49.45097 | 17.57113 | 87° | 73km/h | 13372m | 8.2m/s | -56.4°C | 4.8% | -1.0hPa | 2.7V | 00:00:00 | 00:00:00 | 00:00:00 | |
| OE5DRO-10 | 2026-08-30 23:47:46 | 49.45091 | 17.56916 | 80° | 66km/h | 13319m | 8.3m/s | -56.4°C | 8.5% | 0hPa | 2.7V | 00:00:00 | 00:00:00 | 00:00:00 | |
| POL1PZ | 2026-08-30 23:47:44 | 49.45088 | 17.56891 | 82° | 62km/h | 13312m | 5.5m/s | -56.5°C | 5.1% | 0hPa | 2.7V | 00:00:00 | 00:00:00 | 00:00:00 | |
| PG1ADW-2 | 2026-08-30 23:47:41 | 49.45089 | 17.56797 | 97° | 69km/h | 13289m | 8.9m/s | -56.3°C | 8.4% | 0hPa | 2.7V | 00:00:00 | 00:00:00 | 00:00:00 | |
| OE5DXL-15 | 2026-08-30 23:47:33 | 49.45097 | 17.56589 | 91° | 73km/h | 13230m | 6.5m/s | -56.0°C | 8.8% | 0hPa | 2.7V | 00:00:00 | 00:00:00 | 00:00:00 | |
| OE5DRO-10 | 2026-08-30 23:47:27 | 49.45104 | 17.56435 | 103° | 75km/h | 13200m | 4.9m/s | -55.9°C | 9.2% | 0hPa | 2.7V | 00:00:00 | 00:00:00 | 00:00:00 | |
| POL1PZ | 2026-08-30 23:47:24 | 49.45110 | 17.56382 | 96° | 73km/h | 13189m | 6.9m/s | -55.8°C | 5.4% | 0hPa | 2.7V | 00:00:00 | 00:00:00 | 00:00:00 | |
| OE3OSB-13 | 2026-08-30 23:47:23 | 49.45106 | 17.56295 | 79° | 71km/h | 13168m | 6.9m/s | -55.7°C | 5.1% | -1.0hPa | 2.7V | 00:00:00 | 00:00:00 | 00:00:00 | |
| PG1ADW-2 | 2026-08-30 23:47:21 | 49.45102 | 17.56268 | 81° | 75km/h | 13162m | 3.8m/s | -55.6°C | 8.8% | 0hPa | 2.7V | 00:00:00 | 00:00:00 | 00:00:00 | |
| OE3JTB-15 | 2026-08-30 23:47:20 | 49.45099 | 17.56240 | 82° | 88km/h | 13158m | 5.3m/s | -55.5°C | 8.7% | 0hPa | 2.7V | 00:00:00 | 00:00:00 | 00:00:00 | |
| OE5DRO-10 | 2026-08-30 23:47:08 | 49.45128 | 17.55884 | 92° | 80km/h | 13070m | 6.0m/s | -55.5°C | 9.5% | 0hPa | 2.7V | 00:00:00 | 00:00:00 | 00:00:00 | |
| POL1PZ | 2026-08-30 23:47:04 | 49.45132 | 17.55804 | 98° | 66km/h | 13057m | 3.8m/s | -55.6°C | 6.0% | 0hPa | 2.7V | 00:00:00 | 00:00:00 | 00:00:00 | |
| OE5DXL-15 | 2026-08-30 23:47:03 | 49.45137 | 17.55750 | 100° | 89km/h | 13046m | 5.0m/s | -55.6°C | 9.4% | 0hPa | 2.7V | 00:00:00 | 00:00:00 | 08:30:00 | |
| OE3OSB-13 | 2026-08-30 23:46:52 | 49.45180 | 17.55366 | 94° | 88km/h | 12962m | 6.1m/s | -55.8°C | 6.6% | -1.0hPa | 2.7V | 00:00:00 | 00:00:00 | 00:00:00 | |
| OE5DRO-10 | 2026-08-30 23:46:49 | 49.45184 | 17.55293 | 96° | 93km/h | 12951m | 5.2m/s | -55.8°C | 10.9% | 0hPa | 2.7V | 00:00:00 | 00:00:00 | 00:00:00 | |
| POL1PZ | 2026-08-30 23:46:43 | 49.45198 | 17.55119 | 99° | 80km/h | 12925m | 6.7m/s | -55.9°C | 7.0% | 0hPa | 2.7V | 00:00:00 | 00:00:00 | 00:00:00 | |
| PG1ADW-2 | 2026-08-30 23:46:41 | 49.45206 | 17.55023 | 100° | 99km/h | 12900m | 8.9m/s | -55.9°C | 11.0% | 0hPa | 2.7V | 00:00:00 | 01:12:34 | 00:00:00 | |
| OE5DXL-15 | 2026-08-30 23:46:33 | 49.45243 | 17.54727 | 102° | 102km/h | 12848m | 5.9m/s | -56.1°C | 11.9% | 0hPa | 2.7V | 00:00:00 | 00:00:00 | 00:00:00 | |
| OE5DRO-10 | 2026-08-30 23:46:30 | 49.45262 | 17.54619 | 109° | 104km/h | 12831m | 5.3m/s | -56.0°C | 12.2% | 0hPa | 2.7V | 00:00:00 | 00:00:00 | 08:30:00 | |
| POL1PZ | 2026-08-30 23:46:22 | 49.45309 | 17.54358 | 101° | 106km/h | 12795m | 6.2m/s | -56.0°C | 9.1% | 0hPa | 2.7V | 00:00:00 | 00:00:00 | 00:00:00 | |
| OE3OSB-13 | 2026-08-30 23:46:21 | 49.45319 | 17.54235 | 95° | 106km/h | 12778m | 5.3m/s | -56.1°C | 9.2% | -1.0hPa | 2.7V | 00:00:00 | 00:00:00 | 00:00:00 | |
| OE5DRO-10 | 2026-08-30 23:46:11 | 49.45381 | 17.53872 | 102° | 106km/h | 12713m | 5.5m/s | -56.2°C | 16.0% | 0hPa | 2.7V | 00:00:00 | 00:00:00 | 00:00:00 | |
| OE5DXL-15 | 2026-08-30 23:46:03 | 49.45422 | 17.53582 | 105° | 117km/h | 12656m | 6.7m/s | -56.6°C | 18.5% | 0hPa | 2.7V | 00:00:00 | 00:00:00 | 00:00:00 | |
| OE3OSB-13 | 2026-08-30 23:45:50 | 49.45490 | 17.52962 | 97° | 120km/h | 12544m | 9.0m/s | -56.9°C | 17.2% | -1.0hPa | 2.7V | 00:00:00 | 00:00:00 | 00:00:00 | |
| PG1ADW-2 | 2026-08-30 23:45:41 | 49.45515 | 17.52560 | 102° | 111km/h | 12485m | 7.5m/s | -57.0°C | 27.7% | 0hPa | 2.7V | 00:00:00 | 00:00:00 | 00:00:00 | |
| POL1PZ | 2026-08-30 23:45:34 | 49.45544 | 17.52335 | 103° | 119km/h | 12447m | 7.9m/s | -57.3°C | 25.3% | 0hPa | 2.7V | 00:00:00 | 00:00:00 | 00:00:00 | |
| OE5DXL-15 | 2026-08-30 23:45:33 | 49.45556 | 17.52250 | 102° | 106km/h | 12434m | 6.2m/s | -57.3°C | 33.6% | 0hPa | 2.7V | 00:00:00 | 00:00:00 | 00:00:00 | |
| S52SK | 2026-08-30 23:45:29 | 49.45572 | 17.52133 | 107° | 102km/h | 12415m | 6.6m/s | -57.4°C | 0% | 0hPa | 2.7V | 00:00:00 | 00:00:00 | 00:00:00 | |
| S52SK | 2026-08-30 23:45:23 | 49.45621 | 17.51884 | 99° | 110km/h | 12377m | 6.6m/s | -57.4°C | 0% | 0hPa | 2.7V | 00:00:00 | 00:00:00 | 00:00:00 | |
| PG1ADW-2 | 2026-08-30 23:45:21 | 49.45629 | 17.51761 | 97° | 104km/h | 12353m | 9.5m/s | -57.4°C | 36.9% | 0hPa | 2.7V | 00:00:00 | 01:11:14 | 08:30:00 | |
| OE3OSB-13 | 2026-08-30 23:45:19 | 49.45646 | 17.51646 | 107° | 100km/h | 12327m | 7.5m/s | -57.4°C | 29.7% | -1.0hPa | 2.9V | 00:00:00 | 00:00:00 | 00:00:00 | |
| OE5DRO-10 | 2026-08-30 23:45:14 | 49.45674 | 17.51487 | 102° | 102km/h | 12297m | 9.5m/s | -57.5°C | 39.0% | 0hPa | 2.9V | 00:00:00 | 00:00:00 | 00:00:00 | |
| POL1PZ | 2026-08-30 23:45:13 | 49.45674 | 17.51487 | 103° | 108km/h | 12297m | 9.5m/s | -57.5°C | 31.2% | 0hPa | 2.9V | 00:00:00 | 00:00:00 | 00:00:00 | |
| OE3OSB-13 | 2026-08-30 23:44:48 | 49.45860 | 17.50444 | 108° | 102km/h | 12094m | 8.3m/s | -57.0°C | 38.0% | -1.0hPa | 2.9V | 00:00:00 | 00:00:00 | 00:00:00 | |
| PG1ADW-2 | 2026-08-30 23:44:41 | 49.45895 | 17.50203 | 101° | 115km/h | 12059m | 8.8m/s | -56.8°C | 46.2% | 0hPa | 2.9V | 00:00:00 | 00:00:00 | 00:00:00 | |
| OE5DRO-10 | 2026-08-30 23:44:36 | 49.45932 | 17.49987 | 108° | 113km/h | 12017m | 8.3m/s | -56.5°C | 44.5% | 0hPa | 2.9V | 00:00:00 | 00:00:00 | 00:00:00 | |
| OE5DXL-15 | 2026-08-30 23:44:33 | 49.45959 | 17.49860 | 110° | 115km/h | 11993m | 8.2m/s | -56.3°C | 44.0% | 0hPa | 2.9V | 00:00:00 | 00:00:00 | 00:00:00 | |
| POL1PZ | 2026-08-30 23:44:31 | 49.45969 | 17.49816 | 111° | 124km/h | 11986m | 6.8m/s | -56.3°C | 35.8% | 0hPa | 2.9V | 00:00:00 | 00:00:00 | 00:00:00 | |
| PG1ADW-2 | 2026-08-30 23:44:21 | 49.46069 | 17.49359 | 110° | 113km/h | 11912m | 8.6m/s | -56.0°C | 43.2% | 0hPa | 2.9V | 00:00:00 | 00:00:00 | 00:00:00 | |
| OE5DRO-10 | 2026-08-30 23:44:17 | 49.46106 | 17.49192 | 105° | 111km/h | 11885m | 7.4m/s | -55.8°C | 42.1% | 0hPa | 2.7V | 00:00:00 | 00:00:00 | 00:00:00 | |
| OE3OSB-13 | 2026-08-30 23:44:16 | 49.46114 | 17.49144 | 103° | 130km/h | 11878m | 6.5m/s | -55.8°C | 34.2% | -1.0hPa | 2.7V | 00:00:00 | 00:00:00 | 00:00:00 | |
| POL1PZ | 2026-08-30 23:44:10 | 49.46151 | 17.48921 | 107° | 102km/h | 11851m | 5.9m/s | -55.7°C | 36.0% | 0hPa | 2.7V | 00:00:00 | 00:00:00 | 00:00:00 | |
| OE5DXL-15 | 2026-08-30 23:44:03 | 49.46195 | 17.48585 | 103° | 104km/h | 11783m | 8.2m/s | -55.3°C | 42.9% | 0hPa | 2.7V | 00:00:00 | 00:00:00 | 00:00:00 | |
| OE3OSB-13 | 2026-08-30 23:43:45 | 49.46284 | 17.47856 | 97° | 88km/h | 11659m | 7.5m/s | -54.8°C | 45.6% | -1.0hPa | 2.7V | 00:00:00 | 00:00:00 | 00:00:00 | |
| PG1ADW-2 | 2026-08-30 23:43:41 | 49.46303 | 17.47723 | 105° | 108km/h | 11635m | 6.7m/s | -54.8°C | 58.6% | 0hPa | 2.7V | 00:00:00 | 00:00:00 | 00:00:00 | |
| OE5DRO-10 | 2026-08-30 23:43:39 | 49.46314 | 17.47648 | 104° | 108km/h | 11622m | 9.7m/s | -54.7°C | 58.1% | 0hPa | 2.7V | 00:00:00 | 00:00:00 | 08:30:00 | |
| OE5DXL-15 | 2026-08-30 23:43:33 | 49.46350 | 17.47402 | 97° | 108km/h | 11580m | 8.6m/s | -54.4°C | 60.3% | 0hPa | 2.7V | 00:00:00 | 00:00:00 | 00:00:00 | |
| POL1PZ | 2026-08-30 23:43:29 | 49.46354 | 17.47235 | 96° | 110km/h | 11546m | 9.1m/s | -54.2°C | 51.0% | 0hPa | 2.7V | 00:00:00 | 00:00:00 | 00:00:00 | |
| PG1ADW-2 | 2026-08-30 23:43:21 | 49.46382 | 17.46901 | 91° | 110km/h | 11490m | 6.8m/s | -53.6°C | 59.0% | 0hPa | 2.7V | 00:00:00 | 00:00:00 | 00:00:00 | |
| OE5DRO-10 | 2026-08-30 23:43:20 | 49.46381 | 17.46856 | 86° | 110km/h | 11484m | 4.9m/s | -53.6°C | 58.5% | 0hPa | 2.9V | 00:00:00 | 00:00:00 | 00:00:00 | |
| OE3OSB-13 | 2026-08-30 23:43:15 | 49.46370 | 17.46622 | 91° | 97km/h | 11437m | 9.6m/s | -53.3°C | 46.7% | -1.0hPa | 2.9V | 00:00:00 | 00:00:00 | 00:00:00 | |
| POL1PZ | 2026-08-30 23:43:04 | 49.46373 | 17.46240 | 93° | 122km/h | 11368m | 4.7m/s | -53.0°C | 50.7% | 0hPa | 2.9V | 00:00:00 | 00:00:00 | 00:00:00 | |
| OE5DXL-15 | 2026-08-30 23:43:03 | 49.46373 | 17.46145 | 89° | 111km/h | 11357m | 6.9m/s | -52.9°C | 60.6% | 0hPa | 2.9V | 00:00:00 | 00:00:00 | 00:00:00 | |
| PG1ADW-2 | 2026-08-30 23:43:01 | 49.46369 | 17.46056 | 87° | 108km/h | 11346m | 5.0m/s | -52.8°C | 63.3% | 0hPa | 2.9V | 00:00:00 | 00:00:00 | 00:00:00 | |
| OE3OSB-13 | 2026-08-30 23:42:43 | 49.46422 | 17.45307 | 101° | 111km/h | 11213m | 5.2m/s | -52.0°C | 56.4% | -1.0hPa | 2.9V | 00:00:00 | 00:00:00 | 00:00:00 | |
| OE5DRO-10 | 2026-08-30 23:42:42 | 49.46427 | 17.45265 | 99° | 119km/h | 11207m | 6.2m/s | -51.9°C | 66.7% | 0hPa | 2.9V | 00:00:00 | 00:00:00 | 00:00:00 | |
| PG1ADW-2 | 2026-08-30 23:42:41 | 49.46430 | 17.45222 | 95° | 119km/h | 11202m | 5.2m/s | -51.9°C | 66.6% | 0hPa | 2.7V | 00:00:00 | 01:08:34 | 00:00:00 | |
| S52SK | 2026-08-30 23:42:34 | 49.46437 | 17.44947 | 100° | 122km/h | 11162m | 5.6m/s | -51.8°C | 0% | 0hPa | 2.7V | 00:00:00 | 00:00:00 | 00:00:00 | |
| OE5DXL-15 | 2026-08-30 23:42:33 | 49.46447 | 17.44852 | 99° | 106km/h | 11146m | 10.0m/s | -51.7°C | 74.2% | 0hPa | 2.7V | 00:00:00 | 00:00:00 | 08:30:00 | |
| OE5DRO-10 | 2026-08-30 23:42:23 | 49.46463 | 17.44394 | 92° | 100km/h | 11078m | 4.8m/s | -51.8°C | 79.9% | 0hPa | 2.9V | 00:00:00 | 00:00:00 | 00:00:00 | |
| PG1ADW-2 | 2026-08-30 23:42:21 | 49.46472 | 17.44264 | 102° | 99km/h | 11060m | 8.1m/s | -51.8°C | 76.3% | 0hPa | 2.9V | 00:00:00 | 00:00:00 | 08:30:00 | |
| OE3OSB-13 | 2026-08-30 23:42:12 | 49.46506 | 17.43957 | 97° | 97km/h | 10995m | 10.4m/s | -51.4°C | 60.1% | -1.0hPa | 2.9V | 00:00:00 | 00:00:00 | 00:00:00 | |
| POL1PZ | 2026-08-30 23:42:08 | 49.46513 | 17.43847 | 95° | 95km/h | 10971m | 6.7m/s | -51.3°C | 61.4% | 0hPa | 2.9V | 00:00:00 | 00:00:00 | 00:00:00 | |
| OE5DRO-10 | 2026-08-30 23:42:04 | 49.46531 | 17.43665 | 104° | 100km/h | 10942m | 6.7m/s | -50.9°C | 71.7% | 0hPa | 2.9V | 00:00:00 | 00:00:00 | 00:00:00 | |
| OE5DXL-15 | 2026-08-30 23:42:03 | 49.46536 | 17.43627 | 101° | 99km/h | 10936m | 5.1m/s | -50.9°C | 72.5% | 0hPa | 2.9V | 00:00:00 | 00:00:00 | 00:00:00 | |
| PG1ADW-2 | 2026-08-30 23:42:01 | 49.46543 | 17.43549 | 95° | 100km/h | 10924m | 6.4m/s | -50.8°C | 70.7% | 0hPa | 2.9V | 00:00:00 | 00:00:00 | 00:00:00 | |
| POL1PZ | 2026-08-30 23:41:47 | 49.46592 | 17.43065 | 103° | 111km/h | 10828m | 3.7m/s | -50.0°C | 62.9% | 0hPa | 2.9V | 00:00:00 | 00:00:00 | 00:00:00 | |
| OE5DRO-10 | 2026-08-30 23:41:45 | 49.46603 | 17.42937 | 92° | 93km/h | 10809m | 6.8m/s | -49.7°C | 70.8% | 0hPa | 2.9V | 00:00:00 | 00:00:00 | 00:00:00 | |
| PG1ADW-2 | 2026-08-30 23:41:41 | 49.46599 | 17.42784 | 92° | 91km/h | 10783m | 7.3m/s | -49.5°C | 72.5% | 0hPa | 2.9V | 00:00:00 | 00:00:00 | 00:00:00 | |
| OE5DXL-15 | 2026-08-30 23:41:33 | 49.46619 | 17.42499 | 94° | 95km/h | 10727m | 5.7m/s | -49.0°C | 77.0% | 0hPa | 2.9V | 00:00:00 | 00:00:00 | 00:00:00 | |
| OE5DRO-10 | 2026-08-30 23:41:27 | 49.46624 | 17.42256 | 91° | 93km/h | 10681m | 4.7m/s | -48.6°C | 77.9% | 0hPa | 2.9V | 00:00:00 | 00:00:00 | 00:00:00 | |
| PG1ADW-2 | 2026-08-30 23:41:21 | 49.46630 | 17.42070 | 99° | 95km/h | 10648m | 9.0m/s | -48.3°C | 76.8% | 0hPa | 2.9V | 00:00:00 | 01:07:14 | 00:00:00 | |
| OE3OSB-13 | 2026-08-30 23:41:10 | 49.46672 | 17.41682 | 83° | 89km/h | 10570m | 5.2m/s | -47.6°C | 68.8% | -1.0hPa | 2.9V | 00:00:00 | 00:00:00 | 00:00:00 | |
| OE5DRO-10 | 2026-08-30 23:41:07 | 49.46673 | 17.41570 | 99° | 93km/h | 10551m | 4.4m/s | -47.4°C | 76.0% | 0hPa | 2.9V | 00:00:00 | 00:00:00 | 00:00:00 | |
| POL1PZ | 2026-08-30 23:41:06 | 49.46673 | 17.41570 | 100° | 102km/h | 10551m | 4.5m/s | -47.5°C | 67.5% | 0hPa | 2.9V | 00:00:00 | 00:00:00 | 00:00:00 | |
| OE5DXL-15 | 2026-08-30 23:41:03 | 49.46699 | 17.41417 | 107° | 89km/h | 10530m | 3.1m/s | -47.2°C | 77.2% | 0hPa | 2.9V | 00:00:00 | 00:00:00 | 00:00:00 | |
| PG1ADW-2 | 2026-08-30 23:41:01 | 49.46710 | 17.41351 | 101° | 89km/h | 10520m | 6.5m/s | -47.1°C | 76.6% | 0hPa | 2.9V | 00:00:00 | 00:00:00 | 00:00:00 | |
| OE5DRO-10 | 2026-08-30 23:40:48 | 49.46718 | 17.40895 | 93° | 89km/h | 10431m | 8.1m/s | -46.3°C | 74.7% | 0hPa | 2.9V | 00:00:00 | 00:00:00 | 08:30:00 | |
| POL1PZ | 2026-08-30 23:40:47 | 49.46720 | 17.40862 | 97° | 86km/h | 10423m | 7.4m/s | -46.3°C | 67.1% | 0hPa | 2.7V | 00:00:00 | 00:00:00 | 00:00:00 | |
| PG1ADW-2 | 2026-08-30 23:40:41 | 49.46729 | 17.40658 | 96° | 89km/h | 10379m | 6.8m/s | -45.8°C | 75.0% | 0hPa | 2.7V | 00:00:00 | 00:00:00 | 00:00:00 | |
| OE3OSB-13 | 2026-08-30 23:40:39 | 49.46734 | 17.40596 | 98° | 86km/h | 10365m | 6.8m/s | -45.7°C | 67.1% | -1.0hPa | 2.7V | 00:00:00 | 00:00:00 | 00:00:00 | |
| OE3JTB-15 | 2026-08-30 23:40:34 | 49.46738 | 17.40412 | 91° | 86km/h | 10328m | 8.4m/s | -45.4°C | 75.6% | 0hPa | 2.7V | 00:00:00 | 00:00:00 | 00:00:00 | |
| OE5DXL-15 | 2026-08-30 23:40:33 | 49.46739 | 17.40376 | 95° | 88km/h | 10320m | 7.8m/s | -45.3°C | 75.6% | 0hPa | 2.9V | 00:00:00 | 00:00:00 | 00:00:00 | |
| OE5DRO-10 | 2026-08-30 23:40:29 | 49.46749 | 17.40235 | 95° | 89km/h | 10290m | 8.1m/s | -45.0°C | 74.2% | 0hPa | 2.9V | 00:00:00 | 00:00:00 | 00:00:00 | |
| POL1PZ | 2026-08-30 23:40:24 | 49.46756 | 17.40113 | 101° | 84km/h | 10259m | 7.8m/s | -44.8°C | 66.0% | 0hPa | 2.9V | 00:00:00 | 00:00:00 | 00:00:00 | |
| PG1ADW-2 | 2026-08-30 23:40:21 | 49.46772 | 17.39963 | 100° | 88km/h | 10238m | 4.5m/s | 0°C | 0% | 0hPa | 2.9V | 00:00:00 | 00:00:00 | 00:00:00 | |
| OE5DRO-10 | 2026-08-30 23:40:10 | 49.46797 | 17.39581 | 86° | 80km/h | 10164m | 8.7m/s | -43.9°C | 72.9% | 0hPa | 2.9V | 00:00:00 | 00:00:00 | 00:00:00 | |
| OE3OSB-13 | 2026-08-30 23:40:08 | 49.46795 | 17.39527 | 90° | 64km/h | 10150m | 5.9m/s | -43.8°C | 66.1% | -1.0hPa | 2.9V | 00:00:00 | 00:00:00 | 00:00:00 | |
| POL1PZ | 2026-08-30 23:40:04 | 49.46797 | 17.39440 | 91° | 88km/h | 10128m | 8.0m/s | -43.6°C | 66.1% | 0hPa | 2.9V | 00:00:00 | 00:00:00 | 00:00:00 | |
| OE5DXL-15 | 2026-08-30 23:40:03 | 49.46795 | 17.39367 | 87° | 84km/h | 10112m | 5.8m/s | -43.5°C | 74.0% | 0hPa | 2.9V | 00:00:00 | 00:00:00 | 00:00:00 | |
| PG1ADW-2 | 2026-08-30 23:40:01 | 49.46792 | 17.39295 | 87° | 80km/h | 10099m | 8.9m/s | 0°C | 0% | 0hPa | 2.9V | 00:00:00 | 01:05:54 | 00:00:00 | |
| OE5DRO-10 | 2026-08-30 23:39:51 | 49.46797 | 17.38995 | 89° | 86km/h | 10022m | 6.1m/s | -42.7°C | 72.9% | 0hPa | 2.9V | 00:00:00 | 00:00:00 | 00:00:00 | |
| POL1PZ | 2026-08-30 23:39:43 | 49.46791 | 17.38762 | 96° | 69km/h | 9980m | 5.4m/s | -42.4°C | 64.9% | 0hPa | 2.7V | 00:00:00 | 00:00:00 | 00:00:00 | |
| PG1ADW-2 | 2026-08-30 23:39:41 | 49.46798 | 17.38675 | 96° | 88km/h | 9961m | 6.6m/s | 0°C | 0% | 0hPa | 2.7V | 00:00:00 | 00:00:00 | 00:00:00 | |
| OE3OSB-13 | 2026-08-30 23:39:37 | 49.46798 | 17.38498 | 94° | 86km/h | 9927m | 5.7m/s | -42.0°C | 64.6% | -1.0hPa | 2.7V | 00:00:00 | 00:00:00 | 00:00:00 | |
| OE5DXL-15 | 2026-08-30 23:39:33 | 49.46809 | 17.38398 | 102° | 80km/h | 9905m | 8.9m/s | -41.7°C | 71.4% | 0hPa | 2.7V | 00:00:00 | 00:00:00 | 00:00:00 | |
| OE5DRO-10 | 2026-08-30 23:39:32 | 49.46814 | 17.38365 | 101° | 82km/h | 9896m | 8.5m/s | -41.7°C | 72.1% | 0hPa | 2.9V | 00:00:00 | 00:00:00 | 00:00:00 | |
| POL1PZ | 2026-08-30 23:39:23 | 49.46832 | 17.38108 | 97° | 71km/h | 9837m | 6.8m/s | -41.2°C | 64.6% | 0hPa | 2.9V | 00:00:00 | 00:00:00 | 00:00:00 | |
| PG1ADW-2 | 2026-08-30 23:39:21 | 49.46841 | 17.38021 | 98° | 78km/h | 9818m | 7.4m/s | 0°C | 0% | 0hPa | 2.9V | 00:00:00 | 00:00:00 | 00:00:00 | |
| OE5DRO-10 | 2026-08-30 23:39:13 | 49.46868 | 17.37768 | 100° | 82km/h | 9758m | 6.6m/s | -40.5°C | 71.4% | 0hPa | 2.9V | 00:00:00 | 00:00:00 | 00:00:00 | |
| OE3JTB-15 | 2026-08-30 23:39:09 | 49.46886 | 17.37651 | 111° | 86km/h | 9726m | 7.3m/s | -40.2°C | 68.9% | 0hPa | 2.9V | 00:00:00 | 01:05:02 | 00:00:00 | |
| OE3OSB-13 | 2026-08-30 23:39:06 | 49.46902 | 17.37536 | 90° | 80km/h | 9701m | 6.8m/s | -40.1°C | 64.0% | -1.0hPa | 2.9V | 00:00:00 | 00:00:00 | 00:00:00 | |
| POL1PZ | 2026-08-30 23:39:03 | 49.46901 | 17.37469 | 91° | 89km/h | 9687m | 7.9m/s | -40.0°C | 65.0% | 0hPa | 2.9V | 00:00:00 | 00:00:00 | 00:00:00 | |
| OE5DRO-10 | 2026-08-30 23:38:54 | 49.46933 | 17.37170 | 102° | 84km/h | 9625m | 5.4m/s | -39.5°C | 70.1% | 0hPa | 2.9V | 00:00:00 | 00:00:00 | 00:00:00 | |
| POL1PZ | 2026-08-30 23:38:43 | 49.46945 | 17.36823 | 93° | 84km/h | 9548m | 6.1m/s | -38.9°C | 63.0% | 0hPa | 2.9V | 00:00:00 | 00:00:00 | 00:00:00 | |
| S52SK | 2026-08-30 23:38:41 | 49.46946 | 17.36791 | 96° | 80km/h | 9542m | 5.5m/s | -38.8°C | 0% | 0hPa | 2.9V | 00:00:00 | 00:00:00 | 00:00:00 | |
| OE3JTB-15 | 2026-08-30 23:38:40 | 49.46951 | 17.36728 | 100° | 86km/h | 9527m | 8.7m/s | -38.6°C | 67.2% | 0hPa | 2.9V | 00:00:00 | 00:00:00 | 00:00:00 | |
| S52SK | 2026-08-30 23:38:36 | 49.46959 | 17.36624 | 93° | 91km/h | 9507m | 6.7m/s | -38.5°C | 0% | 0hPa | 2.7V | 00:00:00 | 00:00:00 | 00:00:00 | |
| OE3OSB-13 | 2026-08-30 23:38:35 | 49.46960 | 17.36527 | 93° | 77km/h | 9486m | 6.4m/s | -38.3°C | 60.7% | -1.0hPa | 2.7V | 00:00:00 | 00:00:00 | 00:00:00 | |
| OE5DXL-15 | 2026-08-30 23:38:33 | 49.46962 | 17.36496 | 97° | 84km/h | 9479m | 7.3m/s | 0°C | 0% | 0hPa | 2.7V | 00:00:00 | 01:04:26 | 00:00:00 | |
| S52SK | 2026-08-30 23:38:31 | 49.46966 | 17.36431 | 95° | 89km/h | 9464m | 6.6m/s | -38.1°C | 0% | 0hPa | 2.7V | 00:00:00 | 00:00:00 | 00:00:00 | |
| POL1PZ | 2026-08-30 23:38:22 | 49.46979 | 17.36161 | 91° | 88km/h | 9409m | 5.7m/s | -37.7°C | 61.8% | 0hPa | 2.7V | 00:00:00 | 00:00:00 | 00:00:00 | |
| OE5DRO-10 | 2026-08-30 23:38:16 | 49.46986 | 17.35942 | 91° | 82km/h | 9360m | 6.2m/s | -37.3°C | 65.3% | 0hPa | 2.7V | 00:00:00 | 00:00:00 | 00:00:00 | |
| OE3JTB-15 | 2026-08-30 23:38:10 | 49.46992 | 17.35745 | 93° | 84km/h | 9317m | 7.7m/s | -36.9°C | 67.5% | 0hPa | 2.7V | 00:00:00 | 00:00:00 | 00:00:00 | |
| OE5DXL-15 | 2026-08-30 23:38:03 | 49.47002 | 17.35522 | 91° | 80km/h | 9268m | 7.1m/s | 0°C | 0% | 0hPa | 2.7V | 00:00:00 | 00:00:00 | 00:00:00 | |
| POL1PZ | 2026-08-30 23:38:02 | 49.47001 | 17.35522 | 91° | 88km/h | 9268m | 7.2m/s | -36.7°C | 0% | 0hPa | 2.7V | 00:00:00 | 00:00:00 | 00:00:00 | |
| OE5DRO-10 | 2026-08-30 23:37:57 | 49.47007 | 17.35337 | 99° | 84km/h | 9227m | 7.1m/s | -36.3°C | 67.1% | 0hPa | 2.7V | 00:00:00 | 00:00:00 | 08:30:00 | |
| POL1PZ | 2026-08-30 23:37:41 | 49.47029 | 17.34857 | 96° | 84km/h | 9123m | 4.5m/s | 0°C | 0% | 0hPa | 2.9V | 00:00:00 | 00:00:00 | 00:00:00 | |
| OE5DRO-10 | 2026-08-30 23:37:38 | 49.47029 | 17.34726 | 86° | 84km/h | 9096m | 5.0m/s | -35.5°C | 73.8% | 0hPa | 2.9V | 00:00:00 | 00:00:00 | 00:00:00 | |
| OE3OSB-13 | 2026-08-30 23:37:32 | 49.47045 | 17.34526 | 102° | 88km/h | 9055m | 5.5m/s | -35.1°C | 65.1% | -1.0hPa | 2.9V | 00:00:00 | 00:00:00 | 00:00:00 | |
| OE3JTB-15 | 2026-08-30 23:37:23 | 49.47055 | 17.34244 | 93° | 82km/h | 8998m | 8.5m/s | -34.6°C | 72.8% | 0hPa | 2.9V | 00:00:00 | 01:03:16 | 00:00:00 | |
| POL1PZ | 2026-08-30 23:37:20 | 49.47061 | 17.34181 | 101° | 82km/h | 8986m | 6.0m/s | 0°C | 0% | 0hPa | 2.9V | 00:00:00 | 00:00:00 | 00:00:00 | |
| OE5DRO-10 | 2026-08-30 23:37:19 | 49.47067 | 17.34116 | 96° | 82km/h | 8970m | 8.1m/s | -34.3°C | 72.6% | 0hPa | 2.9V | 00:00:00 | 00:00:00 | 00:00:00 | |
| S52SK | 2026-08-30 23:37:09 | 49.47082 | 17.33804 | 92° | 75km/h | 8903m | 7.0m/s | -33.8°C | 0% | 0hPa | 2.9V | 00:00:00 | 00:00:00 | 00:00:00 | |
| S52SK | 2026-08-30 23:37:02 | 49.47083 | 17.33610 | 93° | 80km/h | 8858m | 5.9m/s | 0°C | 0% | 0hPa | 2.9V | 00:00:00 | 00:00:00 | 00:00:00 | |
| OE3OSB-13 | 2026-08-30 23:37:01 | 49.47087 | 17.33547 | 97° | 82km/h | 8846m | 8.2m/s | -33.3°C | 74.4% | -1.0hPa | 2.9V | 00:00:00 | 00:00:00 | 00:00:00 | |
| OE5DRO-10 | 2026-08-30 23:37:00 | 49.47090 | 17.33514 | 98° | 78km/h | 8838m | 8.0m/s | -33.2°C | 80.1% | 0hPa | 2.9V | 00:00:00 | 00:00:00 | 00:00:00 | |
| S52SK | 2026-08-30 23:36:55 | 49.47099 | 17.33392 | 98° | 75km/h | 8809m | 8.4m/s | 0°C | 0% | 0hPa | 2.9V | 00:00:00 | 00:00:00 | 00:00:00 | |
| OE3JTB-15 | 2026-08-30 23:36:54 | 49.47101 | 17.33333 | 92° | 80km/h | 8794m | 4.1m/s | -32.9°C | 81.4% | 0hPa | 2.9V | 00:00:00 | 00:00:00 | 08:30:00 | |
| OE5DRO-10 | 2026-08-30 23:36:41 | 49.47129 | 17.32934 | 101° | 80km/h | 8708m | 5.2m/s | -32.2°C | 82.9% | 0hPa | 2.9V | 00:00:00 | 00:00:00 | 00:00:00 | |
| OE3OSB-13 | 2026-08-30 23:36:30 | 49.47154 | 17.32600 | 99° | 77km/h | 8636m | 5.8m/s | -31.8°C | 77.6% | -1.0hPa | 2.9V | 00:00:00 | 00:00:00 | 00:00:00 | |
| OE3JTB-15 | 2026-08-30 23:36:23 | 49.47168 | 17.32381 | 88° | 77km/h | 8589m | 4.8m/s | -31.4°C | 82.8% | 0hPa | 2.9V | 00:00:00 | 00:00:00 | 00:00:00 | |
| OE5DRO-10 | 2026-08-30 23:36:22 | 49.47167 | 17.32350 | 87° | 75km/h | 8583m | 7.2m/s | -31.3°C | 81.9% | 0hPa | 2.9V | 00:00:00 | 00:00:00 | 00:00:00 | |
| OE5DRO-10 | 2026-08-30 23:36:03 | 49.47178 | 17.31802 | 91° | 75km/h | 8455m | 6.5m/s | -30.3°C | 83.1% | 0hPa | 2.9V | 00:00:00 | 00:00:00 | 00:00:00 | |
| OE3OSB-13 | 2026-08-30 23:35:59 | 49.47178 | 17.31667 | 93° | 75km/h | 8429m | 7.2m/s | -30.2°C | 79.3% | -1.0hPa | 2.9V | 00:00:00 | 00:00:00 | 00:00:00 | |
| OE3JTB-15 | 2026-08-30 23:35:51 | 49.47180 | 17.31448 | 90° | 71km/h | 8379m | 8.8m/s | -29.8°C | 84.4% | 0hPa | 2.9V | 00:00:00 | 01:01:44 | 00:00:00 | |
| OE5DRO-10 | 2026-08-30 23:35:44 | 49.47184 | 17.31255 | 86° | 73km/h | 8332m | 6.4m/s | 0°C | 0% | 0hPa | 2.9V | 00:00:00 | 00:00:00 | 00:00:00 | |
| OE3OSB-13 | 2026-08-30 23:35:28 | 49.47174 | 17.30801 | 87° | 73km/h | 8223m | 7.2m/s | -29.4°C | 74.4% | -1.0hPa | 2.9V | 00:00:00 | 00:00:00 | 00:00:00 | |
| OE5DRO-10 | 2026-08-30 23:35:25 | 49.47169 | 17.30713 | 82° | 68km/h | 8203m | 6.7m/s | 0°C | 0% | 0hPa | 2.9V | 00:00:00 | 00:00:00 | 00:00:00 | |
| OE3JTB-15 | 2026-08-30 23:35:14 | 49.47155 | 17.30431 | 83° | 66km/h | 8127m | 6.7m/s | -28.8°C | 66.7% | 0hPa | 2.9V | 00:00:00 | 00:00:00 | 00:00:00 | |
| OE5DRO-10 | 2026-08-30 23:35:06 | 49.47142 | 17.30219 | 85° | 69km/h | 8073m | 4.8m/s | 0°C | 0% | 0hPa | 3.0V | 00:00:00 | 00:00:00 | 00:00:00 | |
| OE3OSB-13 | 2026-08-30 23:34:57 | 49.47128 | 17.29971 | 79° | 69km/h | 8012m | 6.5m/s | -27.9°C | 53.1% | -1.0hPa | 3.0V | 00:00:00 | 00:00:00 | 00:00:00 | |
| OE3JTB-15 | 2026-08-30 23:34:43 | 49.47096 | 17.29610 | 81° | 68km/h | 7921m | 6.9m/s | -27.0°C | 50.7% | 0hPa | 3.0V | 00:00:00 | 00:00:00 | 00:00:00 | |
| OE3OSB-13 | 2026-08-30 23:34:27 | 49.47072 | 17.29174 | 92° | 66km/h | 7802m | 6.9m/s | -25.9°C | 30.5% | -1.0hPa | 3.0V | 00:00:00 | 00:00:00 | 00:00:00 | |
| OE3JTB-15 | 2026-08-30 23:34:07 | 49.47037 | 17.28687 | 87° | 57km/h | 7665m | 7.6m/s | -24.8°C | 13.5% | 0hPa | 3.0V | 00:00:00 | 01:00:00 | 00:00:00 | |
| OE3OSB-13 | 2026-08-30 23:33:55 | 49.47005 | 17.28367 | 78° | 66km/h | 7572m | 7.2m/s | -24.2°C | 9.3% | -1.0hPa | 3.0V | 00:00:00 | 00:00:00 | 00:00:00 | |
| OE3OSB-13 | 2026-08-30 23:33:24 | 49.46905 | 17.27663 | 77° | 60km/h | 7348m | 8.8m/s | -22.6°C | 8.8% | -1.0hPa | 3.0V | 00:00:00 | 00:00:00 | 00:00:00 | |
| OE3OSB-13 | 2026-08-30 23:32:53 | 49.46823 | 17.26966 | 76° | 58km/h | 7123m | 7.4m/s | -20.8°C | 7.3% | -1.0hPa | 3.0V | 00:00:00 | 00:00:00 | 00:00:00 | |
| OE3OSB-13 | 2026-08-30 23:32:22 | 49.46717 | 17.26314 | 76° | 55km/h | 6898m | 6.9m/s | -19.0°C | 8.5% | -1.0hPa | 3.0V | 00:00:00 | 00:00:00 | 00:00:00 | |
| OE3OSB-13 | 2026-08-30 23:31:51 | 49.46605 | 17.25722 | 79° | 46km/h | 6672m | 6.8m/s | -17.2°C | 6.8% | -1.0hPa | 3.0V | 00:00:00 | 00:00:00 | 00:00:00 | |
| OE3OSB-13 | 2026-08-30 23:31:20 | 49.46511 | 17.25217 | 75° | 37km/h | 6447m | 6.9m/s | -15.4°C | 5.3% | -1.0hPa | 3.0V | 00:00:00 | 00:00:00 | 00:00:00 | |
| OE3OSB-13 | 2026-08-30 23:30:48 | 49.46369 | 17.24731 | 68° | 47km/h | 6222m | 6.8m/s | -13.9°C | 8.2% | -1.0hPa | 3.0V | 00:00:00 | 00:00:00 | 00:00:00 | |
| OE3OSB-13 | 2026-08-30 23:30:18 | 49.46239 | 17.24293 | 66° | 35km/h | 5998m | 7.4m/s | -12.4°C | 9.2% | -1.0hPa | 3.0V | 00:00:00 | 00:00:00 | 00:00:00 | |
| OE3OSB-13 | 2026-08-30 23:29:47 | 49.46131 | 17.23925 | 65° | 29km/h | 5783m | 7.3m/s | -10.7°C | 9.2% | -1.0hPa | 3.0V | 00:00:00 | 00:00:00 | 00:00:00 | |
| OE3OSB-13 | 2026-08-30 23:29:15 | 49.46041 | 17.23576 | 72° | 31km/h | 5573m | 6.3m/s | -8.7°C | 6.7% | -1.0hPa | 3.0V | 00:00:00 | 00:00:00 | 00:00:00 | |
| OE3JTB-15 | 2026-08-30 23:29:14 | 49.46038 | 17.23564 | 67° | 31km/h | 5566m | 6.7m/s | -8.6°C | 7.0% | 0hPa | 3.0V | 00:00:00 | 00:00:00 | 00:00:00 | |
| OE3OSB-13 | 2026-08-30 23:28:44 | 49.45957 | 17.23232 | 64° | 29km/h | 5365m | 7.9m/s | -7.0°C | 5.7% | -1.0hPa | 3.0V | 00:00:00 | 00:00:00 | 00:00:00 | |
| OE3JTB-15 | 2026-08-30 23:28:41 | 49.45947 | 17.23198 | 68° | 33km/h | 5345m | 6.2m/s | -6.8°C | 5.8% | 0hPa | 3.0V | 00:00:00 | 00:54:34 | 00:00:00 | |
| OE3OSB-13 | 2026-08-30 23:28:14 | 49.45858 | 17.22870 | 63° | 35km/h | 5164m | 6.0m/s | -5.4°C | 8.8% | -1.0hPa | 3.0V | 00:00:00 | 00:00:00 | 00:00:00 | |
| OE3JTB-15 | 2026-08-30 23:28:09 | 49.45842 | 17.22822 | 68° | 33km/h | 5138m | 6.6m/s | -5.2°C | 9.2% | 0hPa | 3.0V | 00:00:00 | 00:00:00 | 08:30:00 | |
| OE3OSB-13 | 2026-08-30 23:27:42 | 49.45777 | 17.22501 | 71° | 26km/h | 4960m | 7.5m/s | -3.7°C | 7.4% | -1.0hPa | 3.0V | 00:00:00 | 00:00:00 | 00:00:00 | |
| OE3JTB-15 | 2026-08-30 23:27:40 | 49.45773 | 17.22482 | 73° | 31km/h | 4948m | 5.0m/s | -3.6°C | 7.6% | 0hPa | 3.0V | 00:00:00 | 00:00:00 | 00:00:00 | |
| OE3JTB-15 | 2026-08-30 23:27:11 | 49.45716 | 17.22139 | 81° | 35km/h | 4757m | 7.4m/s | -3.0°C | 7.1% | 0hPa | 3.0V | 00:00:00 | 00:53:04 | 00:00:00 | |
| OE3JTB-15 | 2026-08-30 23:26:41 | 49.45642 | 17.21737 | 82° | 44km/h | 4556m | 6.2m/s | -2.2°C | 8.8% | 0hPa | 3.0V | 00:00:00 | 00:00:00 | 00:00:00 | |
| OE3OSB-13 | 2026-08-30 23:26:40 | 49.45641 | 17.21722 | 86° | 38km/h | 4550m | 5.9m/s | -2.2°C | 7.8% | -1.0hPa | 3.0V | 00:00:00 | 00:00:00 | 00:00:00 | |
| OM5KV | 2026-08-30 23:26:32 | 49.45635 | 17.21609 | 85° | 44km/h | 4503m | 7.1m/s | 0°C | 0% | 0hPa | 3.0V | 00:00:00 | 00:00:00 | 00:00:00 | |
| OM5KV | 2026-08-30 23:26:19 | 49.45626 | 17.21392 | 87° | 44km/h | 4412m | 7.1m/s | 0°C | 0% | 0hPa | 3.0V | 00:00:00 | 00:00:00 | 00:00:00 | |
| OE3OSB-13 | 2026-08-30 23:26:09 | 49.45602 | 17.21210 | 74° | 44km/h | 4335m | 6.7m/s | -0.9°C | 5.6% | -1.0hPa | 3.0V | 00:00:00 | 00:00:00 | 00:00:00 | |
| OE3JTB-15 | 2026-08-30 23:26:08 | 49.45599 | 17.21194 | 74° | 42km/h | 4328m | 6.8m/s | -0.8°C | 5.7% | 0hPa | 3.0V | 00:00:00 | 00:00:00 | 00:00:00 | |
| OE3OSB-13 | 2026-08-30 23:25:38 | 49.45529 | 17.20691 | 79° | 47km/h | 4104m | 7.5m/s | 0.5°C | 6.4% | -1.0hPa | 3.0V | 00:00:00 | 00:00:00 | 00:00:00 | |
| OE3JTB-15 | 2026-08-30 23:25:37 | 49.45529 | 17.20691 | 80° | 49km/h | 4104m | 7.4m/s | 0.5°C | 6.5% | 0hPa | 3.0V | 00:00:00 | 00:51:30 | 00:00:00 | |
| OE3JTB-15 | 2026-08-30 23:25:08 | 49.45505 | 17.20136 | 90° | 62km/h | 3892m | 8.5m/s | -0.9°C | 33.7% | 0hPa | 3.0V | 00:00:00 | 00:00:00 | 00:00:00 | |
| OE3OSB-13 | 2026-08-30 23:25:07 | 49.45505 | 17.20084 | 88° | 68km/h | 3877m | 5.7m/s | -1.9°C | 58.3% | -1.0hPa | 3.0V | 00:00:00 | 00:00:00 | 00:00:00 | |
| OE3JTB-15 | 2026-08-30 23:24:39 | 49.45539 | 17.19445 | 96° | 64km/h | 3679m | 7.3m/s | -0.7°C | 89.3% | 0hPa | 3.0V | 00:00:00 | 00:00:00 | 00:00:00 | |
| OE3OSB-13 | 2026-08-30 23:24:36 | 49.45547 | 17.19349 | 98° | 62km/h | 3650m | 7.0m/s | -0.5°C | -1.0% | -1.0hPa | 3.0V | 00:00:00 | 00:00:00 | 00:00:00 | |
| OE3JTB-15 | 2026-08-30 23:24:10 | 49.45588 | 17.18738 | 92° | 58km/h | 3479m | 6.8m/s | 0.8°C | 89.0% | 0hPa | 3.0V | 00:00:00 | 00:50:03 | 00:00:00 | |
| OE3JTB-15 | 2026-08-30 23:23:41 | 49.45603 | 17.18077 | 91° | 55km/h | 3295m | 6.3m/s | 2.3°C | 85.7% | 0hPa | 3.0V | 00:00:00 | 00:00:00 | 08:30:00 | |
| OE3JTB-15 | 2026-08-30 23:23:12 | 49.45611 | 17.17467 | 97° | 46km/h | 3124m | 5.4m/s | 3.3°C | 79.3% | 0hPa | 3.0V | 00:00:00 | 00:00:00 | 00:00:00 | |
| OE3JTB-15 | 2026-08-30 23:22:43 | 49.45637 | 17.16963 | 100° | 38km/h | 2955m | 6.3m/s | 4.7°C | 61.0% | 0hPa | 3.0V | 00:00:00 | 00:48:36 | 00:00:00 | |
| OE3JTB-15 | 2026-08-30 23:22:14 | 49.45638 | 17.16536 | 81° | 40km/h | 2780m | 5.4m/s | 5.6°C | 69.5% | 0hPa | 3.0V | 00:00:00 | 00:00:00 | 00:00:00 | |
| OE3JTB-15 | 2026-08-30 23:21:45 | 49.45568 | 17.16094 | 74° | 42km/h | 2604m | 5.4m/s | 7.2°C | 65.3% | 0hPa | 3.0V | 00:00:00 | 00:00:00 | 00:00:00 | |
| OE3JTB-15 | 2026-08-30 23:21:16 | 49.45504 | 17.15634 | 76° | 31km/h | 2423m | 5.2m/s | 8.4°C | 69.2% | 0hPa | 3.0V | 00:00:00 | 00:47:09 | 00:00:00 | |
| OE3JTB-15 | 2026-08-30 23:20:47 | 49.45445 | 17.15293 | 66° | 20km/h | 2238m | 6.4m/s | 9.4°C | 68.6% | 0hPa | 3.0V | 00:00:00 | 00:00:00 | 00:00:00 | |
| OE3JTB-15 | 2026-08-30 23:20:18 | 49.45381 | 17.15091 | 74° | 16km/h | 2053m | 6.6m/s | 11.0°C | 67.5% | 0hPa | 0V | 00:00:00 | 00:00:00 | 00:00:00 |